<?xml version="1.0" encoding="UTF-8" standalone="no" ?>
<gpx xmlns="http://www.topografix.com/GPX/1/1" xmlns:xsi="http://www.w3.org/2001/XMLSchema-instance" xsi:schemaLocation="http://www.topografix.com/GPX/1/1 http://www.topografix.com/GPX/1/1/gpx.xsd" version="1.1" creator="VisuGPX - https://www.visugpx.com">
  <metadata>
    <name>LOZERIENNE 08-05-2023</name>
  </metadata>
  <trk>
    <name><![CDATA[LOZERIENNE 08-05-2023]]></name>
    <trkseg>
      <trkpt lat="44.72321" lon="3.85546">
        <ele>918.79998779297</ele>
        <time>2023-05-08T07:02:22Z</time>
      </trkpt>
      <trkpt lat="44.72321" lon="3.85546">
        <ele>918.79998779297</ele>
        <time>2023-05-08T07:02:23Z</time>
      </trkpt>
      <trkpt lat="44.72291" lon="3.85532">
        <ele>921.20001220703</ele>
        <time>2023-05-08T07:03:43Z</time>
      </trkpt>
      <trkpt lat="44.72289" lon="3.85531">
        <ele>921.40002441406</ele>
        <time>2023-05-08T07:03:45Z</time>
      </trkpt>
      <trkpt lat="44.72283" lon="3.85532">
        <ele>921.40002441406</ele>
        <time>2023-05-08T07:03:49Z</time>
      </trkpt>
      <trkpt lat="44.72282" lon="3.85537">
        <ele>921.59997558594</ele>
        <time>2023-05-08T07:03:51Z</time>
      </trkpt>
      <trkpt lat="44.72284" lon="3.8554">
        <ele>921.40002441406</ele>
        <time>2023-05-08T07:03:53Z</time>
      </trkpt>
      <trkpt lat="44.72287" lon="3.85543">
        <ele>921.40002441406</ele>
        <time>2023-05-08T07:03:55Z</time>
      </trkpt>
      <trkpt lat="44.72297" lon="3.85555">
        <ele>921.79998779297</ele>
        <time>2023-05-08T07:04:02Z</time>
      </trkpt>
      <trkpt lat="44.72308" lon="3.85566">
        <ele>922.40002441406</ele>
        <time>2023-05-08T07:04:09Z</time>
      </trkpt>
      <trkpt lat="44.72322" lon="3.85583">
        <ele>922.79998779297</ele>
        <time>2023-05-08T07:04:17Z</time>
      </trkpt>
      <trkpt lat="44.72326" lon="3.85602">
        <ele>923.20001220703</ele>
        <time>2023-05-08T07:04:24Z</time>
      </trkpt>
      <trkpt lat="44.72323" lon="3.85617">
        <ele>923.40002441406</ele>
        <time>2023-05-08T07:04:29Z</time>
      </trkpt>
      <trkpt lat="44.72314" lon="3.85624">
        <ele>923.59997558594</ele>
        <time>2023-05-08T07:04:35Z</time>
      </trkpt>
      <trkpt lat="44.72302" lon="3.8562">
        <ele>923.59997558594</ele>
        <time>2023-05-08T07:04:41Z</time>
      </trkpt>
      <trkpt lat="44.72288" lon="3.85606">
        <ele>924</ele>
        <time>2023-05-08T07:04:48Z</time>
      </trkpt>
      <trkpt lat="44.72273" lon="3.85588">
        <ele>924.79998779297</ele>
        <time>2023-05-08T07:04:56Z</time>
      </trkpt>
      <trkpt lat="44.7226" lon="3.85575">
        <ele>925.40002441406</ele>
        <time>2023-05-08T07:05:02Z</time>
      </trkpt>
      <trkpt lat="44.72242" lon="3.85561">
        <ele>926</ele>
        <time>2023-05-08T07:05:10Z</time>
      </trkpt>
      <trkpt lat="44.7223" lon="3.85555">
        <ele>926.79998779297</ele>
        <time>2023-05-08T07:05:16Z</time>
      </trkpt>
      <trkpt lat="44.72213" lon="3.8555">
        <ele>927.79998779297</ele>
        <time>2023-05-08T07:05:24Z</time>
      </trkpt>
      <trkpt lat="44.72197" lon="3.85552">
        <ele>929.20001220703</ele>
        <time>2023-05-08T07:05:32Z</time>
      </trkpt>
      <trkpt lat="44.72181" lon="3.85553">
        <ele>930.40002441406</ele>
        <time>2023-05-08T07:05:40Z</time>
      </trkpt>
      <trkpt lat="44.72161" lon="3.85556">
        <ele>932</ele>
        <time>2023-05-08T07:05:50Z</time>
      </trkpt>
      <trkpt lat="44.72144" lon="3.85559">
        <ele>932.79998779297</ele>
        <time>2023-05-08T07:05:59Z</time>
      </trkpt>
      <trkpt lat="44.72129" lon="3.85566">
        <ele>933</ele>
        <time>2023-05-08T07:06:07Z</time>
      </trkpt>
      <trkpt lat="44.72117" lon="3.85572">
        <ele>933.79998779297</ele>
        <time>2023-05-08T07:06:14Z</time>
      </trkpt>
      <trkpt lat="44.721" lon="3.85578">
        <ele>934.20001220703</ele>
        <time>2023-05-08T07:06:23Z</time>
      </trkpt>
      <trkpt lat="44.72081" lon="3.85585">
        <ele>934.79998779297</ele>
        <time>2023-05-08T07:06:32Z</time>
      </trkpt>
      <trkpt lat="44.72063" lon="3.85585">
        <ele>934.79998779297</ele>
        <time>2023-05-08T07:06:40Z</time>
      </trkpt>
      <trkpt lat="44.72039" lon="3.85584">
        <ele>936</ele>
        <time>2023-05-08T07:06:49Z</time>
      </trkpt>
      <trkpt lat="44.72016" lon="3.85578">
        <ele>937.20001220703</ele>
        <time>2023-05-08T07:06:57Z</time>
      </trkpt>
      <trkpt lat="44.71989" lon="3.85578">
        <ele>938.79998779297</ele>
        <time>2023-05-08T07:07:06Z</time>
      </trkpt>
      <trkpt lat="44.71962" lon="3.85586">
        <ele>940.20001220703</ele>
        <time>2023-05-08T07:07:15Z</time>
      </trkpt>
      <trkpt lat="44.71937" lon="3.85596">
        <ele>941.40002441406</ele>
        <time>2023-05-08T07:07:24Z</time>
      </trkpt>
      <trkpt lat="44.71906" lon="3.85608">
        <ele>942.40002441406</ele>
        <time>2023-05-08T07:07:34Z</time>
      </trkpt>
      <trkpt lat="44.71875" lon="3.85612">
        <ele>943.40002441406</ele>
        <time>2023-05-08T07:07:44Z</time>
      </trkpt>
      <trkpt lat="44.71846" lon="3.8561">
        <ele>945</ele>
        <time>2023-05-08T07:07:53Z</time>
      </trkpt>
      <trkpt lat="44.7182" lon="3.85606">
        <ele>946.40002441406</ele>
        <time>2023-05-08T07:08:02Z</time>
      </trkpt>
      <trkpt lat="44.71795" lon="3.85603">
        <ele>947.79998779297</ele>
        <time>2023-05-08T07:08:11Z</time>
      </trkpt>
      <trkpt lat="44.71773" lon="3.85602">
        <ele>949.20001220703</ele>
        <time>2023-05-08T07:08:19Z</time>
      </trkpt>
      <trkpt lat="44.71743" lon="3.85599">
        <ele>950.79998779297</ele>
        <time>2023-05-08T07:08:30Z</time>
      </trkpt>
      <trkpt lat="44.71716" lon="3.85598">
        <ele>952.40002441406</ele>
        <time>2023-05-08T07:08:39Z</time>
      </trkpt>
      <trkpt lat="44.71679" lon="3.85599">
        <ele>953.59997558594</ele>
        <time>2023-05-08T07:08:50Z</time>
      </trkpt>
      <trkpt lat="44.71652" lon="3.856">
        <ele>954.59997558594</ele>
        <time>2023-05-08T07:08:58Z</time>
      </trkpt>
      <trkpt lat="44.71628" lon="3.85607">
        <ele>955.20001220703</ele>
        <time>2023-05-08T07:09:05Z</time>
      </trkpt>
      <trkpt lat="44.71592" lon="3.85618">
        <ele>956.20001220703</ele>
        <time>2023-05-08T07:09:15Z</time>
      </trkpt>
      <trkpt lat="44.7156" lon="3.85625">
        <ele>957.20001220703</ele>
        <time>2023-05-08T07:09:24Z</time>
      </trkpt>
      <trkpt lat="44.71522" lon="3.85632">
        <ele>958</ele>
        <time>2023-05-08T07:09:34Z</time>
      </trkpt>
      <trkpt lat="44.71489" lon="3.85636">
        <ele>958.79998779297</ele>
        <time>2023-05-08T07:09:42Z</time>
      </trkpt>
      <trkpt lat="44.71442" lon="3.85645">
        <ele>959.59997558594</ele>
        <time>2023-05-08T07:09:52Z</time>
      </trkpt>
      <trkpt lat="44.71397" lon="3.85657">
        <ele>960.20001220703</ele>
        <time>2023-05-08T07:10:01Z</time>
      </trkpt>
      <trkpt lat="44.71357" lon="3.85659">
        <ele>960.40002441406</ele>
        <time>2023-05-08T07:10:09Z</time>
      </trkpt>
      <trkpt lat="44.71329" lon="3.8566">
        <ele>960.79998779297</ele>
        <time>2023-05-08T07:10:15Z</time>
      </trkpt>
      <trkpt lat="44.7129" lon="3.85661">
        <ele>961.79998779297</ele>
        <time>2023-05-08T07:10:24Z</time>
      </trkpt>
      <trkpt lat="44.71258" lon="3.85663">
        <ele>962.59997558594</ele>
        <time>2023-05-08T07:10:33Z</time>
      </trkpt>
      <trkpt lat="44.71229" lon="3.85665">
        <ele>963.79998779297</ele>
        <time>2023-05-08T07:10:42Z</time>
      </trkpt>
      <trkpt lat="44.71204" lon="3.85665">
        <ele>964.79998779297</ele>
        <time>2023-05-08T07:10:51Z</time>
      </trkpt>
      <trkpt lat="44.71177" lon="3.85658">
        <ele>966</ele>
        <time>2023-05-08T07:11:00Z</time>
      </trkpt>
      <trkpt lat="44.71152" lon="3.8565">
        <ele>966.79998779297</ele>
        <time>2023-05-08T07:11:08Z</time>
      </trkpt>
      <trkpt lat="44.71118" lon="3.85648">
        <ele>967.59997558594</ele>
        <time>2023-05-08T07:11:16Z</time>
      </trkpt>
      <trkpt lat="44.71075" lon="3.85644">
        <ele>968</ele>
        <time>2023-05-08T07:11:24Z</time>
      </trkpt>
      <trkpt lat="44.71031" lon="3.85641">
        <ele>968.59997558594</ele>
        <time>2023-05-08T07:11:32Z</time>
      </trkpt>
      <trkpt lat="44.70976" lon="3.85646">
        <ele>969</ele>
        <time>2023-05-08T07:11:42Z</time>
      </trkpt>
      <trkpt lat="44.7097" lon="3.85648">
        <ele>969</ele>
        <time>2023-05-08T07:11:43Z</time>
      </trkpt>
      <trkpt lat="44.70926" lon="3.85658">
        <ele>969</ele>
        <time>2023-05-08T07:11:51Z</time>
      </trkpt>
      <trkpt lat="44.70887" lon="3.85667">
        <ele>969</ele>
        <time>2023-05-08T07:11:59Z</time>
      </trkpt>
      <trkpt lat="44.70879" lon="3.85668">
        <ele>969</ele>
        <time>2023-05-08T07:12:01Z</time>
      </trkpt>
      <trkpt lat="44.70862" lon="3.85672">
        <ele>969</ele>
        <time>2023-05-08T07:12:05Z</time>
      </trkpt>
      <trkpt lat="44.70838" lon="3.85678">
        <ele>969</ele>
        <time>2023-05-08T07:12:11Z</time>
      </trkpt>
      <trkpt lat="44.7081" lon="3.85682">
        <ele>968.40002441406</ele>
        <time>2023-05-08T07:12:19Z</time>
      </trkpt>
      <trkpt lat="44.70781" lon="3.85691">
        <ele>967.79998779297</ele>
        <time>2023-05-08T07:12:27Z</time>
      </trkpt>
      <trkpt lat="44.70752" lon="3.85698">
        <ele>967.59997558594</ele>
        <time>2023-05-08T07:12:35Z</time>
      </trkpt>
      <trkpt lat="44.70733" lon="3.85699">
        <ele>967.20001220703</ele>
        <time>2023-05-08T07:12:39Z</time>
      </trkpt>
      <trkpt lat="44.70718" lon="3.85697">
        <ele>967</ele>
        <time>2023-05-08T07:12:42Z</time>
      </trkpt>
      <trkpt lat="44.70682" lon="3.85689">
        <ele>966.79998779297</ele>
        <time>2023-05-08T07:12:49Z</time>
      </trkpt>
      <trkpt lat="44.70662" lon="3.85681">
        <ele>966.79998779297</ele>
        <time>2023-05-08T07:12:52Z</time>
      </trkpt>
      <trkpt lat="44.70655" lon="3.85677">
        <ele>966.59997558594</ele>
        <time>2023-05-08T07:12:53Z</time>
      </trkpt>
      <trkpt lat="44.70619" lon="3.85654">
        <ele>966.40002441406</ele>
        <time>2023-05-08T07:12:58Z</time>
      </trkpt>
      <trkpt lat="44.70605" lon="3.85647">
        <ele>966.40002441406</ele>
        <time>2023-05-08T07:13:00Z</time>
      </trkpt>
      <trkpt lat="44.70591" lon="3.85647">
        <ele>966.59997558594</ele>
        <time>2023-05-08T07:13:02Z</time>
      </trkpt>
      <trkpt lat="44.70556" lon="3.85656">
        <ele>967</ele>
        <time>2023-05-08T07:13:08Z</time>
      </trkpt>
      <trkpt lat="44.70523" lon="3.85665">
        <ele>966.59997558594</ele>
        <time>2023-05-08T07:13:15Z</time>
      </trkpt>
      <trkpt lat="44.70518" lon="3.85666">
        <ele>966.59997558594</ele>
        <time>2023-05-08T07:13:16Z</time>
      </trkpt>
      <trkpt lat="44.70499" lon="3.8567">
        <ele>966.59997558594</ele>
        <time>2023-05-08T07:13:20Z</time>
      </trkpt>
      <trkpt lat="44.70465" lon="3.85675">
        <ele>966.59997558594</ele>
        <time>2023-05-08T07:13:28Z</time>
      </trkpt>
      <trkpt lat="44.70444" lon="3.85677">
        <ele>967</ele>
        <time>2023-05-08T07:13:34Z</time>
      </trkpt>
      <trkpt lat="44.70424" lon="3.85676">
        <ele>967.79998779297</ele>
        <time>2023-05-08T07:13:41Z</time>
      </trkpt>
      <trkpt lat="44.7041" lon="3.85677">
        <ele>968.40002441406</ele>
        <time>2023-05-08T07:13:47Z</time>
      </trkpt>
      <trkpt lat="44.70394" lon="3.85677">
        <ele>969</ele>
        <time>2023-05-08T07:13:54Z</time>
      </trkpt>
      <trkpt lat="44.70373" lon="3.85677">
        <ele>970</ele>
        <time>2023-05-08T07:14:04Z</time>
      </trkpt>
      <trkpt lat="44.70353" lon="3.85682">
        <ele>971.40002441406</ele>
        <time>2023-05-08T07:14:12Z</time>
      </trkpt>
      <trkpt lat="44.70332" lon="3.85686">
        <ele>973</ele>
        <time>2023-05-08T07:14:20Z</time>
      </trkpt>
      <trkpt lat="44.70307" lon="3.85696">
        <ele>974.59997558594</ele>
        <time>2023-05-08T07:14:29Z</time>
      </trkpt>
      <trkpt lat="44.70283" lon="3.85705">
        <ele>976.20001220703</ele>
        <time>2023-05-08T07:14:38Z</time>
      </trkpt>
      <trkpt lat="44.7026" lon="3.85714">
        <ele>977.79998779297</ele>
        <time>2023-05-08T07:14:47Z</time>
      </trkpt>
      <trkpt lat="44.70244" lon="3.85721">
        <ele>979.40002441406</ele>
        <time>2023-05-08T07:14:55Z</time>
      </trkpt>
      <trkpt lat="44.70232" lon="3.85725">
        <ele>980</ele>
        <time>2023-05-08T07:15:01Z</time>
      </trkpt>
      <trkpt lat="44.70218" lon="3.8573">
        <ele>981.20001220703</ele>
        <time>2023-05-08T07:15:09Z</time>
      </trkpt>
      <trkpt lat="44.70201" lon="3.85736">
        <ele>982.79998779297</ele>
        <time>2023-05-08T07:15:17Z</time>
      </trkpt>
      <trkpt lat="44.70184" lon="3.85742">
        <ele>984.40002441406</ele>
        <time>2023-05-08T07:15:25Z</time>
      </trkpt>
      <trkpt lat="44.70164" lon="3.8575">
        <ele>985.79998779297</ele>
        <time>2023-05-08T07:15:34Z</time>
      </trkpt>
      <trkpt lat="44.70147" lon="3.85756">
        <ele>987.20001220703</ele>
        <time>2023-05-08T07:15:42Z</time>
      </trkpt>
      <trkpt lat="44.70121" lon="3.85766">
        <ele>989.20001220703</ele>
        <time>2023-05-08T07:15:53Z</time>
      </trkpt>
      <trkpt lat="44.70107" lon="3.85771">
        <ele>990.20001220703</ele>
        <time>2023-05-08T07:15:59Z</time>
      </trkpt>
      <trkpt lat="44.70084" lon="3.85777">
        <ele>991.59997558594</ele>
        <time>2023-05-08T07:16:09Z</time>
      </trkpt>
      <trkpt lat="44.70059" lon="3.85782">
        <ele>993</ele>
        <time>2023-05-08T07:16:18Z</time>
      </trkpt>
      <trkpt lat="44.70025" lon="3.85789">
        <ele>994.59997558594</ele>
        <time>2023-05-08T07:16:29Z</time>
      </trkpt>
      <trkpt lat="44.69997" lon="3.85795">
        <ele>995.79998779297</ele>
        <time>2023-05-08T07:16:37Z</time>
      </trkpt>
      <trkpt lat="44.69961" lon="3.85805">
        <ele>997</ele>
        <time>2023-05-08T07:16:47Z</time>
      </trkpt>
      <trkpt lat="44.69931" lon="3.85814">
        <ele>998</ele>
        <time>2023-05-08T07:16:55Z</time>
      </trkpt>
      <trkpt lat="44.69902" lon="3.85829">
        <ele>998.79998779297</ele>
        <time>2023-05-08T07:17:03Z</time>
      </trkpt>
      <trkpt lat="44.69864" lon="3.8585">
        <ele>999.20001220703</ele>
        <time>2023-05-08T07:17:13Z</time>
      </trkpt>
      <trkpt lat="44.69832" lon="3.85867">
        <ele>999.79998779297</ele>
        <time>2023-05-08T07:17:21Z</time>
      </trkpt>
      <trkpt lat="44.698" lon="3.85886">
        <ele>1000.200012207</ele>
        <time>2023-05-08T07:17:29Z</time>
      </trkpt>
      <trkpt lat="44.69774" lon="3.85902">
        <ele>1000.799987793</ele>
        <time>2023-05-08T07:17:36Z</time>
      </trkpt>
      <trkpt lat="44.69739" lon="3.85926">
        <ele>1002.200012207</ele>
        <time>2023-05-08T07:17:46Z</time>
      </trkpt>
      <trkpt lat="44.69701" lon="3.85953">
        <ele>1003.200012207</ele>
        <time>2023-05-08T07:17:57Z</time>
      </trkpt>
      <trkpt lat="44.69676" lon="3.85965">
        <ele>1004</ele>
        <time>2023-05-08T07:18:04Z</time>
      </trkpt>
      <trkpt lat="44.69647" lon="3.85971">
        <ele>1004.5999755859</ele>
        <time>2023-05-08T07:18:12Z</time>
      </trkpt>
      <trkpt lat="44.69617" lon="3.85969">
        <ele>1005.4000244141</ele>
        <time>2023-05-08T07:18:20Z</time>
      </trkpt>
      <trkpt lat="44.6959" lon="3.85964">
        <ele>1005.799987793</ele>
        <time>2023-05-08T07:18:27Z</time>
      </trkpt>
      <trkpt lat="44.69563" lon="3.85959">
        <ele>1006.4000244141</ele>
        <time>2023-05-08T07:18:34Z</time>
      </trkpt>
      <trkpt lat="44.6954" lon="3.85955">
        <ele>1006.799987793</ele>
        <time>2023-05-08T07:18:40Z</time>
      </trkpt>
      <trkpt lat="44.69506" lon="3.85948">
        <ele>1007.4000244141</ele>
        <time>2023-05-08T07:18:49Z</time>
      </trkpt>
      <trkpt lat="44.69482" lon="3.85944">
        <ele>1008</ele>
        <time>2023-05-08T07:18:55Z</time>
      </trkpt>
      <trkpt lat="44.69455" lon="3.85938">
        <ele>1008.200012207</ele>
        <time>2023-05-08T07:19:02Z</time>
      </trkpt>
      <trkpt lat="44.69437" lon="3.85931">
        <ele>1008.200012207</ele>
        <time>2023-05-08T07:19:06Z</time>
      </trkpt>
      <trkpt lat="44.69429" lon="3.85926">
        <ele>1008.200012207</ele>
        <time>2023-05-08T07:19:08Z</time>
      </trkpt>
      <trkpt lat="44.69415" lon="3.85917">
        <ele>1008</ele>
        <time>2023-05-08T07:19:11Z</time>
      </trkpt>
      <trkpt lat="44.69404" lon="3.85913">
        <ele>1008</ele>
        <time>2023-05-08T07:19:13Z</time>
      </trkpt>
      <trkpt lat="44.6937" lon="3.85913">
        <ele>1007.5999755859</ele>
        <time>2023-05-08T07:19:18Z</time>
      </trkpt>
      <trkpt lat="44.69364" lon="3.85915">
        <ele>1007.4000244141</ele>
        <time>2023-05-08T07:19:19Z</time>
      </trkpt>
      <trkpt lat="44.69349" lon="3.85922">
        <ele>1007</ele>
        <time>2023-05-08T07:19:21Z</time>
      </trkpt>
      <trkpt lat="44.69334" lon="3.85929">
        <ele>1006.799987793</ele>
        <time>2023-05-08T07:19:23Z</time>
      </trkpt>
      <trkpt lat="44.6932" lon="3.85929">
        <ele>1006.4000244141</ele>
        <time>2023-05-08T07:19:25Z</time>
      </trkpt>
      <trkpt lat="44.69308" lon="3.85918">
        <ele>1006</ele>
        <time>2023-05-08T07:19:27Z</time>
      </trkpt>
      <trkpt lat="44.69304" lon="3.85911">
        <ele>1005.799987793</ele>
        <time>2023-05-08T07:19:28Z</time>
      </trkpt>
      <trkpt lat="44.69301" lon="3.85903">
        <ele>1005.5999755859</ele>
        <time>2023-05-08T07:19:29Z</time>
      </trkpt>
      <trkpt lat="44.69296" lon="3.85885">
        <ele>1005</ele>
        <time>2023-05-08T07:19:31Z</time>
      </trkpt>
      <trkpt lat="44.69289" lon="3.85852">
        <ele>1003.5999755859</ele>
        <time>2023-05-08T07:19:35Z</time>
      </trkpt>
      <trkpt lat="44.6928" lon="3.8584">
        <ele>1002</ele>
        <time>2023-05-08T07:19:38Z</time>
      </trkpt>
      <trkpt lat="44.69271" lon="3.85839">
        <ele>1001</ele>
        <time>2023-05-08T07:19:40Z</time>
      </trkpt>
      <trkpt lat="44.69266" lon="3.8584">
        <ele>1000.5999755859</ele>
        <time>2023-05-08T07:19:41Z</time>
      </trkpt>
      <trkpt lat="44.6926" lon="3.85844">
        <ele>1000</ele>
        <time>2023-05-08T07:19:42Z</time>
      </trkpt>
      <trkpt lat="44.69256" lon="3.85851">
        <ele>999.59997558594</ele>
        <time>2023-05-08T07:19:43Z</time>
      </trkpt>
      <trkpt lat="44.69254" lon="3.8586">
        <ele>999</ele>
        <time>2023-05-08T07:19:44Z</time>
      </trkpt>
      <trkpt lat="44.69248" lon="3.85879">
        <ele>997.79998779297</ele>
        <time>2023-05-08T07:19:46Z</time>
      </trkpt>
      <trkpt lat="44.69243" lon="3.85888">
        <ele>997.40002441406</ele>
        <time>2023-05-08T07:19:47Z</time>
      </trkpt>
      <trkpt lat="44.69238" lon="3.85896">
        <ele>997</ele>
        <time>2023-05-08T07:19:48Z</time>
      </trkpt>
      <trkpt lat="44.69231" lon="3.85913">
        <ele>996.59997558594</ele>
        <time>2023-05-08T07:19:50Z</time>
      </trkpt>
      <trkpt lat="44.69229" lon="3.85928">
        <ele>996</ele>
        <time>2023-05-08T07:19:53Z</time>
      </trkpt>
      <trkpt lat="44.69229" lon="3.8595">
        <ele>995.20001220703</ele>
        <time>2023-05-08T07:20:01Z</time>
      </trkpt>
      <trkpt lat="44.69228" lon="3.85966">
        <ele>994.79998779297</ele>
        <time>2023-05-08T07:20:08Z</time>
      </trkpt>
      <trkpt lat="44.69226" lon="3.85977">
        <ele>994.59997558594</ele>
        <time>2023-05-08T07:20:13Z</time>
      </trkpt>
      <trkpt lat="44.69226" lon="3.85987">
        <ele>994.20001220703</ele>
        <time>2023-05-08T07:20:17Z</time>
      </trkpt>
      <trkpt lat="44.69227" lon="3.85991">
        <ele>994</ele>
        <time>2023-05-08T07:20:19Z</time>
      </trkpt>
      <trkpt lat="44.69228" lon="3.86001">
        <ele>994</ele>
        <time>2023-05-08T07:20:23Z</time>
      </trkpt>
      <trkpt lat="44.6923" lon="3.86017">
        <ele>994.20001220703</ele>
        <time>2023-05-08T07:20:30Z</time>
      </trkpt>
      <trkpt lat="44.69233" lon="3.86029">
        <ele>993.79998779297</ele>
        <time>2023-05-08T07:20:35Z</time>
      </trkpt>
      <trkpt lat="44.69233" lon="3.86032">
        <ele>993.79998779297</ele>
        <time>2023-05-08T07:20:37Z</time>
      </trkpt>
      <trkpt lat="44.69236" lon="3.86039">
        <ele>993.79998779297</ele>
        <time>2023-05-08T07:20:40Z</time>
      </trkpt>
      <trkpt lat="44.69236" lon="3.86043">
        <ele>993.79998779297</ele>
        <time>2023-05-08T07:20:42Z</time>
      </trkpt>
      <trkpt lat="44.69237" lon="3.86047">
        <ele>993.79998779297</ele>
        <time>2023-05-08T07:20:44Z</time>
      </trkpt>
      <trkpt lat="44.69238" lon="3.86056">
        <ele>993.79998779297</ele>
        <time>2023-05-08T07:20:48Z</time>
      </trkpt>
      <trkpt lat="44.69238" lon="3.86059">
        <ele>993.79998779297</ele>
        <time>2023-05-08T07:20:50Z</time>
      </trkpt>
      <trkpt lat="44.6924" lon="3.86076">
        <ele>993.79998779297</ele>
        <time>2023-05-08T07:20:57Z</time>
      </trkpt>
      <trkpt lat="44.69242" lon="3.86078">
        <ele>993.79998779297</ele>
        <time>2023-05-08T07:20:58Z</time>
      </trkpt>
      <trkpt lat="44.69244" lon="3.86082">
        <ele>993.79998779297</ele>
        <time>2023-05-08T07:21:00Z</time>
      </trkpt>
      <trkpt lat="44.69244" lon="3.86095">
        <ele>994.20001220703</ele>
        <time>2023-05-08T07:21:04Z</time>
      </trkpt>
      <trkpt lat="44.69245" lon="3.86109">
        <ele>994.79998779297</ele>
        <time>2023-05-08T07:21:08Z</time>
      </trkpt>
      <trkpt lat="44.69244" lon="3.86113">
        <ele>995</ele>
        <time>2023-05-08T07:21:09Z</time>
      </trkpt>
      <trkpt lat="44.69243" lon="3.86119">
        <ele>995</ele>
        <time>2023-05-08T07:21:11Z</time>
      </trkpt>
      <trkpt lat="44.69243" lon="3.86129">
        <ele>995</ele>
        <time>2023-05-08T07:21:14Z</time>
      </trkpt>
      <trkpt lat="44.69243" lon="3.86145">
        <ele>995.40002441406</ele>
        <time>2023-05-08T07:21:19Z</time>
      </trkpt>
      <trkpt lat="44.69242" lon="3.86152">
        <ele>995.40002441406</ele>
        <time>2023-05-08T07:21:21Z</time>
      </trkpt>
      <trkpt lat="44.69241" lon="3.86158">
        <ele>995.40002441406</ele>
        <time>2023-05-08T07:21:23Z</time>
      </trkpt>
      <trkpt lat="44.69239" lon="3.86177">
        <ele>996</ele>
        <time>2023-05-08T07:21:28Z</time>
      </trkpt>
      <trkpt lat="44.69237" lon="3.86191">
        <ele>996.40002441406</ele>
        <time>2023-05-08T07:21:32Z</time>
      </trkpt>
      <trkpt lat="44.69237" lon="3.86194">
        <ele>996.40002441406</ele>
        <time>2023-05-08T07:21:33Z</time>
      </trkpt>
      <trkpt lat="44.69236" lon="3.86201">
        <ele>996.59997558594</ele>
        <time>2023-05-08T07:21:35Z</time>
      </trkpt>
      <trkpt lat="44.6923" lon="3.8622">
        <ele>997</ele>
        <time>2023-05-08T07:21:40Z</time>
      </trkpt>
      <trkpt lat="44.69224" lon="3.86233">
        <ele>997.40002441406</ele>
        <time>2023-05-08T07:21:44Z</time>
      </trkpt>
      <trkpt lat="44.69219" lon="3.86242">
        <ele>997.59997558594</ele>
        <time>2023-05-08T07:21:47Z</time>
      </trkpt>
      <trkpt lat="44.69216" lon="3.86248">
        <ele>997.79998779297</ele>
        <time>2023-05-08T07:21:49Z</time>
      </trkpt>
      <trkpt lat="44.69209" lon="3.86262">
        <ele>998</ele>
        <time>2023-05-08T07:21:53Z</time>
      </trkpt>
      <trkpt lat="44.69202" lon="3.86277">
        <ele>998.59997558594</ele>
        <time>2023-05-08T07:21:58Z</time>
      </trkpt>
      <trkpt lat="44.69197" lon="3.86299">
        <ele>998.79998779297</ele>
        <time>2023-05-08T07:22:05Z</time>
      </trkpt>
      <trkpt lat="44.69197" lon="3.86317">
        <ele>999.20001220703</ele>
        <time>2023-05-08T07:22:10Z</time>
      </trkpt>
      <trkpt lat="44.692" lon="3.86334">
        <ele>1000.200012207</ele>
        <time>2023-05-08T07:22:15Z</time>
      </trkpt>
      <trkpt lat="44.69195" lon="3.86343">
        <ele>1000.799987793</ele>
        <time>2023-05-08T07:22:20Z</time>
      </trkpt>
      <trkpt lat="44.69189" lon="3.86342">
        <ele>1001.5999755859</ele>
        <time>2023-05-08T07:22:26Z</time>
      </trkpt>
      <trkpt lat="44.69182" lon="3.86342">
        <ele>1003</ele>
        <time>2023-05-08T07:22:33Z</time>
      </trkpt>
      <trkpt lat="44.6918" lon="3.86342">
        <ele>1003.4000244141</ele>
        <time>2023-05-08T07:22:36Z</time>
      </trkpt>
      <trkpt lat="44.69162" lon="3.86337">
        <ele>1008</ele>
        <time>2023-05-08T07:22:59Z</time>
      </trkpt>
      <trkpt lat="44.69154" lon="3.8633">
        <ele>1009.5999755859</ele>
        <time>2023-05-08T07:23:07Z</time>
      </trkpt>
      <trkpt lat="44.69147" lon="3.86319">
        <ele>1011</ele>
        <time>2023-05-08T07:23:14Z</time>
      </trkpt>
      <trkpt lat="44.6914" lon="3.86308">
        <ele>1012.5999755859</ele>
        <time>2023-05-08T07:23:22Z</time>
      </trkpt>
      <trkpt lat="44.69134" lon="3.86296">
        <ele>1014</ele>
        <time>2023-05-08T07:23:30Z</time>
      </trkpt>
      <trkpt lat="44.69128" lon="3.86282">
        <ele>1015.4000244141</ele>
        <time>2023-05-08T07:23:38Z</time>
      </trkpt>
      <trkpt lat="44.69124" lon="3.86273">
        <ele>1016.5999755859</ele>
        <time>2023-05-08T07:23:44Z</time>
      </trkpt>
      <trkpt lat="44.69124" lon="3.86272">
        <ele>1016.799987793</ele>
        <time>2023-05-08T07:23:45Z</time>
      </trkpt>
      <trkpt lat="44.6912" lon="3.86262">
        <ele>1018</ele>
        <time>2023-05-08T07:23:51Z</time>
      </trkpt>
      <trkpt lat="44.69119" lon="3.86259">
        <ele>1018.5999755859</ele>
        <time>2023-05-08T07:23:53Z</time>
      </trkpt>
      <trkpt lat="44.69117" lon="3.86252">
        <ele>1019.200012207</ele>
        <time>2023-05-08T07:23:57Z</time>
      </trkpt>
      <trkpt lat="44.69115" lon="3.86249">
        <ele>1019.4000244141</ele>
        <time>2023-05-08T07:23:59Z</time>
      </trkpt>
      <trkpt lat="44.6911" lon="3.86236">
        <ele>1020.5999755859</ele>
        <time>2023-05-08T07:24:06Z</time>
      </trkpt>
      <trkpt lat="44.6911" lon="3.86233">
        <ele>1020.799987793</ele>
        <time>2023-05-08T07:24:08Z</time>
      </trkpt>
      <trkpt lat="44.69109" lon="3.86226">
        <ele>1021.4000244141</ele>
        <time>2023-05-08T07:24:11Z</time>
      </trkpt>
      <trkpt lat="44.69105" lon="3.86217">
        <ele>1022</ele>
        <time>2023-05-08T07:24:16Z</time>
      </trkpt>
      <trkpt lat="44.69104" lon="3.86216">
        <ele>1022</ele>
        <time>2023-05-08T07:24:17Z</time>
      </trkpt>
      <trkpt lat="44.69097" lon="3.86205">
        <ele>1022.5999755859</ele>
        <time>2023-05-08T07:24:23Z</time>
      </trkpt>
      <trkpt lat="44.69093" lon="3.86195">
        <ele>1023.200012207</ele>
        <time>2023-05-08T07:24:28Z</time>
      </trkpt>
      <trkpt lat="44.69093" lon="3.86193">
        <ele>1023.4000244141</ele>
        <time>2023-05-08T07:24:29Z</time>
      </trkpt>
      <trkpt lat="44.69088" lon="3.86178">
        <ele>1023.5999755859</ele>
        <time>2023-05-08T07:24:36Z</time>
      </trkpt>
      <trkpt lat="44.69086" lon="3.86175">
        <ele>1023.5999755859</ele>
        <time>2023-05-08T07:24:38Z</time>
      </trkpt>
      <trkpt lat="44.69086" lon="3.86172">
        <ele>1023.5999755859</ele>
        <time>2023-05-08T07:24:40Z</time>
      </trkpt>
      <trkpt lat="44.69085" lon="3.8617">
        <ele>1023.4000244141</ele>
        <time>2023-05-08T07:24:41Z</time>
      </trkpt>
      <trkpt lat="44.69083" lon="3.86162">
        <ele>1023</ele>
        <time>2023-05-08T07:24:46Z</time>
      </trkpt>
      <trkpt lat="44.69083" lon="3.86159">
        <ele>1022.799987793</ele>
        <time>2023-05-08T07:24:48Z</time>
      </trkpt>
      <trkpt lat="44.69082" lon="3.8615">
        <ele>1022.4000244141</ele>
        <time>2023-05-08T07:24:51Z</time>
      </trkpt>
      <trkpt lat="44.69079" lon="3.86143">
        <ele>1022</ele>
        <time>2023-05-08T07:24:55Z</time>
      </trkpt>
      <trkpt lat="44.69077" lon="3.86136">
        <ele>1021.200012207</ele>
        <time>2023-05-08T07:24:58Z</time>
      </trkpt>
      <trkpt lat="44.69074" lon="3.86122">
        <ele>1020.200012207</ele>
        <time>2023-05-08T07:25:03Z</time>
      </trkpt>
      <trkpt lat="44.6907" lon="3.86111">
        <ele>1020</ele>
        <time>2023-05-08T07:25:07Z</time>
      </trkpt>
      <trkpt lat="44.69069" lon="3.86108">
        <ele>1020</ele>
        <time>2023-05-08T07:25:08Z</time>
      </trkpt>
      <trkpt lat="44.69069" lon="3.86105">
        <ele>1020.200012207</ele>
        <time>2023-05-08T07:25:09Z</time>
      </trkpt>
      <trkpt lat="44.69065" lon="3.86096">
        <ele>1020</ele>
        <time>2023-05-08T07:25:13Z</time>
      </trkpt>
      <trkpt lat="44.69061" lon="3.86089">
        <ele>1020.4000244141</ele>
        <time>2023-05-08T07:25:16Z</time>
      </trkpt>
      <trkpt lat="44.6906" lon="3.86088">
        <ele>1020.200012207</ele>
        <time>2023-05-08T07:25:17Z</time>
      </trkpt>
      <trkpt lat="44.69057" lon="3.86086">
        <ele>1020</ele>
        <time>2023-05-08T07:25:19Z</time>
      </trkpt>
      <trkpt lat="44.69055" lon="3.86082">
        <ele>1019.799987793</ele>
        <time>2023-05-08T07:25:20Z</time>
      </trkpt>
      <trkpt lat="44.69053" lon="3.86077">
        <ele>1019.5999755859</ele>
        <time>2023-05-08T07:25:22Z</time>
      </trkpt>
      <trkpt lat="44.69048" lon="3.8607">
        <ele>1019.200012207</ele>
        <time>2023-05-08T07:25:25Z</time>
      </trkpt>
      <trkpt lat="44.6904" lon="3.86055">
        <ele>1018.4000244141</ele>
        <time>2023-05-08T07:25:29Z</time>
      </trkpt>
      <trkpt lat="44.69039" lon="3.86055">
        <ele>1018.4000244141</ele>
        <time>2023-05-08T07:25:30Z</time>
      </trkpt>
      <trkpt lat="44.69033" lon="3.86048">
        <ele>1018.200012207</ele>
        <time>2023-05-08T07:25:33Z</time>
      </trkpt>
      <trkpt lat="44.69026" lon="3.86036">
        <ele>1018.200012207</ele>
        <time>2023-05-08T07:25:37Z</time>
      </trkpt>
      <trkpt lat="44.69024" lon="3.86033">
        <ele>1018</ele>
        <time>2023-05-08T07:25:38Z</time>
      </trkpt>
      <trkpt lat="44.69021" lon="3.86029">
        <ele>1018</ele>
        <time>2023-05-08T07:25:40Z</time>
      </trkpt>
      <trkpt lat="44.69017" lon="3.86024">
        <ele>1017.799987793</ele>
        <time>2023-05-08T07:25:43Z</time>
      </trkpt>
      <trkpt lat="44.69005" lon="3.86013">
        <ele>1018.200012207</ele>
        <time>2023-05-08T07:25:48Z</time>
      </trkpt>
      <trkpt lat="44.69001" lon="3.86008">
        <ele>1018.5999755859</ele>
        <time>2023-05-08T07:25:50Z</time>
      </trkpt>
      <trkpt lat="44.68993" lon="3.86002">
        <ele>1018.799987793</ele>
        <time>2023-05-08T07:25:53Z</time>
      </trkpt>
      <trkpt lat="44.68983" lon="3.85997">
        <ele>1019</ele>
        <time>2023-05-08T07:25:57Z</time>
      </trkpt>
      <trkpt lat="44.68966" lon="3.85992">
        <ele>1019.4000244141</ele>
        <time>2023-05-08T07:26:03Z</time>
      </trkpt>
      <trkpt lat="44.6896" lon="3.85988">
        <ele>1019.4000244141</ele>
        <time>2023-05-08T07:26:06Z</time>
      </trkpt>
      <trkpt lat="44.68955" lon="3.85989">
        <ele>1019.799987793</ele>
        <time>2023-05-08T07:26:08Z</time>
      </trkpt>
      <trkpt lat="44.68951" lon="3.85986">
        <ele>1020.200012207</ele>
        <time>2023-05-08T07:26:10Z</time>
      </trkpt>
      <trkpt lat="44.68947" lon="3.85984">
        <ele>1020.5999755859</ele>
        <time>2023-05-08T07:26:12Z</time>
      </trkpt>
      <trkpt lat="44.68935" lon="3.85984">
        <ele>1021.200012207</ele>
        <time>2023-05-08T07:26:16Z</time>
      </trkpt>
      <trkpt lat="44.68932" lon="3.85983">
        <ele>1021.4000244141</ele>
        <time>2023-05-08T07:26:17Z</time>
      </trkpt>
      <trkpt lat="44.68929" lon="3.85983">
        <ele>1021.4000244141</ele>
        <time>2023-05-08T07:26:18Z</time>
      </trkpt>
      <trkpt lat="44.68922" lon="3.85981">
        <ele>1021.799987793</ele>
        <time>2023-05-08T07:26:21Z</time>
      </trkpt>
      <trkpt lat="44.68911" lon="3.85979">
        <ele>1022.799987793</ele>
        <time>2023-05-08T07:26:26Z</time>
      </trkpt>
      <trkpt lat="44.689" lon="3.85981">
        <ele>1023.200012207</ele>
        <time>2023-05-08T07:26:30Z</time>
      </trkpt>
      <trkpt lat="44.68898" lon="3.85981">
        <ele>1023.200012207</ele>
        <time>2023-05-08T07:26:31Z</time>
      </trkpt>
      <trkpt lat="44.68892" lon="3.8598">
        <ele>1023.4000244141</ele>
        <time>2023-05-08T07:26:33Z</time>
      </trkpt>
      <trkpt lat="44.68884" lon="3.85975">
        <ele>1023.799987793</ele>
        <time>2023-05-08T07:26:36Z</time>
      </trkpt>
      <trkpt lat="44.6887" lon="3.85974">
        <ele>1024.5999755859</ele>
        <time>2023-05-08T07:26:41Z</time>
      </trkpt>
      <trkpt lat="44.68867" lon="3.85975">
        <ele>1025</ele>
        <time>2023-05-08T07:26:43Z</time>
      </trkpt>
      <trkpt lat="44.68861" lon="3.85979">
        <ele>1025.1999511719</ele>
        <time>2023-05-08T07:26:46Z</time>
      </trkpt>
      <trkpt lat="44.68851" lon="3.85983">
        <ele>1025.5999755859</ele>
        <time>2023-05-08T07:26:51Z</time>
      </trkpt>
      <trkpt lat="44.68849" lon="3.85983">
        <ele>1025.5999755859</ele>
        <time>2023-05-08T07:26:52Z</time>
      </trkpt>
      <trkpt lat="44.68843" lon="3.85984">
        <ele>1026</ele>
        <time>2023-05-08T07:26:55Z</time>
      </trkpt>
      <trkpt lat="44.68835" lon="3.85989">
        <ele>1026.1999511719</ele>
        <time>2023-05-08T07:26:59Z</time>
      </trkpt>
      <trkpt lat="44.68825" lon="3.85993">
        <ele>1026.1999511719</ele>
        <time>2023-05-08T07:27:04Z</time>
      </trkpt>
      <trkpt lat="44.68818" lon="3.85996">
        <ele>1026.1999511719</ele>
        <time>2023-05-08T07:27:07Z</time>
      </trkpt>
      <trkpt lat="44.68803" lon="3.85998">
        <ele>1026.4000244141</ele>
        <time>2023-05-08T07:27:13Z</time>
      </trkpt>
      <trkpt lat="44.68788" lon="3.85995">
        <ele>1027.1999511719</ele>
        <time>2023-05-08T07:27:18Z</time>
      </trkpt>
      <trkpt lat="44.68775" lon="3.85995">
        <ele>1027.8000488281</ele>
        <time>2023-05-08T07:27:22Z</time>
      </trkpt>
      <trkpt lat="44.68762" lon="3.86001">
        <ele>1027.5999755859</ele>
        <time>2023-05-08T07:27:27Z</time>
      </trkpt>
      <trkpt lat="44.68757" lon="3.86009">
        <ele>1027.1999511719</ele>
        <time>2023-05-08T07:27:31Z</time>
      </trkpt>
      <trkpt lat="44.68756" lon="3.8601">
        <ele>1027</ele>
        <time>2023-05-08T07:27:32Z</time>
      </trkpt>
      <trkpt lat="44.68753" lon="3.86012">
        <ele>1026.5999755859</ele>
        <time>2023-05-08T07:27:35Z</time>
      </trkpt>
      <trkpt lat="44.68748" lon="3.86017">
        <ele>1026.1999511719</ele>
        <time>2023-05-08T07:27:39Z</time>
      </trkpt>
      <trkpt lat="44.68741" lon="3.86021">
        <ele>1026</ele>
        <time>2023-05-08T07:27:42Z</time>
      </trkpt>
      <trkpt lat="44.68738" lon="3.86021">
        <ele>1026</ele>
        <time>2023-05-08T07:27:43Z</time>
      </trkpt>
      <trkpt lat="44.68721" lon="3.86024">
        <ele>1028.4000244141</ele>
        <time>2023-05-08T07:27:50Z</time>
      </trkpt>
      <trkpt lat="44.68707" lon="3.8603">
        <ele>1029.5999755859</ele>
        <time>2023-05-08T07:27:56Z</time>
      </trkpt>
      <trkpt lat="44.687" lon="3.86035">
        <ele>1029.8000488281</ele>
        <time>2023-05-08T07:27:59Z</time>
      </trkpt>
      <trkpt lat="44.6869" lon="3.86039">
        <ele>1030</ele>
        <time>2023-05-08T07:28:03Z</time>
      </trkpt>
      <trkpt lat="44.68685" lon="3.8604">
        <ele>1030.4000244141</ele>
        <time>2023-05-08T07:28:05Z</time>
      </trkpt>
      <trkpt lat="44.6868" lon="3.86042">
        <ele>1030.5999755859</ele>
        <time>2023-05-08T07:28:07Z</time>
      </trkpt>
      <trkpt lat="44.68674" lon="3.86042">
        <ele>1031</ele>
        <time>2023-05-08T07:28:09Z</time>
      </trkpt>
      <trkpt lat="44.68668" lon="3.86038">
        <ele>1031.5999755859</ele>
        <time>2023-05-08T07:28:12Z</time>
      </trkpt>
      <trkpt lat="44.68658" lon="3.86032">
        <ele>1032.5999755859</ele>
        <time>2023-05-08T07:28:17Z</time>
      </trkpt>
      <trkpt lat="44.68654" lon="3.86031">
        <ele>1033.1999511719</ele>
        <time>2023-05-08T07:28:19Z</time>
      </trkpt>
      <trkpt lat="44.68639" lon="3.86037">
        <ele>1034.4000244141</ele>
        <time>2023-05-08T07:28:25Z</time>
      </trkpt>
      <trkpt lat="44.68629" lon="3.86042">
        <ele>1034.5999755859</ele>
        <time>2023-05-08T07:28:30Z</time>
      </trkpt>
      <trkpt lat="44.68627" lon="3.86043">
        <ele>1034.5999755859</ele>
        <time>2023-05-08T07:28:31Z</time>
      </trkpt>
      <trkpt lat="44.68619" lon="3.86047">
        <ele>1035</ele>
        <time>2023-05-08T07:28:35Z</time>
      </trkpt>
      <trkpt lat="44.68605" lon="3.86051">
        <ele>1036.4000244141</ele>
        <time>2023-05-08T07:28:41Z</time>
      </trkpt>
      <trkpt lat="44.68593" lon="3.86056">
        <ele>1038.4000244141</ele>
        <time>2023-05-08T07:28:48Z</time>
      </trkpt>
      <trkpt lat="44.68589" lon="3.86059">
        <ele>1039.4000244141</ele>
        <time>2023-05-08T07:28:51Z</time>
      </trkpt>
      <trkpt lat="44.68585" lon="3.86062">
        <ele>1040</ele>
        <time>2023-05-08T07:28:53Z</time>
      </trkpt>
      <trkpt lat="44.68582" lon="3.86064">
        <ele>1040.4000244141</ele>
        <time>2023-05-08T07:28:55Z</time>
      </trkpt>
      <trkpt lat="44.68579" lon="3.86067">
        <ele>1040.8000488281</ele>
        <time>2023-05-08T07:28:57Z</time>
      </trkpt>
      <trkpt lat="44.68576" lon="3.86069">
        <ele>1041.1999511719</ele>
        <time>2023-05-08T07:28:58Z</time>
      </trkpt>
      <trkpt lat="44.68568" lon="3.86074">
        <ele>1042.1999511719</ele>
        <time>2023-05-08T07:29:02Z</time>
      </trkpt>
      <trkpt lat="44.68553" lon="3.86082">
        <ele>1044</ele>
        <time>2023-05-08T07:29:08Z</time>
      </trkpt>
      <trkpt lat="44.68525" lon="3.86094">
        <ele>1047</ele>
        <time>2023-05-08T07:29:18Z</time>
      </trkpt>
      <trkpt lat="44.68504" lon="3.86095">
        <ele>1048.5999755859</ele>
        <time>2023-05-08T07:29:24Z</time>
      </trkpt>
      <trkpt lat="44.685" lon="3.86096">
        <ele>1048.8000488281</ele>
        <time>2023-05-08T07:29:25Z</time>
      </trkpt>
      <trkpt lat="44.68488" lon="3.86096">
        <ele>1049.5999755859</ele>
        <time>2023-05-08T07:29:28Z</time>
      </trkpt>
      <trkpt lat="44.68469" lon="3.86099">
        <ele>1050.4000244141</ele>
        <time>2023-05-08T07:29:33Z</time>
      </trkpt>
      <trkpt lat="44.68461" lon="3.86103">
        <ele>1050.5999755859</ele>
        <time>2023-05-08T07:29:35Z</time>
      </trkpt>
      <trkpt lat="44.68456" lon="3.86105">
        <ele>1050.5999755859</ele>
        <time>2023-05-08T07:29:36Z</time>
      </trkpt>
      <trkpt lat="44.6844" lon="3.86107">
        <ele>1050.4000244141</ele>
        <time>2023-05-08T07:29:40Z</time>
      </trkpt>
      <trkpt lat="44.68432" lon="3.86104">
        <ele>1050.4000244141</ele>
        <time>2023-05-08T07:29:42Z</time>
      </trkpt>
      <trkpt lat="44.68427" lon="3.86105">
        <ele>1050.4000244141</ele>
        <time>2023-05-08T07:29:43Z</time>
      </trkpt>
      <trkpt lat="44.68415" lon="3.86104">
        <ele>1050.5999755859</ele>
        <time>2023-05-08T07:29:45Z</time>
      </trkpt>
      <trkpt lat="44.6841" lon="3.86104">
        <ele>1050.4000244141</ele>
        <time>2023-05-08T07:29:46Z</time>
      </trkpt>
      <trkpt lat="44.68394" lon="3.86101">
        <ele>1050.1999511719</ele>
        <time>2023-05-08T07:29:50Z</time>
      </trkpt>
      <trkpt lat="44.68374" lon="3.86098">
        <ele>1049.1999511719</ele>
        <time>2023-05-08T07:29:56Z</time>
      </trkpt>
      <trkpt lat="44.68346" lon="3.86095">
        <ele>1049</ele>
        <time>2023-05-08T07:30:03Z</time>
      </trkpt>
      <trkpt lat="44.68317" lon="3.86101">
        <ele>1049.8000488281</ele>
        <time>2023-05-08T07:30:10Z</time>
      </trkpt>
      <trkpt lat="44.68292" lon="3.86106">
        <ele>1049.8000488281</ele>
        <time>2023-05-08T07:30:16Z</time>
      </trkpt>
      <trkpt lat="44.68288" lon="3.86107">
        <ele>1049.8000488281</ele>
        <time>2023-05-08T07:30:17Z</time>
      </trkpt>
      <trkpt lat="44.68263" lon="3.86118">
        <ele>1050.4000244141</ele>
        <time>2023-05-08T07:30:23Z</time>
      </trkpt>
      <trkpt lat="44.68245" lon="3.86127">
        <ele>1050.5999755859</ele>
        <time>2023-05-08T07:30:28Z</time>
      </trkpt>
      <trkpt lat="44.68224" lon="3.86138">
        <ele>1050.5999755859</ele>
        <time>2023-05-08T07:30:34Z</time>
      </trkpt>
      <trkpt lat="44.68207" lon="3.86146">
        <ele>1050.8000488281</ele>
        <time>2023-05-08T07:30:39Z</time>
      </trkpt>
      <trkpt lat="44.68181" lon="3.86159">
        <ele>1051.4000244141</ele>
        <time>2023-05-08T07:30:46Z</time>
      </trkpt>
      <trkpt lat="44.68158" lon="3.86165">
        <ele>1050.8000488281</ele>
        <time>2023-05-08T07:30:53Z</time>
      </trkpt>
      <trkpt lat="44.6814" lon="3.86167">
        <ele>1050.1999511719</ele>
        <time>2023-05-08T07:30:59Z</time>
      </trkpt>
      <trkpt lat="44.68115" lon="3.86166">
        <ele>1049.4000244141</ele>
        <time>2023-05-08T07:31:05Z</time>
      </trkpt>
      <trkpt lat="44.68083" lon="3.86173">
        <ele>1050.5999755859</ele>
        <time>2023-05-08T07:31:11Z</time>
      </trkpt>
      <trkpt lat="44.68062" lon="3.86177">
        <ele>1052</ele>
        <time>2023-05-08T07:31:16Z</time>
      </trkpt>
      <trkpt lat="44.68053" lon="3.86174">
        <ele>1052.4000244141</ele>
        <time>2023-05-08T07:31:18Z</time>
      </trkpt>
      <trkpt lat="44.68044" lon="3.8617">
        <ele>1052.5999755859</ele>
        <time>2023-05-08T07:31:20Z</time>
      </trkpt>
      <trkpt lat="44.68034" lon="3.86163">
        <ele>1053</ele>
        <time>2023-05-08T07:31:22Z</time>
      </trkpt>
      <trkpt lat="44.68025" lon="3.86155">
        <ele>1053.1999511719</ele>
        <time>2023-05-08T07:31:24Z</time>
      </trkpt>
      <trkpt lat="44.68009" lon="3.86134">
        <ele>1053.4000244141</ele>
        <time>2023-05-08T07:31:28Z</time>
      </trkpt>
      <trkpt lat="44.67982" lon="3.86103">
        <ele>1054.1999511719</ele>
        <time>2023-05-08T07:31:35Z</time>
      </trkpt>
      <trkpt lat="44.67968" lon="3.86086">
        <ele>1054.5999755859</ele>
        <time>2023-05-08T07:31:39Z</time>
      </trkpt>
      <trkpt lat="44.67961" lon="3.86078">
        <ele>1055</ele>
        <time>2023-05-08T07:31:41Z</time>
      </trkpt>
      <trkpt lat="44.67951" lon="3.86066">
        <ele>1055.4000244141</ele>
        <time>2023-05-08T07:31:44Z</time>
      </trkpt>
      <trkpt lat="44.67942" lon="3.86054">
        <ele>1056</ele>
        <time>2023-05-08T07:31:47Z</time>
      </trkpt>
      <trkpt lat="44.67923" lon="3.86031">
        <ele>1057</ele>
        <time>2023-05-08T07:31:53Z</time>
      </trkpt>
      <trkpt lat="44.67916" lon="3.86027">
        <ele>1057.4000244141</ele>
        <time>2023-05-08T07:31:55Z</time>
      </trkpt>
      <trkpt lat="44.67912" lon="3.86025">
        <ele>1057.5999755859</ele>
        <time>2023-05-08T07:31:56Z</time>
      </trkpt>
      <trkpt lat="44.6789" lon="3.86014">
        <ele>1058.4000244141</ele>
        <time>2023-05-08T07:32:02Z</time>
      </trkpt>
      <trkpt lat="44.67871" lon="3.86001">
        <ele>1059.1999511719</ele>
        <time>2023-05-08T07:32:08Z</time>
      </trkpt>
      <trkpt lat="44.67857" lon="3.85985">
        <ele>1060.1999511719</ele>
        <time>2023-05-08T07:32:14Z</time>
      </trkpt>
      <trkpt lat="44.67841" lon="3.85964">
        <ele>1061.4000244141</ele>
        <time>2023-05-08T07:32:21Z</time>
      </trkpt>
      <trkpt lat="44.67832" lon="3.85955">
        <ele>1061.8000488281</ele>
        <time>2023-05-08T07:32:25Z</time>
      </trkpt>
      <trkpt lat="44.67814" lon="3.85951">
        <ele>1062.5999755859</ele>
        <time>2023-05-08T07:32:31Z</time>
      </trkpt>
      <trkpt lat="44.678" lon="3.85951">
        <ele>1063.1999511719</ele>
        <time>2023-05-08T07:32:36Z</time>
      </trkpt>
      <trkpt lat="44.67781" lon="3.85949">
        <ele>1064.1999511719</ele>
        <time>2023-05-08T07:32:43Z</time>
      </trkpt>
      <trkpt lat="44.6776" lon="3.85948">
        <ele>1065.1999511719</ele>
        <time>2023-05-08T07:32:50Z</time>
      </trkpt>
      <trkpt lat="44.67741" lon="3.85941">
        <ele>1066.1999511719</ele>
        <time>2023-05-08T07:32:57Z</time>
      </trkpt>
      <trkpt lat="44.67729" lon="3.85934">
        <ele>1067</ele>
        <time>2023-05-08T07:33:03Z</time>
      </trkpt>
      <trkpt lat="44.67721" lon="3.85931">
        <ele>1068</ele>
        <time>2023-05-08T07:33:08Z</time>
      </trkpt>
      <trkpt lat="44.67713" lon="3.85925">
        <ele>1068.8000488281</ele>
        <time>2023-05-08T07:33:14Z</time>
      </trkpt>
      <trkpt lat="44.67711" lon="3.85922">
        <ele>1069.1999511719</ele>
        <time>2023-05-08T07:33:16Z</time>
      </trkpt>
      <trkpt lat="44.67711" lon="3.85918">
        <ele>1069.4000244141</ele>
        <time>2023-05-08T07:33:18Z</time>
      </trkpt>
      <trkpt lat="44.67712" lon="3.85916">
        <ele>1069.5999755859</ele>
        <time>2023-05-08T07:33:19Z</time>
      </trkpt>
      <trkpt lat="44.67717" lon="3.85911">
        <ele>1070.4000244141</ele>
        <time>2023-05-08T07:33:23Z</time>
      </trkpt>
      <trkpt lat="44.67723" lon="3.859">
        <ele>1071.5999755859</ele>
        <time>2023-05-08T07:33:30Z</time>
      </trkpt>
      <trkpt lat="44.67724" lon="3.85888">
        <ele>1072.8000488281</ele>
        <time>2023-05-08T07:33:37Z</time>
      </trkpt>
      <trkpt lat="44.67725" lon="3.85876">
        <ele>1073.5999755859</ele>
        <time>2023-05-08T07:33:44Z</time>
      </trkpt>
      <trkpt lat="44.67727" lon="3.85863">
        <ele>1074.5999755859</ele>
        <time>2023-05-08T07:33:52Z</time>
      </trkpt>
      <trkpt lat="44.67728" lon="3.85862">
        <ele>1074.8000488281</ele>
        <time>2023-05-08T07:33:53Z</time>
      </trkpt>
      <trkpt lat="44.6773" lon="3.85851">
        <ele>1075.5999755859</ele>
        <time>2023-05-08T07:34:00Z</time>
      </trkpt>
      <trkpt lat="44.67733" lon="3.85838">
        <ele>1076.8000488281</ele>
        <time>2023-05-08T07:34:08Z</time>
      </trkpt>
      <trkpt lat="44.67735" lon="3.85824">
        <ele>1078.4000244141</ele>
        <time>2023-05-08T07:34:17Z</time>
      </trkpt>
      <trkpt lat="44.67738" lon="3.85809">
        <ele>1080</ele>
        <time>2023-05-08T07:34:26Z</time>
      </trkpt>
      <trkpt lat="44.67739" lon="3.85794">
        <ele>1081.5999755859</ele>
        <time>2023-05-08T07:34:35Z</time>
      </trkpt>
      <trkpt lat="44.67738" lon="3.85786">
        <ele>1082.8000488281</ele>
        <time>2023-05-08T07:34:41Z</time>
      </trkpt>
      <trkpt lat="44.67739" lon="3.85771">
        <ele>1084.5999755859</ele>
        <time>2023-05-08T07:34:50Z</time>
      </trkpt>
      <trkpt lat="44.67738" lon="3.85756">
        <ele>1086.4000244141</ele>
        <time>2023-05-08T07:34:59Z</time>
      </trkpt>
      <trkpt lat="44.67737" lon="3.85751">
        <ele>1086.8000488281</ele>
        <time>2023-05-08T07:35:02Z</time>
      </trkpt>
      <trkpt lat="44.67737" lon="3.85747">
        <ele>1087.1999511719</ele>
        <time>2023-05-08T07:35:04Z</time>
      </trkpt>
      <trkpt lat="44.67737" lon="3.85744">
        <ele>1087.5999755859</ele>
        <time>2023-05-08T07:35:06Z</time>
      </trkpt>
      <trkpt lat="44.67737" lon="3.85732">
        <ele>1088.8000488281</ele>
        <time>2023-05-08T07:35:13Z</time>
      </trkpt>
      <trkpt lat="44.67737" lon="3.85721">
        <ele>1090.1999511719</ele>
        <time>2023-05-08T07:35:20Z</time>
      </trkpt>
      <trkpt lat="44.67739" lon="3.85709">
        <ele>1091</ele>
        <time>2023-05-08T07:35:28Z</time>
      </trkpt>
      <trkpt lat="44.6774" lon="3.857">
        <ele>1091.4000244141</ele>
        <time>2023-05-08T07:35:35Z</time>
      </trkpt>
      <trkpt lat="44.67743" lon="3.85694">
        <ele>1091.8000488281</ele>
        <time>2023-05-08T07:35:39Z</time>
      </trkpt>
      <trkpt lat="44.67743" lon="3.85691">
        <ele>1092</ele>
        <time>2023-05-08T07:35:41Z</time>
      </trkpt>
      <trkpt lat="44.67743" lon="3.85689">
        <ele>1092.1999511719</ele>
        <time>2023-05-08T07:35:42Z</time>
      </trkpt>
      <trkpt lat="44.67741" lon="3.85682">
        <ele>1092.5999755859</ele>
        <time>2023-05-08T07:35:46Z</time>
      </trkpt>
      <trkpt lat="44.67739" lon="3.85676">
        <ele>1093</ele>
        <time>2023-05-08T07:35:51Z</time>
      </trkpt>
      <trkpt lat="44.67737" lon="3.85666">
        <ele>1094</ele>
        <time>2023-05-08T07:35:57Z</time>
      </trkpt>
      <trkpt lat="44.67733" lon="3.85656">
        <ele>1095.1999511719</ele>
        <time>2023-05-08T07:36:03Z</time>
      </trkpt>
      <trkpt lat="44.67732" lon="3.85655">
        <ele>1095.4000244141</ele>
        <time>2023-05-08T07:36:04Z</time>
      </trkpt>
      <trkpt lat="44.6773" lon="3.8565">
        <ele>1095.8000488281</ele>
        <time>2023-05-08T07:36:08Z</time>
      </trkpt>
      <trkpt lat="44.67728" lon="3.85639">
        <ele>1097</ele>
        <time>2023-05-08T07:36:15Z</time>
      </trkpt>
      <trkpt lat="44.67728" lon="3.85638">
        <ele>1097.1999511719</ele>
        <time>2023-05-08T07:36:16Z</time>
      </trkpt>
      <trkpt lat="44.67726" lon="3.8563">
        <ele>1098</ele>
        <time>2023-05-08T07:36:20Z</time>
      </trkpt>
      <trkpt lat="44.67725" lon="3.85625">
        <ele>1098.4000244141</ele>
        <time>2023-05-08T07:36:22Z</time>
      </trkpt>
      <trkpt lat="44.67724" lon="3.8562">
        <ele>1099</ele>
        <time>2023-05-08T07:36:26Z</time>
      </trkpt>
      <trkpt lat="44.67723" lon="3.85608">
        <ele>1100.4000244141</ele>
        <time>2023-05-08T07:36:34Z</time>
      </trkpt>
      <trkpt lat="44.67723" lon="3.85599">
        <ele>1101.4000244141</ele>
        <time>2023-05-08T07:36:41Z</time>
      </trkpt>
      <trkpt lat="44.67722" lon="3.85592">
        <ele>1102.1999511719</ele>
        <time>2023-05-08T07:36:46Z</time>
      </trkpt>
      <trkpt lat="44.67722" lon="3.85591">
        <ele>1102.4000244141</ele>
        <time>2023-05-08T07:36:47Z</time>
      </trkpt>
      <trkpt lat="44.6772" lon="3.85582">
        <ele>1103</ele>
        <time>2023-05-08T07:36:53Z</time>
      </trkpt>
      <trkpt lat="44.67718" lon="3.85572">
        <ele>1104.1999511719</ele>
        <time>2023-05-08T07:36:58Z</time>
      </trkpt>
      <trkpt lat="44.67718" lon="3.85571">
        <ele>1104.4000244141</ele>
        <time>2023-05-08T07:36:59Z</time>
      </trkpt>
      <trkpt lat="44.67717" lon="3.85566">
        <ele>1105</ele>
        <time>2023-05-08T07:37:02Z</time>
      </trkpt>
      <trkpt lat="44.67715" lon="3.85562">
        <ele>1105.5999755859</ele>
        <time>2023-05-08T07:37:05Z</time>
      </trkpt>
      <trkpt lat="44.67712" lon="3.85556">
        <ele>1106.4000244141</ele>
        <time>2023-05-08T07:37:09Z</time>
      </trkpt>
      <trkpt lat="44.6771" lon="3.85553">
        <ele>1107</ele>
        <time>2023-05-08T07:37:12Z</time>
      </trkpt>
      <trkpt lat="44.67708" lon="3.85549">
        <ele>1107.8000488281</ele>
        <time>2023-05-08T07:37:15Z</time>
      </trkpt>
      <trkpt lat="44.67705" lon="3.85546">
        <ele>1108.4000244141</ele>
        <time>2023-05-08T07:37:18Z</time>
      </trkpt>
      <trkpt lat="44.67701" lon="3.8554">
        <ele>1109.5999755859</ele>
        <time>2023-05-08T07:37:24Z</time>
      </trkpt>
      <trkpt lat="44.67698" lon="3.85537">
        <ele>1110.5999755859</ele>
        <time>2023-05-08T07:37:29Z</time>
      </trkpt>
      <trkpt lat="44.67697" lon="3.85536">
        <ele>1110.5999755859</ele>
        <time>2023-05-08T07:37:30Z</time>
      </trkpt>
      <trkpt lat="44.67693" lon="3.85531">
        <ele>1111.5999755859</ele>
        <time>2023-05-08T07:37:35Z</time>
      </trkpt>
      <trkpt lat="44.67692" lon="3.8553">
        <ele>1111.8000488281</ele>
        <time>2023-05-08T07:37:36Z</time>
      </trkpt>
      <trkpt lat="44.67687" lon="3.85525">
        <ele>1112.1999511719</ele>
        <time>2023-05-08T07:37:40Z</time>
      </trkpt>
      <trkpt lat="44.67686" lon="3.85522">
        <ele>1112.5999755859</ele>
        <time>2023-05-08T07:37:42Z</time>
      </trkpt>
      <trkpt lat="44.67682" lon="3.85518">
        <ele>1113.1999511719</ele>
        <time>2023-05-08T07:37:46Z</time>
      </trkpt>
      <trkpt lat="44.6768" lon="3.85514">
        <ele>1114</ele>
        <time>2023-05-08T07:37:50Z</time>
      </trkpt>
      <trkpt lat="44.67679" lon="3.85511">
        <ele>1114.1999511719</ele>
        <time>2023-05-08T07:37:53Z</time>
      </trkpt>
      <trkpt lat="44.67678" lon="3.85509">
        <ele>1114.4000244141</ele>
        <time>2023-05-08T07:37:54Z</time>
      </trkpt>
      <trkpt lat="44.67677" lon="3.85506">
        <ele>1114.8000488281</ele>
        <time>2023-05-08T07:37:56Z</time>
      </trkpt>
      <trkpt lat="44.67675" lon="3.85503">
        <ele>1115</ele>
        <time>2023-05-08T07:37:58Z</time>
      </trkpt>
      <trkpt lat="44.67672" lon="3.85498">
        <ele>1115.1999511719</ele>
        <time>2023-05-08T07:38:01Z</time>
      </trkpt>
      <trkpt lat="44.6767" lon="3.85495">
        <ele>1115.8000488281</ele>
        <time>2023-05-08T07:38:04Z</time>
      </trkpt>
      <trkpt lat="44.6767" lon="3.85491">
        <ele>1116.5999755859</ele>
        <time>2023-05-08T07:38:07Z</time>
      </trkpt>
      <trkpt lat="44.67669" lon="3.85488">
        <ele>1117</ele>
        <time>2023-05-08T07:38:09Z</time>
      </trkpt>
      <trkpt lat="44.6767" lon="3.85478">
        <ele>1118.1999511719</ele>
        <time>2023-05-08T07:38:15Z</time>
      </trkpt>
      <trkpt lat="44.67672" lon="3.85468">
        <ele>1119.4000244141</ele>
        <time>2023-05-08T07:38:22Z</time>
      </trkpt>
      <trkpt lat="44.67673" lon="3.85466">
        <ele>1119.5999755859</ele>
        <time>2023-05-08T07:38:23Z</time>
      </trkpt>
      <trkpt lat="44.67673" lon="3.85459">
        <ele>1120</ele>
        <time>2023-05-08T07:38:28Z</time>
      </trkpt>
      <trkpt lat="44.67673" lon="3.85457">
        <ele>1120.1999511719</ele>
        <time>2023-05-08T07:38:29Z</time>
      </trkpt>
      <trkpt lat="44.67674" lon="3.85448">
        <ele>1121</ele>
        <time>2023-05-08T07:38:34Z</time>
      </trkpt>
      <trkpt lat="44.67674" lon="3.85437">
        <ele>1122</ele>
        <time>2023-05-08T07:38:42Z</time>
      </trkpt>
      <trkpt lat="44.67675" lon="3.85424">
        <ele>1122.8000488281</ele>
        <time>2023-05-08T07:38:49Z</time>
      </trkpt>
      <trkpt lat="44.67676" lon="3.85408">
        <ele>1124</ele>
        <time>2023-05-08T07:38:58Z</time>
      </trkpt>
      <trkpt lat="44.67677" lon="3.85403">
        <ele>1124.4000244141</ele>
        <time>2023-05-08T07:39:01Z</time>
      </trkpt>
      <trkpt lat="44.67678" lon="3.85397">
        <ele>1125.1999511719</ele>
        <time>2023-05-08T07:39:05Z</time>
      </trkpt>
      <trkpt lat="44.67678" lon="3.85392">
        <ele>1125.4000244141</ele>
        <time>2023-05-08T07:39:09Z</time>
      </trkpt>
      <trkpt lat="44.67681" lon="3.85385">
        <ele>1126.1999511719</ele>
        <time>2023-05-08T07:39:14Z</time>
      </trkpt>
      <trkpt lat="44.6768" lon="3.85372">
        <ele>1127.1999511719</ele>
        <time>2023-05-08T07:39:22Z</time>
      </trkpt>
      <trkpt lat="44.67682" lon="3.85365">
        <ele>1127</ele>
        <time>2023-05-08T07:39:28Z</time>
      </trkpt>
      <trkpt lat="44.67683" lon="3.85357">
        <ele>1126.8000488281</ele>
        <time>2023-05-08T07:39:33Z</time>
      </trkpt>
      <trkpt lat="44.67684" lon="3.85354">
        <ele>1126.5999755859</ele>
        <time>2023-05-08T07:39:35Z</time>
      </trkpt>
      <trkpt lat="44.67684" lon="3.85342">
        <ele>1126.4000244141</ele>
        <time>2023-05-08T07:39:42Z</time>
      </trkpt>
      <trkpt lat="44.67683" lon="3.85336">
        <ele>1125.5999755859</ele>
        <time>2023-05-08T07:39:48Z</time>
      </trkpt>
      <trkpt lat="44.67683" lon="3.85335">
        <ele>1125.5999755859</ele>
        <time>2023-05-08T07:39:49Z</time>
      </trkpt>
      <trkpt lat="44.67683" lon="3.85326">
        <ele>1125.1999511719</ele>
        <time>2023-05-08T07:39:54Z</time>
      </trkpt>
      <trkpt lat="44.67683" lon="3.8531">
        <ele>1124</ele>
        <time>2023-05-08T07:40:03Z</time>
      </trkpt>
      <trkpt lat="44.67685" lon="3.85301">
        <ele>1123.4000244141</ele>
        <time>2023-05-08T07:40:09Z</time>
      </trkpt>
      <trkpt lat="44.67686" lon="3.85295">
        <ele>1123</ele>
        <time>2023-05-08T07:40:13Z</time>
      </trkpt>
      <trkpt lat="44.67681" lon="3.85282">
        <ele>1122.8000488281</ele>
        <time>2023-05-08T07:40:39Z</time>
      </trkpt>
      <trkpt lat="44.67672" lon="3.85267">
        <ele>1124.1999511719</ele>
        <time>2023-05-08T07:40:45Z</time>
      </trkpt>
      <trkpt lat="44.67661" lon="3.85261">
        <ele>1125.4000244141</ele>
        <time>2023-05-08T07:40:51Z</time>
      </trkpt>
      <trkpt lat="44.67651" lon="3.8525">
        <ele>1126</ele>
        <time>2023-05-08T07:40:57Z</time>
      </trkpt>
      <trkpt lat="44.67641" lon="3.85243">
        <ele>1126.5999755859</ele>
        <time>2023-05-08T07:41:02Z</time>
      </trkpt>
      <trkpt lat="44.67627" lon="3.8523">
        <ele>1127.5999755859</ele>
        <time>2023-05-08T07:41:08Z</time>
      </trkpt>
      <trkpt lat="44.67608" lon="3.85214">
        <ele>1130.1999511719</ele>
        <time>2023-05-08T07:41:16Z</time>
      </trkpt>
      <trkpt lat="44.67583" lon="3.85201">
        <ele>1132.8000488281</ele>
        <time>2023-05-08T07:41:25Z</time>
      </trkpt>
      <trkpt lat="44.67572" lon="3.85198">
        <ele>1133.8000488281</ele>
        <time>2023-05-08T07:41:29Z</time>
      </trkpt>
      <trkpt lat="44.67556" lon="3.85192">
        <ele>1134.8000488281</ele>
        <time>2023-05-08T07:41:35Z</time>
      </trkpt>
      <trkpt lat="44.6754" lon="3.85181">
        <ele>1136.4000244141</ele>
        <time>2023-05-08T07:41:42Z</time>
      </trkpt>
      <trkpt lat="44.67525" lon="3.85174">
        <ele>1137.5999755859</ele>
        <time>2023-05-08T07:41:49Z</time>
      </trkpt>
      <trkpt lat="44.67514" lon="3.8517">
        <ele>1138.4000244141</ele>
        <time>2023-05-08T07:41:55Z</time>
      </trkpt>
      <trkpt lat="44.67503" lon="3.85161">
        <ele>1139.4000244141</ele>
        <time>2023-05-08T07:42:01Z</time>
      </trkpt>
      <trkpt lat="44.67489" lon="3.85154">
        <ele>1141</ele>
        <time>2023-05-08T07:42:09Z</time>
      </trkpt>
      <trkpt lat="44.67474" lon="3.85143">
        <ele>1142.4000244141</ele>
        <time>2023-05-08T07:42:17Z</time>
      </trkpt>
      <trkpt lat="44.67458" lon="3.85132">
        <ele>1143.8000488281</ele>
        <time>2023-05-08T07:42:26Z</time>
      </trkpt>
      <trkpt lat="44.6745" lon="3.85123">
        <ele>1145.1999511719</ele>
        <time>2023-05-08T07:42:32Z</time>
      </trkpt>
      <trkpt lat="44.67438" lon="3.85111">
        <ele>1147.4000244141</ele>
        <time>2023-05-08T07:42:40Z</time>
      </trkpt>
      <trkpt lat="44.67426" lon="3.85104">
        <ele>1149</ele>
        <time>2023-05-08T07:42:46Z</time>
      </trkpt>
      <trkpt lat="44.67413" lon="3.85098">
        <ele>1150.4000244141</ele>
        <time>2023-05-08T07:42:52Z</time>
      </trkpt>
      <trkpt lat="44.67401" lon="3.85091">
        <ele>1151.5999755859</ele>
        <time>2023-05-08T07:42:58Z</time>
      </trkpt>
      <trkpt lat="44.6739" lon="3.85083">
        <ele>1152.5999755859</ele>
        <time>2023-05-08T07:43:03Z</time>
      </trkpt>
      <trkpt lat="44.67385" lon="3.85081">
        <ele>1153</ele>
        <time>2023-05-08T07:43:05Z</time>
      </trkpt>
      <trkpt lat="44.67379" lon="3.85076">
        <ele>1153.4000244141</ele>
        <time>2023-05-08T07:43:07Z</time>
      </trkpt>
      <trkpt lat="44.67376" lon="3.85073">
        <ele>1153.4000244141</ele>
        <time>2023-05-08T07:43:08Z</time>
      </trkpt>
      <trkpt lat="44.67362" lon="3.85058">
        <ele>1153.8000488281</ele>
        <time>2023-05-08T07:43:12Z</time>
      </trkpt>
      <trkpt lat="44.67332" lon="3.85032">
        <ele>1154</ele>
        <time>2023-05-08T07:43:19Z</time>
      </trkpt>
      <trkpt lat="44.67322" lon="3.85025">
        <ele>1154</ele>
        <time>2023-05-08T07:43:21Z</time>
      </trkpt>
      <trkpt lat="44.67309" lon="3.85013">
        <ele>1154</ele>
        <time>2023-05-08T07:43:24Z</time>
      </trkpt>
      <trkpt lat="44.67272" lon="3.84984">
        <ele>1154.1999511719</ele>
        <time>2023-05-08T07:43:31Z</time>
      </trkpt>
      <trkpt lat="44.67234" lon="3.8495">
        <ele>1154.1999511719</ele>
        <time>2023-05-08T07:43:37Z</time>
      </trkpt>
      <trkpt lat="44.67205" lon="3.84929">
        <ele>1154.1999511719</ele>
        <time>2023-05-08T07:43:41Z</time>
      </trkpt>
      <trkpt lat="44.67198" lon="3.84926">
        <ele>1154.1999511719</ele>
        <time>2023-05-08T07:43:42Z</time>
      </trkpt>
      <trkpt lat="44.6716" lon="3.84901">
        <ele>1154</ele>
        <time>2023-05-08T07:43:47Z</time>
      </trkpt>
      <trkpt lat="44.67112" lon="3.84859">
        <ele>1154</ele>
        <time>2023-05-08T07:43:54Z</time>
      </trkpt>
      <trkpt lat="44.6707" lon="3.84824">
        <ele>1154.4000244141</ele>
        <time>2023-05-08T07:44:01Z</time>
      </trkpt>
      <trkpt lat="44.67042" lon="3.84799">
        <ele>1154.5999755859</ele>
        <time>2023-05-08T07:44:06Z</time>
      </trkpt>
      <trkpt lat="44.67018" lon="3.84779">
        <ele>1154.5999755859</ele>
        <time>2023-05-08T07:44:10Z</time>
      </trkpt>
      <trkpt lat="44.67005" lon="3.8477">
        <ele>1154.5999755859</ele>
        <time>2023-05-08T07:44:12Z</time>
      </trkpt>
      <trkpt lat="44.66969" lon="3.84747">
        <ele>1154.4000244141</ele>
        <time>2023-05-08T07:44:18Z</time>
      </trkpt>
      <trkpt lat="44.66955" lon="3.8473">
        <ele>1154.1999511719</ele>
        <time>2023-05-08T07:44:21Z</time>
      </trkpt>
      <trkpt lat="44.6695" lon="3.84726">
        <ele>1154</ele>
        <time>2023-05-08T07:44:22Z</time>
      </trkpt>
      <trkpt lat="44.66945" lon="3.84724">
        <ele>1153.8000488281</ele>
        <time>2023-05-08T07:44:23Z</time>
      </trkpt>
      <trkpt lat="44.6693" lon="3.84723">
        <ele>1153.4000244141</ele>
        <time>2023-05-08T07:44:26Z</time>
      </trkpt>
      <trkpt lat="44.6692" lon="3.84724">
        <ele>1153.1999511719</ele>
        <time>2023-05-08T07:44:28Z</time>
      </trkpt>
      <trkpt lat="44.66905" lon="3.8473">
        <ele>1153</ele>
        <time>2023-05-08T07:44:31Z</time>
      </trkpt>
      <trkpt lat="44.66893" lon="3.84735">
        <ele>1152.8000488281</ele>
        <time>2023-05-08T07:44:33Z</time>
      </trkpt>
      <trkpt lat="44.66887" lon="3.84736">
        <ele>1152.8000488281</ele>
        <time>2023-05-08T07:44:34Z</time>
      </trkpt>
      <trkpt lat="44.66855" lon="3.84739">
        <ele>1152.4000244141</ele>
        <time>2023-05-08T07:44:40Z</time>
      </trkpt>
      <trkpt lat="44.66823" lon="3.84742">
        <ele>1152</ele>
        <time>2023-05-08T07:44:47Z</time>
      </trkpt>
      <trkpt lat="44.66789" lon="3.8474">
        <ele>1152.4000244141</ele>
        <time>2023-05-08T07:44:55Z</time>
      </trkpt>
      <trkpt lat="44.66755" lon="3.84742">
        <ele>1152.5999755859</ele>
        <time>2023-05-08T07:45:03Z</time>
      </trkpt>
      <trkpt lat="44.66724" lon="3.84743">
        <ele>1153.1999511719</ele>
        <time>2023-05-08T07:45:10Z</time>
      </trkpt>
      <trkpt lat="44.66706" lon="3.84741">
        <ele>1153.5999755859</ele>
        <time>2023-05-08T07:45:14Z</time>
      </trkpt>
      <trkpt lat="44.66693" lon="3.84739">
        <ele>1153.5999755859</ele>
        <time>2023-05-08T07:45:17Z</time>
      </trkpt>
      <trkpt lat="44.66659" lon="3.84729">
        <ele>1153.8000488281</ele>
        <time>2023-05-08T07:45:24Z</time>
      </trkpt>
      <trkpt lat="44.66624" lon="3.84719">
        <ele>1153.8000488281</ele>
        <time>2023-05-08T07:45:30Z</time>
      </trkpt>
      <trkpt lat="44.66586" lon="3.84708">
        <ele>1153.8000488281</ele>
        <time>2023-05-08T07:45:36Z</time>
      </trkpt>
      <trkpt lat="44.66541" lon="3.84699">
        <ele>1154</ele>
        <time>2023-05-08T07:45:43Z</time>
      </trkpt>
      <trkpt lat="44.66528" lon="3.84696">
        <ele>1154</ele>
        <time>2023-05-08T07:45:45Z</time>
      </trkpt>
      <trkpt lat="44.66506" lon="3.84689">
        <ele>1154.1999511719</ele>
        <time>2023-05-08T07:45:49Z</time>
      </trkpt>
      <trkpt lat="44.66467" lon="3.84669">
        <ele>1154.4000244141</ele>
        <time>2023-05-08T07:45:56Z</time>
      </trkpt>
      <trkpt lat="44.66447" lon="3.8466">
        <ele>1154.1999511719</ele>
        <time>2023-05-08T07:45:59Z</time>
      </trkpt>
      <trkpt lat="44.66432" lon="3.84656">
        <ele>1154</ele>
        <time>2023-05-08T07:46:01Z</time>
      </trkpt>
      <trkpt lat="44.66383" lon="3.8465">
        <ele>1153.8000488281</ele>
        <time>2023-05-08T07:46:07Z</time>
      </trkpt>
      <trkpt lat="44.66343" lon="3.84635">
        <ele>1153.8000488281</ele>
        <time>2023-05-08T07:46:12Z</time>
      </trkpt>
      <trkpt lat="44.66329" lon="3.84629">
        <ele>1153.8000488281</ele>
        <time>2023-05-08T07:46:14Z</time>
      </trkpt>
      <trkpt lat="44.66316" lon="3.84619">
        <ele>1154</ele>
        <time>2023-05-08T07:46:16Z</time>
      </trkpt>
      <trkpt lat="44.66275" lon="3.84575">
        <ele>1154.1999511719</ele>
        <time>2023-05-08T07:46:23Z</time>
      </trkpt>
      <trkpt lat="44.66247" lon="3.84535">
        <ele>1154.1999511719</ele>
        <time>2023-05-08T07:46:29Z</time>
      </trkpt>
      <trkpt lat="44.66229" lon="3.84496">
        <ele>1154.1999511719</ele>
        <time>2023-05-08T07:46:35Z</time>
      </trkpt>
      <trkpt lat="44.66224" lon="3.84477">
        <ele>1154.1999511719</ele>
        <time>2023-05-08T07:46:38Z</time>
      </trkpt>
      <trkpt lat="44.66219" lon="3.84466">
        <ele>1154.1999511719</ele>
        <time>2023-05-08T07:46:40Z</time>
      </trkpt>
      <trkpt lat="44.66215" lon="3.84456">
        <ele>1154.1999511719</ele>
        <time>2023-05-08T07:46:42Z</time>
      </trkpt>
      <trkpt lat="44.66204" lon="3.8444">
        <ele>1154.4000244141</ele>
        <time>2023-05-08T07:46:46Z</time>
      </trkpt>
      <trkpt lat="44.66182" lon="3.84432">
        <ele>1154.5999755859</ele>
        <time>2023-05-08T07:46:52Z</time>
      </trkpt>
      <trkpt lat="44.66177" lon="3.84431">
        <ele>1154.5999755859</ele>
        <time>2023-05-08T07:46:53Z</time>
      </trkpt>
      <trkpt lat="44.66169" lon="3.84433">
        <ele>1154.5999755859</ele>
        <time>2023-05-08T07:46:55Z</time>
      </trkpt>
      <trkpt lat="44.66161" lon="3.84436">
        <ele>1154.5999755859</ele>
        <time>2023-05-08T07:46:57Z</time>
      </trkpt>
      <trkpt lat="44.66149" lon="3.84444">
        <ele>1154.5999755859</ele>
        <time>2023-05-08T07:47:00Z</time>
      </trkpt>
      <trkpt lat="44.66141" lon="3.84452">
        <ele>1154.5999755859</ele>
        <time>2023-05-08T07:47:02Z</time>
      </trkpt>
      <trkpt lat="44.66123" lon="3.84472">
        <ele>1154.5999755859</ele>
        <time>2023-05-08T07:47:07Z</time>
      </trkpt>
      <trkpt lat="44.66113" lon="3.84485">
        <ele>1154.5999755859</ele>
        <time>2023-05-08T07:47:10Z</time>
      </trkpt>
      <trkpt lat="44.66093" lon="3.84511">
        <ele>1154.4000244141</ele>
        <time>2023-05-08T07:47:16Z</time>
      </trkpt>
      <trkpt lat="44.66088" lon="3.84515">
        <ele>1154.4000244141</ele>
        <time>2023-05-08T07:47:17Z</time>
      </trkpt>
      <trkpt lat="44.66077" lon="3.84529">
        <ele>1154</ele>
        <time>2023-05-08T07:47:21Z</time>
      </trkpt>
      <trkpt lat="44.66067" lon="3.84539">
        <ele>1153.5999755859</ele>
        <time>2023-05-08T07:47:25Z</time>
      </trkpt>
      <trkpt lat="44.66054" lon="3.84553">
        <ele>1153</ele>
        <time>2023-05-08T07:47:30Z</time>
      </trkpt>
      <trkpt lat="44.6603" lon="3.84572">
        <ele>1152</ele>
        <time>2023-05-08T07:47:37Z</time>
      </trkpt>
      <trkpt lat="44.66018" lon="3.84579">
        <ele>1151.5999755859</ele>
        <time>2023-05-08T07:47:40Z</time>
      </trkpt>
      <trkpt lat="44.6601" lon="3.84584">
        <ele>1151.1999511719</ele>
        <time>2023-05-08T07:47:42Z</time>
      </trkpt>
      <trkpt lat="44.66005" lon="3.84587">
        <ele>1150.8000488281</ele>
        <time>2023-05-08T07:47:43Z</time>
      </trkpt>
      <trkpt lat="44.65991" lon="3.84598">
        <ele>1150.4000244141</ele>
        <time>2023-05-08T07:47:46Z</time>
      </trkpt>
      <trkpt lat="44.65986" lon="3.84603">
        <ele>1150.4000244141</ele>
        <time>2023-05-08T07:47:47Z</time>
      </trkpt>
      <trkpt lat="44.65975" lon="3.8461">
        <ele>1150</ele>
        <time>2023-05-08T07:47:49Z</time>
      </trkpt>
      <trkpt lat="44.65971" lon="3.84613">
        <ele>1149.8000488281</ele>
        <time>2023-05-08T07:47:50Z</time>
      </trkpt>
      <trkpt lat="44.65952" lon="3.84623">
        <ele>1149</ele>
        <time>2023-05-08T07:47:54Z</time>
      </trkpt>
      <trkpt lat="44.65946" lon="3.84627">
        <ele>1149</ele>
        <time>2023-05-08T07:47:55Z</time>
      </trkpt>
      <trkpt lat="44.65937" lon="3.84637">
        <ele>1148.5999755859</ele>
        <time>2023-05-08T07:47:57Z</time>
      </trkpt>
      <trkpt lat="44.65933" lon="3.84642">
        <ele>1148.4000244141</ele>
        <time>2023-05-08T07:47:58Z</time>
      </trkpt>
      <trkpt lat="44.65923" lon="3.84655">
        <ele>1148</ele>
        <time>2023-05-08T07:48:01Z</time>
      </trkpt>
      <trkpt lat="44.65909" lon="3.84679">
        <ele>1146.8000488281</ele>
        <time>2023-05-08T07:48:06Z</time>
      </trkpt>
      <trkpt lat="44.65897" lon="3.84704">
        <ele>1146.1999511719</ele>
        <time>2023-05-08T07:48:11Z</time>
      </trkpt>
      <trkpt lat="44.65888" lon="3.84722">
        <ele>1145.1999511719</ele>
        <time>2023-05-08T07:48:16Z</time>
      </trkpt>
      <trkpt lat="44.65887" lon="3.84725">
        <ele>1145</ele>
        <time>2023-05-08T07:48:17Z</time>
      </trkpt>
      <trkpt lat="44.65881" lon="3.84742">
        <ele>1144.5999755859</ele>
        <time>2023-05-08T07:48:22Z</time>
      </trkpt>
      <trkpt lat="44.65877" lon="3.84754">
        <ele>1144.5999755859</ele>
        <time>2023-05-08T07:48:25Z</time>
      </trkpt>
      <trkpt lat="44.65875" lon="3.84775">
        <ele>1144.5999755859</ele>
        <time>2023-05-08T07:48:30Z</time>
      </trkpt>
      <trkpt lat="44.65873" lon="3.84793">
        <ele>1144.5999755859</ele>
        <time>2023-05-08T07:48:34Z</time>
      </trkpt>
      <trkpt lat="44.65871" lon="3.84807">
        <ele>1145.1999511719</ele>
        <time>2023-05-08T07:48:37Z</time>
      </trkpt>
      <trkpt lat="44.65873" lon="3.84812">
        <ele>1145.1999511719</ele>
        <time>2023-05-08T07:48:38Z</time>
      </trkpt>
      <trkpt lat="44.65873" lon="3.84816">
        <ele>1145.4000244141</ele>
        <time>2023-05-08T07:48:39Z</time>
      </trkpt>
      <trkpt lat="44.65871" lon="3.84825">
        <ele>1145.5999755859</ele>
        <time>2023-05-08T07:48:41Z</time>
      </trkpt>
      <trkpt lat="44.65863" lon="3.84848">
        <ele>1147</ele>
        <time>2023-05-08T07:48:47Z</time>
      </trkpt>
      <trkpt lat="44.65857" lon="3.84871">
        <ele>1148.1999511719</ele>
        <time>2023-05-08T07:48:53Z</time>
      </trkpt>
      <trkpt lat="44.65856" lon="3.84877">
        <ele>1148.4000244141</ele>
        <time>2023-05-08T07:48:55Z</time>
      </trkpt>
      <trkpt lat="44.65854" lon="3.84886">
        <ele>1148.8000488281</ele>
        <time>2023-05-08T07:48:58Z</time>
      </trkpt>
      <trkpt lat="44.6585" lon="3.84905">
        <ele>1150.1999511719</ele>
        <time>2023-05-08T07:49:04Z</time>
      </trkpt>
      <trkpt lat="44.65848" lon="3.8492">
        <ele>1151.5999755859</ele>
        <time>2023-05-08T07:49:09Z</time>
      </trkpt>
      <trkpt lat="44.65846" lon="3.8493">
        <ele>1152.4000244141</ele>
        <time>2023-05-08T07:49:13Z</time>
      </trkpt>
      <trkpt lat="44.65845" lon="3.84935">
        <ele>1152.8000488281</ele>
        <time>2023-05-08T07:49:15Z</time>
      </trkpt>
      <trkpt lat="44.65842" lon="3.84951">
        <ele>1154.1999511719</ele>
        <time>2023-05-08T07:49:20Z</time>
      </trkpt>
      <trkpt lat="44.65836" lon="3.84967">
        <ele>1155.5999755859</ele>
        <time>2023-05-08T07:49:27Z</time>
      </trkpt>
      <trkpt lat="44.65829" lon="3.84986">
        <ele>1157</ele>
        <time>2023-05-08T07:49:35Z</time>
      </trkpt>
      <trkpt lat="44.65826" lon="3.84992">
        <ele>1157.4000244141</ele>
        <time>2023-05-08T07:49:38Z</time>
      </trkpt>
      <trkpt lat="44.65823" lon="3.84996">
        <ele>1157.5999755859</ele>
        <time>2023-05-08T07:49:40Z</time>
      </trkpt>
      <trkpt lat="44.65816" lon="3.85014">
        <ele>1158.4000244141</ele>
        <time>2023-05-08T07:49:46Z</time>
      </trkpt>
      <trkpt lat="44.65812" lon="3.85024">
        <ele>1158.8000488281</ele>
        <time>2023-05-08T07:49:49Z</time>
      </trkpt>
      <trkpt lat="44.65809" lon="3.85031">
        <ele>1159</ele>
        <time>2023-05-08T07:49:51Z</time>
      </trkpt>
      <trkpt lat="44.65801" lon="3.85055">
        <ele>1159.8000488281</ele>
        <time>2023-05-08T07:49:58Z</time>
      </trkpt>
      <trkpt lat="44.65794" lon="3.8507">
        <ele>1160.1999511719</ele>
        <time>2023-05-08T07:50:02Z</time>
      </trkpt>
      <trkpt lat="44.65786" lon="3.85095">
        <ele>1161</ele>
        <time>2023-05-08T07:50:09Z</time>
      </trkpt>
      <trkpt lat="44.6578" lon="3.85113">
        <ele>1161.4000244141</ele>
        <time>2023-05-08T07:50:14Z</time>
      </trkpt>
      <trkpt lat="44.6577" lon="3.85138">
        <ele>1162</ele>
        <time>2023-05-08T07:50:22Z</time>
      </trkpt>
      <trkpt lat="44.65764" lon="3.85156">
        <ele>1162.1999511719</ele>
        <time>2023-05-08T07:50:27Z</time>
      </trkpt>
      <trkpt lat="44.65757" lon="3.85175">
        <ele>1162.4000244141</ele>
        <time>2023-05-08T07:50:32Z</time>
      </trkpt>
      <trkpt lat="44.65744" lon="3.85207">
        <ele>1163.1999511719</ele>
        <time>2023-05-08T07:50:39Z</time>
      </trkpt>
      <trkpt lat="44.65738" lon="3.85224">
        <ele>1163.8000488281</ele>
        <time>2023-05-08T07:50:43Z</time>
      </trkpt>
      <trkpt lat="44.65727" lon="3.85246">
        <ele>1164.8000488281</ele>
        <time>2023-05-08T07:50:49Z</time>
      </trkpt>
      <trkpt lat="44.65717" lon="3.85254">
        <ele>1165.4000244141</ele>
        <time>2023-05-08T07:50:55Z</time>
      </trkpt>
      <trkpt lat="44.65709" lon="3.85257">
        <ele>1165.5999755859</ele>
        <time>2023-05-08T07:51:00Z</time>
      </trkpt>
      <trkpt lat="44.65701" lon="3.85266">
        <ele>1166.5999755859</ele>
        <time>2023-05-08T07:51:04Z</time>
      </trkpt>
      <trkpt lat="44.65687" lon="3.85274">
        <ele>1168.8000488281</ele>
        <time>2023-05-08T07:51:11Z</time>
      </trkpt>
      <trkpt lat="44.65685" lon="3.85275">
        <ele>1169</ele>
        <time>2023-05-08T07:51:12Z</time>
      </trkpt>
      <trkpt lat="44.65681" lon="3.85276">
        <ele>1169</ele>
        <time>2023-05-08T07:51:14Z</time>
      </trkpt>
      <trkpt lat="44.65679" lon="3.85276">
        <ele>1169.1999511719</ele>
        <time>2023-05-08T07:51:15Z</time>
      </trkpt>
      <trkpt lat="44.65668" lon="3.85272">
        <ele>1169.5999755859</ele>
        <time>2023-05-08T07:51:22Z</time>
      </trkpt>
      <trkpt lat="44.65657" lon="3.85271">
        <ele>1170</ele>
        <time>2023-05-08T07:51:29Z</time>
      </trkpt>
      <trkpt lat="44.65646" lon="3.85273">
        <ele>1170.5999755859</ele>
        <time>2023-05-08T07:51:36Z</time>
      </trkpt>
      <trkpt lat="44.65632" lon="3.8528">
        <ele>1171.4000244141</ele>
        <time>2023-05-08T07:51:42Z</time>
      </trkpt>
      <trkpt lat="44.65612" lon="3.85299">
        <ele>1174</ele>
        <time>2023-05-08T07:51:50Z</time>
      </trkpt>
      <trkpt lat="44.656" lon="3.85302">
        <ele>1175.1999511719</ele>
        <time>2023-05-08T07:51:56Z</time>
      </trkpt>
      <trkpt lat="44.65588" lon="3.85302">
        <ele>1176.1999511719</ele>
        <time>2023-05-08T07:52:02Z</time>
      </trkpt>
      <trkpt lat="44.65569" lon="3.85303">
        <ele>1177.5999755859</ele>
        <time>2023-05-08T07:52:11Z</time>
      </trkpt>
      <trkpt lat="44.65564" lon="3.85304">
        <ele>1178</ele>
        <time>2023-05-08T07:52:13Z</time>
      </trkpt>
      <trkpt lat="44.6556" lon="3.85303">
        <ele>1178</ele>
        <time>2023-05-08T07:52:15Z</time>
      </trkpt>
      <trkpt lat="44.65544" lon="3.85302">
        <ele>1178.1999511719</ele>
        <time>2023-05-08T07:52:22Z</time>
      </trkpt>
      <trkpt lat="44.65535" lon="3.85302">
        <ele>1178.1999511719</ele>
        <time>2023-05-08T07:52:26Z</time>
      </trkpt>
      <trkpt lat="44.65533" lon="3.85302">
        <ele>1178.1999511719</ele>
        <time>2023-05-08T07:52:27Z</time>
      </trkpt>
      <trkpt lat="44.65531" lon="3.85302">
        <ele>1178</ele>
        <time>2023-05-08T07:52:28Z</time>
      </trkpt>
      <trkpt lat="44.65524" lon="3.85304">
        <ele>1178</ele>
        <time>2023-05-08T07:52:31Z</time>
      </trkpt>
      <trkpt lat="44.65519" lon="3.85305">
        <ele>1177.8000488281</ele>
        <time>2023-05-08T07:52:33Z</time>
      </trkpt>
      <trkpt lat="44.65515" lon="3.85305">
        <ele>1177.8000488281</ele>
        <time>2023-05-08T07:52:35Z</time>
      </trkpt>
      <trkpt lat="44.65505" lon="3.85303">
        <ele>1177.1999511719</ele>
        <time>2023-05-08T07:52:40Z</time>
      </trkpt>
      <trkpt lat="44.65503" lon="3.85301">
        <ele>1177</ele>
        <time>2023-05-08T07:52:41Z</time>
      </trkpt>
      <trkpt lat="44.65495" lon="3.85302">
        <ele>1176.5999755859</ele>
        <time>2023-05-08T07:52:45Z</time>
      </trkpt>
      <trkpt lat="44.6548" lon="3.8532">
        <ele>1177.5999755859</ele>
        <time>2023-05-08T07:52:51Z</time>
      </trkpt>
      <trkpt lat="44.6547" lon="3.85319">
        <ele>1178.1999511719</ele>
        <time>2023-05-08T07:52:57Z</time>
      </trkpt>
      <trkpt lat="44.65467" lon="3.85319">
        <ele>1178.4000244141</ele>
        <time>2023-05-08T07:52:59Z</time>
      </trkpt>
      <trkpt lat="44.65463" lon="3.85319">
        <ele>1178.5999755859</ele>
        <time>2023-05-08T07:53:02Z</time>
      </trkpt>
      <trkpt lat="44.65455" lon="3.85319">
        <ele>1178.1999511719</ele>
        <time>2023-05-08T07:53:07Z</time>
      </trkpt>
      <trkpt lat="44.65445" lon="3.85326">
        <ele>1177.4000244141</ele>
        <time>2023-05-08T07:53:12Z</time>
      </trkpt>
      <trkpt lat="44.65429" lon="3.85332">
        <ele>1176.1999511719</ele>
        <time>2023-05-08T07:53:19Z</time>
      </trkpt>
      <trkpt lat="44.65411" lon="3.85342">
        <ele>1175.1999511719</ele>
        <time>2023-05-08T07:53:26Z</time>
      </trkpt>
      <trkpt lat="44.65392" lon="3.85353">
        <ele>1174</ele>
        <time>2023-05-08T07:53:32Z</time>
      </trkpt>
      <trkpt lat="44.6537" lon="3.85377">
        <ele>1174.8000488281</ele>
        <time>2023-05-08T07:53:39Z</time>
      </trkpt>
      <trkpt lat="44.65349" lon="3.85403">
        <ele>1176.1999511719</ele>
        <time>2023-05-08T07:53:45Z</time>
      </trkpt>
      <trkpt lat="44.65332" lon="3.85419">
        <ele>1177.1999511719</ele>
        <time>2023-05-08T07:53:50Z</time>
      </trkpt>
      <trkpt lat="44.65319" lon="3.85429">
        <ele>1177.8000488281</ele>
        <time>2023-05-08T07:53:54Z</time>
      </trkpt>
      <trkpt lat="44.65305" lon="3.85446">
        <ele>1179.8000488281</ele>
        <time>2023-05-08T07:53:58Z</time>
      </trkpt>
      <trkpt lat="44.6529" lon="3.85453">
        <ele>1180.1999511719</ele>
        <time>2023-05-08T07:54:04Z</time>
      </trkpt>
      <trkpt lat="44.65277" lon="3.85458">
        <ele>1181</ele>
        <time>2023-05-08T07:54:10Z</time>
      </trkpt>
      <trkpt lat="44.65263" lon="3.85469">
        <ele>1182</ele>
        <time>2023-05-08T07:54:16Z</time>
      </trkpt>
      <trkpt lat="44.65247" lon="3.85482">
        <ele>1183.1999511719</ele>
        <time>2023-05-08T07:54:22Z</time>
      </trkpt>
      <trkpt lat="44.65227" lon="3.85498">
        <ele>1184.5999755859</ele>
        <time>2023-05-08T07:54:29Z</time>
      </trkpt>
      <trkpt lat="44.65204" lon="3.85518">
        <ele>1186.4000244141</ele>
        <time>2023-05-08T07:54:37Z</time>
      </trkpt>
      <trkpt lat="44.65177" lon="3.85552">
        <ele>1191</ele>
        <time>2023-05-08T07:54:44Z</time>
      </trkpt>
      <trkpt lat="44.65155" lon="3.85569">
        <ele>1193</ele>
        <time>2023-05-08T07:54:51Z</time>
      </trkpt>
      <trkpt lat="44.65136" lon="3.85584">
        <ele>1194.5999755859</ele>
        <time>2023-05-08T07:54:57Z</time>
      </trkpt>
      <trkpt lat="44.65124" lon="3.85592">
        <ele>1195.5999755859</ele>
        <time>2023-05-08T07:55:01Z</time>
      </trkpt>
      <trkpt lat="44.65112" lon="3.85603">
        <ele>1196.5999755859</ele>
        <time>2023-05-08T07:55:05Z</time>
      </trkpt>
      <trkpt lat="44.65095" lon="3.85617">
        <ele>1197.5999755859</ele>
        <time>2023-05-08T07:55:10Z</time>
      </trkpt>
      <trkpt lat="44.65078" lon="3.85632">
        <ele>1199</ele>
        <time>2023-05-08T07:55:15Z</time>
      </trkpt>
      <trkpt lat="44.65055" lon="3.8565">
        <ele>1200.4000244141</ele>
        <time>2023-05-08T07:55:22Z</time>
      </trkpt>
      <trkpt lat="44.6503" lon="3.85659">
        <ele>1201.1999511719</ele>
        <time>2023-05-08T07:55:28Z</time>
      </trkpt>
      <trkpt lat="44.65025" lon="3.85659">
        <ele>1201.1999511719</ele>
        <time>2023-05-08T07:55:29Z</time>
      </trkpt>
      <trkpt lat="44.65015" lon="3.85659">
        <ele>1201.4000244141</ele>
        <time>2023-05-08T07:55:31Z</time>
      </trkpt>
      <trkpt lat="44.6501" lon="3.85659">
        <ele>1201.5999755859</ele>
        <time>2023-05-08T07:55:32Z</time>
      </trkpt>
      <trkpt lat="44.65005" lon="3.85658">
        <ele>1201.5999755859</ele>
        <time>2023-05-08T07:55:33Z</time>
      </trkpt>
      <trkpt lat="44.64983" lon="3.85658">
        <ele>1202.1999511719</ele>
        <time>2023-05-08T07:55:37Z</time>
      </trkpt>
      <trkpt lat="44.64974" lon="3.85663">
        <ele>1202.1999511719</ele>
        <time>2023-05-08T07:55:39Z</time>
      </trkpt>
      <trkpt lat="44.6497" lon="3.85668">
        <ele>1202.4000244141</ele>
        <time>2023-05-08T07:55:40Z</time>
      </trkpt>
      <trkpt lat="44.64967" lon="3.85674">
        <ele>1202.4000244141</ele>
        <time>2023-05-08T07:55:41Z</time>
      </trkpt>
      <trkpt lat="44.64958" lon="3.85693">
        <ele>1202.8000488281</ele>
        <time>2023-05-08T07:55:44Z</time>
      </trkpt>
      <trkpt lat="44.6494" lon="3.8573">
        <ele>1203.1999511719</ele>
        <time>2023-05-08T07:55:50Z</time>
      </trkpt>
      <trkpt lat="44.6492" lon="3.85763">
        <ele>1203.5999755859</ele>
        <time>2023-05-08T07:55:56Z</time>
      </trkpt>
      <trkpt lat="44.64896" lon="3.85795">
        <ele>1204</ele>
        <time>2023-05-08T07:56:02Z</time>
      </trkpt>
      <trkpt lat="44.64866" lon="3.85831">
        <ele>1204.5999755859</ele>
        <time>2023-05-08T07:56:08Z</time>
      </trkpt>
      <trkpt lat="44.64861" lon="3.85838">
        <ele>1204.5999755859</ele>
        <time>2023-05-08T07:56:09Z</time>
      </trkpt>
      <trkpt lat="44.64847" lon="3.85847">
        <ele>1204.8000488281</ele>
        <time>2023-05-08T07:56:11Z</time>
      </trkpt>
      <trkpt lat="44.6484" lon="3.85852">
        <ele>1205</ele>
        <time>2023-05-08T07:56:12Z</time>
      </trkpt>
      <trkpt lat="44.64803" lon="3.85874">
        <ele>1205.5999755859</ele>
        <time>2023-05-08T07:56:17Z</time>
      </trkpt>
      <trkpt lat="44.64797" lon="3.85878">
        <ele>1205.8000488281</ele>
        <time>2023-05-08T07:56:18Z</time>
      </trkpt>
      <trkpt lat="44.64782" lon="3.85888">
        <ele>1206.1999511719</ele>
        <time>2023-05-08T07:56:21Z</time>
      </trkpt>
      <trkpt lat="44.64762" lon="3.85898">
        <ele>1206.8000488281</ele>
        <time>2023-05-08T07:56:26Z</time>
      </trkpt>
      <trkpt lat="44.64743" lon="3.85907">
        <ele>1207.1999511719</ele>
        <time>2023-05-08T07:56:30Z</time>
      </trkpt>
      <trkpt lat="44.64733" lon="3.8591">
        <ele>1207.4000244141</ele>
        <time>2023-05-08T07:56:32Z</time>
      </trkpt>
      <trkpt lat="44.64711" lon="3.85916">
        <ele>1207.8000488281</ele>
        <time>2023-05-08T07:56:36Z</time>
      </trkpt>
      <trkpt lat="44.64686" lon="3.85926">
        <ele>1208</ele>
        <time>2023-05-08T07:56:40Z</time>
      </trkpt>
      <trkpt lat="44.64679" lon="3.85931">
        <ele>1208</ele>
        <time>2023-05-08T07:56:41Z</time>
      </trkpt>
      <trkpt lat="44.6466" lon="3.85951">
        <ele>1208.1999511719</ele>
        <time>2023-05-08T07:56:45Z</time>
      </trkpt>
      <trkpt lat="44.64644" lon="3.85974">
        <ele>1208.5999755859</ele>
        <time>2023-05-08T07:56:50Z</time>
      </trkpt>
      <trkpt lat="44.64635" lon="3.85985">
        <ele>1208.5999755859</ele>
        <time>2023-05-08T07:56:53Z</time>
      </trkpt>
      <trkpt lat="44.64631" lon="3.8599">
        <ele>1208.8000488281</ele>
        <time>2023-05-08T07:56:54Z</time>
      </trkpt>
      <trkpt lat="44.64614" lon="3.86009">
        <ele>1209</ele>
        <time>2023-05-08T07:56:59Z</time>
      </trkpt>
      <trkpt lat="44.64611" lon="3.86014">
        <ele>1209</ele>
        <time>2023-05-08T07:57:00Z</time>
      </trkpt>
      <trkpt lat="44.64597" lon="3.8603">
        <ele>1209.1999511719</ele>
        <time>2023-05-08T07:57:04Z</time>
      </trkpt>
      <trkpt lat="44.64589" lon="3.86037">
        <ele>1209.4000244141</ele>
        <time>2023-05-08T07:57:06Z</time>
      </trkpt>
      <trkpt lat="44.64584" lon="3.86039">
        <ele>1209.4000244141</ele>
        <time>2023-05-08T07:57:07Z</time>
      </trkpt>
      <trkpt lat="44.64566" lon="3.86043">
        <ele>1209.4000244141</ele>
        <time>2023-05-08T07:57:11Z</time>
      </trkpt>
      <trkpt lat="44.64551" lon="3.86044">
        <ele>1209.4000244141</ele>
        <time>2023-05-08T07:57:14Z</time>
      </trkpt>
      <trkpt lat="44.64546" lon="3.86043">
        <ele>1209.4000244141</ele>
        <time>2023-05-08T07:57:15Z</time>
      </trkpt>
      <trkpt lat="44.64541" lon="3.86042">
        <ele>1209.4000244141</ele>
        <time>2023-05-08T07:57:16Z</time>
      </trkpt>
      <trkpt lat="44.64532" lon="3.86037">
        <ele>1209.1999511719</ele>
        <time>2023-05-08T07:57:18Z</time>
      </trkpt>
      <trkpt lat="44.64525" lon="3.86029">
        <ele>1209</ele>
        <time>2023-05-08T07:57:20Z</time>
      </trkpt>
      <trkpt lat="44.64517" lon="3.8602">
        <ele>1208.8000488281</ele>
        <time>2023-05-08T07:57:22Z</time>
      </trkpt>
      <trkpt lat="44.64509" lon="3.8601">
        <ele>1208.4000244141</ele>
        <time>2023-05-08T07:57:24Z</time>
      </trkpt>
      <trkpt lat="44.64504" lon="3.86005">
        <ele>1208.4000244141</ele>
        <time>2023-05-08T07:57:25Z</time>
      </trkpt>
      <trkpt lat="44.64494" lon="3.85998">
        <ele>1208</ele>
        <time>2023-05-08T07:57:27Z</time>
      </trkpt>
      <trkpt lat="44.64482" lon="3.8599">
        <ele>1207.5999755859</ele>
        <time>2023-05-08T07:57:29Z</time>
      </trkpt>
      <trkpt lat="44.64476" lon="3.85987">
        <ele>1207.4000244141</ele>
        <time>2023-05-08T07:57:30Z</time>
      </trkpt>
      <trkpt lat="44.64458" lon="3.85977">
        <ele>1206.8000488281</ele>
        <time>2023-05-08T07:57:33Z</time>
      </trkpt>
      <trkpt lat="44.64447" lon="3.85969">
        <ele>1206</ele>
        <time>2023-05-08T07:57:35Z</time>
      </trkpt>
      <trkpt lat="44.64436" lon="3.85959">
        <ele>1205.4000244141</ele>
        <time>2023-05-08T07:57:37Z</time>
      </trkpt>
      <trkpt lat="44.64424" lon="3.85953">
        <ele>1204.4000244141</ele>
        <time>2023-05-08T07:57:39Z</time>
      </trkpt>
      <trkpt lat="44.64418" lon="3.85949">
        <ele>1204</ele>
        <time>2023-05-08T07:57:40Z</time>
      </trkpt>
      <trkpt lat="44.64399" lon="3.85938">
        <ele>1203.1999511719</ele>
        <time>2023-05-08T07:57:43Z</time>
      </trkpt>
      <trkpt lat="44.64372" lon="3.85911">
        <ele>1202</ele>
        <time>2023-05-08T07:57:47Z</time>
      </trkpt>
      <trkpt lat="44.64344" lon="3.85885">
        <ele>1200.4000244141</ele>
        <time>2023-05-08T07:57:51Z</time>
      </trkpt>
      <trkpt lat="44.64332" lon="3.85873">
        <ele>1199.5999755859</ele>
        <time>2023-05-08T07:57:53Z</time>
      </trkpt>
      <trkpt lat="44.64326" lon="3.85868">
        <ele>1199.1999511719</ele>
        <time>2023-05-08T07:57:54Z</time>
      </trkpt>
      <trkpt lat="44.64319" lon="3.85865">
        <ele>1198.8000488281</ele>
        <time>2023-05-08T07:57:55Z</time>
      </trkpt>
      <trkpt lat="44.64306" lon="3.85865">
        <ele>1198.1999511719</ele>
        <time>2023-05-08T07:57:57Z</time>
      </trkpt>
      <trkpt lat="44.64298" lon="3.85865">
        <ele>1198</ele>
        <time>2023-05-08T07:57:58Z</time>
      </trkpt>
      <trkpt lat="44.64281" lon="3.85867">
        <ele>1196.8000488281</ele>
        <time>2023-05-08T07:58:01Z</time>
      </trkpt>
      <trkpt lat="44.64271" lon="3.8587">
        <ele>1195.8000488281</ele>
        <time>2023-05-08T07:58:04Z</time>
      </trkpt>
      <trkpt lat="44.64267" lon="3.85865">
        <ele>1193.4000244141</ele>
        <time>2023-05-08T07:58:09Z</time>
      </trkpt>
      <trkpt lat="44.64265" lon="3.85857">
        <ele>1191.1999511719</ele>
        <time>2023-05-08T07:58:13Z</time>
      </trkpt>
      <trkpt lat="44.6426" lon="3.85842">
        <ele>1190</ele>
        <time>2023-05-08T07:58:15Z</time>
      </trkpt>
      <trkpt lat="44.64255" lon="3.85827">
        <ele>1188.8000488281</ele>
        <time>2023-05-08T07:58:17Z</time>
      </trkpt>
      <trkpt lat="44.6425" lon="3.85813">
        <ele>1187.5999755859</ele>
        <time>2023-05-08T07:58:19Z</time>
      </trkpt>
      <trkpt lat="44.64243" lon="3.85802">
        <ele>1186.4000244141</ele>
        <time>2023-05-08T07:58:21Z</time>
      </trkpt>
      <trkpt lat="44.64238" lon="3.85787">
        <ele>1185.5999755859</ele>
        <time>2023-05-08T07:58:23Z</time>
      </trkpt>
      <trkpt lat="44.64239" lon="3.85779">
        <ele>1185.5999755859</ele>
        <time>2023-05-08T07:58:24Z</time>
      </trkpt>
      <trkpt lat="44.64239" lon="3.8577">
        <ele>1185.4000244141</ele>
        <time>2023-05-08T07:58:25Z</time>
      </trkpt>
      <trkpt lat="44.64235" lon="3.85753">
        <ele>1185</ele>
        <time>2023-05-08T07:58:28Z</time>
      </trkpt>
      <trkpt lat="44.64228" lon="3.85735">
        <ele>1183.4000244141</ele>
        <time>2023-05-08T07:58:32Z</time>
      </trkpt>
      <trkpt lat="44.64223" lon="3.85721">
        <ele>1182.5999755859</ele>
        <time>2023-05-08T07:58:35Z</time>
      </trkpt>
      <trkpt lat="44.64221" lon="3.85717">
        <ele>1182.4000244141</ele>
        <time>2023-05-08T07:58:36Z</time>
      </trkpt>
      <trkpt lat="44.64213" lon="3.85687">
        <ele>1184.5999755859</ele>
        <time>2023-05-08T07:58:41Z</time>
      </trkpt>
      <trkpt lat="44.64211" lon="3.85681">
        <ele>1185.4000244141</ele>
        <time>2023-05-08T07:58:42Z</time>
      </trkpt>
      <trkpt lat="44.64211" lon="3.85679">
        <ele>1185.5999755859</ele>
        <time>2023-05-08T07:58:44Z</time>
      </trkpt>
      <trkpt lat="44.6421" lon="3.85678">
        <ele>1183.5999755859</ele>
        <time>2023-05-08T07:59:03Z</time>
      </trkpt>
      <trkpt lat="44.64208" lon="3.85677">
        <ele>1183.1999511719</ele>
        <time>2023-05-08T07:59:05Z</time>
      </trkpt>
      <trkpt lat="44.64207" lon="3.85677">
        <ele>1183.1999511719</ele>
        <time>2023-05-08T07:59:06Z</time>
      </trkpt>
      <trkpt lat="44.64201" lon="3.85667">
        <ele>1184.4000244141</ele>
        <time>2023-05-08T07:59:10Z</time>
      </trkpt>
      <trkpt lat="44.64191" lon="3.85659">
        <ele>1184.8000488281</ele>
        <time>2023-05-08T07:59:16Z</time>
      </trkpt>
      <trkpt lat="44.64185" lon="3.85656">
        <ele>1184.8000488281</ele>
        <time>2023-05-08T07:59:21Z</time>
      </trkpt>
      <trkpt lat="44.6418" lon="3.85656">
        <ele>1185.1999511719</ele>
        <time>2023-05-08T07:59:27Z</time>
      </trkpt>
      <trkpt lat="44.64179" lon="3.85655">
        <ele>1185</ele>
        <time>2023-05-08T07:59:29Z</time>
      </trkpt>
      <trkpt lat="44.64176" lon="3.85656">
        <ele>1191.1999511719</ele>
        <time>2023-05-08T08:06:32Z</time>
      </trkpt>
      <trkpt lat="44.64174" lon="3.85658">
        <ele>1191.4000244141</ele>
        <time>2023-05-08T08:06:33Z</time>
      </trkpt>
      <trkpt lat="44.6417" lon="3.8566">
        <ele>1192</ele>
        <time>2023-05-08T08:06:36Z</time>
      </trkpt>
      <trkpt lat="44.64167" lon="3.85663">
        <ele>1192</ele>
        <time>2023-05-08T08:06:37Z</time>
      </trkpt>
      <trkpt lat="44.64159" lon="3.85668">
        <ele>1192</ele>
        <time>2023-05-08T08:06:40Z</time>
      </trkpt>
      <trkpt lat="44.64146" lon="3.85677">
        <ele>1192</ele>
        <time>2023-05-08T08:06:44Z</time>
      </trkpt>
      <trkpt lat="44.64141" lon="3.85678">
        <ele>1192</ele>
        <time>2023-05-08T08:06:45Z</time>
      </trkpt>
      <trkpt lat="44.64129" lon="3.85685">
        <ele>1191.5999755859</ele>
        <time>2023-05-08T08:06:49Z</time>
      </trkpt>
      <trkpt lat="44.64127" lon="3.85685">
        <ele>1191.5999755859</ele>
        <time>2023-05-08T08:06:50Z</time>
      </trkpt>
      <trkpt lat="44.64124" lon="3.85686">
        <ele>1191.5999755859</ele>
        <time>2023-05-08T08:06:51Z</time>
      </trkpt>
      <trkpt lat="44.64112" lon="3.85693">
        <ele>1192</ele>
        <time>2023-05-08T08:06:55Z</time>
      </trkpt>
      <trkpt lat="44.64109" lon="3.85694">
        <ele>1192.1999511719</ele>
        <time>2023-05-08T08:06:56Z</time>
      </trkpt>
      <trkpt lat="44.64095" lon="3.85699">
        <ele>1192.4000244141</ele>
        <time>2023-05-08T08:07:00Z</time>
      </trkpt>
      <trkpt lat="44.64078" lon="3.85709">
        <ele>1192.8000488281</ele>
        <time>2023-05-08T08:07:04Z</time>
      </trkpt>
      <trkpt lat="44.64067" lon="3.85717">
        <ele>1193</ele>
        <time>2023-05-08T08:07:07Z</time>
      </trkpt>
      <trkpt lat="44.64061" lon="3.85721">
        <ele>1193.1999511719</ele>
        <time>2023-05-08T08:07:09Z</time>
      </trkpt>
      <trkpt lat="44.64053" lon="3.85723">
        <ele>1193.1999511719</ele>
        <time>2023-05-08T08:07:11Z</time>
      </trkpt>
      <trkpt lat="44.64037" lon="3.85733">
        <ele>1193.8000488281</ele>
        <time>2023-05-08T08:07:14Z</time>
      </trkpt>
      <trkpt lat="44.64025" lon="3.85738">
        <ele>1194.5999755859</ele>
        <time>2023-05-08T08:07:16Z</time>
      </trkpt>
      <trkpt lat="44.64021" lon="3.85719">
        <ele>1195.4000244141</ele>
        <time>2023-05-08T08:07:20Z</time>
      </trkpt>
      <trkpt lat="44.64023" lon="3.85679">
        <ele>1196.4000244141</ele>
        <time>2023-05-08T08:07:29Z</time>
      </trkpt>
      <trkpt lat="44.64024" lon="3.85654">
        <ele>1197.4000244141</ele>
        <time>2023-05-08T08:07:35Z</time>
      </trkpt>
      <trkpt lat="44.64022" lon="3.85634">
        <ele>1198.5999755859</ele>
        <time>2023-05-08T08:07:41Z</time>
      </trkpt>
      <trkpt lat="44.64022" lon="3.85607">
        <ele>1200.1999511719</ele>
        <time>2023-05-08T08:07:49Z</time>
      </trkpt>
      <trkpt lat="44.64022" lon="3.85586">
        <ele>1201.4000244141</ele>
        <time>2023-05-08T08:07:56Z</time>
      </trkpt>
      <trkpt lat="44.64021" lon="3.85563">
        <ele>1202.5999755859</ele>
        <time>2023-05-08T08:08:03Z</time>
      </trkpt>
      <trkpt lat="44.64021" lon="3.85538">
        <ele>1204</ele>
        <time>2023-05-08T08:08:11Z</time>
      </trkpt>
      <trkpt lat="44.6402" lon="3.85523">
        <ele>1205</ele>
        <time>2023-05-08T08:08:16Z</time>
      </trkpt>
      <trkpt lat="44.6402" lon="3.85519">
        <ele>1205.1999511719</ele>
        <time>2023-05-08T08:08:17Z</time>
      </trkpt>
      <trkpt lat="44.64019" lon="3.85492">
        <ele>1207</ele>
        <time>2023-05-08T08:08:25Z</time>
      </trkpt>
      <trkpt lat="44.64019" lon="3.85468">
        <ele>1208.4000244141</ele>
        <time>2023-05-08T08:08:32Z</time>
      </trkpt>
      <trkpt lat="44.64016" lon="3.85434">
        <ele>1209.5999755859</ele>
        <time>2023-05-08T08:08:41Z</time>
      </trkpt>
      <trkpt lat="44.64015" lon="3.85412">
        <ele>1210.5999755859</ele>
        <time>2023-05-08T08:08:47Z</time>
      </trkpt>
      <trkpt lat="44.64014" lon="3.85409">
        <ele>1210.8000488281</ele>
        <time>2023-05-08T08:08:48Z</time>
      </trkpt>
      <trkpt lat="44.64013" lon="3.85397">
        <ele>1211.4000244141</ele>
        <time>2023-05-08T08:08:51Z</time>
      </trkpt>
      <trkpt lat="44.64009" lon="3.85369">
        <ele>1212.1999511719</ele>
        <time>2023-05-08T08:08:58Z</time>
      </trkpt>
      <trkpt lat="44.64006" lon="3.85343">
        <ele>1213.4000244141</ele>
        <time>2023-05-08T08:09:05Z</time>
      </trkpt>
      <trkpt lat="44.64003" lon="3.85317">
        <ele>1214.5999755859</ele>
        <time>2023-05-08T08:09:12Z</time>
      </trkpt>
      <trkpt lat="44.64" lon="3.85286">
        <ele>1215.5999755859</ele>
        <time>2023-05-08T08:09:20Z</time>
      </trkpt>
      <trkpt lat="44.63997" lon="3.85257">
        <ele>1216.4000244141</ele>
        <time>2023-05-08T08:09:28Z</time>
      </trkpt>
      <trkpt lat="44.63993" lon="3.85239">
        <ele>1217</ele>
        <time>2023-05-08T08:09:33Z</time>
      </trkpt>
      <trkpt lat="44.63989" lon="3.85226">
        <ele>1217.4000244141</ele>
        <time>2023-05-08T08:09:37Z</time>
      </trkpt>
      <trkpt lat="44.63986" lon="3.85216">
        <ele>1217.5999755859</ele>
        <time>2023-05-08T08:09:40Z</time>
      </trkpt>
      <trkpt lat="44.63985" lon="3.85213">
        <ele>1217.5999755859</ele>
        <time>2023-05-08T08:09:41Z</time>
      </trkpt>
      <trkpt lat="44.63976" lon="3.85192">
        <ele>1218.1999511719</ele>
        <time>2023-05-08T08:09:48Z</time>
      </trkpt>
      <trkpt lat="44.63966" lon="3.85171">
        <ele>1218.5999755859</ele>
        <time>2023-05-08T08:09:54Z</time>
      </trkpt>
      <trkpt lat="44.63959" lon="3.85149">
        <ele>1219</ele>
        <time>2023-05-08T08:10:00Z</time>
      </trkpt>
      <trkpt lat="44.6395" lon="3.85135">
        <ele>1219.4000244141</ele>
        <time>2023-05-08T08:10:05Z</time>
      </trkpt>
      <trkpt lat="44.63939" lon="3.85111">
        <ele>1219.5999755859</ele>
        <time>2023-05-08T08:10:12Z</time>
      </trkpt>
      <trkpt lat="44.63925" lon="3.85091">
        <ele>1219.5999755859</ele>
        <time>2023-05-08T08:10:19Z</time>
      </trkpt>
      <trkpt lat="44.63913" lon="3.85067">
        <ele>1220</ele>
        <time>2023-05-08T08:10:26Z</time>
      </trkpt>
      <trkpt lat="44.63896" lon="3.85042">
        <ele>1221.4000244141</ele>
        <time>2023-05-08T08:10:35Z</time>
      </trkpt>
      <trkpt lat="44.63882" lon="3.85027">
        <ele>1222.1999511719</ele>
        <time>2023-05-08T08:10:41Z</time>
      </trkpt>
      <trkpt lat="44.63869" lon="3.85012">
        <ele>1223</ele>
        <time>2023-05-08T08:10:46Z</time>
      </trkpt>
      <trkpt lat="44.63845" lon="3.84975">
        <ele>1224</ele>
        <time>2023-05-08T08:10:53Z</time>
      </trkpt>
      <trkpt lat="44.63838" lon="3.84962">
        <ele>1224.1999511719</ele>
        <time>2023-05-08T08:10:55Z</time>
      </trkpt>
      <trkpt lat="44.63826" lon="3.84936">
        <ele>1224.5999755859</ele>
        <time>2023-05-08T08:10:59Z</time>
      </trkpt>
      <trkpt lat="44.63825" lon="3.84925">
        <ele>1224.8000488281</ele>
        <time>2023-05-08T08:11:01Z</time>
      </trkpt>
      <trkpt lat="44.63827" lon="3.8492">
        <ele>1224.8000488281</ele>
        <time>2023-05-08T08:11:02Z</time>
      </trkpt>
      <trkpt lat="44.6383" lon="3.84916">
        <ele>1225</ele>
        <time>2023-05-08T08:11:03Z</time>
      </trkpt>
      <trkpt lat="44.63838" lon="3.84911">
        <ele>1225.1999511719</ele>
        <time>2023-05-08T08:11:05Z</time>
      </trkpt>
      <trkpt lat="44.63857" lon="3.84901">
        <ele>1225.5999755859</ele>
        <time>2023-05-08T08:11:11Z</time>
      </trkpt>
      <trkpt lat="44.6387" lon="3.84893">
        <ele>1226.1999511719</ele>
        <time>2023-05-08T08:11:15Z</time>
      </trkpt>
      <trkpt lat="44.63894" lon="3.84874">
        <ele>1227</ele>
        <time>2023-05-08T08:11:22Z</time>
      </trkpt>
      <trkpt lat="44.63911" lon="3.84862">
        <ele>1227.1999511719</ele>
        <time>2023-05-08T08:11:26Z</time>
      </trkpt>
      <trkpt lat="44.63928" lon="3.84853">
        <ele>1227.1999511719</ele>
        <time>2023-05-08T08:11:29Z</time>
      </trkpt>
      <trkpt lat="44.63941" lon="3.8485">
        <ele>1227.1999511719</ele>
        <time>2023-05-08T08:11:31Z</time>
      </trkpt>
      <trkpt lat="44.63952" lon="3.8484">
        <ele>1227.1999511719</ele>
        <time>2023-05-08T08:11:33Z</time>
      </trkpt>
      <trkpt lat="44.63957" lon="3.84832">
        <ele>1227.1999511719</ele>
        <time>2023-05-08T08:11:34Z</time>
      </trkpt>
      <trkpt lat="44.63963" lon="3.84813">
        <ele>1227.1999511719</ele>
        <time>2023-05-08T08:11:36Z</time>
      </trkpt>
      <trkpt lat="44.63966" lon="3.8479">
        <ele>1227</ele>
        <time>2023-05-08T08:11:38Z</time>
      </trkpt>
      <trkpt lat="44.63967" lon="3.84725">
        <ele>1226.1999511719</ele>
        <time>2023-05-08T08:11:43Z</time>
      </trkpt>
      <trkpt lat="44.63969" lon="3.84684">
        <ele>1225.4000244141</ele>
        <time>2023-05-08T08:11:46Z</time>
      </trkpt>
      <trkpt lat="44.63972" lon="3.8467">
        <ele>1225.1999511719</ele>
        <time>2023-05-08T08:11:47Z</time>
      </trkpt>
      <trkpt lat="44.63995" lon="3.84613">
        <ele>1224.4000244141</ele>
        <time>2023-05-08T08:11:52Z</time>
      </trkpt>
      <trkpt lat="44.64008" lon="3.84582">
        <ele>1224</ele>
        <time>2023-05-08T08:11:55Z</time>
      </trkpt>
      <trkpt lat="44.64015" lon="3.84561">
        <ele>1223.8000488281</ele>
        <time>2023-05-08T08:11:57Z</time>
      </trkpt>
      <trkpt lat="44.64018" lon="3.8455">
        <ele>1223.5999755859</ele>
        <time>2023-05-08T08:11:58Z</time>
      </trkpt>
      <trkpt lat="44.6402" lon="3.84528">
        <ele>1223.4000244141</ele>
        <time>2023-05-08T08:12:00Z</time>
      </trkpt>
      <trkpt lat="44.6402" lon="3.84505">
        <ele>1223.1999511719</ele>
        <time>2023-05-08T08:12:02Z</time>
      </trkpt>
      <trkpt lat="44.64018" lon="3.84492">
        <ele>1223</ele>
        <time>2023-05-08T08:12:03Z</time>
      </trkpt>
      <trkpt lat="44.64002" lon="3.84432">
        <ele>1222</ele>
        <time>2023-05-08T08:12:08Z</time>
      </trkpt>
      <trkpt lat="44.63998" lon="3.84421">
        <ele>1221.5999755859</ele>
        <time>2023-05-08T08:12:09Z</time>
      </trkpt>
      <trkpt lat="44.63993" lon="3.8441">
        <ele>1221.4000244141</ele>
        <time>2023-05-08T08:12:10Z</time>
      </trkpt>
      <trkpt lat="44.63973" lon="3.84376">
        <ele>1220.1999511719</ele>
        <time>2023-05-08T08:12:13Z</time>
      </trkpt>
      <trkpt lat="44.63944" lon="3.8432">
        <ele>1218.1999511719</ele>
        <time>2023-05-08T08:12:18Z</time>
      </trkpt>
      <trkpt lat="44.63938" lon="3.84298">
        <ele>1217.5999755859</ele>
        <time>2023-05-08T08:12:20Z</time>
      </trkpt>
      <trkpt lat="44.63937" lon="3.84288">
        <ele>1217.1999511719</ele>
        <time>2023-05-08T08:12:21Z</time>
      </trkpt>
      <trkpt lat="44.63937" lon="3.84279">
        <ele>1217</ele>
        <time>2023-05-08T08:12:22Z</time>
      </trkpt>
      <trkpt lat="44.63942" lon="3.84265">
        <ele>1216.4000244141</ele>
        <time>2023-05-08T08:12:24Z</time>
      </trkpt>
      <trkpt lat="44.63955" lon="3.84255">
        <ele>1215.5999755859</ele>
        <time>2023-05-08T08:12:27Z</time>
      </trkpt>
      <trkpt lat="44.6396" lon="3.84251">
        <ele>1215.4000244141</ele>
        <time>2023-05-08T08:12:28Z</time>
      </trkpt>
      <trkpt lat="44.63989" lon="3.84227">
        <ele>1214</ele>
        <time>2023-05-08T08:12:35Z</time>
      </trkpt>
      <trkpt lat="44.64008" lon="3.84216">
        <ele>1213.1999511719</ele>
        <time>2023-05-08T08:12:39Z</time>
      </trkpt>
      <trkpt lat="44.64017" lon="3.84211">
        <ele>1212.8000488281</ele>
        <time>2023-05-08T08:12:41Z</time>
      </trkpt>
      <trkpt lat="44.64029" lon="3.84203">
        <ele>1212.1999511719</ele>
        <time>2023-05-08T08:12:44Z</time>
      </trkpt>
      <trkpt lat="44.64042" lon="3.84199">
        <ele>1211.8000488281</ele>
        <time>2023-05-08T08:12:47Z</time>
      </trkpt>
      <trkpt lat="44.64047" lon="3.84198">
        <ele>1211.5999755859</ele>
        <time>2023-05-08T08:12:48Z</time>
      </trkpt>
      <trkpt lat="44.64064" lon="3.84199">
        <ele>1211</ele>
        <time>2023-05-08T08:12:52Z</time>
      </trkpt>
      <trkpt lat="44.64084" lon="3.84203">
        <ele>1210.4000244141</ele>
        <time>2023-05-08T08:12:57Z</time>
      </trkpt>
      <trkpt lat="44.64093" lon="3.84203">
        <ele>1210.1999511719</ele>
        <time>2023-05-08T08:12:59Z</time>
      </trkpt>
      <trkpt lat="44.64103" lon="3.84199">
        <ele>1210</ele>
        <time>2023-05-08T08:13:01Z</time>
      </trkpt>
      <trkpt lat="44.64127" lon="3.84184">
        <ele>1209.1999511719</ele>
        <time>2023-05-08T08:13:07Z</time>
      </trkpt>
      <trkpt lat="44.6413" lon="3.84182">
        <ele>1209</ele>
        <time>2023-05-08T08:13:08Z</time>
      </trkpt>
      <trkpt lat="44.64134" lon="3.84181">
        <ele>1209</ele>
        <time>2023-05-08T08:13:09Z</time>
      </trkpt>
      <trkpt lat="44.64148" lon="3.84177">
        <ele>1208.5999755859</ele>
        <time>2023-05-08T08:13:12Z</time>
      </trkpt>
      <trkpt lat="44.64152" lon="3.84176">
        <ele>1208.4000244141</ele>
        <time>2023-05-08T08:13:13Z</time>
      </trkpt>
      <trkpt lat="44.64172" lon="3.84171">
        <ele>1207.5999755859</ele>
        <time>2023-05-08T08:13:18Z</time>
      </trkpt>
      <trkpt lat="44.64189" lon="3.84163">
        <ele>1207.5999755859</ele>
        <time>2023-05-08T08:13:23Z</time>
      </trkpt>
      <trkpt lat="44.64221" lon="3.84151">
        <ele>1207</ele>
        <time>2023-05-08T08:13:32Z</time>
      </trkpt>
      <trkpt lat="44.64228" lon="3.84148">
        <ele>1207</ele>
        <time>2023-05-08T08:13:34Z</time>
      </trkpt>
      <trkpt lat="44.64239" lon="3.84143">
        <ele>1207</ele>
        <time>2023-05-08T08:13:37Z</time>
      </trkpt>
      <trkpt lat="44.64255" lon="3.84131">
        <ele>1206.8000488281</ele>
        <time>2023-05-08T08:13:42Z</time>
      </trkpt>
      <trkpt lat="44.64278" lon="3.84109">
        <ele>1206.5999755859</ele>
        <time>2023-05-08T08:13:49Z</time>
      </trkpt>
      <trkpt lat="44.64298" lon="3.84088">
        <ele>1206.5999755859</ele>
        <time>2023-05-08T08:13:56Z</time>
      </trkpt>
      <trkpt lat="44.64317" lon="3.84069">
        <ele>1206.5999755859</ele>
        <time>2023-05-08T08:14:02Z</time>
      </trkpt>
      <trkpt lat="44.64348" lon="3.84038">
        <ele>1206.8000488281</ele>
        <time>2023-05-08T08:14:13Z</time>
      </trkpt>
      <trkpt lat="44.64372" lon="3.84008">
        <ele>1207.5999755859</ele>
        <time>2023-05-08T08:14:22Z</time>
      </trkpt>
      <trkpt lat="44.64385" lon="3.83989">
        <ele>1208</ele>
        <time>2023-05-08T08:14:27Z</time>
      </trkpt>
      <trkpt lat="44.64403" lon="3.83962">
        <ele>1208.5999755859</ele>
        <time>2023-05-08T08:14:34Z</time>
      </trkpt>
      <trkpt lat="44.64414" lon="3.83946">
        <ele>1208.5999755859</ele>
        <time>2023-05-08T08:14:38Z</time>
      </trkpt>
      <trkpt lat="44.64419" lon="3.83938">
        <ele>1208.5999755859</ele>
        <time>2023-05-08T08:14:40Z</time>
      </trkpt>
      <trkpt lat="44.64422" lon="3.83935">
        <ele>1208.5999755859</ele>
        <time>2023-05-08T08:14:41Z</time>
      </trkpt>
      <trkpt lat="44.64425" lon="3.83926">
        <ele>1208.5999755859</ele>
        <time>2023-05-08T08:14:43Z</time>
      </trkpt>
      <trkpt lat="44.64438" lon="3.83905">
        <ele>1209</ele>
        <time>2023-05-08T08:14:48Z</time>
      </trkpt>
      <trkpt lat="44.64443" lon="3.83896">
        <ele>1209.1999511719</ele>
        <time>2023-05-08T08:14:50Z</time>
      </trkpt>
      <trkpt lat="44.64453" lon="3.83878">
        <ele>1209.4000244141</ele>
        <time>2023-05-08T08:14:54Z</time>
      </trkpt>
      <trkpt lat="44.64461" lon="3.83866">
        <ele>1209.8000488281</ele>
        <time>2023-05-08T08:14:57Z</time>
      </trkpt>
      <trkpt lat="44.64466" lon="3.83856">
        <ele>1209.8000488281</ele>
        <time>2023-05-08T08:14:59Z</time>
      </trkpt>
      <trkpt lat="44.64472" lon="3.83846">
        <ele>1210</ele>
        <time>2023-05-08T08:15:01Z</time>
      </trkpt>
      <trkpt lat="44.64478" lon="3.83835">
        <ele>1210</ele>
        <time>2023-05-08T08:15:03Z</time>
      </trkpt>
      <trkpt lat="44.64491" lon="3.83818">
        <ele>1210</ele>
        <time>2023-05-08T08:15:06Z</time>
      </trkpt>
      <trkpt lat="44.645" lon="3.83808">
        <ele>1210</ele>
        <time>2023-05-08T08:15:08Z</time>
      </trkpt>
      <trkpt lat="44.6451" lon="3.838">
        <ele>1210</ele>
        <time>2023-05-08T08:15:10Z</time>
      </trkpt>
      <trkpt lat="44.64525" lon="3.83789">
        <ele>1210</ele>
        <time>2023-05-08T08:15:13Z</time>
      </trkpt>
      <trkpt lat="44.64535" lon="3.83785">
        <ele>1210</ele>
        <time>2023-05-08T08:15:15Z</time>
      </trkpt>
      <trkpt lat="44.6455" lon="3.83781">
        <ele>1210.1999511719</ele>
        <time>2023-05-08T08:15:18Z</time>
      </trkpt>
      <trkpt lat="44.64584" lon="3.83779">
        <ele>1210.4000244141</ele>
        <time>2023-05-08T08:15:25Z</time>
      </trkpt>
      <trkpt lat="44.64621" lon="3.83782">
        <ele>1210.4000244141</ele>
        <time>2023-05-08T08:15:32Z</time>
      </trkpt>
      <trkpt lat="44.64653" lon="3.8379">
        <ele>1210.5999755859</ele>
        <time>2023-05-08T08:15:38Z</time>
      </trkpt>
      <trkpt lat="44.64692" lon="3.83799">
        <ele>1210.4000244141</ele>
        <time>2023-05-08T08:15:45Z</time>
      </trkpt>
      <trkpt lat="44.64729" lon="3.83815">
        <ele>1210</ele>
        <time>2023-05-08T08:15:51Z</time>
      </trkpt>
      <trkpt lat="44.64766" lon="3.83814">
        <ele>1209.5999755859</ele>
        <time>2023-05-08T08:15:56Z</time>
      </trkpt>
      <trkpt lat="44.64774" lon="3.83811">
        <ele>1209.4000244141</ele>
        <time>2023-05-08T08:15:57Z</time>
      </trkpt>
      <trkpt lat="44.64806" lon="3.83798">
        <ele>1209</ele>
        <time>2023-05-08T08:16:01Z</time>
      </trkpt>
      <trkpt lat="44.6485" lon="3.83787">
        <ele>1208</ele>
        <time>2023-05-08T08:16:06Z</time>
      </trkpt>
      <trkpt lat="44.64868" lon="3.83779">
        <ele>1207.8000488281</ele>
        <time>2023-05-08T08:16:08Z</time>
      </trkpt>
      <trkpt lat="44.64884" lon="3.83768">
        <ele>1207.4000244141</ele>
        <time>2023-05-08T08:16:10Z</time>
      </trkpt>
      <trkpt lat="44.64933" lon="3.83734">
        <ele>1205.8000488281</ele>
        <time>2023-05-08T08:16:16Z</time>
      </trkpt>
      <trkpt lat="44.6498" lon="3.83709">
        <ele>1204.1999511719</ele>
        <time>2023-05-08T08:16:21Z</time>
      </trkpt>
      <trkpt lat="44.65013" lon="3.83687">
        <ele>1202.5999755859</ele>
        <time>2023-05-08T08:16:25Z</time>
      </trkpt>
      <trkpt lat="44.65054" lon="3.83662">
        <ele>1201</ele>
        <time>2023-05-08T08:16:30Z</time>
      </trkpt>
      <trkpt lat="44.65088" lon="3.83649">
        <ele>1199.4000244141</ele>
        <time>2023-05-08T08:16:34Z</time>
      </trkpt>
      <trkpt lat="44.65123" lon="3.8364">
        <ele>1196.8000488281</ele>
        <time>2023-05-08T08:16:39Z</time>
      </trkpt>
      <trkpt lat="44.65127" lon="3.83638">
        <ele>1196.1999511719</ele>
        <time>2023-05-08T08:16:40Z</time>
      </trkpt>
      <trkpt lat="44.6513" lon="3.83628">
        <ele>1195</ele>
        <time>2023-05-08T08:16:42Z</time>
      </trkpt>
      <trkpt lat="44.65119" lon="3.83612">
        <ele>1193.1999511719</ele>
        <time>2023-05-08T08:16:45Z</time>
      </trkpt>
      <trkpt lat="44.65095" lon="3.8359">
        <ele>1191.1999511719</ele>
        <time>2023-05-08T08:16:49Z</time>
      </trkpt>
      <trkpt lat="44.65059" lon="3.8356">
        <ele>1189.4000244141</ele>
        <time>2023-05-08T08:16:54Z</time>
      </trkpt>
      <trkpt lat="44.65024" lon="3.8354">
        <ele>1187.5999755859</ele>
        <time>2023-05-08T08:16:58Z</time>
      </trkpt>
      <trkpt lat="44.65015" lon="3.83532">
        <ele>1187.1999511719</ele>
        <time>2023-05-08T08:16:59Z</time>
      </trkpt>
      <trkpt lat="44.65007" lon="3.83523">
        <ele>1186.5999755859</ele>
        <time>2023-05-08T08:17:00Z</time>
      </trkpt>
      <trkpt lat="44.64994" lon="3.835">
        <ele>1185.8000488281</ele>
        <time>2023-05-08T08:17:02Z</time>
      </trkpt>
      <trkpt lat="44.64971" lon="3.83442">
        <ele>1184</ele>
        <time>2023-05-08T08:17:07Z</time>
      </trkpt>
      <trkpt lat="44.64945" lon="3.83383">
        <ele>1182.4000244141</ele>
        <time>2023-05-08T08:17:13Z</time>
      </trkpt>
      <trkpt lat="44.64926" lon="3.83346">
        <ele>1181.4000244141</ele>
        <time>2023-05-08T08:17:18Z</time>
      </trkpt>
      <trkpt lat="44.64904" lon="3.83314">
        <ele>1180.1999511719</ele>
        <time>2023-05-08T08:17:24Z</time>
      </trkpt>
      <trkpt lat="44.64875" lon="3.83293">
        <ele>1178.8000488281</ele>
        <time>2023-05-08T08:17:31Z</time>
      </trkpt>
      <trkpt lat="44.64865" lon="3.8329">
        <ele>1178.4000244141</ele>
        <time>2023-05-08T08:17:33Z</time>
      </trkpt>
      <trkpt lat="44.64852" lon="3.83289">
        <ele>1178</ele>
        <time>2023-05-08T08:17:35Z</time>
      </trkpt>
      <trkpt lat="44.64839" lon="3.83291">
        <ele>1177.5999755859</ele>
        <time>2023-05-08T08:17:37Z</time>
      </trkpt>
      <trkpt lat="44.64824" lon="3.83297">
        <ele>1177</ele>
        <time>2023-05-08T08:17:39Z</time>
      </trkpt>
      <trkpt lat="44.64781" lon="3.83322">
        <ele>1175.1999511719</ele>
        <time>2023-05-08T08:17:44Z</time>
      </trkpt>
      <trkpt lat="44.64743" lon="3.83337">
        <ele>1174</ele>
        <time>2023-05-08T08:17:48Z</time>
      </trkpt>
      <trkpt lat="44.64733" lon="3.83338">
        <ele>1173.5999755859</ele>
        <time>2023-05-08T08:17:49Z</time>
      </trkpt>
      <trkpt lat="44.64698" lon="3.83346">
        <ele>1172</ele>
        <time>2023-05-08T08:17:53Z</time>
      </trkpt>
      <trkpt lat="44.64668" lon="3.83362">
        <ele>1170.4000244141</ele>
        <time>2023-05-08T08:17:57Z</time>
      </trkpt>
      <trkpt lat="44.6463" lon="3.83379">
        <ele>1168.8000488281</ele>
        <time>2023-05-08T08:18:01Z</time>
      </trkpt>
      <trkpt lat="44.64594" lon="3.83392">
        <ele>1167</ele>
        <time>2023-05-08T08:18:05Z</time>
      </trkpt>
      <trkpt lat="44.64586" lon="3.83397">
        <ele>1166.5999755859</ele>
        <time>2023-05-08T08:18:06Z</time>
      </trkpt>
      <trkpt lat="44.6456" lon="3.83409">
        <ele>1165.4000244141</ele>
        <time>2023-05-08T08:18:09Z</time>
      </trkpt>
      <trkpt lat="44.6455" lon="3.83411">
        <ele>1165</ele>
        <time>2023-05-08T08:18:10Z</time>
      </trkpt>
      <trkpt lat="44.64511" lon="3.83412">
        <ele>1162.5999755859</ele>
        <time>2023-05-08T08:18:14Z</time>
      </trkpt>
      <trkpt lat="44.64501" lon="3.83414">
        <ele>1162</ele>
        <time>2023-05-08T08:18:15Z</time>
      </trkpt>
      <trkpt lat="44.64484" lon="3.8342">
        <ele>1161</ele>
        <time>2023-05-08T08:18:17Z</time>
      </trkpt>
      <trkpt lat="44.64477" lon="3.83423">
        <ele>1160.4000244141</ele>
        <time>2023-05-08T08:18:18Z</time>
      </trkpt>
      <trkpt lat="44.64465" lon="3.83423">
        <ele>1159.4000244141</ele>
        <time>2023-05-08T08:18:20Z</time>
      </trkpt>
      <trkpt lat="44.64447" lon="3.83415">
        <ele>1157.1999511719</ele>
        <time>2023-05-08T08:18:24Z</time>
      </trkpt>
      <trkpt lat="44.64432" lon="3.83404">
        <ele>1154.4000244141</ele>
        <time>2023-05-08T08:18:29Z</time>
      </trkpt>
      <trkpt lat="44.64426" lon="3.83399">
        <ele>1153.1999511719</ele>
        <time>2023-05-08T08:18:31Z</time>
      </trkpt>
      <trkpt lat="44.64423" lon="3.83397">
        <ele>1152.5999755859</ele>
        <time>2023-05-08T08:18:32Z</time>
      </trkpt>
      <trkpt lat="44.6441" lon="3.83392">
        <ele>1150.1999511719</ele>
        <time>2023-05-08T08:18:36Z</time>
      </trkpt>
      <trkpt lat="44.64405" lon="3.83388">
        <ele>1148.1999511719</ele>
        <time>2023-05-08T08:18:39Z</time>
      </trkpt>
      <trkpt lat="44.644" lon="3.83386">
        <ele>1146.1999511719</ele>
        <time>2023-05-08T08:18:42Z</time>
      </trkpt>
      <trkpt lat="44.64391" lon="3.83379">
        <ele>1143.8000488281</ele>
        <time>2023-05-08T08:18:46Z</time>
      </trkpt>
      <trkpt lat="44.64384" lon="3.83374">
        <ele>1142</ele>
        <time>2023-05-08T08:18:49Z</time>
      </trkpt>
      <trkpt lat="44.64382" lon="3.83372">
        <ele>1141.4000244141</ele>
        <time>2023-05-08T08:18:50Z</time>
      </trkpt>
      <trkpt lat="44.64379" lon="3.83371">
        <ele>1140.5999755859</ele>
        <time>2023-05-08T08:18:51Z</time>
      </trkpt>
      <trkpt lat="44.64372" lon="3.83369">
        <ele>1139.5999755859</ele>
        <time>2023-05-08T08:18:53Z</time>
      </trkpt>
      <trkpt lat="44.64368" lon="3.83365">
        <ele>1139</ele>
        <time>2023-05-08T08:18:54Z</time>
      </trkpt>
      <trkpt lat="44.64358" lon="3.83358">
        <ele>1137</ele>
        <time>2023-05-08T08:18:57Z</time>
      </trkpt>
      <trkpt lat="44.64354" lon="3.83354">
        <ele>1135.8000488281</ele>
        <time>2023-05-08T08:18:59Z</time>
      </trkpt>
      <trkpt lat="44.64351" lon="3.83352">
        <ele>1135.1999511719</ele>
        <time>2023-05-08T08:19:00Z</time>
      </trkpt>
      <trkpt lat="44.64347" lon="3.8335">
        <ele>1134.1999511719</ele>
        <time>2023-05-08T08:19:02Z</time>
      </trkpt>
      <trkpt lat="44.64347" lon="3.83347">
        <ele>1133.5999755859</ele>
        <time>2023-05-08T08:19:03Z</time>
      </trkpt>
      <trkpt lat="44.64346" lon="3.83344">
        <ele>1133</ele>
        <time>2023-05-08T08:19:04Z</time>
      </trkpt>
      <trkpt lat="44.64341" lon="3.83339">
        <ele>1131.8000488281</ele>
        <time>2023-05-08T08:19:06Z</time>
      </trkpt>
      <trkpt lat="44.64331" lon="3.83333">
        <ele>1129.8000488281</ele>
        <time>2023-05-08T08:19:09Z</time>
      </trkpt>
      <trkpt lat="44.64324" lon="3.83324">
        <ele>1127.8000488281</ele>
        <time>2023-05-08T08:19:12Z</time>
      </trkpt>
      <trkpt lat="44.64321" lon="3.83323">
        <ele>1127.1999511719</ele>
        <time>2023-05-08T08:19:13Z</time>
      </trkpt>
      <trkpt lat="44.64311" lon="3.83314">
        <ele>1124.5999755859</ele>
        <time>2023-05-08T08:19:17Z</time>
      </trkpt>
      <trkpt lat="44.64304" lon="3.8331">
        <ele>1123.4000244141</ele>
        <time>2023-05-08T08:19:19Z</time>
      </trkpt>
      <trkpt lat="44.64301" lon="3.83306">
        <ele>1122.8000488281</ele>
        <time>2023-05-08T08:19:20Z</time>
      </trkpt>
      <trkpt lat="44.64297" lon="3.83302">
        <ele>1122.1999511719</ele>
        <time>2023-05-08T08:19:21Z</time>
      </trkpt>
      <trkpt lat="44.64286" lon="3.8329">
        <ele>1121</ele>
        <time>2023-05-08T08:19:23Z</time>
      </trkpt>
      <trkpt lat="44.64272" lon="3.83279">
        <ele>1119.5999755859</ele>
        <time>2023-05-08T08:19:25Z</time>
      </trkpt>
      <trkpt lat="44.64259" lon="3.83266">
        <ele>1118.1999511719</ele>
        <time>2023-05-08T08:19:27Z</time>
      </trkpt>
      <trkpt lat="44.64249" lon="3.83249">
        <ele>1116.8000488281</ele>
        <time>2023-05-08T08:19:29Z</time>
      </trkpt>
      <trkpt lat="44.64247" lon="3.83239">
        <ele>1116</ele>
        <time>2023-05-08T08:19:30Z</time>
      </trkpt>
      <trkpt lat="44.64248" lon="3.83228">
        <ele>1115.1999511719</ele>
        <time>2023-05-08T08:19:31Z</time>
      </trkpt>
      <trkpt lat="44.6425" lon="3.83217">
        <ele>1114.5999755859</ele>
        <time>2023-05-08T08:19:32Z</time>
      </trkpt>
      <trkpt lat="44.64254" lon="3.83205">
        <ele>1113.8000488281</ele>
        <time>2023-05-08T08:19:33Z</time>
      </trkpt>
      <trkpt lat="44.64262" lon="3.83183">
        <ele>1112.5999755859</ele>
        <time>2023-05-08T08:19:35Z</time>
      </trkpt>
      <trkpt lat="44.64264" lon="3.83171">
        <ele>1112.1999511719</ele>
        <time>2023-05-08T08:19:36Z</time>
      </trkpt>
      <trkpt lat="44.64266" lon="3.8316">
        <ele>1111.5999755859</ele>
        <time>2023-05-08T08:19:37Z</time>
      </trkpt>
      <trkpt lat="44.64264" lon="3.83138">
        <ele>1110.8000488281</ele>
        <time>2023-05-08T08:19:39Z</time>
      </trkpt>
      <trkpt lat="44.64256" lon="3.83093">
        <ele>1108.8000488281</ele>
        <time>2023-05-08T08:19:44Z</time>
      </trkpt>
      <trkpt lat="44.64256" lon="3.83057">
        <ele>1106.8000488281</ele>
        <time>2023-05-08T08:19:49Z</time>
      </trkpt>
      <trkpt lat="44.64257" lon="3.8305">
        <ele>1106.4000244141</ele>
        <time>2023-05-08T08:19:50Z</time>
      </trkpt>
      <trkpt lat="44.64259" lon="3.83044">
        <ele>1106</ele>
        <time>2023-05-08T08:19:51Z</time>
      </trkpt>
      <trkpt lat="44.64264" lon="3.83035">
        <ele>1105.1999511719</ele>
        <time>2023-05-08T08:19:53Z</time>
      </trkpt>
      <trkpt lat="44.64274" lon="3.8302">
        <ele>1103.8000488281</ele>
        <time>2023-05-08T08:19:58Z</time>
      </trkpt>
      <trkpt lat="44.64284" lon="3.83014">
        <ele>1102.4000244141</ele>
        <time>2023-05-08T08:20:04Z</time>
      </trkpt>
      <trkpt lat="44.64294" lon="3.83009">
        <ele>1101.1999511719</ele>
        <time>2023-05-08T08:20:10Z</time>
      </trkpt>
      <trkpt lat="44.64306" lon="3.82997">
        <ele>1099.8000488281</ele>
        <time>2023-05-08T08:20:18Z</time>
      </trkpt>
      <trkpt lat="44.64312" lon="3.82986">
        <ele>1098.8000488281</ele>
        <time>2023-05-08T08:20:23Z</time>
      </trkpt>
      <trkpt lat="44.64315" lon="3.82979">
        <ele>1098</ele>
        <time>2023-05-08T08:20:26Z</time>
      </trkpt>
      <trkpt lat="44.64318" lon="3.82971">
        <ele>1097.4000244141</ele>
        <time>2023-05-08T08:20:29Z</time>
      </trkpt>
      <trkpt lat="44.64324" lon="3.82952">
        <ele>1096.4000244141</ele>
        <time>2023-05-08T08:20:36Z</time>
      </trkpt>
      <trkpt lat="44.64327" lon="3.82939">
        <ele>1095.5999755859</ele>
        <time>2023-05-08T08:20:41Z</time>
      </trkpt>
      <trkpt lat="44.64332" lon="3.82921">
        <ele>1094.8000488281</ele>
        <time>2023-05-08T08:20:48Z</time>
      </trkpt>
      <trkpt lat="44.64336" lon="3.82905">
        <ele>1095.1999511719</ele>
        <time>2023-05-08T08:20:54Z</time>
      </trkpt>
      <trkpt lat="44.64338" lon="3.82889">
        <ele>1095.4000244141</ele>
        <time>2023-05-08T08:21:00Z</time>
      </trkpt>
      <trkpt lat="44.64343" lon="3.82867">
        <ele>1095.4000244141</ele>
        <time>2023-05-08T08:21:09Z</time>
      </trkpt>
      <trkpt lat="44.64344" lon="3.82865">
        <ele>1095.4000244141</ele>
        <time>2023-05-08T08:21:10Z</time>
      </trkpt>
      <trkpt lat="44.64347" lon="3.82854">
        <ele>1095.4000244141</ele>
        <time>2023-05-08T08:21:15Z</time>
      </trkpt>
      <trkpt lat="44.64347" lon="3.82852">
        <ele>1095.4000244141</ele>
        <time>2023-05-08T08:21:16Z</time>
      </trkpt>
      <trkpt lat="44.64344" lon="3.82849">
        <ele>1095.5999755859</ele>
        <time>2023-05-08T08:21:18Z</time>
      </trkpt>
      <trkpt lat="44.64342" lon="3.82848">
        <ele>1095.5999755859</ele>
        <time>2023-05-08T08:21:19Z</time>
      </trkpt>
      <trkpt lat="44.64339" lon="3.8285">
        <ele>1095.4000244141</ele>
        <time>2023-05-08T08:21:21Z</time>
      </trkpt>
      <trkpt lat="44.64336" lon="3.82851">
        <ele>1095.5999755859</ele>
        <time>2023-05-08T08:21:23Z</time>
      </trkpt>
      <trkpt lat="44.64331" lon="3.82861">
        <ele>1095.5999755859</ele>
        <time>2023-05-08T08:21:29Z</time>
      </trkpt>
      <trkpt lat="44.64326" lon="3.82868">
        <ele>1095.5999755859</ele>
        <time>2023-05-08T08:21:34Z</time>
      </trkpt>
      <trkpt lat="44.64318" lon="3.82879">
        <ele>1096.1999511719</ele>
        <time>2023-05-08T08:21:40Z</time>
      </trkpt>
      <trkpt lat="44.64315" lon="3.82882">
        <ele>1096.4000244141</ele>
        <time>2023-05-08T08:21:43Z</time>
      </trkpt>
      <trkpt lat="44.64316" lon="3.82882">
        <ele>1096.4000244141</ele>
        <time>2023-05-08T08:21:45Z</time>
      </trkpt>
      <trkpt lat="44.64314" lon="3.82886">
        <ele>1096.5999755859</ele>
        <time>2023-05-08T08:21:49Z</time>
      </trkpt>
      <trkpt lat="44.64312" lon="3.82888">
        <ele>1096.5999755859</ele>
        <time>2023-05-08T08:21:50Z</time>
      </trkpt>
      <trkpt lat="44.64306" lon="3.82896">
        <ele>1096.5999755859</ele>
        <time>2023-05-08T08:21:54Z</time>
      </trkpt>
      <trkpt lat="44.64306" lon="3.82896">
        <ele>1096.5999755859</ele>
        <time>2023-05-08T08:21:55Z</time>
      </trkpt>
      <trkpt lat="44.64299" lon="3.82901">
        <ele>1096.5999755859</ele>
        <time>2023-05-08T08:22:01Z</time>
      </trkpt>
      <trkpt lat="44.64293" lon="3.82904">
        <ele>1097</ele>
        <time>2023-05-08T08:22:04Z</time>
      </trkpt>
      <trkpt lat="44.64291" lon="3.82904">
        <ele>1097.4000244141</ele>
        <time>2023-05-08T08:22:06Z</time>
      </trkpt>
      <trkpt lat="44.64281" lon="3.8291">
        <ele>1097.8000488281</ele>
        <time>2023-05-08T08:22:09Z</time>
      </trkpt>
      <trkpt lat="44.64276" lon="3.82912">
        <ele>1098.4000244141</ele>
        <time>2023-05-08T08:22:12Z</time>
      </trkpt>
      <trkpt lat="44.6427" lon="3.82914">
        <ele>1099</ele>
        <time>2023-05-08T08:22:16Z</time>
      </trkpt>
      <trkpt lat="44.64261" lon="3.82913">
        <ele>1100</ele>
        <time>2023-05-08T08:22:22Z</time>
      </trkpt>
      <trkpt lat="44.64257" lon="3.82911">
        <ele>1100.4000244141</ele>
        <time>2023-05-08T08:22:26Z</time>
      </trkpt>
      <trkpt lat="44.64247" lon="3.82909">
        <ele>1100.8000488281</ele>
        <time>2023-05-08T08:22:31Z</time>
      </trkpt>
      <trkpt lat="44.64246" lon="3.82907">
        <ele>1100.8000488281</ele>
        <time>2023-05-08T08:22:32Z</time>
      </trkpt>
      <trkpt lat="44.64244" lon="3.82905">
        <ele>1101</ele>
        <time>2023-05-08T08:22:34Z</time>
      </trkpt>
      <trkpt lat="44.64243" lon="3.82904">
        <ele>1101</ele>
        <time>2023-05-08T08:22:35Z</time>
      </trkpt>
      <trkpt lat="44.64237" lon="3.82904">
        <ele>1101.1999511719</ele>
        <time>2023-05-08T08:22:38Z</time>
      </trkpt>
      <trkpt lat="44.64234" lon="3.82903">
        <ele>1101.1999511719</ele>
        <time>2023-05-08T08:22:39Z</time>
      </trkpt>
      <trkpt lat="44.64231" lon="3.829">
        <ele>1101.5999755859</ele>
        <time>2023-05-08T08:22:41Z</time>
      </trkpt>
      <trkpt lat="44.64229" lon="3.82901">
        <ele>1101.5999755859</ele>
        <time>2023-05-08T08:22:42Z</time>
      </trkpt>
      <trkpt lat="44.64222" lon="3.82902">
        <ele>1102</ele>
        <time>2023-05-08T08:22:44Z</time>
      </trkpt>
      <trkpt lat="44.64216" lon="3.82902">
        <ele>1102.1999511719</ele>
        <time>2023-05-08T08:22:46Z</time>
      </trkpt>
      <trkpt lat="44.64213" lon="3.82901">
        <ele>1102.4000244141</ele>
        <time>2023-05-08T08:22:48Z</time>
      </trkpt>
      <trkpt lat="44.64212" lon="3.82901">
        <ele>1102.5999755859</ele>
        <time>2023-05-08T08:22:49Z</time>
      </trkpt>
      <trkpt lat="44.64204" lon="3.829">
        <ele>1102.8000488281</ele>
        <time>2023-05-08T08:22:52Z</time>
      </trkpt>
      <trkpt lat="44.64201" lon="3.82898">
        <ele>1103.1999511719</ele>
        <time>2023-05-08T08:22:54Z</time>
      </trkpt>
      <trkpt lat="44.64197" lon="3.82897">
        <ele>1103.5999755859</ele>
        <time>2023-05-08T08:22:57Z</time>
      </trkpt>
      <trkpt lat="44.64195" lon="3.82897">
        <ele>1103.8000488281</ele>
        <time>2023-05-08T08:22:58Z</time>
      </trkpt>
      <trkpt lat="44.64186" lon="3.82897">
        <ele>1103.8000488281</ele>
        <time>2023-05-08T08:23:02Z</time>
      </trkpt>
      <trkpt lat="44.64175" lon="3.82894">
        <ele>1104.4000244141</ele>
        <time>2023-05-08T08:23:07Z</time>
      </trkpt>
      <trkpt lat="44.64166" lon="3.82892">
        <ele>1105</ele>
        <time>2023-05-08T08:23:12Z</time>
      </trkpt>
      <trkpt lat="44.64161" lon="3.82889">
        <ele>1105.4000244141</ele>
        <time>2023-05-08T08:23:16Z</time>
      </trkpt>
      <trkpt lat="44.64156" lon="3.82888">
        <ele>1105.1999511719</ele>
        <time>2023-05-08T08:23:19Z</time>
      </trkpt>
      <trkpt lat="44.64151" lon="3.82887">
        <ele>1105.4000244141</ele>
        <time>2023-05-08T08:23:21Z</time>
      </trkpt>
      <trkpt lat="44.64144" lon="3.82886">
        <ele>1105.4000244141</ele>
        <time>2023-05-08T08:23:25Z</time>
      </trkpt>
      <trkpt lat="44.64143" lon="3.82885">
        <ele>1105.4000244141</ele>
        <time>2023-05-08T08:23:26Z</time>
      </trkpt>
      <trkpt lat="44.6414" lon="3.82885">
        <ele>1105.4000244141</ele>
        <time>2023-05-08T08:23:28Z</time>
      </trkpt>
      <trkpt lat="44.64139" lon="3.82885">
        <ele>1105.1999511719</ele>
        <time>2023-05-08T08:23:29Z</time>
      </trkpt>
      <trkpt lat="44.64134" lon="3.82881">
        <ele>1105.1999511719</ele>
        <time>2023-05-08T08:23:32Z</time>
      </trkpt>
      <trkpt lat="44.64133" lon="3.8288">
        <ele>1105.1999511719</ele>
        <time>2023-05-08T08:23:33Z</time>
      </trkpt>
      <trkpt lat="44.64131" lon="3.82878">
        <ele>1105.1999511719</ele>
        <time>2023-05-08T08:23:35Z</time>
      </trkpt>
      <trkpt lat="44.64125" lon="3.82876">
        <ele>1105</ele>
        <time>2023-05-08T08:23:38Z</time>
      </trkpt>
      <trkpt lat="44.64123" lon="3.82874">
        <ele>1105.1999511719</ele>
        <time>2023-05-08T08:23:39Z</time>
      </trkpt>
      <trkpt lat="44.64117" lon="3.82871">
        <ele>1105</ele>
        <time>2023-05-08T08:23:42Z</time>
      </trkpt>
      <trkpt lat="44.6409" lon="3.82871">
        <ele>1106.5999755859</ele>
        <time>2023-05-08T08:23:50Z</time>
      </trkpt>
      <trkpt lat="44.64074" lon="3.82866">
        <ele>1107.8000488281</ele>
        <time>2023-05-08T08:23:57Z</time>
      </trkpt>
      <trkpt lat="44.64064" lon="3.8286">
        <ele>1108.5999755859</ele>
        <time>2023-05-08T08:24:02Z</time>
      </trkpt>
      <trkpt lat="44.64053" lon="3.82854">
        <ele>1109.8000488281</ele>
        <time>2023-05-08T08:24:08Z</time>
      </trkpt>
      <trkpt lat="44.64051" lon="3.8285">
        <ele>1110.1999511719</ele>
        <time>2023-05-08T08:24:10Z</time>
      </trkpt>
      <trkpt lat="44.64046" lon="3.82843">
        <ele>1110.8000488281</ele>
        <time>2023-05-08T08:24:13Z</time>
      </trkpt>
      <trkpt lat="44.64042" lon="3.82826">
        <ele>1111.8000488281</ele>
        <time>2023-05-08T08:24:19Z</time>
      </trkpt>
      <trkpt lat="44.64041" lon="3.82818">
        <ele>1112.4000244141</ele>
        <time>2023-05-08T08:24:22Z</time>
      </trkpt>
      <trkpt lat="44.6404" lon="3.82812">
        <ele>1112.8000488281</ele>
        <time>2023-05-08T08:24:24Z</time>
      </trkpt>
      <trkpt lat="44.64038" lon="3.82794">
        <ele>1114</ele>
        <time>2023-05-08T08:24:30Z</time>
      </trkpt>
      <trkpt lat="44.64034" lon="3.82772">
        <ele>1115.5999755859</ele>
        <time>2023-05-08T08:24:37Z</time>
      </trkpt>
      <trkpt lat="44.6403" lon="3.82754">
        <ele>1116.8000488281</ele>
        <time>2023-05-08T08:24:43Z</time>
      </trkpt>
      <trkpt lat="44.64028" lon="3.82745">
        <ele>1117.4000244141</ele>
        <time>2023-05-08T08:24:46Z</time>
      </trkpt>
      <trkpt lat="44.64026" lon="3.8274">
        <ele>1118</ele>
        <time>2023-05-08T08:24:48Z</time>
      </trkpt>
      <trkpt lat="44.6402" lon="3.82721">
        <ele>1119.4000244141</ele>
        <time>2023-05-08T08:24:54Z</time>
      </trkpt>
      <trkpt lat="44.64017" lon="3.82704">
        <ele>1120.5999755859</ele>
        <time>2023-05-08T08:24:59Z</time>
      </trkpt>
      <trkpt lat="44.64016" lon="3.82684">
        <ele>1122</ele>
        <time>2023-05-08T08:25:05Z</time>
      </trkpt>
      <trkpt lat="44.64016" lon="3.82662">
        <ele>1123</ele>
        <time>2023-05-08T08:25:11Z</time>
      </trkpt>
      <trkpt lat="44.64017" lon="3.82645">
        <ele>1124</ele>
        <time>2023-05-08T08:25:16Z</time>
      </trkpt>
      <trkpt lat="44.6402" lon="3.82632">
        <ele>1125</ele>
        <time>2023-05-08T08:25:20Z</time>
      </trkpt>
      <trkpt lat="44.6402" lon="3.82629">
        <ele>1125.1999511719</ele>
        <time>2023-05-08T08:25:21Z</time>
      </trkpt>
      <trkpt lat="44.64023" lon="3.82619">
        <ele>1125.8000488281</ele>
        <time>2023-05-08T08:25:24Z</time>
      </trkpt>
      <trkpt lat="44.64024" lon="3.82613">
        <ele>1126.1999511719</ele>
        <time>2023-05-08T08:25:26Z</time>
      </trkpt>
      <trkpt lat="44.64024" lon="3.82596">
        <ele>1127</ele>
        <time>2023-05-08T08:25:31Z</time>
      </trkpt>
      <trkpt lat="44.64024" lon="3.82591">
        <ele>1127.1999511719</ele>
        <time>2023-05-08T08:25:32Z</time>
      </trkpt>
      <trkpt lat="44.64022" lon="3.82571">
        <ele>1128</ele>
        <time>2023-05-08T08:25:37Z</time>
      </trkpt>
      <trkpt lat="44.6402" lon="3.82568">
        <ele>1128.1999511719</ele>
        <time>2023-05-08T08:25:38Z</time>
      </trkpt>
      <trkpt lat="44.64016" lon="3.82558">
        <ele>1128.8000488281</ele>
        <time>2023-05-08T08:25:41Z</time>
      </trkpt>
      <trkpt lat="44.64015" lon="3.82555">
        <ele>1129</ele>
        <time>2023-05-08T08:25:42Z</time>
      </trkpt>
      <trkpt lat="44.64011" lon="3.82545">
        <ele>1129.4000244141</ele>
        <time>2023-05-08T08:25:45Z</time>
      </trkpt>
      <trkpt lat="44.64002" lon="3.8253">
        <ele>1130.5999755859</ele>
        <time>2023-05-08T08:25:50Z</time>
      </trkpt>
      <trkpt lat="44.63998" lon="3.82515">
        <ele>1131.5999755859</ele>
        <time>2023-05-08T08:25:55Z</time>
      </trkpt>
      <trkpt lat="44.63998" lon="3.82512">
        <ele>1131.8000488281</ele>
        <time>2023-05-08T08:25:56Z</time>
      </trkpt>
      <trkpt lat="44.63997" lon="3.82504">
        <ele>1132.1999511719</ele>
        <time>2023-05-08T08:25:58Z</time>
      </trkpt>
      <trkpt lat="44.63994" lon="3.82492">
        <ele>1133.1999511719</ele>
        <time>2023-05-08T08:26:02Z</time>
      </trkpt>
      <trkpt lat="44.63992" lon="3.82485">
        <ele>1133.5999755859</ele>
        <time>2023-05-08T08:26:04Z</time>
      </trkpt>
      <trkpt lat="44.63991" lon="3.82477">
        <ele>1134</ele>
        <time>2023-05-08T08:26:06Z</time>
      </trkpt>
      <trkpt lat="44.63991" lon="3.82471">
        <ele>1134.4000244141</ele>
        <time>2023-05-08T08:26:08Z</time>
      </trkpt>
      <trkpt lat="44.63987" lon="3.82453">
        <ele>1136</ele>
        <time>2023-05-08T08:26:14Z</time>
      </trkpt>
      <trkpt lat="44.63985" lon="3.8244">
        <ele>1137</ele>
        <time>2023-05-08T08:26:18Z</time>
      </trkpt>
      <trkpt lat="44.63984" lon="3.82438">
        <ele>1137.1999511719</ele>
        <time>2023-05-08T08:26:19Z</time>
      </trkpt>
      <trkpt lat="44.63981" lon="3.8242">
        <ele>1138.4000244141</ele>
        <time>2023-05-08T08:26:24Z</time>
      </trkpt>
      <trkpt lat="44.63979" lon="3.82403">
        <ele>1139.8000488281</ele>
        <time>2023-05-08T08:26:29Z</time>
      </trkpt>
      <trkpt lat="44.63978" lon="3.82397">
        <ele>1140.1999511719</ele>
        <time>2023-05-08T08:26:31Z</time>
      </trkpt>
      <trkpt lat="44.63975" lon="3.82392">
        <ele>1140.5999755859</ele>
        <time>2023-05-08T08:26:33Z</time>
      </trkpt>
      <trkpt lat="44.63972" lon="3.82378">
        <ele>1142</ele>
        <time>2023-05-08T08:26:38Z</time>
      </trkpt>
      <trkpt lat="44.63973" lon="3.82362">
        <ele>1143</ele>
        <time>2023-05-08T08:26:43Z</time>
      </trkpt>
      <trkpt lat="44.63972" lon="3.82355">
        <ele>1143.5999755859</ele>
        <time>2023-05-08T08:26:46Z</time>
      </trkpt>
      <trkpt lat="44.63973" lon="3.82349">
        <ele>1144.1999511719</ele>
        <time>2023-05-08T08:26:48Z</time>
      </trkpt>
      <trkpt lat="44.63973" lon="3.82343">
        <ele>1144.5999755859</ele>
        <time>2023-05-08T08:26:50Z</time>
      </trkpt>
      <trkpt lat="44.63972" lon="3.82338">
        <ele>1145</ele>
        <time>2023-05-08T08:26:52Z</time>
      </trkpt>
      <trkpt lat="44.63972" lon="3.82326">
        <ele>1145.8000488281</ele>
        <time>2023-05-08T08:26:56Z</time>
      </trkpt>
      <trkpt lat="44.63972" lon="3.82324">
        <ele>1146</ele>
        <time>2023-05-08T08:26:57Z</time>
      </trkpt>
      <trkpt lat="44.63971" lon="3.82321">
        <ele>1146.1999511719</ele>
        <time>2023-05-08T08:26:58Z</time>
      </trkpt>
      <trkpt lat="44.6397" lon="3.82312">
        <ele>1147.1999511719</ele>
        <time>2023-05-08T08:27:02Z</time>
      </trkpt>
      <trkpt lat="44.63967" lon="3.82295">
        <ele>1148.5999755859</ele>
        <time>2023-05-08T08:27:08Z</time>
      </trkpt>
      <trkpt lat="44.63965" lon="3.8229">
        <ele>1149</ele>
        <time>2023-05-08T08:27:10Z</time>
      </trkpt>
      <trkpt lat="44.6396" lon="3.82281">
        <ele>1149.5999755859</ele>
        <time>2023-05-08T08:27:13Z</time>
      </trkpt>
      <trkpt lat="44.63952" lon="3.82266">
        <ele>1150.1999511719</ele>
        <time>2023-05-08T08:27:18Z</time>
      </trkpt>
      <trkpt lat="44.63945" lon="3.82251">
        <ele>1151</ele>
        <time>2023-05-08T08:27:23Z</time>
      </trkpt>
      <trkpt lat="44.63932" lon="3.82232">
        <ele>1151.4000244141</ele>
        <time>2023-05-08T08:27:28Z</time>
      </trkpt>
      <trkpt lat="44.63916" lon="3.8221">
        <ele>1152</ele>
        <time>2023-05-08T08:27:34Z</time>
      </trkpt>
      <trkpt lat="44.63898" lon="3.82184">
        <ele>1152.4000244141</ele>
        <time>2023-05-08T08:27:40Z</time>
      </trkpt>
      <trkpt lat="44.63895" lon="3.82178">
        <ele>1152.5999755859</ele>
        <time>2023-05-08T08:27:41Z</time>
      </trkpt>
      <trkpt lat="44.63891" lon="3.82165">
        <ele>1152.5999755859</ele>
        <time>2023-05-08T08:27:43Z</time>
      </trkpt>
      <trkpt lat="44.63887" lon="3.82152">
        <ele>1152.8000488281</ele>
        <time>2023-05-08T08:27:45Z</time>
      </trkpt>
      <trkpt lat="44.63886" lon="3.82145">
        <ele>1152.8000488281</ele>
        <time>2023-05-08T08:27:46Z</time>
      </trkpt>
      <trkpt lat="44.63884" lon="3.82138">
        <ele>1152.8000488281</ele>
        <time>2023-05-08T08:27:47Z</time>
      </trkpt>
      <trkpt lat="44.63876" lon="3.82126">
        <ele>1153</ele>
        <time>2023-05-08T08:27:49Z</time>
      </trkpt>
      <trkpt lat="44.63865" lon="3.8212">
        <ele>1153.1999511719</ele>
        <time>2023-05-08T08:27:51Z</time>
      </trkpt>
      <trkpt lat="44.63859" lon="3.82119">
        <ele>1153.1999511719</ele>
        <time>2023-05-08T08:27:52Z</time>
      </trkpt>
      <trkpt lat="44.63854" lon="3.82122">
        <ele>1153.1999511719</ele>
        <time>2023-05-08T08:27:53Z</time>
      </trkpt>
      <trkpt lat="44.63843" lon="3.82131">
        <ele>1153.4000244141</ele>
        <time>2023-05-08T08:27:55Z</time>
      </trkpt>
      <trkpt lat="44.63835" lon="3.82144">
        <ele>1153.4000244141</ele>
        <time>2023-05-08T08:27:57Z</time>
      </trkpt>
      <trkpt lat="44.63832" lon="3.82151">
        <ele>1153.4000244141</ele>
        <time>2023-05-08T08:27:58Z</time>
      </trkpt>
      <trkpt lat="44.63824" lon="3.82178">
        <ele>1153.5999755859</ele>
        <time>2023-05-08T08:28:02Z</time>
      </trkpt>
      <trkpt lat="44.63822" lon="3.82185">
        <ele>1153.5999755859</ele>
        <time>2023-05-08T08:28:03Z</time>
      </trkpt>
      <trkpt lat="44.6382" lon="3.82196">
        <ele>1153.5999755859</ele>
        <time>2023-05-08T08:28:05Z</time>
      </trkpt>
      <trkpt lat="44.63817" lon="3.82207">
        <ele>1153.8000488281</ele>
        <time>2023-05-08T08:28:07Z</time>
      </trkpt>
      <trkpt lat="44.63813" lon="3.8223">
        <ele>1154.1999511719</ele>
        <time>2023-05-08T08:28:12Z</time>
      </trkpt>
      <trkpt lat="44.63811" lon="3.82234">
        <ele>1154.4000244141</ele>
        <time>2023-05-08T08:28:13Z</time>
      </trkpt>
      <trkpt lat="44.63798" lon="3.82245">
        <ele>1155.1999511719</ele>
        <time>2023-05-08T08:28:18Z</time>
      </trkpt>
      <trkpt lat="44.63787" lon="3.82244">
        <ele>1155.8000488281</ele>
        <time>2023-05-08T08:28:22Z</time>
      </trkpt>
      <trkpt lat="44.63774" lon="3.82239">
        <ele>1156.8000488281</ele>
        <time>2023-05-08T08:28:28Z</time>
      </trkpt>
      <trkpt lat="44.63766" lon="3.82237">
        <ele>1157.5999755859</ele>
        <time>2023-05-08T08:28:32Z</time>
      </trkpt>
      <trkpt lat="44.63751" lon="3.82231">
        <ele>1159</ele>
        <time>2023-05-08T08:28:39Z</time>
      </trkpt>
      <trkpt lat="44.63742" lon="3.82228">
        <ele>1160</ele>
        <time>2023-05-08T08:28:45Z</time>
      </trkpt>
      <trkpt lat="44.63734" lon="3.82224">
        <ele>1161</ele>
        <time>2023-05-08T08:28:50Z</time>
      </trkpt>
      <trkpt lat="44.6373" lon="3.82214">
        <ele>1161.8000488281</ele>
        <time>2023-05-08T08:28:56Z</time>
      </trkpt>
      <trkpt lat="44.63732" lon="3.82202">
        <ele>1162.8000488281</ele>
        <time>2023-05-08T08:29:03Z</time>
      </trkpt>
      <trkpt lat="44.63734" lon="3.82197">
        <ele>1163.4000244141</ele>
        <time>2023-05-08T08:29:08Z</time>
      </trkpt>
      <trkpt lat="44.63752" lon="3.82146">
        <ele>1166.5999755859</ele>
        <time>2023-05-08T08:29:40Z</time>
      </trkpt>
      <trkpt lat="44.63753" lon="3.82138">
        <ele>1167.1999511719</ele>
        <time>2023-05-08T08:29:44Z</time>
      </trkpt>
      <trkpt lat="44.63755" lon="3.82134">
        <ele>1167.5999755859</ele>
        <time>2023-05-08T08:29:46Z</time>
      </trkpt>
      <trkpt lat="44.63755" lon="3.82132">
        <ele>1167.8000488281</ele>
        <time>2023-05-08T08:29:47Z</time>
      </trkpt>
      <trkpt lat="44.63757" lon="3.82125">
        <ele>1167.8000488281</ele>
        <time>2023-05-08T08:29:50Z</time>
      </trkpt>
      <trkpt lat="44.63758" lon="3.82123">
        <ele>1168</ele>
        <time>2023-05-08T08:29:51Z</time>
      </trkpt>
      <trkpt lat="44.63761" lon="3.82116">
        <ele>1167.8000488281</ele>
        <time>2023-05-08T08:29:55Z</time>
      </trkpt>
      <trkpt lat="44.63761" lon="3.82114">
        <ele>1168</ele>
        <time>2023-05-08T08:29:56Z</time>
      </trkpt>
      <trkpt lat="44.63765" lon="3.82107">
        <ele>1167.8000488281</ele>
        <time>2023-05-08T08:30:00Z</time>
      </trkpt>
      <trkpt lat="44.6377" lon="3.82098">
        <ele>1168.1999511719</ele>
        <time>2023-05-08T08:30:06Z</time>
      </trkpt>
      <trkpt lat="44.63772" lon="3.82094">
        <ele>1168.1999511719</ele>
        <time>2023-05-08T08:30:09Z</time>
      </trkpt>
      <trkpt lat="44.63772" lon="3.82092">
        <ele>1168.1999511719</ele>
        <time>2023-05-08T08:30:10Z</time>
      </trkpt>
      <trkpt lat="44.63773" lon="3.82081">
        <ele>1168.1999511719</ele>
        <time>2023-05-08T08:30:15Z</time>
      </trkpt>
      <trkpt lat="44.63774" lon="3.82076">
        <ele>1168.1999511719</ele>
        <time>2023-05-08T08:30:17Z</time>
      </trkpt>
      <trkpt lat="44.63776" lon="3.82072">
        <ele>1168.1999511719</ele>
        <time>2023-05-08T08:30:19Z</time>
      </trkpt>
      <trkpt lat="44.63779" lon="3.82068">
        <ele>1168.4000244141</ele>
        <time>2023-05-08T08:30:21Z</time>
      </trkpt>
      <trkpt lat="44.63779" lon="3.82064">
        <ele>1168.1999511719</ele>
        <time>2023-05-08T08:30:22Z</time>
      </trkpt>
      <trkpt lat="44.6378" lon="3.8206">
        <ele>1168.1999511719</ele>
        <time>2023-05-08T08:30:24Z</time>
      </trkpt>
      <trkpt lat="44.63782" lon="3.82059">
        <ele>1168.4000244141</ele>
        <time>2023-05-08T08:30:25Z</time>
      </trkpt>
      <trkpt lat="44.63783" lon="3.82056">
        <ele>1168.4000244141</ele>
        <time>2023-05-08T08:30:26Z</time>
      </trkpt>
      <trkpt lat="44.63785" lon="3.82053">
        <ele>1168.4000244141</ele>
        <time>2023-05-08T08:30:28Z</time>
      </trkpt>
      <trkpt lat="44.63788" lon="3.82045">
        <ele>1168.5999755859</ele>
        <time>2023-05-08T08:30:32Z</time>
      </trkpt>
      <trkpt lat="44.63789" lon="3.82043">
        <ele>1168.5999755859</ele>
        <time>2023-05-08T08:30:33Z</time>
      </trkpt>
      <trkpt lat="44.63792" lon="3.82039">
        <ele>1168.5999755859</ele>
        <time>2023-05-08T08:30:36Z</time>
      </trkpt>
      <trkpt lat="44.63794" lon="3.82034">
        <ele>1168.5999755859</ele>
        <time>2023-05-08T08:30:38Z</time>
      </trkpt>
      <trkpt lat="44.63797" lon="3.82028">
        <ele>1168.5999755859</ele>
        <time>2023-05-08T08:30:41Z</time>
      </trkpt>
      <trkpt lat="44.638" lon="3.82027">
        <ele>1168.8000488281</ele>
        <time>2023-05-08T08:30:42Z</time>
      </trkpt>
      <trkpt lat="44.63802" lon="3.82021">
        <ele>1168.8000488281</ele>
        <time>2023-05-08T08:30:45Z</time>
      </trkpt>
      <trkpt lat="44.63805" lon="3.82018">
        <ele>1168.8000488281</ele>
        <time>2023-05-08T08:30:47Z</time>
      </trkpt>
      <trkpt lat="44.63807" lon="3.82012">
        <ele>1168.8000488281</ele>
        <time>2023-05-08T08:30:50Z</time>
      </trkpt>
      <trkpt lat="44.63808" lon="3.8201">
        <ele>1168.8000488281</ele>
        <time>2023-05-08T08:30:51Z</time>
      </trkpt>
      <trkpt lat="44.63808" lon="3.82001">
        <ele>1169</ele>
        <time>2023-05-08T08:30:55Z</time>
      </trkpt>
      <trkpt lat="44.63809" lon="3.81999">
        <ele>1169</ele>
        <time>2023-05-08T08:30:56Z</time>
      </trkpt>
      <trkpt lat="44.63811" lon="3.81996">
        <ele>1168.8000488281</ele>
        <time>2023-05-08T08:30:58Z</time>
      </trkpt>
      <trkpt lat="44.63811" lon="3.81991">
        <ele>1169</ele>
        <time>2023-05-08T08:31:00Z</time>
      </trkpt>
      <trkpt lat="44.63813" lon="3.81986">
        <ele>1169</ele>
        <time>2023-05-08T08:31:03Z</time>
      </trkpt>
      <trkpt lat="44.63814" lon="3.81976">
        <ele>1169</ele>
        <time>2023-05-08T08:31:08Z</time>
      </trkpt>
      <trkpt lat="44.63816" lon="3.8197">
        <ele>1168.8000488281</ele>
        <time>2023-05-08T08:31:12Z</time>
      </trkpt>
      <trkpt lat="44.63819" lon="3.81964">
        <ele>1169</ele>
        <time>2023-05-08T08:31:15Z</time>
      </trkpt>
      <trkpt lat="44.63819" lon="3.81961">
        <ele>1169</ele>
        <time>2023-05-08T08:31:16Z</time>
      </trkpt>
      <trkpt lat="44.63825" lon="3.81953">
        <ele>1169</ele>
        <time>2023-05-08T08:31:20Z</time>
      </trkpt>
      <trkpt lat="44.63826" lon="3.81952">
        <ele>1169</ele>
        <time>2023-05-08T08:31:21Z</time>
      </trkpt>
      <trkpt lat="44.63829" lon="3.81949">
        <ele>1169.1999511719</ele>
        <time>2023-05-08T08:31:23Z</time>
      </trkpt>
      <trkpt lat="44.63832" lon="3.81943">
        <ele>1169.1999511719</ele>
        <time>2023-05-08T08:31:26Z</time>
      </trkpt>
      <trkpt lat="44.63836" lon="3.81939">
        <ele>1169.1999511719</ele>
        <time>2023-05-08T08:31:28Z</time>
      </trkpt>
      <trkpt lat="44.63839" lon="3.81934">
        <ele>1169.1999511719</ele>
        <time>2023-05-08T08:31:31Z</time>
      </trkpt>
      <trkpt lat="44.63841" lon="3.8193">
        <ele>1169.1999511719</ele>
        <time>2023-05-08T08:31:33Z</time>
      </trkpt>
      <trkpt lat="44.63843" lon="3.81929">
        <ele>1169.1999511719</ele>
        <time>2023-05-08T08:31:34Z</time>
      </trkpt>
      <trkpt lat="44.63845" lon="3.81925">
        <ele>1169.1999511719</ele>
        <time>2023-05-08T08:31:36Z</time>
      </trkpt>
      <trkpt lat="44.63847" lon="3.81919">
        <ele>1169.1999511719</ele>
        <time>2023-05-08T08:31:39Z</time>
      </trkpt>
      <trkpt lat="44.63848" lon="3.81915">
        <ele>1169.1999511719</ele>
        <time>2023-05-08T08:31:41Z</time>
      </trkpt>
      <trkpt lat="44.63853" lon="3.8191">
        <ele>1169.1999511719</ele>
        <time>2023-05-08T08:31:44Z</time>
      </trkpt>
      <trkpt lat="44.63856" lon="3.81903">
        <ele>1169.1999511719</ele>
        <time>2023-05-08T08:31:48Z</time>
      </trkpt>
      <trkpt lat="44.63858" lon="3.81896">
        <ele>1169.1999511719</ele>
        <time>2023-05-08T08:31:52Z</time>
      </trkpt>
      <trkpt lat="44.6386" lon="3.81893">
        <ele>1169</ele>
        <time>2023-05-08T08:31:53Z</time>
      </trkpt>
      <trkpt lat="44.63863" lon="3.81882">
        <ele>1169.1999511719</ele>
        <time>2023-05-08T08:31:58Z</time>
      </trkpt>
      <trkpt lat="44.63867" lon="3.81873">
        <ele>1169.1999511719</ele>
        <time>2023-05-08T08:32:03Z</time>
      </trkpt>
      <trkpt lat="44.63867" lon="3.81871">
        <ele>1169.1999511719</ele>
        <time>2023-05-08T08:32:04Z</time>
      </trkpt>
      <trkpt lat="44.63867" lon="3.8187">
        <ele>1169.1999511719</ele>
        <time>2023-05-08T08:32:05Z</time>
      </trkpt>
      <trkpt lat="44.63869" lon="3.81866">
        <ele>1169.1999511719</ele>
        <time>2023-05-08T08:32:07Z</time>
      </trkpt>
      <trkpt lat="44.6387" lon="3.81864">
        <ele>1169.1999511719</ele>
        <time>2023-05-08T08:32:08Z</time>
      </trkpt>
      <trkpt lat="44.63869" lon="3.81858">
        <ele>1169.1999511719</ele>
        <time>2023-05-08T08:32:12Z</time>
      </trkpt>
      <trkpt lat="44.6387" lon="3.81853">
        <ele>1169.1999511719</ele>
        <time>2023-05-08T08:32:15Z</time>
      </trkpt>
      <trkpt lat="44.63872" lon="3.8185">
        <ele>1169.1999511719</ele>
        <time>2023-05-08T08:32:17Z</time>
      </trkpt>
      <trkpt lat="44.63874" lon="3.81847">
        <ele>1169.4000244141</ele>
        <time>2023-05-08T08:32:20Z</time>
      </trkpt>
      <trkpt lat="44.63876" lon="3.81846">
        <ele>1169.5999755859</ele>
        <time>2023-05-08T08:32:21Z</time>
      </trkpt>
      <trkpt lat="44.63882" lon="3.81845">
        <ele>1169.8000488281</ele>
        <time>2023-05-08T08:32:26Z</time>
      </trkpt>
      <trkpt lat="44.63884" lon="3.81846">
        <ele>1169.8000488281</ele>
        <time>2023-05-08T08:32:27Z</time>
      </trkpt>
      <trkpt lat="44.63894" lon="3.81848">
        <ele>1170.8000488281</ele>
        <time>2023-05-08T08:32:30Z</time>
      </trkpt>
      <trkpt lat="44.63906" lon="3.81852">
        <ele>1172.8000488281</ele>
        <time>2023-05-08T08:32:34Z</time>
      </trkpt>
      <trkpt lat="44.63908" lon="3.81854">
        <ele>1173</ele>
        <time>2023-05-08T08:32:35Z</time>
      </trkpt>
      <trkpt lat="44.63909" lon="3.81856">
        <ele>1173.1999511719</ele>
        <time>2023-05-08T08:32:36Z</time>
      </trkpt>
      <trkpt lat="44.63916" lon="3.81862">
        <ele>1174.1999511719</ele>
        <time>2023-05-08T08:32:39Z</time>
      </trkpt>
      <trkpt lat="44.63925" lon="3.8187">
        <ele>1175.8000488281</ele>
        <time>2023-05-08T08:32:44Z</time>
      </trkpt>
      <trkpt lat="44.63931" lon="3.81876">
        <ele>1177.4000244141</ele>
        <time>2023-05-08T08:32:49Z</time>
      </trkpt>
      <trkpt lat="44.63935" lon="3.81877">
        <ele>1178.1999511719</ele>
        <time>2023-05-08T08:32:50Z</time>
      </trkpt>
      <trkpt lat="44.63942" lon="3.81879">
        <ele>1179.5999755859</ele>
        <time>2023-05-08T08:32:52Z</time>
      </trkpt>
      <trkpt lat="44.63954" lon="3.81882">
        <ele>1181.8000488281</ele>
        <time>2023-05-08T08:32:57Z</time>
      </trkpt>
      <trkpt lat="44.63964" lon="3.81882">
        <ele>1183.8000488281</ele>
        <time>2023-05-08T08:33:02Z</time>
      </trkpt>
      <trkpt lat="44.63976" lon="3.81879">
        <ele>1185.5999755859</ele>
        <time>2023-05-08T08:33:07Z</time>
      </trkpt>
      <trkpt lat="44.63985" lon="3.81879">
        <ele>1187</ele>
        <time>2023-05-08T08:33:12Z</time>
      </trkpt>
      <trkpt lat="44.6399" lon="3.8188">
        <ele>1187.5999755859</ele>
        <time>2023-05-08T08:33:15Z</time>
      </trkpt>
      <trkpt lat="44.63993" lon="3.81881">
        <ele>1188</ele>
        <time>2023-05-08T08:33:16Z</time>
      </trkpt>
      <trkpt lat="44.64" lon="3.81882">
        <ele>1188.8000488281</ele>
        <time>2023-05-08T08:33:19Z</time>
      </trkpt>
      <trkpt lat="44.64007" lon="3.81885">
        <ele>1189.5999755859</ele>
        <time>2023-05-08T08:33:23Z</time>
      </trkpt>
      <trkpt lat="44.64009" lon="3.81885">
        <ele>1189.8000488281</ele>
        <time>2023-05-08T08:33:24Z</time>
      </trkpt>
      <trkpt lat="44.64014" lon="3.81884">
        <ele>1190.1999511719</ele>
        <time>2023-05-08T08:33:27Z</time>
      </trkpt>
      <trkpt lat="44.64024" lon="3.81889">
        <ele>1191</ele>
        <time>2023-05-08T08:33:32Z</time>
      </trkpt>
      <trkpt lat="44.64026" lon="3.81891">
        <ele>1191.1999511719</ele>
        <time>2023-05-08T08:33:34Z</time>
      </trkpt>
      <trkpt lat="44.6403" lon="3.81893">
        <ele>1191.5999755859</ele>
        <time>2023-05-08T08:33:37Z</time>
      </trkpt>
      <trkpt lat="44.64033" lon="3.81893">
        <ele>1191.8000488281</ele>
        <time>2023-05-08T08:33:39Z</time>
      </trkpt>
      <trkpt lat="44.64036" lon="3.81889">
        <ele>1192</ele>
        <time>2023-05-08T08:33:42Z</time>
      </trkpt>
      <trkpt lat="44.64037" lon="3.81887">
        <ele>1192.1999511719</ele>
        <time>2023-05-08T08:33:43Z</time>
      </trkpt>
      <trkpt lat="44.64043" lon="3.81881">
        <ele>1193.1999511719</ele>
        <time>2023-05-08T08:33:46Z</time>
      </trkpt>
      <trkpt lat="44.64042" lon="3.81879">
        <ele>1193.4000244141</ele>
        <time>2023-05-08T08:33:47Z</time>
      </trkpt>
      <trkpt lat="44.64044" lon="3.81878">
        <ele>1193.5999755859</ele>
        <time>2023-05-08T08:33:48Z</time>
      </trkpt>
      <trkpt lat="44.64046" lon="3.81869">
        <ele>1194.8000488281</ele>
        <time>2023-05-08T08:33:52Z</time>
      </trkpt>
      <trkpt lat="44.64043" lon="3.81854">
        <ele>1196.5999755859</ele>
        <time>2023-05-08T08:33:59Z</time>
      </trkpt>
      <trkpt lat="44.64039" lon="3.81838">
        <ele>1198.4000244141</ele>
        <time>2023-05-08T08:34:07Z</time>
      </trkpt>
      <trkpt lat="44.64034" lon="3.81826">
        <ele>1200.1999511719</ele>
        <time>2023-05-08T08:34:13Z</time>
      </trkpt>
      <trkpt lat="44.64029" lon="3.81814">
        <ele>1202</ele>
        <time>2023-05-08T08:34:20Z</time>
      </trkpt>
      <trkpt lat="44.64022" lon="3.81805">
        <ele>1203</ele>
        <time>2023-05-08T08:34:25Z</time>
      </trkpt>
      <trkpt lat="44.6401" lon="3.81791">
        <ele>1204.1999511719</ele>
        <time>2023-05-08T08:34:31Z</time>
      </trkpt>
      <trkpt lat="44.64001" lon="3.81779">
        <ele>1205.4000244141</ele>
        <time>2023-05-08T08:34:36Z</time>
      </trkpt>
      <trkpt lat="44.63992" lon="3.81768">
        <ele>1206.5999755859</ele>
        <time>2023-05-08T08:34:41Z</time>
      </trkpt>
      <trkpt lat="44.63986" lon="3.8176">
        <ele>1207.5999755859</ele>
        <time>2023-05-08T08:34:45Z</time>
      </trkpt>
      <trkpt lat="44.63976" lon="3.81747">
        <ele>1209</ele>
        <time>2023-05-08T08:34:51Z</time>
      </trkpt>
      <trkpt lat="44.63968" lon="3.81736">
        <ele>1210.1999511719</ele>
        <time>2023-05-08T08:34:56Z</time>
      </trkpt>
      <trkpt lat="44.63959" lon="3.81722">
        <ele>1211.4000244141</ele>
        <time>2023-05-08T08:35:02Z</time>
      </trkpt>
      <trkpt lat="44.63951" lon="3.81713">
        <ele>1212.4000244141</ele>
        <time>2023-05-08T08:35:06Z</time>
      </trkpt>
      <trkpt lat="44.63941" lon="3.817">
        <ele>1213.4000244141</ele>
        <time>2023-05-08T08:35:11Z</time>
      </trkpt>
      <trkpt lat="44.63937" lon="3.81695">
        <ele>1213.8000488281</ele>
        <time>2023-05-08T08:35:13Z</time>
      </trkpt>
      <trkpt lat="44.6393" lon="3.81689">
        <ele>1214.4000244141</ele>
        <time>2023-05-08T08:35:16Z</time>
      </trkpt>
      <trkpt lat="44.63928" lon="3.81686">
        <ele>1214.5999755859</ele>
        <time>2023-05-08T08:35:17Z</time>
      </trkpt>
      <trkpt lat="44.63924" lon="3.81682">
        <ele>1215</ele>
        <time>2023-05-08T08:35:19Z</time>
      </trkpt>
      <trkpt lat="44.6392" lon="3.81676">
        <ele>1215.1999511719</ele>
        <time>2023-05-08T08:35:21Z</time>
      </trkpt>
      <trkpt lat="44.63917" lon="3.81671">
        <ele>1215.5999755859</ele>
        <time>2023-05-08T08:35:23Z</time>
      </trkpt>
      <trkpt lat="44.63905" lon="3.81658">
        <ele>1217</ele>
        <time>2023-05-08T08:35:29Z</time>
      </trkpt>
      <trkpt lat="44.63895" lon="3.81646">
        <ele>1218.1999511719</ele>
        <time>2023-05-08T08:35:35Z</time>
      </trkpt>
      <trkpt lat="44.63885" lon="3.81633">
        <ele>1219.5999755859</ele>
        <time>2023-05-08T08:35:41Z</time>
      </trkpt>
      <trkpt lat="44.63879" lon="3.81624">
        <ele>1220.5999755859</ele>
        <time>2023-05-08T08:35:45Z</time>
      </trkpt>
      <trkpt lat="44.63876" lon="3.81616">
        <ele>1221.4000244141</ele>
        <time>2023-05-08T08:35:49Z</time>
      </trkpt>
      <trkpt lat="44.63875" lon="3.81614">
        <ele>1221.5999755859</ele>
        <time>2023-05-08T08:35:50Z</time>
      </trkpt>
      <trkpt lat="44.63864" lon="3.81603">
        <ele>1222.8000488281</ele>
        <time>2023-05-08T08:35:55Z</time>
      </trkpt>
      <trkpt lat="44.63855" lon="3.81594">
        <ele>1223.8000488281</ele>
        <time>2023-05-08T08:36:00Z</time>
      </trkpt>
      <trkpt lat="44.63852" lon="3.81592">
        <ele>1224</ele>
        <time>2023-05-08T08:36:01Z</time>
      </trkpt>
      <trkpt lat="44.63846" lon="3.81584">
        <ele>1225.1999511719</ele>
        <time>2023-05-08T08:36:05Z</time>
      </trkpt>
      <trkpt lat="44.6384" lon="3.81576">
        <ele>1226.1999511719</ele>
        <time>2023-05-08T08:36:09Z</time>
      </trkpt>
      <trkpt lat="44.63839" lon="3.81574">
        <ele>1226.1999511719</ele>
        <time>2023-05-08T08:36:10Z</time>
      </trkpt>
      <trkpt lat="44.63834" lon="3.81568">
        <ele>1227</ele>
        <time>2023-05-08T08:36:13Z</time>
      </trkpt>
      <trkpt lat="44.6383" lon="3.81564">
        <ele>1227.1999511719</ele>
        <time>2023-05-08T08:36:15Z</time>
      </trkpt>
      <trkpt lat="44.63827" lon="3.81562">
        <ele>1227.4000244141</ele>
        <time>2023-05-08T08:36:16Z</time>
      </trkpt>
      <trkpt lat="44.63823" lon="3.81557">
        <ele>1228.1999511719</ele>
        <time>2023-05-08T08:36:19Z</time>
      </trkpt>
      <trkpt lat="44.63817" lon="3.8155">
        <ele>1229</ele>
        <time>2023-05-08T08:36:23Z</time>
      </trkpt>
      <trkpt lat="44.63815" lon="3.81548">
        <ele>1229.4000244141</ele>
        <time>2023-05-08T08:36:24Z</time>
      </trkpt>
      <trkpt lat="44.63801" lon="3.81541">
        <ele>1230.5999755859</ele>
        <time>2023-05-08T08:36:30Z</time>
      </trkpt>
      <trkpt lat="44.63789" lon="3.8154">
        <ele>1231.4000244141</ele>
        <time>2023-05-08T08:36:34Z</time>
      </trkpt>
      <trkpt lat="44.63785" lon="3.8154">
        <ele>1232</ele>
        <time>2023-05-08T08:36:37Z</time>
      </trkpt>
      <trkpt lat="44.63731" lon="3.8155">
        <ele>1237</ele>
        <time>2023-05-08T08:37:05Z</time>
      </trkpt>
      <trkpt lat="44.63725" lon="3.81551">
        <ele>1237.5999755859</ele>
        <time>2023-05-08T08:37:08Z</time>
      </trkpt>
      <trkpt lat="44.63719" lon="3.81552">
        <ele>1237.5999755859</ele>
        <time>2023-05-08T08:37:10Z</time>
      </trkpt>
      <trkpt lat="44.63713" lon="3.81556">
        <ele>1238</ele>
        <time>2023-05-08T08:37:13Z</time>
      </trkpt>
      <trkpt lat="44.63702" lon="3.81558">
        <ele>1238.1999511719</ele>
        <time>2023-05-08T08:37:16Z</time>
      </trkpt>
      <trkpt lat="44.63702" lon="3.81559">
        <ele>1238.1999511719</ele>
        <time>2023-05-08T08:37:18Z</time>
      </trkpt>
      <trkpt lat="44.63686" lon="3.81561">
        <ele>1238.1999511719</ele>
        <time>2023-05-08T08:37:21Z</time>
      </trkpt>
      <trkpt lat="44.63682" lon="3.81561">
        <ele>1238</ele>
        <time>2023-05-08T08:37:22Z</time>
      </trkpt>
      <trkpt lat="44.63675" lon="3.81558">
        <ele>1238.1999511719</ele>
        <time>2023-05-08T08:37:24Z</time>
      </trkpt>
      <trkpt lat="44.63672" lon="3.81555">
        <ele>1238.1999511719</ele>
        <time>2023-05-08T08:37:25Z</time>
      </trkpt>
      <trkpt lat="44.63669" lon="3.81551">
        <ele>1238.1999511719</ele>
        <time>2023-05-08T08:37:26Z</time>
      </trkpt>
      <trkpt lat="44.63663" lon="3.8154">
        <ele>1238</ele>
        <time>2023-05-08T08:37:28Z</time>
      </trkpt>
      <trkpt lat="44.63659" lon="3.81521">
        <ele>1238</ele>
        <time>2023-05-08T08:37:30Z</time>
      </trkpt>
      <trkpt lat="44.63658" lon="3.8151">
        <ele>1237.8000488281</ele>
        <time>2023-05-08T08:37:31Z</time>
      </trkpt>
      <trkpt lat="44.6366" lon="3.81485">
        <ele>1237.5999755859</ele>
        <time>2023-05-08T08:37:33Z</time>
      </trkpt>
      <trkpt lat="44.63662" lon="3.81472">
        <ele>1237.4000244141</ele>
        <time>2023-05-08T08:37:34Z</time>
      </trkpt>
      <trkpt lat="44.63667" lon="3.81448">
        <ele>1236.4000244141</ele>
        <time>2023-05-08T08:37:36Z</time>
      </trkpt>
      <trkpt lat="44.63686" lon="3.81399">
        <ele>1233.8000488281</ele>
        <time>2023-05-08T08:37:40Z</time>
      </trkpt>
      <trkpt lat="44.637" lon="3.81364">
        <ele>1231.8000488281</ele>
        <time>2023-05-08T08:37:43Z</time>
      </trkpt>
      <trkpt lat="44.63712" lon="3.8134">
        <ele>1230.8000488281</ele>
        <time>2023-05-08T08:37:45Z</time>
      </trkpt>
      <trkpt lat="44.6372" lon="3.81328">
        <ele>1230.5999755859</ele>
        <time>2023-05-08T08:37:46Z</time>
      </trkpt>
      <trkpt lat="44.63737" lon="3.8131">
        <ele>1230.1999511719</ele>
        <time>2023-05-08T08:37:48Z</time>
      </trkpt>
      <trkpt lat="44.63744" lon="3.813">
        <ele>1230.1999511719</ele>
        <time>2023-05-08T08:37:49Z</time>
      </trkpt>
      <trkpt lat="44.63758" lon="3.8128">
        <ele>1229.8000488281</ele>
        <time>2023-05-08T08:37:51Z</time>
      </trkpt>
      <trkpt lat="44.63773" lon="3.81244">
        <ele>1229</ele>
        <time>2023-05-08T08:37:54Z</time>
      </trkpt>
      <trkpt lat="44.63785" lon="3.81178">
        <ele>1227.1999511719</ele>
        <time>2023-05-08T08:37:59Z</time>
      </trkpt>
      <trkpt lat="44.63791" lon="3.81157">
        <ele>1226.1999511719</ele>
        <time>2023-05-08T08:38:01Z</time>
      </trkpt>
      <trkpt lat="44.63796" lon="3.81148">
        <ele>1225.5999755859</ele>
        <time>2023-05-08T08:38:02Z</time>
      </trkpt>
      <trkpt lat="44.63802" lon="3.81139">
        <ele>1225.1999511719</ele>
        <time>2023-05-08T08:38:03Z</time>
      </trkpt>
      <trkpt lat="44.63816" lon="3.81121">
        <ele>1224</ele>
        <time>2023-05-08T08:38:05Z</time>
      </trkpt>
      <trkpt lat="44.63824" lon="3.81112">
        <ele>1223.4000244141</ele>
        <time>2023-05-08T08:38:06Z</time>
      </trkpt>
      <trkpt lat="44.63837" lon="3.81094">
        <ele>1222</ele>
        <time>2023-05-08T08:38:08Z</time>
      </trkpt>
      <trkpt lat="44.63852" lon="3.81084">
        <ele>1220.5999755859</ele>
        <time>2023-05-08T08:38:10Z</time>
      </trkpt>
      <trkpt lat="44.63861" lon="3.81081">
        <ele>1220</ele>
        <time>2023-05-08T08:38:11Z</time>
      </trkpt>
      <trkpt lat="44.63902" lon="3.81073">
        <ele>1217.1999511719</ele>
        <time>2023-05-08T08:38:15Z</time>
      </trkpt>
      <trkpt lat="44.63946" lon="3.81074">
        <ele>1214.4000244141</ele>
        <time>2023-05-08T08:38:19Z</time>
      </trkpt>
      <trkpt lat="44.63983" lon="3.81074">
        <ele>1212.4000244141</ele>
        <time>2023-05-08T08:38:22Z</time>
      </trkpt>
      <trkpt lat="44.64005" lon="3.8107">
        <ele>1211</ele>
        <time>2023-05-08T08:38:24Z</time>
      </trkpt>
      <trkpt lat="44.64041" lon="3.81061">
        <ele>1209</ele>
        <time>2023-05-08T08:38:27Z</time>
      </trkpt>
      <trkpt lat="44.64077" lon="3.81046">
        <ele>1207.5999755859</ele>
        <time>2023-05-08T08:38:30Z</time>
      </trkpt>
      <trkpt lat="44.6412" lon="3.81026">
        <ele>1205.8000488281</ele>
        <time>2023-05-08T08:38:34Z</time>
      </trkpt>
      <trkpt lat="44.64166" lon="3.81014">
        <ele>1203.8000488281</ele>
        <time>2023-05-08T08:38:38Z</time>
      </trkpt>
      <trkpt lat="44.64225" lon="3.80994">
        <ele>1201.5999755859</ele>
        <time>2023-05-08T08:38:43Z</time>
      </trkpt>
      <trkpt lat="44.64247" lon="3.80987">
        <ele>1200.5999755859</ele>
        <time>2023-05-08T08:38:45Z</time>
      </trkpt>
      <trkpt lat="44.64257" lon="3.80982">
        <ele>1200.1999511719</ele>
        <time>2023-05-08T08:38:46Z</time>
      </trkpt>
      <trkpt lat="44.64269" lon="3.80977">
        <ele>1199.8000488281</ele>
        <time>2023-05-08T08:38:47Z</time>
      </trkpt>
      <trkpt lat="44.64292" lon="3.80971">
        <ele>1199</ele>
        <time>2023-05-08T08:38:49Z</time>
      </trkpt>
      <trkpt lat="44.64322" lon="3.80969">
        <ele>1197.5999755859</ele>
        <time>2023-05-08T08:38:52Z</time>
      </trkpt>
      <trkpt lat="44.6433" lon="3.80968">
        <ele>1197.1999511719</ele>
        <time>2023-05-08T08:38:53Z</time>
      </trkpt>
      <trkpt lat="44.64343" lon="3.80962">
        <ele>1196.1999511719</ele>
        <time>2023-05-08T08:38:55Z</time>
      </trkpt>
      <trkpt lat="44.64355" lon="3.80954">
        <ele>1195.1999511719</ele>
        <time>2023-05-08T08:38:57Z</time>
      </trkpt>
      <trkpt lat="44.64361" lon="3.8095">
        <ele>1194.5999755859</ele>
        <time>2023-05-08T08:38:58Z</time>
      </trkpt>
      <trkpt lat="44.64388" lon="3.80926">
        <ele>1192.1999511719</ele>
        <time>2023-05-08T08:39:03Z</time>
      </trkpt>
      <trkpt lat="44.64393" lon="3.80922">
        <ele>1191.8000488281</ele>
        <time>2023-05-08T08:39:04Z</time>
      </trkpt>
      <trkpt lat="44.64408" lon="3.80903">
        <ele>1190.1999511719</ele>
        <time>2023-05-08T08:39:07Z</time>
      </trkpt>
      <trkpt lat="44.64417" lon="3.80889">
        <ele>1188.5999755859</ele>
        <time>2023-05-08T08:39:09Z</time>
      </trkpt>
      <trkpt lat="44.64428" lon="3.80874">
        <ele>1187.4000244141</ele>
        <time>2023-05-08T08:39:11Z</time>
      </trkpt>
      <trkpt lat="44.64441" lon="3.80831">
        <ele>1184.5999755859</ele>
        <time>2023-05-08T08:39:15Z</time>
      </trkpt>
      <trkpt lat="44.64444" lon="3.80819">
        <ele>1184.1999511719</ele>
        <time>2023-05-08T08:39:16Z</time>
      </trkpt>
      <trkpt lat="44.6445" lon="3.80797">
        <ele>1183</ele>
        <time>2023-05-08T08:39:18Z</time>
      </trkpt>
      <trkpt lat="44.64455" lon="3.80786">
        <ele>1182.4000244141</ele>
        <time>2023-05-08T08:39:19Z</time>
      </trkpt>
      <trkpt lat="44.64461" lon="3.80777">
        <ele>1181.8000488281</ele>
        <time>2023-05-08T08:39:20Z</time>
      </trkpt>
      <trkpt lat="44.64474" lon="3.80761">
        <ele>1180.8000488281</ele>
        <time>2023-05-08T08:39:22Z</time>
      </trkpt>
      <trkpt lat="44.64486" lon="3.80749">
        <ele>1179.8000488281</ele>
        <time>2023-05-08T08:39:24Z</time>
      </trkpt>
      <trkpt lat="44.64489" lon="3.8074">
        <ele>1179.1999511719</ele>
        <time>2023-05-08T08:39:25Z</time>
      </trkpt>
      <trkpt lat="44.64491" lon="3.80731">
        <ele>1178.8000488281</ele>
        <time>2023-05-08T08:39:26Z</time>
      </trkpt>
      <trkpt lat="44.64491" lon="3.8071">
        <ele>1177.5999755859</ele>
        <time>2023-05-08T08:39:28Z</time>
      </trkpt>
      <trkpt lat="44.64487" lon="3.80675">
        <ele>1175.5999755859</ele>
        <time>2023-05-08T08:39:31Z</time>
      </trkpt>
      <trkpt lat="44.64488" lon="3.80662">
        <ele>1175</ele>
        <time>2023-05-08T08:39:32Z</time>
      </trkpt>
      <trkpt lat="44.6449" lon="3.8065">
        <ele>1174.4000244141</ele>
        <time>2023-05-08T08:39:33Z</time>
      </trkpt>
      <trkpt lat="44.64498" lon="3.8061">
        <ele>1172.4000244141</ele>
        <time>2023-05-08T08:39:36Z</time>
      </trkpt>
      <trkpt lat="44.64502" lon="3.80583">
        <ele>1171.1999511719</ele>
        <time>2023-05-08T08:39:38Z</time>
      </trkpt>
      <trkpt lat="44.64506" lon="3.80558">
        <ele>1169.8000488281</ele>
        <time>2023-05-08T08:39:40Z</time>
      </trkpt>
      <trkpt lat="44.64509" lon="3.80546">
        <ele>1169.1999511719</ele>
        <time>2023-05-08T08:39:41Z</time>
      </trkpt>
      <trkpt lat="44.64519" lon="3.80524">
        <ele>1167.8000488281</ele>
        <time>2023-05-08T08:39:43Z</time>
      </trkpt>
      <trkpt lat="44.64553" lon="3.80477">
        <ele>1164.4000244141</ele>
        <time>2023-05-08T08:39:48Z</time>
      </trkpt>
      <trkpt lat="44.64573" lon="3.80449">
        <ele>1162.4000244141</ele>
        <time>2023-05-08T08:39:51Z</time>
      </trkpt>
      <trkpt lat="44.64577" lon="3.80439">
        <ele>1161.5999755859</ele>
        <time>2023-05-08T08:39:52Z</time>
      </trkpt>
      <trkpt lat="44.6458" lon="3.80429">
        <ele>1161</ele>
        <time>2023-05-08T08:39:53Z</time>
      </trkpt>
      <trkpt lat="44.64581" lon="3.80419">
        <ele>1160.4000244141</ele>
        <time>2023-05-08T08:39:54Z</time>
      </trkpt>
      <trkpt lat="44.64579" lon="3.80408">
        <ele>1159.8000488281</ele>
        <time>2023-05-08T08:39:55Z</time>
      </trkpt>
      <trkpt lat="44.64578" lon="3.80387">
        <ele>1158.5999755859</ele>
        <time>2023-05-08T08:39:57Z</time>
      </trkpt>
      <trkpt lat="44.64584" lon="3.8037">
        <ele>1157.4000244141</ele>
        <time>2023-05-08T08:39:59Z</time>
      </trkpt>
      <trkpt lat="44.64604" lon="3.80343">
        <ele>1155.4000244141</ele>
        <time>2023-05-08T08:40:03Z</time>
      </trkpt>
      <trkpt lat="44.64611" lon="3.80333">
        <ele>1154.4000244141</ele>
        <time>2023-05-08T08:40:05Z</time>
      </trkpt>
      <trkpt lat="44.64616" lon="3.80327">
        <ele>1153.4000244141</ele>
        <time>2023-05-08T08:40:07Z</time>
      </trkpt>
      <trkpt lat="44.64628" lon="3.80325">
        <ele>1151.8000488281</ele>
        <time>2023-05-08T08:40:11Z</time>
      </trkpt>
      <trkpt lat="44.64651" lon="3.80334">
        <ele>1149.1999511719</ele>
        <time>2023-05-08T08:40:17Z</time>
      </trkpt>
      <trkpt lat="44.64676" lon="3.80336">
        <ele>1146.4000244141</ele>
        <time>2023-05-08T08:40:23Z</time>
      </trkpt>
      <trkpt lat="44.64694" lon="3.80331">
        <ele>1144.1999511719</ele>
        <time>2023-05-08T08:40:28Z</time>
      </trkpt>
      <trkpt lat="44.64713" lon="3.80327">
        <ele>1142</ele>
        <time>2023-05-08T08:40:33Z</time>
      </trkpt>
      <trkpt lat="44.6473" lon="3.80329">
        <ele>1140.1999511719</ele>
        <time>2023-05-08T08:40:38Z</time>
      </trkpt>
      <trkpt lat="44.64741" lon="3.80328">
        <ele>1138.5999755859</ele>
        <time>2023-05-08T08:40:43Z</time>
      </trkpt>
      <trkpt lat="44.64749" lon="3.80328">
        <ele>1137.4000244141</ele>
        <time>2023-05-08T08:40:47Z</time>
      </trkpt>
      <trkpt lat="44.64752" lon="3.80327">
        <ele>1136.4000244141</ele>
        <time>2023-05-08T08:40:51Z</time>
      </trkpt>
      <trkpt lat="44.6479" lon="3.80337">
        <ele>1119.5999755859</ele>
        <time>2023-05-08T08:47:05Z</time>
      </trkpt>
      <trkpt lat="44.64791" lon="3.80336">
        <ele>1119.5999755859</ele>
        <time>2023-05-08T08:47:06Z</time>
      </trkpt>
      <trkpt lat="44.64793" lon="3.80335">
        <ele>1119.8000488281</ele>
        <time>2023-05-08T08:47:07Z</time>
      </trkpt>
      <trkpt lat="44.64797" lon="3.80336">
        <ele>1119.8000488281</ele>
        <time>2023-05-08T08:47:10Z</time>
      </trkpt>
      <trkpt lat="44.648" lon="3.80335">
        <ele>1120</ele>
        <time>2023-05-08T08:47:12Z</time>
      </trkpt>
      <trkpt lat="44.64804" lon="3.80337">
        <ele>1120</ele>
        <time>2023-05-08T08:47:14Z</time>
      </trkpt>
      <trkpt lat="44.64815" lon="3.80339">
        <ele>1120</ele>
        <time>2023-05-08T08:47:19Z</time>
      </trkpt>
      <trkpt lat="44.64827" lon="3.80335">
        <ele>1120.1999511719</ele>
        <time>2023-05-08T08:47:24Z</time>
      </trkpt>
      <trkpt lat="44.64839" lon="3.80333">
        <ele>1120.1999511719</ele>
        <time>2023-05-08T08:47:29Z</time>
      </trkpt>
      <trkpt lat="44.64855" lon="3.8033">
        <ele>1120.4000244141</ele>
        <time>2023-05-08T08:47:35Z</time>
      </trkpt>
      <trkpt lat="44.64874" lon="3.80328">
        <ele>1120.8000488281</ele>
        <time>2023-05-08T08:47:43Z</time>
      </trkpt>
      <trkpt lat="44.64893" lon="3.80327">
        <ele>1121</ele>
        <time>2023-05-08T08:47:50Z</time>
      </trkpt>
      <trkpt lat="44.64911" lon="3.80327">
        <ele>1121.5999755859</ele>
        <time>2023-05-08T08:47:57Z</time>
      </trkpt>
      <trkpt lat="44.64929" lon="3.80325">
        <ele>1122</ele>
        <time>2023-05-08T08:48:04Z</time>
      </trkpt>
      <trkpt lat="44.64943" lon="3.80322">
        <ele>1122.8000488281</ele>
        <time>2023-05-08T08:48:11Z</time>
      </trkpt>
      <trkpt lat="44.64955" lon="3.80322">
        <ele>1123.4000244141</ele>
        <time>2023-05-08T08:48:17Z</time>
      </trkpt>
      <trkpt lat="44.64969" lon="3.80321">
        <ele>1124</ele>
        <time>2023-05-08T08:48:23Z</time>
      </trkpt>
      <trkpt lat="44.64978" lon="3.80321">
        <ele>1124.4000244141</ele>
        <time>2023-05-08T08:48:27Z</time>
      </trkpt>
      <trkpt lat="44.64985" lon="3.80318">
        <ele>1124.5999755859</ele>
        <time>2023-05-08T08:48:31Z</time>
      </trkpt>
      <trkpt lat="44.64987" lon="3.80316">
        <ele>1124.8000488281</ele>
        <time>2023-05-08T08:48:33Z</time>
      </trkpt>
      <trkpt lat="44.64991" lon="3.80316">
        <ele>1125</ele>
        <time>2023-05-08T08:48:35Z</time>
      </trkpt>
      <trkpt lat="44.65005" lon="3.80315">
        <ele>1126</ele>
        <time>2023-05-08T08:48:41Z</time>
      </trkpt>
      <trkpt lat="44.65007" lon="3.80316">
        <ele>1126.1999511719</ele>
        <time>2023-05-08T08:48:42Z</time>
      </trkpt>
      <trkpt lat="44.65016" lon="3.80316">
        <ele>1127</ele>
        <time>2023-05-08T08:48:48Z</time>
      </trkpt>
      <trkpt lat="44.65024" lon="3.80315">
        <ele>1127.5999755859</ele>
        <time>2023-05-08T08:48:53Z</time>
      </trkpt>
      <trkpt lat="44.65026" lon="3.80315">
        <ele>1127.8000488281</ele>
        <time>2023-05-08T08:48:54Z</time>
      </trkpt>
      <trkpt lat="44.65035" lon="3.80311">
        <ele>1128.8000488281</ele>
        <time>2023-05-08T08:49:00Z</time>
      </trkpt>
      <trkpt lat="44.65045" lon="3.80307">
        <ele>1130</ele>
        <time>2023-05-08T08:49:07Z</time>
      </trkpt>
      <trkpt lat="44.65055" lon="3.80306">
        <ele>1131</ele>
        <time>2023-05-08T08:49:13Z</time>
      </trkpt>
      <trkpt lat="44.65067" lon="3.80302">
        <ele>1132.1999511719</ele>
        <time>2023-05-08T08:49:20Z</time>
      </trkpt>
      <trkpt lat="44.65075" lon="3.80299">
        <ele>1132.8000488281</ele>
        <time>2023-05-08T08:49:25Z</time>
      </trkpt>
      <trkpt lat="44.65078" lon="3.80297">
        <ele>1133</ele>
        <time>2023-05-08T08:49:27Z</time>
      </trkpt>
      <trkpt lat="44.65082" lon="3.80294">
        <ele>1133.4000244141</ele>
        <time>2023-05-08T08:49:30Z</time>
      </trkpt>
      <trkpt lat="44.65096" lon="3.80287">
        <ele>1134.5999755859</ele>
        <time>2023-05-08T08:49:39Z</time>
      </trkpt>
      <trkpt lat="44.65107" lon="3.80282">
        <ele>1135.5999755859</ele>
        <time>2023-05-08T08:49:47Z</time>
      </trkpt>
      <trkpt lat="44.65117" lon="3.80279">
        <ele>1136.4000244141</ele>
        <time>2023-05-08T08:49:53Z</time>
      </trkpt>
      <trkpt lat="44.6513" lon="3.80271">
        <ele>1137.4000244141</ele>
        <time>2023-05-08T08:50:01Z</time>
      </trkpt>
      <trkpt lat="44.65142" lon="3.80262">
        <ele>1138.4000244141</ele>
        <time>2023-05-08T08:50:09Z</time>
      </trkpt>
      <trkpt lat="44.65154" lon="3.80257">
        <ele>1139.1999511719</ele>
        <time>2023-05-08T08:50:16Z</time>
      </trkpt>
      <trkpt lat="44.65166" lon="3.80251">
        <ele>1140.1999511719</ele>
        <time>2023-05-08T08:50:23Z</time>
      </trkpt>
      <trkpt lat="44.65176" lon="3.80247">
        <ele>1141.4000244141</ele>
        <time>2023-05-08T08:50:30Z</time>
      </trkpt>
      <trkpt lat="44.65184" lon="3.80243">
        <ele>1142.1999511719</ele>
        <time>2023-05-08T08:50:35Z</time>
      </trkpt>
      <trkpt lat="44.65193" lon="3.80237">
        <ele>1143</ele>
        <time>2023-05-08T08:50:41Z</time>
      </trkpt>
      <trkpt lat="44.65202" lon="3.80231">
        <ele>1144</ele>
        <time>2023-05-08T08:50:47Z</time>
      </trkpt>
      <trkpt lat="44.65209" lon="3.80223">
        <ele>1144.5999755859</ele>
        <time>2023-05-08T08:50:52Z</time>
      </trkpt>
      <trkpt lat="44.65217" lon="3.80213">
        <ele>1145.1999511719</ele>
        <time>2023-05-08T08:50:57Z</time>
      </trkpt>
      <trkpt lat="44.65226" lon="3.802">
        <ele>1145.8000488281</ele>
        <time>2023-05-08T08:51:04Z</time>
      </trkpt>
      <trkpt lat="44.6523" lon="3.80182">
        <ele>1146</ele>
        <time>2023-05-08T08:51:11Z</time>
      </trkpt>
      <trkpt lat="44.6523" lon="3.80168">
        <ele>1145.8000488281</ele>
        <time>2023-05-08T08:51:16Z</time>
      </trkpt>
      <trkpt lat="44.65231" lon="3.80153">
        <ele>1145.8000488281</ele>
        <time>2023-05-08T08:51:21Z</time>
      </trkpt>
      <trkpt lat="44.65231" lon="3.80137">
        <ele>1145.8000488281</ele>
        <time>2023-05-08T08:51:27Z</time>
      </trkpt>
      <trkpt lat="44.65231" lon="3.80123">
        <ele>1146</ele>
        <time>2023-05-08T08:51:32Z</time>
      </trkpt>
      <trkpt lat="44.65232" lon="3.8012">
        <ele>1146</ele>
        <time>2023-05-08T08:51:33Z</time>
      </trkpt>
      <trkpt lat="44.65232" lon="3.80104">
        <ele>1146</ele>
        <time>2023-05-08T08:51:39Z</time>
      </trkpt>
      <trkpt lat="44.65233" lon="3.80102">
        <ele>1146</ele>
        <time>2023-05-08T08:51:40Z</time>
      </trkpt>
      <trkpt lat="44.65234" lon="3.80088">
        <ele>1145.4000244141</ele>
        <time>2023-05-08T08:51:46Z</time>
      </trkpt>
      <trkpt lat="44.65234" lon="3.80085">
        <ele>1145.5999755859</ele>
        <time>2023-05-08T08:51:47Z</time>
      </trkpt>
      <trkpt lat="44.65238" lon="3.80062">
        <ele>1146</ele>
        <time>2023-05-08T08:51:55Z</time>
      </trkpt>
      <trkpt lat="44.65244" lon="3.80046">
        <ele>1146</ele>
        <time>2023-05-08T08:52:02Z</time>
      </trkpt>
      <trkpt lat="44.65251" lon="3.80031">
        <ele>1145.8000488281</ele>
        <time>2023-05-08T08:52:09Z</time>
      </trkpt>
      <trkpt lat="44.65254" lon="3.80023">
        <ele>1144.1999511719</ele>
        <time>2023-05-08T08:52:15Z</time>
      </trkpt>
      <trkpt lat="44.65257" lon="3.80017">
        <ele>1143</ele>
        <time>2023-05-08T08:52:19Z</time>
      </trkpt>
      <trkpt lat="44.65256" lon="3.80011">
        <ele>1141.5999755859</ele>
        <time>2023-05-08T08:52:23Z</time>
      </trkpt>
      <trkpt lat="44.65257" lon="3.80009">
        <ele>1141.4000244141</ele>
        <time>2023-05-08T08:52:24Z</time>
      </trkpt>
      <trkpt lat="44.65258" lon="3.80005">
        <ele>1140.8000488281</ele>
        <time>2023-05-08T08:52:26Z</time>
      </trkpt>
      <trkpt lat="44.65259" lon="3.80003">
        <ele>1140.4000244141</ele>
        <time>2023-05-08T08:52:27Z</time>
      </trkpt>
      <trkpt lat="44.65263" lon="3.79991">
        <ele>1138</ele>
        <time>2023-05-08T08:52:34Z</time>
      </trkpt>
      <trkpt lat="44.65264" lon="3.79984">
        <ele>1137.5999755859</ele>
        <time>2023-05-08T08:52:37Z</time>
      </trkpt>
      <trkpt lat="44.65265" lon="3.7998">
        <ele>1137.4000244141</ele>
        <time>2023-05-08T08:52:39Z</time>
      </trkpt>
      <trkpt lat="44.65274" lon="3.79961">
        <ele>1136.8000488281</ele>
        <time>2023-05-08T08:52:45Z</time>
      </trkpt>
      <trkpt lat="44.65276" lon="3.79953">
        <ele>1136.5999755859</ele>
        <time>2023-05-08T08:52:48Z</time>
      </trkpt>
      <trkpt lat="44.65276" lon="3.79951">
        <ele>1136.8000488281</ele>
        <time>2023-05-08T08:52:49Z</time>
      </trkpt>
      <trkpt lat="44.65276" lon="3.79948">
        <ele>1136.8000488281</ele>
        <time>2023-05-08T08:52:50Z</time>
      </trkpt>
      <trkpt lat="44.65279" lon="3.79943">
        <ele>1136.8000488281</ele>
        <time>2023-05-08T08:52:52Z</time>
      </trkpt>
      <trkpt lat="44.6528" lon="3.79941">
        <ele>1136.8000488281</ele>
        <time>2023-05-08T08:52:53Z</time>
      </trkpt>
      <trkpt lat="44.65291" lon="3.79928">
        <ele>1137.1999511719</ele>
        <time>2023-05-08T08:52:59Z</time>
      </trkpt>
      <trkpt lat="44.65302" lon="3.79918">
        <ele>1138.1999511719</ele>
        <time>2023-05-08T08:53:05Z</time>
      </trkpt>
      <trkpt lat="44.65318" lon="3.7991">
        <ele>1139.4000244141</ele>
        <time>2023-05-08T08:53:12Z</time>
      </trkpt>
      <trkpt lat="44.65329" lon="3.79902">
        <ele>1140.5999755859</ele>
        <time>2023-05-08T08:53:18Z</time>
      </trkpt>
      <trkpt lat="44.65341" lon="3.79894">
        <ele>1142.1999511719</ele>
        <time>2023-05-08T08:53:25Z</time>
      </trkpt>
      <trkpt lat="44.65355" lon="3.79886">
        <ele>1144</ele>
        <time>2023-05-08T08:53:33Z</time>
      </trkpt>
      <trkpt lat="44.65357" lon="3.79885">
        <ele>1144.4000244141</ele>
        <time>2023-05-08T08:53:34Z</time>
      </trkpt>
      <trkpt lat="44.65362" lon="3.79881">
        <ele>1145.4000244141</ele>
        <time>2023-05-08T08:53:38Z</time>
      </trkpt>
      <trkpt lat="44.65372" lon="3.79876">
        <ele>1147</ele>
        <time>2023-05-08T08:53:44Z</time>
      </trkpt>
      <trkpt lat="44.65386" lon="3.79869">
        <ele>1149.8000488281</ele>
        <time>2023-05-08T08:53:51Z</time>
      </trkpt>
      <trkpt lat="44.65388" lon="3.79866">
        <ele>1150.4000244141</ele>
        <time>2023-05-08T08:53:53Z</time>
      </trkpt>
      <trkpt lat="44.65394" lon="3.7986">
        <ele>1151.1999511719</ele>
        <time>2023-05-08T08:53:57Z</time>
      </trkpt>
      <trkpt lat="44.65403" lon="3.79848">
        <ele>1152.8000488281</ele>
        <time>2023-05-08T08:54:03Z</time>
      </trkpt>
      <trkpt lat="44.6541" lon="3.7984">
        <ele>1153.8000488281</ele>
        <time>2023-05-08T08:54:09Z</time>
      </trkpt>
      <trkpt lat="44.65423" lon="3.79832">
        <ele>1155.5999755859</ele>
        <time>2023-05-08T08:54:17Z</time>
      </trkpt>
      <trkpt lat="44.65425" lon="3.7983">
        <ele>1156</ele>
        <time>2023-05-08T08:54:19Z</time>
      </trkpt>
      <trkpt lat="44.65432" lon="3.79827">
        <ele>1156.8000488281</ele>
        <time>2023-05-08T08:54:22Z</time>
      </trkpt>
      <trkpt lat="44.65438" lon="3.79824">
        <ele>1157.5999755859</ele>
        <time>2023-05-08T08:54:25Z</time>
      </trkpt>
      <trkpt lat="44.65443" lon="3.79822">
        <ele>1158.1999511719</ele>
        <time>2023-05-08T08:54:27Z</time>
      </trkpt>
      <trkpt lat="44.6546" lon="3.79818">
        <ele>1160.1999511719</ele>
        <time>2023-05-08T08:54:34Z</time>
      </trkpt>
      <trkpt lat="44.65478" lon="3.79816">
        <ele>1162</ele>
        <time>2023-05-08T08:54:41Z</time>
      </trkpt>
      <trkpt lat="44.65493" lon="3.79813">
        <ele>1163.1999511719</ele>
        <time>2023-05-08T08:54:47Z</time>
      </trkpt>
      <trkpt lat="44.65508" lon="3.79815">
        <ele>1164.4000244141</ele>
        <time>2023-05-08T08:54:52Z</time>
      </trkpt>
      <trkpt lat="44.65525" lon="3.79819">
        <ele>1165.5999755859</ele>
        <time>2023-05-08T08:54:57Z</time>
      </trkpt>
      <trkpt lat="44.65534" lon="3.79821">
        <ele>1166</ele>
        <time>2023-05-08T08:54:59Z</time>
      </trkpt>
      <trkpt lat="44.65542" lon="3.79822">
        <ele>1166.4000244141</ele>
        <time>2023-05-08T08:55:01Z</time>
      </trkpt>
      <trkpt lat="44.65553" lon="3.79825">
        <ele>1167</ele>
        <time>2023-05-08T08:55:04Z</time>
      </trkpt>
      <trkpt lat="44.65559" lon="3.79827">
        <ele>1167.4000244141</ele>
        <time>2023-05-08T08:55:06Z</time>
      </trkpt>
      <trkpt lat="44.65568" lon="3.79829">
        <ele>1167.5999755859</ele>
        <time>2023-05-08T08:55:08Z</time>
      </trkpt>
      <trkpt lat="44.65582" lon="3.79831">
        <ele>1168.1999511719</ele>
        <time>2023-05-08T08:55:13Z</time>
      </trkpt>
      <trkpt lat="44.65601" lon="3.79836">
        <ele>1169.5999755859</ele>
        <time>2023-05-08T08:55:19Z</time>
      </trkpt>
      <trkpt lat="44.65624" lon="3.7984">
        <ele>1171</ele>
        <time>2023-05-08T08:55:26Z</time>
      </trkpt>
      <trkpt lat="44.65642" lon="3.79847">
        <ele>1171.8000488281</ele>
        <time>2023-05-08T08:55:32Z</time>
      </trkpt>
      <trkpt lat="44.65667" lon="3.79861">
        <ele>1173</ele>
        <time>2023-05-08T08:55:39Z</time>
      </trkpt>
      <trkpt lat="44.65689" lon="3.79875">
        <ele>1173.8000488281</ele>
        <time>2023-05-08T08:55:45Z</time>
      </trkpt>
      <trkpt lat="44.65714" lon="3.79898">
        <ele>1175</ele>
        <time>2023-05-08T08:55:53Z</time>
      </trkpt>
      <trkpt lat="44.65742" lon="3.79922">
        <ele>1176.4000244141</ele>
        <time>2023-05-08T08:56:02Z</time>
      </trkpt>
      <trkpt lat="44.65756" lon="3.79943">
        <ele>1177.5999755859</ele>
        <time>2023-05-08T08:56:08Z</time>
      </trkpt>
      <trkpt lat="44.65768" lon="3.79969">
        <ele>1178.8000488281</ele>
        <time>2023-05-08T08:56:15Z</time>
      </trkpt>
      <trkpt lat="44.65779" lon="3.79999">
        <ele>1180.1999511719</ele>
        <time>2023-05-08T08:56:23Z</time>
      </trkpt>
      <trkpt lat="44.65793" lon="3.80029">
        <ele>1181.5999755859</ele>
        <time>2023-05-08T08:56:32Z</time>
      </trkpt>
      <trkpt lat="44.65802" lon="3.80044">
        <ele>1182.4000244141</ele>
        <time>2023-05-08T08:56:37Z</time>
      </trkpt>
      <trkpt lat="44.65815" lon="3.80059">
        <ele>1183.1999511719</ele>
        <time>2023-05-08T08:56:43Z</time>
      </trkpt>
      <trkpt lat="44.65823" lon="3.80077">
        <ele>1184</ele>
        <time>2023-05-08T08:56:49Z</time>
      </trkpt>
      <trkpt lat="44.65832" lon="3.80087">
        <ele>1184.8000488281</ele>
        <time>2023-05-08T08:56:54Z</time>
      </trkpt>
      <trkpt lat="44.65845" lon="3.80102">
        <ele>1185.8000488281</ele>
        <time>2023-05-08T08:57:01Z</time>
      </trkpt>
      <trkpt lat="44.65861" lon="3.80118">
        <ele>1186.8000488281</ele>
        <time>2023-05-08T08:57:09Z</time>
      </trkpt>
      <trkpt lat="44.65878" lon="3.80137">
        <ele>1188</ele>
        <time>2023-05-08T08:57:18Z</time>
      </trkpt>
      <trkpt lat="44.65895" lon="3.80154">
        <ele>1189.4000244141</ele>
        <time>2023-05-08T08:57:27Z</time>
      </trkpt>
      <trkpt lat="44.65907" lon="3.80172">
        <ele>1190.4000244141</ele>
        <time>2023-05-08T08:57:35Z</time>
      </trkpt>
      <trkpt lat="44.65918" lon="3.80184">
        <ele>1191.4000244141</ele>
        <time>2023-05-08T08:57:41Z</time>
      </trkpt>
      <trkpt lat="44.65934" lon="3.802">
        <ele>1192.1999511719</ele>
        <time>2023-05-08T08:57:49Z</time>
      </trkpt>
      <trkpt lat="44.65944" lon="3.80212">
        <ele>1193.1999511719</ele>
        <time>2023-05-08T08:57:55Z</time>
      </trkpt>
      <trkpt lat="44.65949" lon="3.80225">
        <ele>1193.8000488281</ele>
        <time>2023-05-08T08:58:00Z</time>
      </trkpt>
      <trkpt lat="44.65951" lon="3.8025">
        <ele>1194.4000244141</ele>
        <time>2023-05-08T08:58:06Z</time>
      </trkpt>
      <trkpt lat="44.65948" lon="3.80273">
        <ele>1194.5999755859</ele>
        <time>2023-05-08T08:58:10Z</time>
      </trkpt>
      <trkpt lat="44.65947" lon="3.8028">
        <ele>1194.5999755859</ele>
        <time>2023-05-08T08:58:11Z</time>
      </trkpt>
      <trkpt lat="44.65945" lon="3.80324">
        <ele>1194.5999755859</ele>
        <time>2023-05-08T08:58:16Z</time>
      </trkpt>
      <trkpt lat="44.65944" lon="3.80396">
        <ele>1194.5999755859</ele>
        <time>2023-05-08T08:58:23Z</time>
      </trkpt>
      <trkpt lat="44.65937" lon="3.80457">
        <ele>1194.4000244141</ele>
        <time>2023-05-08T08:58:29Z</time>
      </trkpt>
      <trkpt lat="44.65939" lon="3.80507">
        <ele>1194.1999511719</ele>
        <time>2023-05-08T08:58:34Z</time>
      </trkpt>
      <trkpt lat="44.65941" lon="3.8055">
        <ele>1194</ele>
        <time>2023-05-08T08:58:38Z</time>
      </trkpt>
      <trkpt lat="44.6594" lon="3.8056">
        <ele>1194</ele>
        <time>2023-05-08T08:58:39Z</time>
      </trkpt>
      <trkpt lat="44.65938" lon="3.80593">
        <ele>1193.8000488281</ele>
        <time>2023-05-08T08:58:42Z</time>
      </trkpt>
      <trkpt lat="44.6594" lon="3.80613">
        <ele>1193.5999755859</ele>
        <time>2023-05-08T08:58:44Z</time>
      </trkpt>
      <trkpt lat="44.65947" lon="3.80629">
        <ele>1193.4000244141</ele>
        <time>2023-05-08T08:58:46Z</time>
      </trkpt>
      <trkpt lat="44.65952" lon="3.80635">
        <ele>1193.1999511719</ele>
        <time>2023-05-08T08:58:47Z</time>
      </trkpt>
      <trkpt lat="44.65963" lon="3.80648">
        <ele>1193</ele>
        <time>2023-05-08T08:58:49Z</time>
      </trkpt>
      <trkpt lat="44.65978" lon="3.8067">
        <ele>1192.8000488281</ele>
        <time>2023-05-08T08:58:52Z</time>
      </trkpt>
      <trkpt lat="44.6599" lon="3.80693">
        <ele>1192.5999755859</ele>
        <time>2023-05-08T08:58:55Z</time>
      </trkpt>
      <trkpt lat="44.65995" lon="3.8071">
        <ele>1192.5999755859</ele>
        <time>2023-05-08T08:58:57Z</time>
      </trkpt>
      <trkpt lat="44.66" lon="3.80734">
        <ele>1192.4000244141</ele>
        <time>2023-05-08T08:59:00Z</time>
      </trkpt>
      <trkpt lat="44.66002" lon="3.8074">
        <ele>1192.4000244141</ele>
        <time>2023-05-08T08:59:01Z</time>
      </trkpt>
      <trkpt lat="44.66008" lon="3.80745">
        <ele>1192.4000244141</ele>
        <time>2023-05-08T08:59:03Z</time>
      </trkpt>
      <trkpt lat="44.66011" lon="3.80745">
        <ele>1192.5999755859</ele>
        <time>2023-05-08T08:59:04Z</time>
      </trkpt>
      <trkpt lat="44.66032" lon="3.80747">
        <ele>1192.5999755859</ele>
        <time>2023-05-08T08:59:11Z</time>
      </trkpt>
      <trkpt lat="44.66052" lon="3.80753">
        <ele>1192.5999755859</ele>
        <time>2023-05-08T08:59:17Z</time>
      </trkpt>
      <trkpt lat="44.66069" lon="3.80757">
        <ele>1192.5999755859</ele>
        <time>2023-05-08T08:59:22Z</time>
      </trkpt>
      <trkpt lat="44.66099" lon="3.80766">
        <ele>1192.5999755859</ele>
        <time>2023-05-08T08:59:29Z</time>
      </trkpt>
      <trkpt lat="44.66119" lon="3.80772">
        <ele>1192.5999755859</ele>
        <time>2023-05-08T08:59:33Z</time>
      </trkpt>
      <trkpt lat="44.66128" lon="3.80773">
        <ele>1192.5999755859</ele>
        <time>2023-05-08T08:59:35Z</time>
      </trkpt>
      <trkpt lat="44.66133" lon="3.80774">
        <ele>1192.5999755859</ele>
        <time>2023-05-08T08:59:36Z</time>
      </trkpt>
      <trkpt lat="44.66142" lon="3.80776">
        <ele>1192.4000244141</ele>
        <time>2023-05-08T08:59:38Z</time>
      </trkpt>
      <trkpt lat="44.66147" lon="3.80779">
        <ele>1192.4000244141</ele>
        <time>2023-05-08T08:59:39Z</time>
      </trkpt>
      <trkpt lat="44.66155" lon="3.80785">
        <ele>1192.4000244141</ele>
        <time>2023-05-08T08:59:41Z</time>
      </trkpt>
      <trkpt lat="44.66163" lon="3.80793">
        <ele>1192.4000244141</ele>
        <time>2023-05-08T08:59:43Z</time>
      </trkpt>
      <trkpt lat="44.66167" lon="3.80798">
        <ele>1192.4000244141</ele>
        <time>2023-05-08T08:59:44Z</time>
      </trkpt>
      <trkpt lat="44.66174" lon="3.80809">
        <ele>1192.4000244141</ele>
        <time>2023-05-08T08:59:46Z</time>
      </trkpt>
      <trkpt lat="44.66182" lon="3.80817">
        <ele>1192.4000244141</ele>
        <time>2023-05-08T08:59:48Z</time>
      </trkpt>
      <trkpt lat="44.66186" lon="3.80821">
        <ele>1192.1999511719</ele>
        <time>2023-05-08T08:59:49Z</time>
      </trkpt>
      <trkpt lat="44.66191" lon="3.80824">
        <ele>1192.1999511719</ele>
        <time>2023-05-08T08:59:50Z</time>
      </trkpt>
      <trkpt lat="44.66207" lon="3.8083">
        <ele>1192.1999511719</ele>
        <time>2023-05-08T08:59:53Z</time>
      </trkpt>
      <trkpt lat="44.66213" lon="3.80832">
        <ele>1192.1999511719</ele>
        <time>2023-05-08T08:59:54Z</time>
      </trkpt>
      <trkpt lat="44.66232" lon="3.80841">
        <ele>1192</ele>
        <time>2023-05-08T08:59:58Z</time>
      </trkpt>
      <trkpt lat="44.66245" lon="3.80849">
        <ele>1191.8000488281</ele>
        <time>2023-05-08T09:00:01Z</time>
      </trkpt>
      <trkpt lat="44.66257" lon="3.80859">
        <ele>1191.5999755859</ele>
        <time>2023-05-08T09:00:04Z</time>
      </trkpt>
      <trkpt lat="44.66273" lon="3.80871">
        <ele>1191.5999755859</ele>
        <time>2023-05-08T09:00:08Z</time>
      </trkpt>
      <trkpt lat="44.66285" lon="3.80878">
        <ele>1191.5999755859</ele>
        <time>2023-05-08T09:00:11Z</time>
      </trkpt>
      <trkpt lat="44.66319" lon="3.80894">
        <ele>1191.5999755859</ele>
        <time>2023-05-08T09:00:19Z</time>
      </trkpt>
      <trkpt lat="44.66332" lon="3.809">
        <ele>1191.5999755859</ele>
        <time>2023-05-08T09:00:22Z</time>
      </trkpt>
      <trkpt lat="44.6635" lon="3.8091">
        <ele>1191.4000244141</ele>
        <time>2023-05-08T09:00:26Z</time>
      </trkpt>
      <trkpt lat="44.66389" lon="3.8092">
        <ele>1191</ele>
        <time>2023-05-08T09:00:33Z</time>
      </trkpt>
      <trkpt lat="44.66431" lon="3.80938">
        <ele>1190</ele>
        <time>2023-05-08T09:00:40Z</time>
      </trkpt>
      <trkpt lat="44.66451" lon="3.80949">
        <ele>1189.8000488281</ele>
        <time>2023-05-08T09:00:44Z</time>
      </trkpt>
      <trkpt lat="44.66456" lon="3.80953">
        <ele>1189.8000488281</ele>
        <time>2023-05-08T09:00:45Z</time>
      </trkpt>
      <trkpt lat="44.66467" lon="3.80961">
        <ele>1190</ele>
        <time>2023-05-08T09:00:48Z</time>
      </trkpt>
      <trkpt lat="44.66471" lon="3.80964">
        <ele>1190</ele>
        <time>2023-05-08T09:00:49Z</time>
      </trkpt>
      <trkpt lat="44.66475" lon="3.80968">
        <ele>1190</ele>
        <time>2023-05-08T09:00:50Z</time>
      </trkpt>
      <trkpt lat="44.66493" lon="3.80987">
        <ele>1190</ele>
        <time>2023-05-08T09:00:55Z</time>
      </trkpt>
      <trkpt lat="44.66516" lon="3.81006">
        <ele>1190</ele>
        <time>2023-05-08T09:01:00Z</time>
      </trkpt>
      <trkpt lat="44.66521" lon="3.81009">
        <ele>1189.8000488281</ele>
        <time>2023-05-08T09:01:01Z</time>
      </trkpt>
      <trkpt lat="44.66554" lon="3.81026">
        <ele>1189.5999755859</ele>
        <time>2023-05-08T09:01:07Z</time>
      </trkpt>
      <trkpt lat="44.6657" lon="3.81029">
        <ele>1188.8000488281</ele>
        <time>2023-05-08T09:01:10Z</time>
      </trkpt>
      <trkpt lat="44.66582" lon="3.81029">
        <ele>1188.4000244141</ele>
        <time>2023-05-08T09:01:12Z</time>
      </trkpt>
      <trkpt lat="44.66597" lon="3.8103">
        <ele>1187.4000244141</ele>
        <time>2023-05-08T09:01:15Z</time>
      </trkpt>
      <trkpt lat="44.66612" lon="3.81028">
        <ele>1186.4000244141</ele>
        <time>2023-05-08T09:01:18Z</time>
      </trkpt>
      <trkpt lat="44.66618" lon="3.81028">
        <ele>1186.1999511719</ele>
        <time>2023-05-08T09:01:19Z</time>
      </trkpt>
      <trkpt lat="44.66631" lon="3.81024">
        <ele>1185.4000244141</ele>
        <time>2023-05-08T09:01:21Z</time>
      </trkpt>
      <trkpt lat="44.66662" lon="3.8101">
        <ele>1183.5999755859</ele>
        <time>2023-05-08T09:01:26Z</time>
      </trkpt>
      <trkpt lat="44.66693" lon="3.80994">
        <ele>1181.8000488281</ele>
        <time>2023-05-08T09:01:30Z</time>
      </trkpt>
      <trkpt lat="44.66717" lon="3.80983">
        <ele>1180.8000488281</ele>
        <time>2023-05-08T09:01:33Z</time>
      </trkpt>
      <trkpt lat="44.66727" lon="3.80981">
        <ele>1180.4000244141</ele>
        <time>2023-05-08T09:01:34Z</time>
      </trkpt>
      <trkpt lat="44.66785" lon="3.8098">
        <ele>1179</ele>
        <time>2023-05-08T09:01:40Z</time>
      </trkpt>
      <trkpt lat="44.66821" lon="3.80974">
        <ele>1178</ele>
        <time>2023-05-08T09:01:44Z</time>
      </trkpt>
      <trkpt lat="44.66853" lon="3.8096">
        <ele>1177</ele>
        <time>2023-05-08T09:01:48Z</time>
      </trkpt>
      <trkpt lat="44.66868" lon="3.80951">
        <ele>1176.1999511719</ele>
        <time>2023-05-08T09:01:50Z</time>
      </trkpt>
      <trkpt lat="44.66884" lon="3.80947">
        <ele>1175.8000488281</ele>
        <time>2023-05-08T09:01:52Z</time>
      </trkpt>
      <trkpt lat="44.66909" lon="3.80948">
        <ele>1175.1999511719</ele>
        <time>2023-05-08T09:01:55Z</time>
      </trkpt>
      <trkpt lat="44.66926" lon="3.80953">
        <ele>1174.8000488281</ele>
        <time>2023-05-08T09:01:57Z</time>
      </trkpt>
      <trkpt lat="44.66969" lon="3.80976">
        <ele>1173.8000488281</ele>
        <time>2023-05-08T09:02:02Z</time>
      </trkpt>
      <trkpt lat="44.67011" lon="3.80993">
        <ele>1172.8000488281</ele>
        <time>2023-05-08T09:02:07Z</time>
      </trkpt>
      <trkpt lat="44.67019" lon="3.80996">
        <ele>1172.5999755859</ele>
        <time>2023-05-08T09:02:08Z</time>
      </trkpt>
      <trkpt lat="44.67061" lon="3.81002">
        <ele>1171.8000488281</ele>
        <time>2023-05-08T09:02:13Z</time>
      </trkpt>
      <trkpt lat="44.67108" lon="3.81008">
        <ele>1171.1999511719</ele>
        <time>2023-05-08T09:02:19Z</time>
      </trkpt>
      <trkpt lat="44.67115" lon="3.8101">
        <ele>1171</ele>
        <time>2023-05-08T09:02:20Z</time>
      </trkpt>
      <trkpt lat="44.67143" lon="3.81019">
        <ele>1170.5999755859</ele>
        <time>2023-05-08T09:02:24Z</time>
      </trkpt>
      <trkpt lat="44.67163" lon="3.81028">
        <ele>1170.1999511719</ele>
        <time>2023-05-08T09:02:27Z</time>
      </trkpt>
      <trkpt lat="44.67168" lon="3.81031">
        <ele>1170</ele>
        <time>2023-05-08T09:02:28Z</time>
      </trkpt>
      <trkpt lat="44.67176" lon="3.81035">
        <ele>1170</ele>
        <time>2023-05-08T09:02:29Z</time>
      </trkpt>
      <trkpt lat="44.67189" lon="3.81041">
        <ele>1169.5999755859</ele>
        <time>2023-05-08T09:02:31Z</time>
      </trkpt>
      <trkpt lat="44.67196" lon="3.81043">
        <ele>1169.1999511719</ele>
        <time>2023-05-08T09:02:32Z</time>
      </trkpt>
      <trkpt lat="44.6721" lon="3.81043">
        <ele>1168.8000488281</ele>
        <time>2023-05-08T09:02:34Z</time>
      </trkpt>
      <trkpt lat="44.67225" lon="3.81041">
        <ele>1168.4000244141</ele>
        <time>2023-05-08T09:02:36Z</time>
      </trkpt>
      <trkpt lat="44.67242" lon="3.81038">
        <ele>1168</ele>
        <time>2023-05-08T09:02:38Z</time>
      </trkpt>
      <trkpt lat="44.67259" lon="3.81043">
        <ele>1167.5999755859</ele>
        <time>2023-05-08T09:02:40Z</time>
      </trkpt>
      <trkpt lat="44.67267" lon="3.81048">
        <ele>1167.4000244141</ele>
        <time>2023-05-08T09:02:41Z</time>
      </trkpt>
      <trkpt lat="44.67277" lon="3.81052">
        <ele>1167.1999511719</ele>
        <time>2023-05-08T09:02:42Z</time>
      </trkpt>
      <trkpt lat="44.67296" lon="3.81055">
        <ele>1166.8000488281</ele>
        <time>2023-05-08T09:02:44Z</time>
      </trkpt>
      <trkpt lat="44.67326" lon="3.8105">
        <ele>1165.8000488281</ele>
        <time>2023-05-08T09:02:47Z</time>
      </trkpt>
      <trkpt lat="44.67335" lon="3.8105">
        <ele>1165.4000244141</ele>
        <time>2023-05-08T09:02:48Z</time>
      </trkpt>
      <trkpt lat="44.67352" lon="3.81052">
        <ele>1165</ele>
        <time>2023-05-08T09:02:50Z</time>
      </trkpt>
      <trkpt lat="44.67358" lon="3.81055">
        <ele>1164.8000488281</ele>
        <time>2023-05-08T09:02:51Z</time>
      </trkpt>
      <trkpt lat="44.67363" lon="3.81062">
        <ele>1164.4000244141</ele>
        <time>2023-05-08T09:02:52Z</time>
      </trkpt>
      <trkpt lat="44.67368" lon="3.8107">
        <ele>1164.1999511719</ele>
        <time>2023-05-08T09:02:53Z</time>
      </trkpt>
      <trkpt lat="44.6738" lon="3.81096">
        <ele>1163.4000244141</ele>
        <time>2023-05-08T09:02:56Z</time>
      </trkpt>
      <trkpt lat="44.67396" lon="3.81125">
        <ele>1162.5999755859</ele>
        <time>2023-05-08T09:02:59Z</time>
      </trkpt>
      <trkpt lat="44.674" lon="3.81136">
        <ele>1162.1999511719</ele>
        <time>2023-05-08T09:03:00Z</time>
      </trkpt>
      <trkpt lat="44.67407" lon="3.81158">
        <ele>1161.5999755859</ele>
        <time>2023-05-08T09:03:02Z</time>
      </trkpt>
      <trkpt lat="44.67414" lon="3.81191">
        <ele>1161.4000244141</ele>
        <time>2023-05-08T09:03:05Z</time>
      </trkpt>
      <trkpt lat="44.67416" lon="3.81201">
        <ele>1161.1999511719</ele>
        <time>2023-05-08T09:03:06Z</time>
      </trkpt>
      <trkpt lat="44.67421" lon="3.8122">
        <ele>1160.8000488281</ele>
        <time>2023-05-08T09:03:08Z</time>
      </trkpt>
      <trkpt lat="44.67425" lon="3.8123">
        <ele>1160.5999755859</ele>
        <time>2023-05-08T09:03:09Z</time>
      </trkpt>
      <trkpt lat="44.67429" lon="3.81238">
        <ele>1160.4000244141</ele>
        <time>2023-05-08T09:03:10Z</time>
      </trkpt>
      <trkpt lat="44.6744" lon="3.81252">
        <ele>1160.1999511719</ele>
        <time>2023-05-08T09:03:12Z</time>
      </trkpt>
      <trkpt lat="44.67446" lon="3.81257">
        <ele>1160</ele>
        <time>2023-05-08T09:03:13Z</time>
      </trkpt>
      <trkpt lat="44.67462" lon="3.8127">
        <ele>1159.5999755859</ele>
        <time>2023-05-08T09:03:16Z</time>
      </trkpt>
      <trkpt lat="44.67474" lon="3.81276">
        <ele>1159.1999511719</ele>
        <time>2023-05-08T09:03:18Z</time>
      </trkpt>
      <trkpt lat="44.67496" lon="3.81287">
        <ele>1158.4000244141</ele>
        <time>2023-05-08T09:03:22Z</time>
      </trkpt>
      <trkpt lat="44.67521" lon="3.81301">
        <ele>1157.5999755859</ele>
        <time>2023-05-08T09:03:27Z</time>
      </trkpt>
      <trkpt lat="44.67532" lon="3.81307">
        <ele>1157.4000244141</ele>
        <time>2023-05-08T09:03:30Z</time>
      </trkpt>
      <trkpt lat="44.67543" lon="3.81312">
        <ele>1157.1999511719</ele>
        <time>2023-05-08T09:03:33Z</time>
      </trkpt>
      <trkpt lat="44.67556" lon="3.81318">
        <ele>1156.5999755859</ele>
        <time>2023-05-08T09:03:36Z</time>
      </trkpt>
      <trkpt lat="44.67561" lon="3.81321">
        <ele>1156.4000244141</ele>
        <time>2023-05-08T09:03:37Z</time>
      </trkpt>
      <trkpt lat="44.67566" lon="3.81324">
        <ele>1156.1999511719</ele>
        <time>2023-05-08T09:03:38Z</time>
      </trkpt>
      <trkpt lat="44.67575" lon="3.81329">
        <ele>1155.8000488281</ele>
        <time>2023-05-08T09:03:40Z</time>
      </trkpt>
      <trkpt lat="44.67584" lon="3.81334">
        <ele>1155.4000244141</ele>
        <time>2023-05-08T09:03:42Z</time>
      </trkpt>
      <trkpt lat="44.67589" lon="3.81337">
        <ele>1155</ele>
        <time>2023-05-08T09:03:43Z</time>
      </trkpt>
      <trkpt lat="44.67606" lon="3.81351">
        <ele>1154.5999755859</ele>
        <time>2023-05-08T09:03:47Z</time>
      </trkpt>
      <trkpt lat="44.6762" lon="3.81363">
        <ele>1154.1999511719</ele>
        <time>2023-05-08T09:03:51Z</time>
      </trkpt>
      <trkpt lat="44.67635" lon="3.81376">
        <ele>1153.5999755859</ele>
        <time>2023-05-08T09:03:55Z</time>
      </trkpt>
      <trkpt lat="44.67638" lon="3.81378">
        <ele>1153.4000244141</ele>
        <time>2023-05-08T09:03:56Z</time>
      </trkpt>
      <trkpt lat="44.6765" lon="3.81388">
        <ele>1153</ele>
        <time>2023-05-08T09:04:00Z</time>
      </trkpt>
      <trkpt lat="44.67667" lon="3.81399">
        <ele>1152.1999511719</ele>
        <time>2023-05-08T09:04:05Z</time>
      </trkpt>
      <trkpt lat="44.6767" lon="3.814">
        <ele>1152</ele>
        <time>2023-05-08T09:04:06Z</time>
      </trkpt>
      <trkpt lat="44.67678" lon="3.81403">
        <ele>1151.5999755859</ele>
        <time>2023-05-08T09:04:08Z</time>
      </trkpt>
      <trkpt lat="44.67686" lon="3.81406">
        <ele>1151.1999511719</ele>
        <time>2023-05-08T09:04:10Z</time>
      </trkpt>
      <trkpt lat="44.6769" lon="3.81408">
        <ele>1151</ele>
        <time>2023-05-08T09:04:11Z</time>
      </trkpt>
      <trkpt lat="44.67697" lon="3.8141">
        <ele>1150.4000244141</ele>
        <time>2023-05-08T09:04:13Z</time>
      </trkpt>
      <trkpt lat="44.67703" lon="3.81413">
        <ele>1150.1999511719</ele>
        <time>2023-05-08T09:04:15Z</time>
      </trkpt>
      <trkpt lat="44.67707" lon="3.81415">
        <ele>1149.8000488281</ele>
        <time>2023-05-08T09:04:16Z</time>
      </trkpt>
      <trkpt lat="44.67725" lon="3.8142">
        <ele>1148.8000488281</ele>
        <time>2023-05-08T09:04:20Z</time>
      </trkpt>
      <trkpt lat="44.6773" lon="3.81422">
        <ele>1148.4000244141</ele>
        <time>2023-05-08T09:04:21Z</time>
      </trkpt>
      <trkpt lat="44.67745" lon="3.81427">
        <ele>1147.8000488281</ele>
        <time>2023-05-08T09:04:24Z</time>
      </trkpt>
      <trkpt lat="44.67753" lon="3.8143">
        <ele>1147.4000244141</ele>
        <time>2023-05-08T09:04:26Z</time>
      </trkpt>
      <trkpt lat="44.67756" lon="3.81431">
        <ele>1147.1999511719</ele>
        <time>2023-05-08T09:04:27Z</time>
      </trkpt>
      <trkpt lat="44.67758" lon="3.81432">
        <ele>1146.5999755859</ele>
        <time>2023-05-08T09:04:29Z</time>
      </trkpt>
      <trkpt lat="44.67776" lon="3.8144">
        <ele>1145.8000488281</ele>
        <time>2023-05-08T09:04:33Z</time>
      </trkpt>
      <trkpt lat="44.67789" lon="3.81445">
        <ele>1145.5999755859</ele>
        <time>2023-05-08T09:04:35Z</time>
      </trkpt>
      <trkpt lat="44.67799" lon="3.81454">
        <ele>1145.1999511719</ele>
        <time>2023-05-08T09:04:37Z</time>
      </trkpt>
      <trkpt lat="44.67808" lon="3.8146">
        <ele>1144.8000488281</ele>
        <time>2023-05-08T09:04:39Z</time>
      </trkpt>
      <trkpt lat="44.6782" lon="3.81465">
        <ele>1144.4000244141</ele>
        <time>2023-05-08T09:04:41Z</time>
      </trkpt>
      <trkpt lat="44.67833" lon="3.81468">
        <ele>1144</ele>
        <time>2023-05-08T09:04:43Z</time>
      </trkpt>
      <trkpt lat="44.67846" lon="3.81475">
        <ele>1143.8000488281</ele>
        <time>2023-05-08T09:04:45Z</time>
      </trkpt>
      <trkpt lat="44.6787" lon="3.81489">
        <ele>1143.1999511719</ele>
        <time>2023-05-08T09:04:49Z</time>
      </trkpt>
      <trkpt lat="44.6789" lon="3.81504">
        <ele>1142</ele>
        <time>2023-05-08T09:04:53Z</time>
      </trkpt>
      <trkpt lat="44.67909" lon="3.81519">
        <ele>1141</ele>
        <time>2023-05-08T09:04:56Z</time>
      </trkpt>
      <trkpt lat="44.67934" lon="3.81535">
        <ele>1140</ele>
        <time>2023-05-08T09:04:59Z</time>
      </trkpt>
      <trkpt lat="44.6794" lon="3.81541">
        <ele>1140</ele>
        <time>2023-05-08T09:05:00Z</time>
      </trkpt>
      <trkpt lat="44.6797" lon="3.81564">
        <ele>1140</ele>
        <time>2023-05-08T09:05:04Z</time>
      </trkpt>
      <trkpt lat="44.67993" lon="3.81584">
        <ele>1139.8000488281</ele>
        <time>2023-05-08T09:05:07Z</time>
      </trkpt>
      <trkpt lat="44.68" lon="3.8159">
        <ele>1139.8000488281</ele>
        <time>2023-05-08T09:05:08Z</time>
      </trkpt>
      <trkpt lat="44.68023" lon="3.81616">
        <ele>1139.8000488281</ele>
        <time>2023-05-08T09:05:12Z</time>
      </trkpt>
      <trkpt lat="44.68027" lon="3.81621">
        <ele>1139.8000488281</ele>
        <time>2023-05-08T09:05:13Z</time>
      </trkpt>
      <trkpt lat="44.68034" lon="3.81624">
        <ele>1139.8000488281</ele>
        <time>2023-05-08T09:05:14Z</time>
      </trkpt>
      <trkpt lat="44.68042" lon="3.81625">
        <ele>1139.5999755859</ele>
        <time>2023-05-08T09:05:15Z</time>
      </trkpt>
      <trkpt lat="44.68046" lon="3.81624">
        <ele>1139.5999755859</ele>
        <time>2023-05-08T09:05:16Z</time>
      </trkpt>
      <trkpt lat="44.68056" lon="3.81617">
        <ele>1139.1999511719</ele>
        <time>2023-05-08T09:05:18Z</time>
      </trkpt>
      <trkpt lat="44.68062" lon="3.81612">
        <ele>1139.1999511719</ele>
        <time>2023-05-08T09:05:19Z</time>
      </trkpt>
      <trkpt lat="44.68075" lon="3.81602">
        <ele>1138.8000488281</ele>
        <time>2023-05-08T09:05:21Z</time>
      </trkpt>
      <trkpt lat="44.68087" lon="3.81591">
        <ele>1138.1999511719</ele>
        <time>2023-05-08T09:05:23Z</time>
      </trkpt>
      <trkpt lat="44.68092" lon="3.81586">
        <ele>1138</ele>
        <time>2023-05-08T09:05:24Z</time>
      </trkpt>
      <trkpt lat="44.68104" lon="3.81575">
        <ele>1137.5999755859</ele>
        <time>2023-05-08T09:05:26Z</time>
      </trkpt>
      <trkpt lat="44.68114" lon="3.81561">
        <ele>1137.1999511719</ele>
        <time>2023-05-08T09:05:28Z</time>
      </trkpt>
      <trkpt lat="44.68131" lon="3.8154">
        <ele>1136.5999755859</ele>
        <time>2023-05-08T09:05:31Z</time>
      </trkpt>
      <trkpt lat="44.68138" lon="3.81534">
        <ele>1136.4000244141</ele>
        <time>2023-05-08T09:05:32Z</time>
      </trkpt>
      <trkpt lat="44.6816" lon="3.81509">
        <ele>1135.8000488281</ele>
        <time>2023-05-08T09:05:36Z</time>
      </trkpt>
      <trkpt lat="44.68176" lon="3.81488">
        <ele>1135.4000244141</ele>
        <time>2023-05-08T09:05:39Z</time>
      </trkpt>
      <trkpt lat="44.68184" lon="3.81471">
        <ele>1135</ele>
        <time>2023-05-08T09:05:41Z</time>
      </trkpt>
      <trkpt lat="44.68188" lon="3.81463">
        <ele>1134.8000488281</ele>
        <time>2023-05-08T09:05:42Z</time>
      </trkpt>
      <trkpt lat="44.68193" lon="3.81456">
        <ele>1134.5999755859</ele>
        <time>2023-05-08T09:05:43Z</time>
      </trkpt>
      <trkpt lat="44.68207" lon="3.81447">
        <ele>1134.1999511719</ele>
        <time>2023-05-08T09:05:45Z</time>
      </trkpt>
      <trkpt lat="44.68221" lon="3.81444">
        <ele>1134</ele>
        <time>2023-05-08T09:05:47Z</time>
      </trkpt>
      <trkpt lat="44.68227" lon="3.81443">
        <ele>1133.5999755859</ele>
        <time>2023-05-08T09:05:48Z</time>
      </trkpt>
      <trkpt lat="44.68251" lon="3.81439">
        <ele>1132.8000488281</ele>
        <time>2023-05-08T09:05:52Z</time>
      </trkpt>
      <trkpt lat="44.68255" lon="3.81437">
        <ele>1132.5999755859</ele>
        <time>2023-05-08T09:05:53Z</time>
      </trkpt>
      <trkpt lat="44.68265" lon="3.81434">
        <ele>1132</ele>
        <time>2023-05-08T09:05:55Z</time>
      </trkpt>
      <trkpt lat="44.68274" lon="3.8143">
        <ele>1131.4000244141</ele>
        <time>2023-05-08T09:05:57Z</time>
      </trkpt>
      <trkpt lat="44.68292" lon="3.81413">
        <ele>1130</ele>
        <time>2023-05-08T09:06:02Z</time>
      </trkpt>
      <trkpt lat="44.683" lon="3.81406">
        <ele>1129.1999511719</ele>
        <time>2023-05-08T09:06:04Z</time>
      </trkpt>
      <trkpt lat="44.68308" lon="3.81398">
        <ele>1128.5999755859</ele>
        <time>2023-05-08T09:06:06Z</time>
      </trkpt>
      <trkpt lat="44.68311" lon="3.81393">
        <ele>1128.1999511719</ele>
        <time>2023-05-08T09:06:07Z</time>
      </trkpt>
      <trkpt lat="44.68328" lon="3.81375">
        <ele>1126.4000244141</ele>
        <time>2023-05-08T09:06:12Z</time>
      </trkpt>
      <trkpt lat="44.6834" lon="3.81361">
        <ele>1125.4000244141</ele>
        <time>2023-05-08T09:06:16Z</time>
      </trkpt>
      <trkpt lat="44.68356" lon="3.81345">
        <ele>1123.5999755859</ele>
        <time>2023-05-08T09:06:21Z</time>
      </trkpt>
      <trkpt lat="44.68363" lon="3.8134">
        <ele>1123</ele>
        <time>2023-05-08T09:06:23Z</time>
      </trkpt>
      <trkpt lat="44.68365" lon="3.81337">
        <ele>1122.5999755859</ele>
        <time>2023-05-08T09:06:24Z</time>
      </trkpt>
      <trkpt lat="44.6837" lon="3.81331">
        <ele>1122.1999511719</ele>
        <time>2023-05-08T09:06:26Z</time>
      </trkpt>
      <trkpt lat="44.68376" lon="3.81324">
        <ele>1121.5999755859</ele>
        <time>2023-05-08T09:06:28Z</time>
      </trkpt>
      <trkpt lat="44.68385" lon="3.81316">
        <ele>1120.1999511719</ele>
        <time>2023-05-08T09:06:31Z</time>
      </trkpt>
      <trkpt lat="44.68389" lon="3.81315">
        <ele>1119.8000488281</ele>
        <time>2023-05-08T09:06:32Z</time>
      </trkpt>
      <trkpt lat="44.684" lon="3.81307">
        <ele>1118.1999511719</ele>
        <time>2023-05-08T09:06:35Z</time>
      </trkpt>
      <trkpt lat="44.68411" lon="3.81301">
        <ele>1116.4000244141</ele>
        <time>2023-05-08T09:06:38Z</time>
      </trkpt>
      <trkpt lat="44.68416" lon="3.81297">
        <ele>1115.8000488281</ele>
        <time>2023-05-08T09:06:39Z</time>
      </trkpt>
      <trkpt lat="44.6842" lon="3.81294">
        <ele>1115.1999511719</ele>
        <time>2023-05-08T09:06:40Z</time>
      </trkpt>
      <trkpt lat="44.68427" lon="3.81285">
        <ele>1113.8000488281</ele>
        <time>2023-05-08T09:06:42Z</time>
      </trkpt>
      <trkpt lat="44.68431" lon="3.8128">
        <ele>1113.1999511719</ele>
        <time>2023-05-08T09:06:43Z</time>
      </trkpt>
      <trkpt lat="44.68436" lon="3.81274">
        <ele>1112.5999755859</ele>
        <time>2023-05-08T09:06:44Z</time>
      </trkpt>
      <trkpt lat="44.68449" lon="3.81263">
        <ele>1111.1999511719</ele>
        <time>2023-05-08T09:06:46Z</time>
      </trkpt>
      <trkpt lat="44.68472" lon="3.8125">
        <ele>1109.1999511719</ele>
        <time>2023-05-08T09:06:49Z</time>
      </trkpt>
      <trkpt lat="44.6848" lon="3.81248">
        <ele>1108.5999755859</ele>
        <time>2023-05-08T09:06:50Z</time>
      </trkpt>
      <trkpt lat="44.68519" lon="3.81242">
        <ele>1106.5999755859</ele>
        <time>2023-05-08T09:06:54Z</time>
      </trkpt>
      <trkpt lat="44.68528" lon="3.8124">
        <ele>1106.1999511719</ele>
        <time>2023-05-08T09:06:55Z</time>
      </trkpt>
      <trkpt lat="44.68545" lon="3.81235">
        <ele>1105</ele>
        <time>2023-05-08T09:06:57Z</time>
      </trkpt>
      <trkpt lat="44.68553" lon="3.81232">
        <ele>1104.4000244141</ele>
        <time>2023-05-08T09:06:58Z</time>
      </trkpt>
      <trkpt lat="44.68562" lon="3.81229">
        <ele>1103.8000488281</ele>
        <time>2023-05-08T09:06:59Z</time>
      </trkpt>
      <trkpt lat="44.68578" lon="3.81223">
        <ele>1102.5999755859</ele>
        <time>2023-05-08T09:07:01Z</time>
      </trkpt>
      <trkpt lat="44.68609" lon="3.81208">
        <ele>1100.5999755859</ele>
        <time>2023-05-08T09:07:05Z</time>
      </trkpt>
      <trkpt lat="44.68616" lon="3.81204">
        <ele>1100</ele>
        <time>2023-05-08T09:07:06Z</time>
      </trkpt>
      <trkpt lat="44.68623" lon="3.812">
        <ele>1099.4000244141</ele>
        <time>2023-05-08T09:07:07Z</time>
      </trkpt>
      <trkpt lat="44.68637" lon="3.81193">
        <ele>1098.1999511719</ele>
        <time>2023-05-08T09:07:09Z</time>
      </trkpt>
      <trkpt lat="44.68659" lon="3.81184">
        <ele>1096.4000244141</ele>
        <time>2023-05-08T09:07:12Z</time>
      </trkpt>
      <trkpt lat="44.68666" lon="3.81179">
        <ele>1096</ele>
        <time>2023-05-08T09:07:13Z</time>
      </trkpt>
      <trkpt lat="44.68699" lon="3.81157">
        <ele>1093.1999511719</ele>
        <time>2023-05-08T09:07:18Z</time>
      </trkpt>
      <trkpt lat="44.68733" lon="3.81128">
        <ele>1090.4000244141</ele>
        <time>2023-05-08T09:07:23Z</time>
      </trkpt>
      <trkpt lat="44.6876" lon="3.81111">
        <ele>1089.1999511719</ele>
        <time>2023-05-08T09:07:27Z</time>
      </trkpt>
      <trkpt lat="44.68767" lon="3.81107">
        <ele>1089</ele>
        <time>2023-05-08T09:07:28Z</time>
      </trkpt>
      <trkpt lat="44.68774" lon="3.81101">
        <ele>1088.8000488281</ele>
        <time>2023-05-08T09:07:29Z</time>
      </trkpt>
      <trkpt lat="44.68788" lon="3.81089">
        <ele>1088.4000244141</ele>
        <time>2023-05-08T09:07:31Z</time>
      </trkpt>
      <trkpt lat="44.68795" lon="3.81085">
        <ele>1088.1999511719</ele>
        <time>2023-05-08T09:07:32Z</time>
      </trkpt>
      <trkpt lat="44.68803" lon="3.81082">
        <ele>1088</ele>
        <time>2023-05-08T09:07:33Z</time>
      </trkpt>
      <trkpt lat="44.68818" lon="3.81078">
        <ele>1088</ele>
        <time>2023-05-08T09:07:35Z</time>
      </trkpt>
      <trkpt lat="44.68843" lon="3.81078">
        <ele>1088</ele>
        <time>2023-05-08T09:07:38Z</time>
      </trkpt>
      <trkpt lat="44.68852" lon="3.81077">
        <ele>1087.5999755859</ele>
        <time>2023-05-08T09:07:39Z</time>
      </trkpt>
      <trkpt lat="44.68867" lon="3.8107">
        <ele>1087.5999755859</ele>
        <time>2023-05-08T09:07:41Z</time>
      </trkpt>
      <trkpt lat="44.68873" lon="3.81063">
        <ele>1087.8000488281</ele>
        <time>2023-05-08T09:07:42Z</time>
      </trkpt>
      <trkpt lat="44.68877" lon="3.81057">
        <ele>1088.1999511719</ele>
        <time>2023-05-08T09:07:43Z</time>
      </trkpt>
      <trkpt lat="44.6888" lon="3.81052">
        <ele>1088</ele>
        <time>2023-05-08T09:07:44Z</time>
      </trkpt>
      <trkpt lat="44.68881" lon="3.81046">
        <ele>1088</ele>
        <time>2023-05-08T09:07:45Z</time>
      </trkpt>
      <trkpt lat="44.68879" lon="3.81034">
        <ele>1087.8000488281</ele>
        <time>2023-05-08T09:07:47Z</time>
      </trkpt>
      <trkpt lat="44.68874" lon="3.81025">
        <ele>1087.8000488281</ele>
        <time>2023-05-08T09:07:49Z</time>
      </trkpt>
      <trkpt lat="44.68869" lon="3.81008">
        <ele>1087.8000488281</ele>
        <time>2023-05-08T09:07:52Z</time>
      </trkpt>
      <trkpt lat="44.68865" lon="3.80996">
        <ele>1087.4000244141</ele>
        <time>2023-05-08T09:07:54Z</time>
      </trkpt>
      <trkpt lat="44.68859" lon="3.80985">
        <ele>1087.1999511719</ele>
        <time>2023-05-08T09:07:56Z</time>
      </trkpt>
      <trkpt lat="44.68852" lon="3.80977">
        <ele>1086.8000488281</ele>
        <time>2023-05-08T09:07:58Z</time>
      </trkpt>
      <trkpt lat="44.68848" lon="3.80968">
        <ele>1086.8000488281</ele>
        <time>2023-05-08T09:08:00Z</time>
      </trkpt>
      <trkpt lat="44.68845" lon="3.80956">
        <ele>1087.5999755859</ele>
        <time>2023-05-08T09:08:04Z</time>
      </trkpt>
      <trkpt lat="44.68834" lon="3.80939">
        <ele>1089</ele>
        <time>2023-05-08T09:08:10Z</time>
      </trkpt>
      <trkpt lat="44.68823" lon="3.80923">
        <ele>1089.1999511719</ele>
        <time>2023-05-08T09:08:15Z</time>
      </trkpt>
      <trkpt lat="44.68816" lon="3.8091">
        <ele>1089</ele>
        <time>2023-05-08T09:08:18Z</time>
      </trkpt>
      <trkpt lat="44.68816" lon="3.80905">
        <ele>1089</ele>
        <time>2023-05-08T09:08:19Z</time>
      </trkpt>
      <trkpt lat="44.68814" lon="3.80902">
        <ele>1089</ele>
        <time>2023-05-08T09:08:20Z</time>
      </trkpt>
      <trkpt lat="44.6881" lon="3.80897">
        <ele>1089</ele>
        <time>2023-05-08T09:08:22Z</time>
      </trkpt>
      <trkpt lat="44.68798" lon="3.80895">
        <ele>1088.8000488281</ele>
        <time>2023-05-08T09:08:25Z</time>
      </trkpt>
      <trkpt lat="44.68794" lon="3.80893">
        <ele>1088.8000488281</ele>
        <time>2023-05-08T09:08:26Z</time>
      </trkpt>
      <trkpt lat="44.6879" lon="3.80891">
        <ele>1088.8000488281</ele>
        <time>2023-05-08T09:08:27Z</time>
      </trkpt>
      <trkpt lat="44.68771" lon="3.8088">
        <ele>1089</ele>
        <time>2023-05-08T09:08:31Z</time>
      </trkpt>
      <trkpt lat="44.68767" lon="3.80876">
        <ele>1089.1999511719</ele>
        <time>2023-05-08T09:08:32Z</time>
      </trkpt>
      <trkpt lat="44.68762" lon="3.80866">
        <ele>1089.4000244141</ele>
        <time>2023-05-08T09:08:34Z</time>
      </trkpt>
      <trkpt lat="44.6876" lon="3.80861">
        <ele>1089.5999755859</ele>
        <time>2023-05-08T09:08:35Z</time>
      </trkpt>
      <trkpt lat="44.68759" lon="3.80855">
        <ele>1089.8000488281</ele>
        <time>2023-05-08T09:08:36Z</time>
      </trkpt>
      <trkpt lat="44.68756" lon="3.80835">
        <ele>1090.5999755859</ele>
        <time>2023-05-08T09:08:40Z</time>
      </trkpt>
      <trkpt lat="44.68748" lon="3.80815">
        <ele>1091.1999511719</ele>
        <time>2023-05-08T09:08:44Z</time>
      </trkpt>
      <trkpt lat="44.68748" lon="3.80804">
        <ele>1091.8000488281</ele>
        <time>2023-05-08T09:08:46Z</time>
      </trkpt>
      <trkpt lat="44.6875" lon="3.80799">
        <ele>1092</ele>
        <time>2023-05-08T09:08:47Z</time>
      </trkpt>
      <trkpt lat="44.68753" lon="3.80794">
        <ele>1092.1999511719</ele>
        <time>2023-05-08T09:08:48Z</time>
      </trkpt>
      <trkpt lat="44.68764" lon="3.80785">
        <ele>1092.4000244141</ele>
        <time>2023-05-08T09:08:50Z</time>
      </trkpt>
      <trkpt lat="44.68777" lon="3.8078">
        <ele>1092.8000488281</ele>
        <time>2023-05-08T09:08:52Z</time>
      </trkpt>
      <trkpt lat="44.68782" lon="3.80778">
        <ele>1093</ele>
        <time>2023-05-08T09:08:53Z</time>
      </trkpt>
      <trkpt lat="44.68792" lon="3.80775">
        <ele>1093.5999755859</ele>
        <time>2023-05-08T09:08:55Z</time>
      </trkpt>
      <trkpt lat="44.68802" lon="3.80768">
        <ele>1094</ele>
        <time>2023-05-08T09:08:57Z</time>
      </trkpt>
      <trkpt lat="44.68831" lon="3.80741">
        <ele>1094.5999755859</ele>
        <time>2023-05-08T09:09:03Z</time>
      </trkpt>
      <trkpt lat="44.6884" lon="3.80733">
        <ele>1094.8000488281</ele>
        <time>2023-05-08T09:09:05Z</time>
      </trkpt>
      <trkpt lat="44.68856" lon="3.80721">
        <ele>1095</ele>
        <time>2023-05-08T09:09:09Z</time>
      </trkpt>
      <trkpt lat="44.68868" lon="3.80713">
        <ele>1095.4000244141</ele>
        <time>2023-05-08T09:09:12Z</time>
      </trkpt>
      <trkpt lat="44.68871" lon="3.80712">
        <ele>1095.4000244141</ele>
        <time>2023-05-08T09:09:13Z</time>
      </trkpt>
      <trkpt lat="44.68889" lon="3.80707">
        <ele>1096</ele>
        <time>2023-05-08T09:09:17Z</time>
      </trkpt>
      <trkpt lat="44.68893" lon="3.80707">
        <ele>1096</ele>
        <time>2023-05-08T09:09:18Z</time>
      </trkpt>
      <trkpt lat="44.68904" lon="3.80708">
        <ele>1095.8000488281</ele>
        <time>2023-05-08T09:09:20Z</time>
      </trkpt>
      <trkpt lat="44.68909" lon="3.8071">
        <ele>1095.8000488281</ele>
        <time>2023-05-08T09:09:21Z</time>
      </trkpt>
      <trkpt lat="44.68913" lon="3.80713">
        <ele>1095.8000488281</ele>
        <time>2023-05-08T09:09:22Z</time>
      </trkpt>
      <trkpt lat="44.68921" lon="3.80721">
        <ele>1096</ele>
        <time>2023-05-08T09:09:24Z</time>
      </trkpt>
      <trkpt lat="44.68938" lon="3.80736">
        <ele>1096.4000244141</ele>
        <time>2023-05-08T09:09:28Z</time>
      </trkpt>
      <trkpt lat="44.68944" lon="3.80745">
        <ele>1096.5999755859</ele>
        <time>2023-05-08T09:09:30Z</time>
      </trkpt>
      <trkpt lat="44.68957" lon="3.80759">
        <ele>1097</ele>
        <time>2023-05-08T09:09:35Z</time>
      </trkpt>
      <trkpt lat="44.68965" lon="3.8076">
        <ele>1097.4000244141</ele>
        <time>2023-05-08T09:09:39Z</time>
      </trkpt>
      <trkpt lat="44.68975" lon="3.80764">
        <ele>1098.1999511719</ele>
        <time>2023-05-08T09:09:44Z</time>
      </trkpt>
      <trkpt lat="44.68988" lon="3.80767">
        <ele>1098.8000488281</ele>
        <time>2023-05-08T09:09:49Z</time>
      </trkpt>
      <trkpt lat="44.69002" lon="3.80769">
        <ele>1099.5999755859</ele>
        <time>2023-05-08T09:09:54Z</time>
      </trkpt>
      <trkpt lat="44.6902" lon="3.80772">
        <ele>1099.8000488281</ele>
        <time>2023-05-08T09:09:58Z</time>
      </trkpt>
      <trkpt lat="44.69025" lon="3.80771">
        <ele>1100</ele>
        <time>2023-05-08T09:09:59Z</time>
      </trkpt>
      <trkpt lat="44.6904" lon="3.80765">
        <ele>1100.1999511719</ele>
        <time>2023-05-08T09:10:03Z</time>
      </trkpt>
      <trkpt lat="44.69064" lon="3.80757">
        <ele>1100.1999511719</ele>
        <time>2023-05-08T09:10:10Z</time>
      </trkpt>
      <trkpt lat="44.6908" lon="3.80753">
        <ele>1100.4000244141</ele>
        <time>2023-05-08T09:10:16Z</time>
      </trkpt>
      <trkpt lat="44.69094" lon="3.80747">
        <ele>1101</ele>
        <time>2023-05-08T09:10:22Z</time>
      </trkpt>
      <trkpt lat="44.69104" lon="3.80741">
        <ele>1101.4000244141</ele>
        <time>2023-05-08T09:10:27Z</time>
      </trkpt>
      <trkpt lat="44.69113" lon="3.80735">
        <ele>1102.1999511719</ele>
        <time>2023-05-08T09:10:32Z</time>
      </trkpt>
      <trkpt lat="44.69118" lon="3.80731">
        <ele>1103</ele>
        <time>2023-05-08T09:10:36Z</time>
      </trkpt>
      <trkpt lat="44.6912" lon="3.8073">
        <ele>1103.1999511719</ele>
        <time>2023-05-08T09:10:38Z</time>
      </trkpt>
      <trkpt lat="44.69127" lon="3.80727">
        <ele>1104</ele>
        <time>2023-05-08T09:10:42Z</time>
      </trkpt>
      <trkpt lat="44.6913" lon="3.80724">
        <ele>1104.1999511719</ele>
        <time>2023-05-08T09:10:44Z</time>
      </trkpt>
      <trkpt lat="44.69137" lon="3.80719">
        <ele>1104.8000488281</ele>
        <time>2023-05-08T09:10:48Z</time>
      </trkpt>
      <trkpt lat="44.69146" lon="3.80712">
        <ele>1105.4000244141</ele>
        <time>2023-05-08T09:10:53Z</time>
      </trkpt>
      <trkpt lat="44.69157" lon="3.80707">
        <ele>1105.8000488281</ele>
        <time>2023-05-08T09:10:58Z</time>
      </trkpt>
      <trkpt lat="44.69161" lon="3.80703">
        <ele>1106</ele>
        <time>2023-05-08T09:11:01Z</time>
      </trkpt>
      <trkpt lat="44.69166" lon="3.80698">
        <ele>1106</ele>
        <time>2023-05-08T09:11:04Z</time>
      </trkpt>
      <trkpt lat="44.69171" lon="3.80695">
        <ele>1106.1999511719</ele>
        <time>2023-05-08T09:11:06Z</time>
      </trkpt>
      <trkpt lat="44.69176" lon="3.80693">
        <ele>1106.1999511719</ele>
        <time>2023-05-08T09:11:08Z</time>
      </trkpt>
      <trkpt lat="44.69178" lon="3.80691">
        <ele>1106.1999511719</ele>
        <time>2023-05-08T09:11:09Z</time>
      </trkpt>
      <trkpt lat="44.69186" lon="3.80688">
        <ele>1106.4000244141</ele>
        <time>2023-05-08T09:11:12Z</time>
      </trkpt>
      <trkpt lat="44.69205" lon="3.80681">
        <ele>1107.1999511719</ele>
        <time>2023-05-08T09:11:18Z</time>
      </trkpt>
      <trkpt lat="44.69219" lon="3.80675">
        <ele>1107.4000244141</ele>
        <time>2023-05-08T09:11:22Z</time>
      </trkpt>
      <trkpt lat="44.69228" lon="3.80671">
        <ele>1107.1999511719</ele>
        <time>2023-05-08T09:11:25Z</time>
      </trkpt>
      <trkpt lat="44.69231" lon="3.80668">
        <ele>1107.1999511719</ele>
        <time>2023-05-08T09:11:27Z</time>
      </trkpt>
      <trkpt lat="44.69243" lon="3.80656">
        <ele>1107.1999511719</ele>
        <time>2023-05-08T09:11:33Z</time>
      </trkpt>
      <trkpt lat="44.6925" lon="3.80646">
        <ele>1107.1999511719</ele>
        <time>2023-05-08T09:11:39Z</time>
      </trkpt>
      <trkpt lat="44.69253" lon="3.80642">
        <ele>1107</ele>
        <time>2023-05-08T09:11:41Z</time>
      </trkpt>
      <trkpt lat="44.69255" lon="3.80639">
        <ele>1106.8000488281</ele>
        <time>2023-05-08T09:11:43Z</time>
      </trkpt>
      <trkpt lat="44.69262" lon="3.80632">
        <ele>1105.8000488281</ele>
        <time>2023-05-08T09:11:47Z</time>
      </trkpt>
      <trkpt lat="44.69271" lon="3.80618">
        <ele>1105</ele>
        <time>2023-05-08T09:11:51Z</time>
      </trkpt>
      <trkpt lat="44.69275" lon="3.80611">
        <ele>1105.1999511719</ele>
        <time>2023-05-08T09:11:53Z</time>
      </trkpt>
      <trkpt lat="44.69279" lon="3.80608">
        <ele>1105</ele>
        <time>2023-05-08T09:11:54Z</time>
      </trkpt>
      <trkpt lat="44.69283" lon="3.80606">
        <ele>1105</ele>
        <time>2023-05-08T09:11:55Z</time>
      </trkpt>
      <trkpt lat="44.69289" lon="3.806">
        <ele>1104.5999755859</ele>
        <time>2023-05-08T09:11:57Z</time>
      </trkpt>
      <trkpt lat="44.69297" lon="3.8059">
        <ele>1104.4000244141</ele>
        <time>2023-05-08T09:11:59Z</time>
      </trkpt>
      <trkpt lat="44.69303" lon="3.80579">
        <ele>1103.8000488281</ele>
        <time>2023-05-08T09:12:01Z</time>
      </trkpt>
      <trkpt lat="44.69304" lon="3.80573">
        <ele>1103.5999755859</ele>
        <time>2023-05-08T09:12:02Z</time>
      </trkpt>
      <trkpt lat="44.69305" lon="3.80566">
        <ele>1103.1999511719</ele>
        <time>2023-05-08T09:12:03Z</time>
      </trkpt>
      <trkpt lat="44.6931" lon="3.80553">
        <ele>1103</ele>
        <time>2023-05-08T09:12:05Z</time>
      </trkpt>
      <trkpt lat="44.69313" lon="3.80546">
        <ele>1103</ele>
        <time>2023-05-08T09:12:06Z</time>
      </trkpt>
      <trkpt lat="44.69316" lon="3.80539">
        <ele>1103</ele>
        <time>2023-05-08T09:12:07Z</time>
      </trkpt>
      <trkpt lat="44.69326" lon="3.80522">
        <ele>1102.5999755859</ele>
        <time>2023-05-08T09:12:10Z</time>
      </trkpt>
      <trkpt lat="44.69343" lon="3.80491">
        <ele>1100.8000488281</ele>
        <time>2023-05-08T09:12:15Z</time>
      </trkpt>
      <trkpt lat="44.69359" lon="3.80462">
        <ele>1099</ele>
        <time>2023-05-08T09:12:19Z</time>
      </trkpt>
      <trkpt lat="44.69366" lon="3.80449">
        <ele>1097.8000488281</ele>
        <time>2023-05-08T09:12:21Z</time>
      </trkpt>
      <trkpt lat="44.69372" lon="3.80437">
        <ele>1096.8000488281</ele>
        <time>2023-05-08T09:12:23Z</time>
      </trkpt>
      <trkpt lat="44.6938" lon="3.8043">
        <ele>1095.8000488281</ele>
        <time>2023-05-08T09:12:25Z</time>
      </trkpt>
      <trkpt lat="44.69384" lon="3.80425">
        <ele>1095.5999755859</ele>
        <time>2023-05-08T09:12:26Z</time>
      </trkpt>
      <trkpt lat="44.69395" lon="3.80407">
        <ele>1094</ele>
        <time>2023-05-08T09:12:30Z</time>
      </trkpt>
      <trkpt lat="44.694" lon="3.80392">
        <ele>1092.5999755859</ele>
        <time>2023-05-08T09:12:33Z</time>
      </trkpt>
      <trkpt lat="44.69404" lon="3.80382">
        <ele>1091.5999755859</ele>
        <time>2023-05-08T09:12:35Z</time>
      </trkpt>
      <trkpt lat="44.69404" lon="3.80377">
        <ele>1091</ele>
        <time>2023-05-08T09:12:36Z</time>
      </trkpt>
      <trkpt lat="44.69407" lon="3.8036">
        <ele>1089.4000244141</ele>
        <time>2023-05-08T09:12:39Z</time>
      </trkpt>
      <trkpt lat="44.6941" lon="3.80342">
        <ele>1088</ele>
        <time>2023-05-08T09:12:43Z</time>
      </trkpt>
      <trkpt lat="44.69411" lon="3.80333">
        <ele>1087.4000244141</ele>
        <time>2023-05-08T09:12:45Z</time>
      </trkpt>
      <trkpt lat="44.69411" lon="3.80326">
        <ele>1087.1999511719</ele>
        <time>2023-05-08T09:12:47Z</time>
      </trkpt>
      <trkpt lat="44.69416" lon="3.80307">
        <ele>1086.5999755859</ele>
        <time>2023-05-08T09:12:52Z</time>
      </trkpt>
      <trkpt lat="44.69421" lon="3.80291">
        <ele>1085.4000244141</ele>
        <time>2023-05-08T09:12:56Z</time>
      </trkpt>
      <trkpt lat="44.69426" lon="3.80266">
        <ele>1083.8000488281</ele>
        <time>2023-05-08T09:13:02Z</time>
      </trkpt>
      <trkpt lat="44.69433" lon="3.80252">
        <ele>1082.4000244141</ele>
        <time>2023-05-08T09:13:07Z</time>
      </trkpt>
      <trkpt lat="44.69437" lon="3.80244">
        <ele>1081.8000488281</ele>
        <time>2023-05-08T09:13:09Z</time>
      </trkpt>
      <trkpt lat="44.69439" lon="3.8024">
        <ele>1081.5999755859</ele>
        <time>2023-05-08T09:13:10Z</time>
      </trkpt>
      <trkpt lat="44.69454" lon="3.80218">
        <ele>1080.5999755859</ele>
        <time>2023-05-08T09:13:15Z</time>
      </trkpt>
      <trkpt lat="44.6946" lon="3.80207">
        <ele>1080.4000244141</ele>
        <time>2023-05-08T09:13:18Z</time>
      </trkpt>
      <trkpt lat="44.69466" lon="3.80194">
        <ele>1080.4000244141</ele>
        <time>2023-05-08T09:13:21Z</time>
      </trkpt>
      <trkpt lat="44.6947" lon="3.80187">
        <ele>1080.4000244141</ele>
        <time>2023-05-08T09:13:23Z</time>
      </trkpt>
      <trkpt lat="44.6947" lon="3.80185">
        <ele>1080</ele>
        <time>2023-05-08T09:13:24Z</time>
      </trkpt>
      <trkpt lat="44.69472" lon="3.80183">
        <ele>1079.8000488281</ele>
        <time>2023-05-08T09:13:25Z</time>
      </trkpt>
      <trkpt lat="44.69482" lon="3.80174">
        <ele>1079.8000488281</ele>
        <time>2023-05-08T09:13:27Z</time>
      </trkpt>
      <trkpt lat="44.69499" lon="3.80158">
        <ele>1080.1999511719</ele>
        <time>2023-05-08T09:13:31Z</time>
      </trkpt>
      <trkpt lat="44.69513" lon="3.80146">
        <ele>1080</ele>
        <time>2023-05-08T09:13:35Z</time>
      </trkpt>
      <trkpt lat="44.69521" lon="3.80134">
        <ele>1079.8000488281</ele>
        <time>2023-05-08T09:13:39Z</time>
      </trkpt>
      <trkpt lat="44.69523" lon="3.80132">
        <ele>1079.4000244141</ele>
        <time>2023-05-08T09:13:40Z</time>
      </trkpt>
      <trkpt lat="44.69531" lon="3.80124">
        <ele>1078.1999511719</ele>
        <time>2023-05-08T09:13:43Z</time>
      </trkpt>
      <trkpt lat="44.69542" lon="3.80122">
        <ele>1076.5999755859</ele>
        <time>2023-05-08T09:13:48Z</time>
      </trkpt>
      <trkpt lat="44.69551" lon="3.8012">
        <ele>1076</ele>
        <time>2023-05-08T09:13:51Z</time>
      </trkpt>
      <trkpt lat="44.69554" lon="3.80118">
        <ele>1076</ele>
        <time>2023-05-08T09:13:52Z</time>
      </trkpt>
      <trkpt lat="44.69563" lon="3.80115">
        <ele>1075.4000244141</ele>
        <time>2023-05-08T09:13:55Z</time>
      </trkpt>
      <trkpt lat="44.69566" lon="3.80112">
        <ele>1075.1999511719</ele>
        <time>2023-05-08T09:13:57Z</time>
      </trkpt>
      <trkpt lat="44.69572" lon="3.80104">
        <ele>1075</ele>
        <time>2023-05-08T09:14:00Z</time>
      </trkpt>
      <trkpt lat="44.69582" lon="3.80086">
        <ele>1075.4000244141</ele>
        <time>2023-05-08T09:14:04Z</time>
      </trkpt>
      <trkpt lat="44.69589" lon="3.80078">
        <ele>1075.4000244141</ele>
        <time>2023-05-08T09:14:06Z</time>
      </trkpt>
      <trkpt lat="44.69598" lon="3.80074">
        <ele>1075.4000244141</ele>
        <time>2023-05-08T09:14:08Z</time>
      </trkpt>
      <trkpt lat="44.69609" lon="3.80064">
        <ele>1075.4000244141</ele>
        <time>2023-05-08T09:14:10Z</time>
      </trkpt>
      <trkpt lat="44.69614" lon="3.80058">
        <ele>1075.1999511719</ele>
        <time>2023-05-08T09:14:11Z</time>
      </trkpt>
      <trkpt lat="44.69619" lon="3.80051">
        <ele>1075</ele>
        <time>2023-05-08T09:14:12Z</time>
      </trkpt>
      <trkpt lat="44.6963" lon="3.8004">
        <ele>1074.4000244141</ele>
        <time>2023-05-08T09:14:14Z</time>
      </trkpt>
      <trkpt lat="44.69649" lon="3.80033">
        <ele>1074.1999511719</ele>
        <time>2023-05-08T09:14:17Z</time>
      </trkpt>
      <trkpt lat="44.69681" lon="3.80029">
        <ele>1074.1999511719</ele>
        <time>2023-05-08T09:14:21Z</time>
      </trkpt>
      <trkpt lat="44.69689" lon="3.80028">
        <ele>1073.8000488281</ele>
        <time>2023-05-08T09:14:22Z</time>
      </trkpt>
      <trkpt lat="44.69705" lon="3.80024">
        <ele>1073.8000488281</ele>
        <time>2023-05-08T09:14:24Z</time>
      </trkpt>
      <trkpt lat="44.69721" lon="3.80018">
        <ele>1073.4000244141</ele>
        <time>2023-05-08T09:14:26Z</time>
      </trkpt>
      <trkpt lat="44.69746" lon="3.80016">
        <ele>1073</ele>
        <time>2023-05-08T09:14:29Z</time>
      </trkpt>
      <trkpt lat="44.69753" lon="3.80014">
        <ele>1073</ele>
        <time>2023-05-08T09:14:30Z</time>
      </trkpt>
      <trkpt lat="44.69767" lon="3.80009">
        <ele>1073</ele>
        <time>2023-05-08T09:14:32Z</time>
      </trkpt>
      <trkpt lat="44.69782" lon="3.8001">
        <ele>1073</ele>
        <time>2023-05-08T09:14:34Z</time>
      </trkpt>
      <trkpt lat="44.6979" lon="3.8001">
        <ele>1073</ele>
        <time>2023-05-08T09:14:35Z</time>
      </trkpt>
      <trkpt lat="44.69807" lon="3.80007">
        <ele>1072.8000488281</ele>
        <time>2023-05-08T09:14:37Z</time>
      </trkpt>
      <trkpt lat="44.69821" lon="3.80003">
        <ele>1072.5999755859</ele>
        <time>2023-05-08T09:14:39Z</time>
      </trkpt>
      <trkpt lat="44.69834" lon="3.79996">
        <ele>1072.4000244141</ele>
        <time>2023-05-08T09:14:41Z</time>
      </trkpt>
      <trkpt lat="44.69841" lon="3.79994">
        <ele>1072.1999511719</ele>
        <time>2023-05-08T09:14:42Z</time>
      </trkpt>
      <trkpt lat="44.69855" lon="3.79995">
        <ele>1071.8000488281</ele>
        <time>2023-05-08T09:14:44Z</time>
      </trkpt>
      <trkpt lat="44.69871" lon="3.80002">
        <ele>1072.1999511719</ele>
        <time>2023-05-08T09:14:46Z</time>
      </trkpt>
      <trkpt lat="44.69888" lon="3.80006">
        <ele>1072</ele>
        <time>2023-05-08T09:14:48Z</time>
      </trkpt>
      <trkpt lat="44.69905" lon="3.80003">
        <ele>1071.8000488281</ele>
        <time>2023-05-08T09:14:50Z</time>
      </trkpt>
      <trkpt lat="44.6992" lon="3.79997">
        <ele>1071.5999755859</ele>
        <time>2023-05-08T09:14:52Z</time>
      </trkpt>
      <trkpt lat="44.69952" lon="3.79982">
        <ele>1071.1999511719</ele>
        <time>2023-05-08T09:14:56Z</time>
      </trkpt>
      <trkpt lat="44.69967" lon="3.79977">
        <ele>1071.1999511719</ele>
        <time>2023-05-08T09:14:58Z</time>
      </trkpt>
      <trkpt lat="44.69972" lon="3.79974">
        <ele>1071.1999511719</ele>
        <time>2023-05-08T09:14:59Z</time>
      </trkpt>
      <trkpt lat="44.69977" lon="3.79971">
        <ele>1071.1999511719</ele>
        <time>2023-05-08T09:15:00Z</time>
      </trkpt>
      <trkpt lat="44.69983" lon="3.79964">
        <ele>1071.1999511719</ele>
        <time>2023-05-08T09:15:02Z</time>
      </trkpt>
      <trkpt lat="44.69994" lon="3.79954">
        <ele>1071.4000244141</ele>
        <time>2023-05-08T09:15:05Z</time>
      </trkpt>
      <trkpt lat="44.69997" lon="3.79949">
        <ele>1071.4000244141</ele>
        <time>2023-05-08T09:15:06Z</time>
      </trkpt>
      <trkpt lat="44.70003" lon="3.79932">
        <ele>1071.8000488281</ele>
        <time>2023-05-08T09:15:09Z</time>
      </trkpt>
      <trkpt lat="44.70006" lon="3.79927">
        <ele>1071.5999755859</ele>
        <time>2023-05-08T09:15:10Z</time>
      </trkpt>
      <trkpt lat="44.70008" lon="3.79922">
        <ele>1071.8000488281</ele>
        <time>2023-05-08T09:15:11Z</time>
      </trkpt>
      <trkpt lat="44.70015" lon="3.79911">
        <ele>1071.5999755859</ele>
        <time>2023-05-08T09:15:14Z</time>
      </trkpt>
      <trkpt lat="44.7002" lon="3.79905">
        <ele>1071.5999755859</ele>
        <time>2023-05-08T09:15:17Z</time>
      </trkpt>
      <trkpt lat="44.70022" lon="3.79903">
        <ele>1071.5999755859</ele>
        <time>2023-05-08T09:15:18Z</time>
      </trkpt>
      <trkpt lat="44.70024" lon="3.79898">
        <ele>1071.8000488281</ele>
        <time>2023-05-08T09:15:20Z</time>
      </trkpt>
      <trkpt lat="44.70024" lon="3.79896">
        <ele>1071.8000488281</ele>
        <time>2023-05-08T09:15:21Z</time>
      </trkpt>
      <trkpt lat="44.70025" lon="3.7989">
        <ele>1071.5999755859</ele>
        <time>2023-05-08T09:15:24Z</time>
      </trkpt>
      <trkpt lat="44.70028" lon="3.79883">
        <ele>1071.1999511719</ele>
        <time>2023-05-08T09:15:27Z</time>
      </trkpt>
      <trkpt lat="44.70029" lon="3.7988">
        <ele>1070.5999755859</ele>
        <time>2023-05-08T09:15:29Z</time>
      </trkpt>
      <trkpt lat="44.70032" lon="3.79872">
        <ele>1070.4000244141</ele>
        <time>2023-05-08T09:15:32Z</time>
      </trkpt>
      <trkpt lat="44.70039" lon="3.79862">
        <ele>1070</ele>
        <time>2023-05-08T09:15:37Z</time>
      </trkpt>
      <trkpt lat="44.70045" lon="3.79847">
        <ele>1070</ele>
        <time>2023-05-08T09:15:42Z</time>
      </trkpt>
      <trkpt lat="44.70051" lon="3.79839">
        <ele>1069.4000244141</ele>
        <time>2023-05-08T09:15:47Z</time>
      </trkpt>
      <trkpt lat="44.70054" lon="3.79836">
        <ele>1069.4000244141</ele>
        <time>2023-05-08T09:15:49Z</time>
      </trkpt>
      <trkpt lat="44.70058" lon="3.79833">
        <ele>1069.1999511719</ele>
        <time>2023-05-08T09:15:52Z</time>
      </trkpt>
      <trkpt lat="44.70065" lon="3.79824">
        <ele>1069.5999755859</ele>
        <time>2023-05-08T09:15:58Z</time>
      </trkpt>
      <trkpt lat="44.70067" lon="3.79813">
        <ele>1069.1999511719</ele>
        <time>2023-05-08T09:16:02Z</time>
      </trkpt>
      <trkpt lat="44.70078" lon="3.79794">
        <ele>1068.4000244141</ele>
        <time>2023-05-08T09:16:09Z</time>
      </trkpt>
      <trkpt lat="44.70084" lon="3.79788">
        <ele>1068.5999755859</ele>
        <time>2023-05-08T09:16:11Z</time>
      </trkpt>
      <trkpt lat="44.70091" lon="3.79782">
        <ele>1069</ele>
        <time>2023-05-08T09:16:14Z</time>
      </trkpt>
      <trkpt lat="44.70093" lon="3.79779">
        <ele>1069</ele>
        <time>2023-05-08T09:16:15Z</time>
      </trkpt>
      <trkpt lat="44.70097" lon="3.79772">
        <ele>1069.1999511719</ele>
        <time>2023-05-08T09:16:18Z</time>
      </trkpt>
      <trkpt lat="44.70105" lon="3.79758">
        <ele>1069.4000244141</ele>
        <time>2023-05-08T09:16:24Z</time>
      </trkpt>
      <trkpt lat="44.70107" lon="3.79756">
        <ele>1069.5999755859</ele>
        <time>2023-05-08T09:16:25Z</time>
      </trkpt>
      <trkpt lat="44.70111" lon="3.79749">
        <ele>1069.5999755859</ele>
        <time>2023-05-08T09:16:28Z</time>
      </trkpt>
      <trkpt lat="44.70113" lon="3.79746">
        <ele>1069.5999755859</ele>
        <time>2023-05-08T09:16:29Z</time>
      </trkpt>
      <trkpt lat="44.70117" lon="3.79736">
        <ele>1069.5999755859</ele>
        <time>2023-05-08T09:16:33Z</time>
      </trkpt>
      <trkpt lat="44.7012" lon="3.79725">
        <ele>1069.4000244141</ele>
        <time>2023-05-08T09:16:36Z</time>
      </trkpt>
      <trkpt lat="44.70121" lon="3.79723">
        <ele>1069.4000244141</ele>
        <time>2023-05-08T09:16:37Z</time>
      </trkpt>
      <trkpt lat="44.70122" lon="3.7972">
        <ele>1069.1999511719</ele>
        <time>2023-05-08T09:16:38Z</time>
      </trkpt>
      <trkpt lat="44.70127" lon="3.79708">
        <ele>1069</ele>
        <time>2023-05-08T09:16:41Z</time>
      </trkpt>
      <trkpt lat="44.7013" lon="3.79687">
        <ele>1068.4000244141</ele>
        <time>2023-05-08T09:16:46Z</time>
      </trkpt>
      <trkpt lat="44.70134" lon="3.79666">
        <ele>1067.1999511719</ele>
        <time>2023-05-08T09:16:51Z</time>
      </trkpt>
      <trkpt lat="44.70138" lon="3.7965">
        <ele>1066.5999755859</ele>
        <time>2023-05-08T09:16:54Z</time>
      </trkpt>
      <trkpt lat="44.7014" lon="3.79644">
        <ele>1066.4000244141</ele>
        <time>2023-05-08T09:16:55Z</time>
      </trkpt>
      <trkpt lat="44.70145" lon="3.79625">
        <ele>1066</ele>
        <time>2023-05-08T09:16:58Z</time>
      </trkpt>
      <trkpt lat="44.70146" lon="3.79618">
        <ele>1065.8000488281</ele>
        <time>2023-05-08T09:16:59Z</time>
      </trkpt>
      <trkpt lat="44.70148" lon="3.79611">
        <ele>1065.5999755859</ele>
        <time>2023-05-08T09:17:00Z</time>
      </trkpt>
      <trkpt lat="44.70153" lon="3.79597">
        <ele>1064.8000488281</ele>
        <time>2023-05-08T09:17:02Z</time>
      </trkpt>
      <trkpt lat="44.70156" lon="3.7959">
        <ele>1064.1999511719</ele>
        <time>2023-05-08T09:17:03Z</time>
      </trkpt>
      <trkpt lat="44.70176" lon="3.79567">
        <ele>1062.1999511719</ele>
        <time>2023-05-08T09:17:07Z</time>
      </trkpt>
      <trkpt lat="44.702" lon="3.79546">
        <ele>1061.4000244141</ele>
        <time>2023-05-08T09:17:12Z</time>
      </trkpt>
      <trkpt lat="44.70213" lon="3.79528">
        <ele>1061.8000488281</ele>
        <time>2023-05-08T09:17:17Z</time>
      </trkpt>
      <trkpt lat="44.70223" lon="3.79508">
        <ele>1062.5999755859</ele>
        <time>2023-05-08T09:17:23Z</time>
      </trkpt>
      <trkpt lat="44.70233" lon="3.79486">
        <ele>1063.8000488281</ele>
        <time>2023-05-08T09:17:30Z</time>
      </trkpt>
      <trkpt lat="44.7024" lon="3.79474">
        <ele>1064.1999511719</ele>
        <time>2023-05-08T09:17:34Z</time>
      </trkpt>
      <trkpt lat="44.70255" lon="3.79459">
        <ele>1066.8000488281</ele>
        <time>2023-05-08T09:17:39Z</time>
      </trkpt>
      <trkpt lat="44.70276" lon="3.79456">
        <ele>1068.8000488281</ele>
        <time>2023-05-08T09:17:44Z</time>
      </trkpt>
      <trkpt lat="44.70291" lon="3.79459">
        <ele>1070.1999511719</ele>
        <time>2023-05-08T09:17:48Z</time>
      </trkpt>
      <trkpt lat="44.70304" lon="3.7946">
        <ele>1072</ele>
        <time>2023-05-08T09:17:52Z</time>
      </trkpt>
      <trkpt lat="44.70306" lon="3.79459">
        <ele>1072.4000244141</ele>
        <time>2023-05-08T09:17:53Z</time>
      </trkpt>
      <trkpt lat="44.7031" lon="3.79453">
        <ele>1073.8000488281</ele>
        <time>2023-05-08T09:17:57Z</time>
      </trkpt>
      <trkpt lat="44.7031" lon="3.79451">
        <ele>1074</ele>
        <time>2023-05-08T09:17:58Z</time>
      </trkpt>
      <trkpt lat="44.70317" lon="3.7944">
        <ele>1076</ele>
        <time>2023-05-08T09:18:04Z</time>
      </trkpt>
      <trkpt lat="44.70324" lon="3.7943">
        <ele>1078</ele>
        <time>2023-05-08T09:18:10Z</time>
      </trkpt>
      <trkpt lat="44.70335" lon="3.79419">
        <ele>1081.5999755859</ele>
        <time>2023-05-08T09:18:20Z</time>
      </trkpt>
      <trkpt lat="44.70343" lon="3.79412">
        <ele>1084</ele>
        <time>2023-05-08T09:18:26Z</time>
      </trkpt>
      <trkpt lat="44.7035" lon="3.79407">
        <ele>1086.5999755859</ele>
        <time>2023-05-08T09:18:33Z</time>
      </trkpt>
      <trkpt lat="44.70354" lon="3.79404">
        <ele>1088</ele>
        <time>2023-05-08T09:18:37Z</time>
      </trkpt>
      <trkpt lat="44.70357" lon="3.79403">
        <ele>1089.4000244141</ele>
        <time>2023-05-08T09:18:40Z</time>
      </trkpt>
      <trkpt lat="44.70359" lon="3.794">
        <ele>1090.8000488281</ele>
        <time>2023-05-08T09:18:44Z</time>
      </trkpt>
      <trkpt lat="44.7036" lon="3.79399">
        <ele>1091.1999511719</ele>
        <time>2023-05-08T09:18:45Z</time>
      </trkpt>
      <trkpt lat="44.70365" lon="3.79394">
        <ele>1093.4000244141</ele>
        <time>2023-05-08T09:18:51Z</time>
      </trkpt>
      <trkpt lat="44.70366" lon="3.79392">
        <ele>1094</ele>
        <time>2023-05-08T09:18:53Z</time>
      </trkpt>
      <trkpt lat="44.70367" lon="3.7939">
        <ele>1094.5999755859</ele>
        <time>2023-05-08T09:18:55Z</time>
      </trkpt>
      <trkpt lat="44.70371" lon="3.79382">
        <ele>1096.5999755859</ele>
        <time>2023-05-08T09:19:01Z</time>
      </trkpt>
      <trkpt lat="44.70371" lon="3.79381">
        <ele>1097</ele>
        <time>2023-05-08T09:19:02Z</time>
      </trkpt>
      <trkpt lat="44.70372" lon="3.7938">
        <ele>1097.1999511719</ele>
        <time>2023-05-08T09:19:03Z</time>
      </trkpt>
      <trkpt lat="44.70373" lon="3.79374">
        <ele>1098.5999755859</ele>
        <time>2023-05-08T09:19:07Z</time>
      </trkpt>
      <trkpt lat="44.70373" lon="3.79373">
        <ele>1099</ele>
        <time>2023-05-08T09:19:08Z</time>
      </trkpt>
      <trkpt lat="44.70375" lon="3.79363">
        <ele>1101.1999511719</ele>
        <time>2023-05-08T09:19:15Z</time>
      </trkpt>
      <trkpt lat="44.70375" lon="3.79361">
        <ele>1101.4000244141</ele>
        <time>2023-05-08T09:19:16Z</time>
      </trkpt>
      <trkpt lat="44.70377" lon="3.79348">
        <ele>1103.5999755859</ele>
        <time>2023-05-08T09:19:23Z</time>
      </trkpt>
      <trkpt lat="44.70381" lon="3.79336">
        <ele>1105.4000244141</ele>
        <time>2023-05-08T09:19:29Z</time>
      </trkpt>
      <trkpt lat="44.70386" lon="3.79322">
        <ele>1107.4000244141</ele>
        <time>2023-05-08T09:19:36Z</time>
      </trkpt>
      <trkpt lat="44.70389" lon="3.79316">
        <ele>1108.1999511719</ele>
        <time>2023-05-08T09:19:39Z</time>
      </trkpt>
      <trkpt lat="44.70393" lon="3.7931">
        <ele>1108.8000488281</ele>
        <time>2023-05-08T09:19:42Z</time>
      </trkpt>
      <trkpt lat="44.70404" lon="3.79294">
        <ele>1110.8000488281</ele>
        <time>2023-05-08T09:19:50Z</time>
      </trkpt>
      <trkpt lat="44.70409" lon="3.79283">
        <ele>1112</ele>
        <time>2023-05-08T09:19:55Z</time>
      </trkpt>
      <trkpt lat="44.70417" lon="3.79267">
        <ele>1113.1999511719</ele>
        <time>2023-05-08T09:20:01Z</time>
      </trkpt>
      <trkpt lat="44.70418" lon="3.79262">
        <ele>1113.5999755859</ele>
        <time>2023-05-08T09:20:03Z</time>
      </trkpt>
      <trkpt lat="44.70416" lon="3.79255">
        <ele>1113.8000488281</ele>
        <time>2023-05-08T09:20:05Z</time>
      </trkpt>
      <trkpt lat="44.70405" lon="3.79234">
        <ele>1114.8000488281</ele>
        <time>2023-05-08T09:20:11Z</time>
      </trkpt>
      <trkpt lat="44.7039" lon="3.7921">
        <ele>1116.1999511719</ele>
        <time>2023-05-08T09:20:18Z</time>
      </trkpt>
      <trkpt lat="44.70372" lon="3.79197">
        <ele>1117.1999511719</ele>
        <time>2023-05-08T09:20:24Z</time>
      </trkpt>
      <trkpt lat="44.70354" lon="3.79187">
        <ele>1117.8000488281</ele>
        <time>2023-05-08T09:20:30Z</time>
      </trkpt>
      <trkpt lat="44.70336" lon="3.79179">
        <ele>1118.4000244141</ele>
        <time>2023-05-08T09:20:36Z</time>
      </trkpt>
      <trkpt lat="44.70321" lon="3.79171">
        <ele>1118.8000488281</ele>
        <time>2023-05-08T09:20:42Z</time>
      </trkpt>
      <trkpt lat="44.70313" lon="3.79161">
        <ele>1119</ele>
        <time>2023-05-08T09:20:47Z</time>
      </trkpt>
      <trkpt lat="44.70312" lon="3.79155">
        <ele>1119</ele>
        <time>2023-05-08T09:20:49Z</time>
      </trkpt>
      <trkpt lat="44.70314" lon="3.79153">
        <ele>1119</ele>
        <time>2023-05-08T09:20:50Z</time>
      </trkpt>
      <trkpt lat="44.70314" lon="3.79151">
        <ele>1119</ele>
        <time>2023-05-08T09:20:51Z</time>
      </trkpt>
      <trkpt lat="44.70316" lon="3.79147">
        <ele>1118.8000488281</ele>
        <time>2023-05-08T09:20:53Z</time>
      </trkpt>
      <trkpt lat="44.70318" lon="3.79146">
        <ele>1118.5999755859</ele>
        <time>2023-05-08T09:20:54Z</time>
      </trkpt>
      <trkpt lat="44.70328" lon="3.79132">
        <ele>1118</ele>
        <time>2023-05-08T09:20:58Z</time>
      </trkpt>
      <trkpt lat="44.70337" lon="3.79114">
        <ele>1116.8000488281</ele>
        <time>2023-05-08T09:21:02Z</time>
      </trkpt>
      <trkpt lat="44.70347" lon="3.79094">
        <ele>1115.5999755859</ele>
        <time>2023-05-08T09:21:06Z</time>
      </trkpt>
      <trkpt lat="44.70356" lon="3.79075">
        <ele>1114.4000244141</ele>
        <time>2023-05-08T09:21:09Z</time>
      </trkpt>
      <trkpt lat="44.7036" lon="3.79061">
        <ele>1113.8000488281</ele>
        <time>2023-05-08T09:21:11Z</time>
      </trkpt>
      <trkpt lat="44.70373" lon="3.79021">
        <ele>1112</ele>
        <time>2023-05-08T09:21:16Z</time>
      </trkpt>
      <trkpt lat="44.70379" lon="3.78996">
        <ele>1111</ele>
        <time>2023-05-08T09:21:19Z</time>
      </trkpt>
      <trkpt lat="44.70383" lon="3.78989">
        <ele>1111</ele>
        <time>2023-05-08T09:21:20Z</time>
      </trkpt>
      <trkpt lat="44.70388" lon="3.78984">
        <ele>1111.5999755859</ele>
        <time>2023-05-08T09:21:21Z</time>
      </trkpt>
      <trkpt lat="44.70398" lon="3.78979">
        <ele>1112.5999755859</ele>
        <time>2023-05-08T09:21:23Z</time>
      </trkpt>
      <trkpt lat="44.70431" lon="3.78974">
        <ele>1113.5999755859</ele>
        <time>2023-05-08T09:21:28Z</time>
      </trkpt>
      <trkpt lat="44.70474" lon="3.78968">
        <ele>1114.1999511719</ele>
        <time>2023-05-08T09:21:34Z</time>
      </trkpt>
      <trkpt lat="44.70513" lon="3.78964">
        <ele>1114.5999755859</ele>
        <time>2023-05-08T09:21:40Z</time>
      </trkpt>
      <trkpt lat="44.70551" lon="3.78956">
        <ele>1114.5999755859</ele>
        <time>2023-05-08T09:21:45Z</time>
      </trkpt>
      <trkpt lat="44.70598" lon="3.78939">
        <ele>1114.8000488281</ele>
        <time>2023-05-08T09:21:51Z</time>
      </trkpt>
      <trkpt lat="44.70651" lon="3.78919">
        <ele>1115.1999511719</ele>
        <time>2023-05-08T09:21:58Z</time>
      </trkpt>
      <trkpt lat="44.70693" lon="3.78906">
        <ele>1115.8000488281</ele>
        <time>2023-05-08T09:22:04Z</time>
      </trkpt>
      <trkpt lat="44.70732" lon="3.7889">
        <ele>1116</ele>
        <time>2023-05-08T09:22:10Z</time>
      </trkpt>
      <trkpt lat="44.70745" lon="3.78881">
        <ele>1116.1999511719</ele>
        <time>2023-05-08T09:22:12Z</time>
      </trkpt>
      <trkpt lat="44.70764" lon="3.78863">
        <ele>1116.1999511719</ele>
        <time>2023-05-08T09:22:15Z</time>
      </trkpt>
      <trkpt lat="44.70801" lon="3.78822">
        <ele>1116.1999511719</ele>
        <time>2023-05-08T09:22:21Z</time>
      </trkpt>
      <trkpt lat="44.70849" lon="3.78772">
        <ele>1116.1999511719</ele>
        <time>2023-05-08T09:22:28Z</time>
      </trkpt>
      <trkpt lat="44.7089" lon="3.78726">
        <ele>1115.8000488281</ele>
        <time>2023-05-08T09:22:34Z</time>
      </trkpt>
      <trkpt lat="44.70912" lon="3.78681">
        <ele>1115.4000244141</ele>
        <time>2023-05-08T09:22:39Z</time>
      </trkpt>
      <trkpt lat="44.70922" lon="3.78652">
        <ele>1115</ele>
        <time>2023-05-08T09:22:42Z</time>
      </trkpt>
      <trkpt lat="44.70927" lon="3.78631">
        <ele>1114.8000488281</ele>
        <time>2023-05-08T09:22:44Z</time>
      </trkpt>
      <trkpt lat="44.7094" lon="3.78603">
        <ele>1114.5999755859</ele>
        <time>2023-05-08T09:22:47Z</time>
      </trkpt>
      <trkpt lat="44.70946" lon="3.78595">
        <ele>1114.5999755859</ele>
        <time>2023-05-08T09:22:48Z</time>
      </trkpt>
      <trkpt lat="44.7098" lon="3.78553">
        <ele>1114.4000244141</ele>
        <time>2023-05-08T09:22:54Z</time>
      </trkpt>
      <trkpt lat="44.71015" lon="3.78499">
        <ele>1114</ele>
        <time>2023-05-08T09:23:01Z</time>
      </trkpt>
      <trkpt lat="44.71055" lon="3.78443">
        <ele>1113.4000244141</ele>
        <time>2023-05-08T09:23:09Z</time>
      </trkpt>
      <trkpt lat="44.71083" lon="3.78406">
        <ele>1113</ele>
        <time>2023-05-08T09:23:15Z</time>
      </trkpt>
      <trkpt lat="44.71107" lon="3.78372">
        <ele>1112.5999755859</ele>
        <time>2023-05-08T09:23:21Z</time>
      </trkpt>
      <trkpt lat="44.7112" lon="3.78357">
        <ele>1112.4000244141</ele>
        <time>2023-05-08T09:23:24Z</time>
      </trkpt>
      <trkpt lat="44.7113" lon="3.78351">
        <ele>1112.4000244141</ele>
        <time>2023-05-08T09:23:26Z</time>
      </trkpt>
      <trkpt lat="44.71156" lon="3.78341">
        <ele>1112.4000244141</ele>
        <time>2023-05-08T09:23:32Z</time>
      </trkpt>
      <trkpt lat="44.71188" lon="3.78333">
        <ele>1112.5999755859</ele>
        <time>2023-05-08T09:23:40Z</time>
      </trkpt>
      <trkpt lat="44.71197" lon="3.78334">
        <ele>1112.5999755859</ele>
        <time>2023-05-08T09:23:42Z</time>
      </trkpt>
      <trkpt lat="44.71214" lon="3.78339">
        <ele>1112.5999755859</ele>
        <time>2023-05-08T09:23:46Z</time>
      </trkpt>
      <trkpt lat="44.71246" lon="3.78349">
        <ele>1113</ele>
        <time>2023-05-08T09:23:53Z</time>
      </trkpt>
      <trkpt lat="44.71284" lon="3.78354">
        <ele>1113</ele>
        <time>2023-05-08T09:24:01Z</time>
      </trkpt>
      <trkpt lat="44.71304" lon="3.7835">
        <ele>1113</ele>
        <time>2023-05-08T09:24:05Z</time>
      </trkpt>
      <trkpt lat="44.71313" lon="3.78345">
        <ele>1112.8000488281</ele>
        <time>2023-05-08T09:24:07Z</time>
      </trkpt>
      <trkpt lat="44.71323" lon="3.78333">
        <ele>1112.5999755859</ele>
        <time>2023-05-08T09:24:10Z</time>
      </trkpt>
      <trkpt lat="44.7134" lon="3.78308">
        <ele>1112.1999511719</ele>
        <time>2023-05-08T09:24:16Z</time>
      </trkpt>
      <trkpt lat="44.71359" lon="3.78281">
        <ele>1112.1999511719</ele>
        <time>2023-05-08T09:24:23Z</time>
      </trkpt>
      <trkpt lat="44.71378" lon="3.78256">
        <ele>1112.1999511719</ele>
        <time>2023-05-08T09:24:30Z</time>
      </trkpt>
      <trkpt lat="44.71384" lon="3.7825">
        <ele>1112</ele>
        <time>2023-05-08T09:24:32Z</time>
      </trkpt>
      <trkpt lat="44.71389" lon="3.78242">
        <ele>1112</ele>
        <time>2023-05-08T09:24:34Z</time>
      </trkpt>
      <trkpt lat="44.71392" lon="3.7823">
        <ele>1112</ele>
        <time>2023-05-08T09:24:36Z</time>
      </trkpt>
      <trkpt lat="44.71392" lon="3.78218">
        <ele>1111.8000488281</ele>
        <time>2023-05-08T09:24:38Z</time>
      </trkpt>
      <trkpt lat="44.7139" lon="3.78197">
        <ele>1111.8000488281</ele>
        <time>2023-05-08T09:24:41Z</time>
      </trkpt>
      <trkpt lat="44.71391" lon="3.7819">
        <ele>1111.5999755859</ele>
        <time>2023-05-08T09:24:42Z</time>
      </trkpt>
      <trkpt lat="44.71393" lon="3.78184">
        <ele>1111.5999755859</ele>
        <time>2023-05-08T09:24:43Z</time>
      </trkpt>
      <trkpt lat="44.714" lon="3.78174">
        <ele>1111.5999755859</ele>
        <time>2023-05-08T09:24:45Z</time>
      </trkpt>
      <trkpt lat="44.71406" lon="3.78165">
        <ele>1111.5999755859</ele>
        <time>2023-05-08T09:24:47Z</time>
      </trkpt>
      <trkpt lat="44.71406" lon="3.78159">
        <ele>1111.5999755859</ele>
        <time>2023-05-08T09:24:48Z</time>
      </trkpt>
      <trkpt lat="44.71404" lon="3.7814">
        <ele>1111.5999755859</ele>
        <time>2023-05-08T09:24:51Z</time>
      </trkpt>
      <trkpt lat="44.71403" lon="3.78129">
        <ele>1111.5999755859</ele>
        <time>2023-05-08T09:24:53Z</time>
      </trkpt>
      <trkpt lat="44.71404" lon="3.78105">
        <ele>1111.5999755859</ele>
        <time>2023-05-08T09:24:58Z</time>
      </trkpt>
      <trkpt lat="44.71398" lon="3.78083">
        <ele>1112</ele>
        <time>2023-05-08T09:25:03Z</time>
      </trkpt>
      <trkpt lat="44.7139" lon="3.78052">
        <ele>1112.5999755859</ele>
        <time>2023-05-08T09:25:09Z</time>
      </trkpt>
      <trkpt lat="44.71381" lon="3.78027">
        <ele>1113</ele>
        <time>2023-05-08T09:25:14Z</time>
      </trkpt>
      <trkpt lat="44.71373" lon="3.78009">
        <ele>1113</ele>
        <time>2023-05-08T09:25:17Z</time>
      </trkpt>
      <trkpt lat="44.71371" lon="3.78002">
        <ele>1113</ele>
        <time>2023-05-08T09:25:18Z</time>
      </trkpt>
      <trkpt lat="44.71371" lon="3.77995">
        <ele>1113.1999511719</ele>
        <time>2023-05-08T09:25:19Z</time>
      </trkpt>
      <trkpt lat="44.71374" lon="3.77979">
        <ele>1113</ele>
        <time>2023-05-08T09:25:21Z</time>
      </trkpt>
      <trkpt lat="44.7138" lon="3.77964">
        <ele>1112.8000488281</ele>
        <time>2023-05-08T09:25:23Z</time>
      </trkpt>
      <trkpt lat="44.71387" lon="3.77937">
        <ele>1112.4000244141</ele>
        <time>2023-05-08T09:25:26Z</time>
      </trkpt>
      <trkpt lat="44.71388" lon="3.77917">
        <ele>1112</ele>
        <time>2023-05-08T09:25:28Z</time>
      </trkpt>
      <trkpt lat="44.71386" lon="3.77906">
        <ele>1111.8000488281</ele>
        <time>2023-05-08T09:25:29Z</time>
      </trkpt>
      <trkpt lat="44.71383" lon="3.77881">
        <ele>1111.5999755859</ele>
        <time>2023-05-08T09:25:31Z</time>
      </trkpt>
      <trkpt lat="44.71383" lon="3.77854">
        <ele>1111</ele>
        <time>2023-05-08T09:25:33Z</time>
      </trkpt>
      <trkpt lat="44.7139" lon="3.77782">
        <ele>1110</ele>
        <time>2023-05-08T09:25:38Z</time>
      </trkpt>
      <trkpt lat="44.71396" lon="3.77693">
        <ele>1108.5999755859</ele>
        <time>2023-05-08T09:25:44Z</time>
      </trkpt>
      <trkpt lat="44.71401" lon="3.77607">
        <ele>1106.5999755859</ele>
        <time>2023-05-08T09:25:50Z</time>
      </trkpt>
      <trkpt lat="44.71402" lon="3.77593">
        <ele>1106.1999511719</ele>
        <time>2023-05-08T09:25:51Z</time>
      </trkpt>
      <trkpt lat="44.71406" lon="3.77556">
        <ele>1105</ele>
        <time>2023-05-08T09:25:54Z</time>
      </trkpt>
      <trkpt lat="44.714" lon="3.77537">
        <ele>1104.5999755859</ele>
        <time>2023-05-08T09:25:56Z</time>
      </trkpt>
      <trkpt lat="44.71389" lon="3.77524">
        <ele>1104</ele>
        <time>2023-05-08T09:25:58Z</time>
      </trkpt>
      <trkpt lat="44.71383" lon="3.7752">
        <ele>1103.5999755859</ele>
        <time>2023-05-08T09:25:59Z</time>
      </trkpt>
      <trkpt lat="44.71359" lon="3.77508">
        <ele>1102.5999755859</ele>
        <time>2023-05-08T09:26:02Z</time>
      </trkpt>
      <trkpt lat="44.71351" lon="3.77506">
        <ele>1102.1999511719</ele>
        <time>2023-05-08T09:26:03Z</time>
      </trkpt>
      <trkpt lat="44.71342" lon="3.77504">
        <ele>1101.8000488281</ele>
        <time>2023-05-08T09:26:04Z</time>
      </trkpt>
      <trkpt lat="44.71326" lon="3.77491">
        <ele>1101.1999511719</ele>
        <time>2023-05-08T09:26:06Z</time>
      </trkpt>
      <trkpt lat="44.71304" lon="3.77456">
        <ele>1100.1999511719</ele>
        <time>2023-05-08T09:26:10Z</time>
      </trkpt>
      <trkpt lat="44.713" lon="3.77448">
        <ele>1100</ele>
        <time>2023-05-08T09:26:11Z</time>
      </trkpt>
      <trkpt lat="44.71298" lon="3.77439">
        <ele>1099.8000488281</ele>
        <time>2023-05-08T09:26:12Z</time>
      </trkpt>
      <trkpt lat="44.71298" lon="3.77423">
        <ele>1099.5999755859</ele>
        <time>2023-05-08T09:26:14Z</time>
      </trkpt>
      <trkpt lat="44.71302" lon="3.77409">
        <ele>1099.1999511719</ele>
        <time>2023-05-08T09:26:16Z</time>
      </trkpt>
      <trkpt lat="44.71307" lon="3.77397">
        <ele>1098.8000488281</ele>
        <time>2023-05-08T09:26:18Z</time>
      </trkpt>
      <trkpt lat="44.71313" lon="3.77386">
        <ele>1098.4000244141</ele>
        <time>2023-05-08T09:26:20Z</time>
      </trkpt>
      <trkpt lat="44.71321" lon="3.77377">
        <ele>1098</ele>
        <time>2023-05-08T09:26:22Z</time>
      </trkpt>
      <trkpt lat="44.71341" lon="3.77351">
        <ele>1097</ele>
        <time>2023-05-08T09:26:27Z</time>
      </trkpt>
      <trkpt lat="44.71344" lon="3.77345">
        <ele>1097</ele>
        <time>2023-05-08T09:26:28Z</time>
      </trkpt>
      <trkpt lat="44.71347" lon="3.77339">
        <ele>1096.8000488281</ele>
        <time>2023-05-08T09:26:29Z</time>
      </trkpt>
      <trkpt lat="44.71354" lon="3.77319">
        <ele>1096.4000244141</ele>
        <time>2023-05-08T09:26:32Z</time>
      </trkpt>
      <trkpt lat="44.71365" lon="3.77296">
        <ele>1095.8000488281</ele>
        <time>2023-05-08T09:26:36Z</time>
      </trkpt>
      <trkpt lat="44.71369" lon="3.77283">
        <ele>1095.4000244141</ele>
        <time>2023-05-08T09:26:38Z</time>
      </trkpt>
      <trkpt lat="44.71371" lon="3.77278">
        <ele>1095.4000244141</ele>
        <time>2023-05-08T09:26:39Z</time>
      </trkpt>
      <trkpt lat="44.71389" lon="3.77244">
        <ele>1094.8000488281</ele>
        <time>2023-05-08T09:26:45Z</time>
      </trkpt>
      <trkpt lat="44.71397" lon="3.77227">
        <ele>1094.4000244141</ele>
        <time>2023-05-08T09:26:48Z</time>
      </trkpt>
      <trkpt lat="44.71401" lon="3.77215">
        <ele>1094</ele>
        <time>2023-05-08T09:26:50Z</time>
      </trkpt>
      <trkpt lat="44.71403" lon="3.77209">
        <ele>1093.8000488281</ele>
        <time>2023-05-08T09:26:51Z</time>
      </trkpt>
      <trkpt lat="44.71407" lon="3.77199">
        <ele>1093.4000244141</ele>
        <time>2023-05-08T09:26:53Z</time>
      </trkpt>
      <trkpt lat="44.71412" lon="3.77188">
        <ele>1093</ele>
        <time>2023-05-08T09:26:55Z</time>
      </trkpt>
      <trkpt lat="44.71433" lon="3.77153">
        <ele>1091.8000488281</ele>
        <time>2023-05-08T09:27:02Z</time>
      </trkpt>
      <trkpt lat="44.7145" lon="3.77125">
        <ele>1090.8000488281</ele>
        <time>2023-05-08T09:27:08Z</time>
      </trkpt>
      <trkpt lat="44.71459" lon="3.77113">
        <ele>1090.4000244141</ele>
        <time>2023-05-08T09:27:11Z</time>
      </trkpt>
      <trkpt lat="44.71473" lon="3.77085">
        <ele>1090</ele>
        <time>2023-05-08T09:27:17Z</time>
      </trkpt>
      <trkpt lat="44.71475" lon="3.7708">
        <ele>1090</ele>
        <time>2023-05-08T09:27:18Z</time>
      </trkpt>
      <trkpt lat="44.71483" lon="3.77062">
        <ele>1089.5999755859</ele>
        <time>2023-05-08T09:27:22Z</time>
      </trkpt>
      <trkpt lat="44.71495" lon="3.77033">
        <ele>1088.8000488281</ele>
        <time>2023-05-08T09:27:29Z</time>
      </trkpt>
      <trkpt lat="44.7151" lon="3.77">
        <ele>1087.8000488281</ele>
        <time>2023-05-08T09:27:36Z</time>
      </trkpt>
      <trkpt lat="44.71516" lon="3.76989">
        <ele>1087.5999755859</ele>
        <time>2023-05-08T09:27:38Z</time>
      </trkpt>
      <trkpt lat="44.71523" lon="3.7698">
        <ele>1087.4000244141</ele>
        <time>2023-05-08T09:27:40Z</time>
      </trkpt>
      <trkpt lat="44.71531" lon="3.76972">
        <ele>1087.1999511719</ele>
        <time>2023-05-08T09:27:42Z</time>
      </trkpt>
      <trkpt lat="44.71549" lon="3.76958">
        <ele>1087</ele>
        <time>2023-05-08T09:27:46Z</time>
      </trkpt>
      <trkpt lat="44.71554" lon="3.76948">
        <ele>1087</ele>
        <time>2023-05-08T09:27:48Z</time>
      </trkpt>
      <trkpt lat="44.71554" lon="3.76944">
        <ele>1087</ele>
        <time>2023-05-08T09:27:49Z</time>
      </trkpt>
      <trkpt lat="44.71547" lon="3.76933">
        <ele>1087</ele>
        <time>2023-05-08T09:27:54Z</time>
      </trkpt>
      <trkpt lat="44.71539" lon="3.76922">
        <ele>1087.1999511719</ele>
        <time>2023-05-08T09:28:02Z</time>
      </trkpt>
      <trkpt lat="44.71535" lon="3.76913">
        <ele>1086.8000488281</ele>
        <time>2023-05-08T09:28:08Z</time>
      </trkpt>
      <trkpt lat="44.71534" lon="3.7691">
        <ele>1086.8000488281</ele>
        <time>2023-05-08T09:28:10Z</time>
      </trkpt>
      <trkpt lat="44.71531" lon="3.76904">
        <ele>1086.5999755859</ele>
        <time>2023-05-08T09:28:14Z</time>
      </trkpt>
      <trkpt lat="44.71527" lon="3.76895">
        <ele>1086.4000244141</ele>
        <time>2023-05-08T09:28:20Z</time>
      </trkpt>
      <trkpt lat="44.71524" lon="3.76887">
        <ele>1086.1999511719</ele>
        <time>2023-05-08T09:28:25Z</time>
      </trkpt>
      <trkpt lat="44.71523" lon="3.76882">
        <ele>1086</ele>
        <time>2023-05-08T09:28:28Z</time>
      </trkpt>
      <trkpt lat="44.7152" lon="3.76867">
        <ele>1085.8000488281</ele>
        <time>2023-05-08T09:28:36Z</time>
      </trkpt>
      <trkpt lat="44.71522" lon="3.7686">
        <ele>1085.5999755859</ele>
        <time>2023-05-08T09:28:40Z</time>
      </trkpt>
      <trkpt lat="44.71523" lon="3.76857">
        <ele>1085.4000244141</ele>
        <time>2023-05-08T09:28:42Z</time>
      </trkpt>
      <trkpt lat="44.71525" lon="3.76853">
        <ele>1085.4000244141</ele>
        <time>2023-05-08T09:28:44Z</time>
      </trkpt>
      <trkpt lat="44.71527" lon="3.76847">
        <ele>1085.4000244141</ele>
        <time>2023-05-08T09:28:47Z</time>
      </trkpt>
      <trkpt lat="44.71531" lon="3.76831">
        <ele>1085.5999755859</ele>
        <time>2023-05-08T09:28:54Z</time>
      </trkpt>
      <trkpt lat="44.71532" lon="3.76814">
        <ele>1085.8000488281</ele>
        <time>2023-05-08T09:29:01Z</time>
      </trkpt>
      <trkpt lat="44.71534" lon="3.76805">
        <ele>1086</ele>
        <time>2023-05-08T09:29:06Z</time>
      </trkpt>
      <trkpt lat="44.71537" lon="3.76793">
        <ele>1085.1999511719</ele>
        <time>2023-05-08T09:29:12Z</time>
      </trkpt>
      <trkpt lat="44.71542" lon="3.76782">
        <ele>1084.8000488281</ele>
        <time>2023-05-08T09:29:17Z</time>
      </trkpt>
      <trkpt lat="44.71543" lon="3.76781">
        <ele>1084.8000488281</ele>
        <time>2023-05-08T09:29:18Z</time>
      </trkpt>
      <trkpt lat="44.71544" lon="3.76768">
        <ele>1084.8000488281</ele>
        <time>2023-05-08T09:29:22Z</time>
      </trkpt>
      <trkpt lat="44.71545" lon="3.76765">
        <ele>1084.8000488281</ele>
        <time>2023-05-08T09:29:23Z</time>
      </trkpt>
      <trkpt lat="44.71549" lon="3.76751">
        <ele>1084.8000488281</ele>
        <time>2023-05-08T09:29:28Z</time>
      </trkpt>
      <trkpt lat="44.71556" lon="3.76733">
        <ele>1084.5999755859</ele>
        <time>2023-05-08T09:29:32Z</time>
      </trkpt>
      <trkpt lat="44.71562" lon="3.76719">
        <ele>1084.8000488281</ele>
        <time>2023-05-08T09:29:35Z</time>
      </trkpt>
      <trkpt lat="44.71562" lon="3.76713">
        <ele>1085</ele>
        <time>2023-05-08T09:29:36Z</time>
      </trkpt>
      <trkpt lat="44.71559" lon="3.76695">
        <ele>1085.4000244141</ele>
        <time>2023-05-08T09:29:38Z</time>
      </trkpt>
      <trkpt lat="44.71556" lon="3.76685">
        <ele>1085.4000244141</ele>
        <time>2023-05-08T09:29:39Z</time>
      </trkpt>
      <trkpt lat="44.71553" lon="3.76676">
        <ele>1085.4000244141</ele>
        <time>2023-05-08T09:29:40Z</time>
      </trkpt>
      <trkpt lat="44.71548" lon="3.76656">
        <ele>1085.8000488281</ele>
        <time>2023-05-08T09:29:43Z</time>
      </trkpt>
      <trkpt lat="44.71542" lon="3.76632">
        <ele>1086</ele>
        <time>2023-05-08T09:29:48Z</time>
      </trkpt>
      <trkpt lat="44.71539" lon="3.76626">
        <ele>1086.1999511719</ele>
        <time>2023-05-08T09:29:51Z</time>
      </trkpt>
      <trkpt lat="44.71535" lon="3.76623">
        <ele>1086.4000244141</ele>
        <time>2023-05-08T09:29:53Z</time>
      </trkpt>
      <trkpt lat="44.71531" lon="3.76619">
        <ele>1086.5999755859</ele>
        <time>2023-05-08T09:29:56Z</time>
      </trkpt>
      <trkpt lat="44.71529" lon="3.76614">
        <ele>1086.8000488281</ele>
        <time>2023-05-08T09:29:58Z</time>
      </trkpt>
      <trkpt lat="44.71526" lon="3.76597">
        <ele>1087.1999511719</ele>
        <time>2023-05-08T09:30:02Z</time>
      </trkpt>
      <trkpt lat="44.71526" lon="3.76584">
        <ele>1087.5999755859</ele>
        <time>2023-05-08T09:30:05Z</time>
      </trkpt>
      <trkpt lat="44.71527" lon="3.76578">
        <ele>1087.8000488281</ele>
        <time>2023-05-08T09:30:06Z</time>
      </trkpt>
      <trkpt lat="44.71529" lon="3.7655">
        <ele>1088.4000244141</ele>
        <time>2023-05-08T09:30:11Z</time>
      </trkpt>
      <trkpt lat="44.71533" lon="3.76537">
        <ele>1088.4000244141</ele>
        <time>2023-05-08T09:30:13Z</time>
      </trkpt>
      <trkpt lat="44.71537" lon="3.76523">
        <ele>1088.4000244141</ele>
        <time>2023-05-08T09:30:15Z</time>
      </trkpt>
      <trkpt lat="44.71541" lon="3.76514">
        <ele>1088.5999755859</ele>
        <time>2023-05-08T09:30:17Z</time>
      </trkpt>
      <trkpt lat="44.71544" lon="3.76509">
        <ele>1088.5999755859</ele>
        <time>2023-05-08T09:30:18Z</time>
      </trkpt>
      <trkpt lat="44.71547" lon="3.76502">
        <ele>1088.5999755859</ele>
        <time>2023-05-08T09:30:19Z</time>
      </trkpt>
      <trkpt lat="44.7155" lon="3.76483">
        <ele>1088.8000488281</ele>
        <time>2023-05-08T09:30:21Z</time>
      </trkpt>
      <trkpt lat="44.71551" lon="3.76466">
        <ele>1089</ele>
        <time>2023-05-08T09:30:23Z</time>
      </trkpt>
      <trkpt lat="44.71552" lon="3.76461">
        <ele>1089</ele>
        <time>2023-05-08T09:30:24Z</time>
      </trkpt>
      <trkpt lat="44.71561" lon="3.76444">
        <ele>1088.5999755859</ele>
        <time>2023-05-08T09:30:27Z</time>
      </trkpt>
      <trkpt lat="44.71577" lon="3.76432">
        <ele>1088.4000244141</ele>
        <time>2023-05-08T09:30:30Z</time>
      </trkpt>
      <trkpt lat="44.71588" lon="3.76426">
        <ele>1088.4000244141</ele>
        <time>2023-05-08T09:30:32Z</time>
      </trkpt>
      <trkpt lat="44.71598" lon="3.76419">
        <ele>1088.1999511719</ele>
        <time>2023-05-08T09:30:34Z</time>
      </trkpt>
      <trkpt lat="44.71609" lon="3.76408">
        <ele>1088</ele>
        <time>2023-05-08T09:30:36Z</time>
      </trkpt>
      <trkpt lat="44.71623" lon="3.76384">
        <ele>1087.8000488281</ele>
        <time>2023-05-08T09:30:39Z</time>
      </trkpt>
      <trkpt lat="44.71631" lon="3.76374">
        <ele>1087.5999755859</ele>
        <time>2023-05-08T09:30:41Z</time>
      </trkpt>
      <trkpt lat="44.71636" lon="3.76369">
        <ele>1087.4000244141</ele>
        <time>2023-05-08T09:30:42Z</time>
      </trkpt>
      <trkpt lat="44.7164" lon="3.76365">
        <ele>1087.1999511719</ele>
        <time>2023-05-08T09:30:43Z</time>
      </trkpt>
      <trkpt lat="44.7165" lon="3.76359">
        <ele>1086.8000488281</ele>
        <time>2023-05-08T09:30:46Z</time>
      </trkpt>
      <trkpt lat="44.71647" lon="3.76346">
        <ele>1086.1999511719</ele>
        <time>2023-05-08T09:30:49Z</time>
      </trkpt>
      <trkpt lat="44.71649" lon="3.76331">
        <ele>1086</ele>
        <time>2023-05-08T09:30:51Z</time>
      </trkpt>
      <trkpt lat="44.71651" lon="3.76323">
        <ele>1085.8000488281</ele>
        <time>2023-05-08T09:30:52Z</time>
      </trkpt>
      <trkpt lat="44.71651" lon="3.76311">
        <ele>1085.5999755859</ele>
        <time>2023-05-08T09:30:54Z</time>
      </trkpt>
      <trkpt lat="44.7165" lon="3.76304">
        <ele>1085.5999755859</ele>
        <time>2023-05-08T09:30:55Z</time>
      </trkpt>
      <trkpt lat="44.71636" lon="3.76273">
        <ele>1084.8000488281</ele>
        <time>2023-05-08T09:30:59Z</time>
      </trkpt>
      <trkpt lat="44.71626" lon="3.76257">
        <ele>1083.8000488281</ele>
        <time>2023-05-08T09:31:03Z</time>
      </trkpt>
      <trkpt lat="44.71621" lon="3.76242">
        <ele>1083.1999511719</ele>
        <time>2023-05-08T09:31:07Z</time>
      </trkpt>
      <trkpt lat="44.71619" lon="3.76225">
        <ele>1082.1999511719</ele>
        <time>2023-05-08T09:31:13Z</time>
      </trkpt>
      <trkpt lat="44.71622" lon="3.76211">
        <ele>1081</ele>
        <time>2023-05-08T09:31:19Z</time>
      </trkpt>
      <trkpt lat="44.71629" lon="3.762">
        <ele>1080.1999511719</ele>
        <time>2023-05-08T09:31:25Z</time>
      </trkpt>
      <trkpt lat="44.7163" lon="3.76199">
        <ele>1080</ele>
        <time>2023-05-08T09:31:26Z</time>
      </trkpt>
      <trkpt lat="44.71636" lon="3.76188">
        <ele>1079.4000244141</ele>
        <time>2023-05-08T09:31:34Z</time>
      </trkpt>
      <trkpt lat="44.71643" lon="3.76175">
        <ele>1078.8000488281</ele>
        <time>2023-05-08T09:31:42Z</time>
      </trkpt>
      <trkpt lat="44.71649" lon="3.76168">
        <ele>1078.4000244141</ele>
        <time>2023-05-08T09:31:47Z</time>
      </trkpt>
      <trkpt lat="44.71651" lon="3.76166">
        <ele>1078.4000244141</ele>
        <time>2023-05-08T09:31:48Z</time>
      </trkpt>
      <trkpt lat="44.7166" lon="3.76151">
        <ele>1078</ele>
        <time>2023-05-08T09:31:54Z</time>
      </trkpt>
      <trkpt lat="44.71669" lon="3.76136">
        <ele>1077.8000488281</ele>
        <time>2023-05-08T09:32:00Z</time>
      </trkpt>
      <trkpt lat="44.71678" lon="3.76122">
        <ele>1077.5999755859</ele>
        <time>2023-05-08T09:32:06Z</time>
      </trkpt>
      <trkpt lat="44.71687" lon="3.76106">
        <ele>1077.4000244141</ele>
        <time>2023-05-08T09:32:12Z</time>
      </trkpt>
      <trkpt lat="44.71698" lon="3.76089">
        <ele>1077.1999511719</ele>
        <time>2023-05-08T09:32:18Z</time>
      </trkpt>
      <trkpt lat="44.71707" lon="3.76073">
        <ele>1077</ele>
        <time>2023-05-08T09:32:23Z</time>
      </trkpt>
      <trkpt lat="44.71717" lon="3.76049">
        <ele>1077.4000244141</ele>
        <time>2023-05-08T09:32:30Z</time>
      </trkpt>
      <trkpt lat="44.71727" lon="3.76018">
        <ele>1078</ele>
        <time>2023-05-08T09:32:39Z</time>
      </trkpt>
      <trkpt lat="44.71736" lon="3.7599">
        <ele>1078.4000244141</ele>
        <time>2023-05-08T09:32:47Z</time>
      </trkpt>
      <trkpt lat="44.71745" lon="3.75966">
        <ele>1079</ele>
        <time>2023-05-08T09:32:55Z</time>
      </trkpt>
      <trkpt lat="44.71748" lon="3.75961">
        <ele>1079.4000244141</ele>
        <time>2023-05-08T09:32:57Z</time>
      </trkpt>
      <trkpt lat="44.71753" lon="3.75962">
        <ele>1080</ele>
        <time>2023-05-08T09:32:59Z</time>
      </trkpt>
      <trkpt lat="44.7177" lon="3.75986">
        <ele>1080.8000488281</ele>
        <time>2023-05-08T09:33:05Z</time>
      </trkpt>
      <trkpt lat="44.71788" lon="3.76007">
        <ele>1081</ele>
        <time>2023-05-08T09:33:10Z</time>
      </trkpt>
      <trkpt lat="44.71792" lon="3.76011">
        <ele>1081.1999511719</ele>
        <time>2023-05-08T09:33:11Z</time>
      </trkpt>
      <trkpt lat="44.718" lon="3.76018">
        <ele>1081.1999511719</ele>
        <time>2023-05-08T09:33:13Z</time>
      </trkpt>
      <trkpt lat="44.71815" lon="3.76028">
        <ele>1081.4000244141</ele>
        <time>2023-05-08T09:33:16Z</time>
      </trkpt>
      <trkpt lat="44.7182" lon="3.76033">
        <ele>1081.4000244141</ele>
        <time>2023-05-08T09:33:17Z</time>
      </trkpt>
      <trkpt lat="44.71827" lon="3.76045">
        <ele>1081.4000244141</ele>
        <time>2023-05-08T09:33:19Z</time>
      </trkpt>
      <trkpt lat="44.71834" lon="3.76077">
        <ele>1081.1999511719</ele>
        <time>2023-05-08T09:33:23Z</time>
      </trkpt>
      <trkpt lat="44.71839" lon="3.76097">
        <ele>1081.1999511719</ele>
        <time>2023-05-08T09:33:25Z</time>
      </trkpt>
      <trkpt lat="44.71847" lon="3.76116">
        <ele>1081</ele>
        <time>2023-05-08T09:33:27Z</time>
      </trkpt>
      <trkpt lat="44.71867" lon="3.76138">
        <ele>1080.8000488281</ele>
        <time>2023-05-08T09:33:30Z</time>
      </trkpt>
      <trkpt lat="44.71896" lon="3.76163">
        <ele>1080.1999511719</ele>
        <time>2023-05-08T09:33:34Z</time>
      </trkpt>
      <trkpt lat="44.71904" lon="3.76168">
        <ele>1080</ele>
        <time>2023-05-08T09:33:35Z</time>
      </trkpt>
      <trkpt lat="44.71919" lon="3.76177">
        <ele>1079.8000488281</ele>
        <time>2023-05-08T09:33:37Z</time>
      </trkpt>
      <trkpt lat="44.71933" lon="3.76181">
        <ele>1079.5999755859</ele>
        <time>2023-05-08T09:33:39Z</time>
      </trkpt>
      <trkpt lat="44.71961" lon="3.76187">
        <ele>1079.4000244141</ele>
        <time>2023-05-08T09:33:44Z</time>
      </trkpt>
      <trkpt lat="44.7197" lon="3.76196">
        <ele>1079.1999511719</ele>
        <time>2023-05-08T09:33:48Z</time>
      </trkpt>
      <trkpt lat="44.71971" lon="3.76198">
        <ele>1078.8000488281</ele>
        <time>2023-05-08T09:33:51Z</time>
      </trkpt>
      <trkpt lat="44.71971" lon="3.76198">
        <ele>1078.8000488281</ele>
        <time>2023-05-08T09:33:52Z</time>
      </trkpt>
      <trkpt lat="44.71998" lon="3.76225">
        <ele>1075.4000244141</ele>
        <time>2023-05-08T09:37:07Z</time>
      </trkpt>
      <trkpt lat="44.72" lon="3.76229">
        <ele>1075.4000244141</ele>
        <time>2023-05-08T09:37:09Z</time>
      </trkpt>
      <trkpt lat="44.7201" lon="3.7624">
        <ele>1075</ele>
        <time>2023-05-08T09:37:14Z</time>
      </trkpt>
      <trkpt lat="44.72012" lon="3.76242">
        <ele>1075</ele>
        <time>2023-05-08T09:37:15Z</time>
      </trkpt>
      <trkpt lat="44.72021" lon="3.76251">
        <ele>1074.8000488281</ele>
        <time>2023-05-08T09:37:19Z</time>
      </trkpt>
      <trkpt lat="44.72035" lon="3.76256">
        <ele>1075</ele>
        <time>2023-05-08T09:37:24Z</time>
      </trkpt>
      <trkpt lat="44.72047" lon="3.76264">
        <ele>1074.8000488281</ele>
        <time>2023-05-08T09:37:29Z</time>
      </trkpt>
      <trkpt lat="44.72063" lon="3.76287">
        <ele>1075</ele>
        <time>2023-05-08T09:37:36Z</time>
      </trkpt>
      <trkpt lat="44.72084" lon="3.76321">
        <ele>1075</ele>
        <time>2023-05-08T09:37:46Z</time>
      </trkpt>
      <trkpt lat="44.72093" lon="3.76332">
        <ele>1075.1999511719</ele>
        <time>2023-05-08T09:37:50Z</time>
      </trkpt>
      <trkpt lat="44.72095" lon="3.76333">
        <ele>1075.1999511719</ele>
        <time>2023-05-08T09:37:51Z</time>
      </trkpt>
      <trkpt lat="44.72107" lon="3.76333">
        <ele>1075.4000244141</ele>
        <time>2023-05-08T09:37:55Z</time>
      </trkpt>
      <trkpt lat="44.72129" lon="3.76331">
        <ele>1075.4000244141</ele>
        <time>2023-05-08T09:38:01Z</time>
      </trkpt>
      <trkpt lat="44.7214" lon="3.76325">
        <ele>1075.4000244141</ele>
        <time>2023-05-08T09:38:04Z</time>
      </trkpt>
      <trkpt lat="44.72144" lon="3.76322">
        <ele>1075.1999511719</ele>
        <time>2023-05-08T09:38:05Z</time>
      </trkpt>
      <trkpt lat="44.72148" lon="3.76318">
        <ele>1075.1999511719</ele>
        <time>2023-05-08T09:38:06Z</time>
      </trkpt>
      <trkpt lat="44.72159" lon="3.76299">
        <ele>1075.1999511719</ele>
        <time>2023-05-08T09:38:10Z</time>
      </trkpt>
      <trkpt lat="44.7218" lon="3.76258">
        <ele>1075.1999511719</ele>
        <time>2023-05-08T09:38:18Z</time>
      </trkpt>
      <trkpt lat="44.72183" lon="3.76254">
        <ele>1075.1999511719</ele>
        <time>2023-05-08T09:38:19Z</time>
      </trkpt>
      <trkpt lat="44.72201" lon="3.76241">
        <ele>1075.8000488281</ele>
        <time>2023-05-08T09:38:24Z</time>
      </trkpt>
      <trkpt lat="44.72217" lon="3.76233">
        <ele>1076.4000244141</ele>
        <time>2023-05-08T09:38:30Z</time>
      </trkpt>
      <trkpt lat="44.7223" lon="3.7623">
        <ele>1077</ele>
        <time>2023-05-08T09:38:36Z</time>
      </trkpt>
      <trkpt lat="44.72249" lon="3.76227">
        <ele>1078.1999511719</ele>
        <time>2023-05-08T09:38:44Z</time>
      </trkpt>
      <trkpt lat="44.7226" lon="3.76225">
        <ele>1078.5999755859</ele>
        <time>2023-05-08T09:38:49Z</time>
      </trkpt>
      <trkpt lat="44.72272" lon="3.76223">
        <ele>1078.8000488281</ele>
        <time>2023-05-08T09:38:54Z</time>
      </trkpt>
      <trkpt lat="44.72286" lon="3.76216">
        <ele>1079</ele>
        <time>2023-05-08T09:39:00Z</time>
      </trkpt>
      <trkpt lat="44.72303" lon="3.76205">
        <ele>1079.5999755859</ele>
        <time>2023-05-08T09:39:07Z</time>
      </trkpt>
      <trkpt lat="44.7232" lon="3.76195">
        <ele>1080.4000244141</ele>
        <time>2023-05-08T09:39:15Z</time>
      </trkpt>
      <trkpt lat="44.72339" lon="3.76189">
        <ele>1080.8000488281</ele>
        <time>2023-05-08T09:39:23Z</time>
      </trkpt>
      <trkpt lat="44.72345" lon="3.76189">
        <ele>1080.8000488281</ele>
        <time>2023-05-08T09:39:27Z</time>
      </trkpt>
      <trkpt lat="44.72352" lon="3.76188">
        <ele>1080.4000244141</ele>
        <time>2023-05-08T09:39:31Z</time>
      </trkpt>
      <trkpt lat="44.72354" lon="3.76187">
        <ele>1080.1999511719</ele>
        <time>2023-05-08T09:39:32Z</time>
      </trkpt>
      <trkpt lat="44.72357" lon="3.76183">
        <ele>1080</ele>
        <time>2023-05-08T09:39:34Z</time>
      </trkpt>
      <trkpt lat="44.72373" lon="3.76171">
        <ele>1078.8000488281</ele>
        <time>2023-05-08T09:39:41Z</time>
      </trkpt>
      <trkpt lat="44.72382" lon="3.76166">
        <ele>1079.1999511719</ele>
        <time>2023-05-08T09:39:45Z</time>
      </trkpt>
      <trkpt lat="44.72384" lon="3.76167">
        <ele>1079.1999511719</ele>
        <time>2023-05-08T09:39:46Z</time>
      </trkpt>
      <trkpt lat="44.724" lon="3.76165">
        <ele>1078.8000488281</ele>
        <time>2023-05-08T09:39:51Z</time>
      </trkpt>
      <trkpt lat="44.72414" lon="3.76159">
        <ele>1078.1999511719</ele>
        <time>2023-05-08T09:39:56Z</time>
      </trkpt>
      <trkpt lat="44.72433" lon="3.76148">
        <ele>1077.4000244141</ele>
        <time>2023-05-08T09:40:03Z</time>
      </trkpt>
      <trkpt lat="44.72448" lon="3.76136">
        <ele>1077</ele>
        <time>2023-05-08T09:40:10Z</time>
      </trkpt>
      <trkpt lat="44.72458" lon="3.7613">
        <ele>1077</ele>
        <time>2023-05-08T09:40:15Z</time>
      </trkpt>
      <trkpt lat="44.72469" lon="3.76127">
        <ele>1077.1999511719</ele>
        <time>2023-05-08T09:40:20Z</time>
      </trkpt>
      <trkpt lat="44.72475" lon="3.76124">
        <ele>1077.4000244141</ele>
        <time>2023-05-08T09:40:23Z</time>
      </trkpt>
      <trkpt lat="44.72481" lon="3.76121">
        <ele>1077.5999755859</ele>
        <time>2023-05-08T09:40:26Z</time>
      </trkpt>
      <trkpt lat="44.72493" lon="3.76116">
        <ele>1078</ele>
        <time>2023-05-08T09:40:31Z</time>
      </trkpt>
      <trkpt lat="44.72515" lon="3.76107">
        <ele>1078.5999755859</ele>
        <time>2023-05-08T09:40:38Z</time>
      </trkpt>
      <trkpt lat="44.72535" lon="3.76103">
        <ele>1079.1999511719</ele>
        <time>2023-05-08T09:40:44Z</time>
      </trkpt>
      <trkpt lat="44.72548" lon="3.76102">
        <ele>1079.5999755859</ele>
        <time>2023-05-08T09:40:48Z</time>
      </trkpt>
      <trkpt lat="44.72571" lon="3.76099">
        <ele>1080</ele>
        <time>2023-05-08T09:40:54Z</time>
      </trkpt>
      <trkpt lat="44.72575" lon="3.76097">
        <ele>1080</ele>
        <time>2023-05-08T09:40:55Z</time>
      </trkpt>
      <trkpt lat="44.72592" lon="3.76089">
        <ele>1080</ele>
        <time>2023-05-08T09:40:58Z</time>
      </trkpt>
      <trkpt lat="44.72618" lon="3.76089">
        <ele>1080</ele>
        <time>2023-05-08T09:41:02Z</time>
      </trkpt>
      <trkpt lat="44.72637" lon="3.76077">
        <ele>1079.8000488281</ele>
        <time>2023-05-08T09:41:05Z</time>
      </trkpt>
      <trkpt lat="44.72642" lon="3.76071">
        <ele>1079.8000488281</ele>
        <time>2023-05-08T09:41:06Z</time>
      </trkpt>
      <trkpt lat="44.72656" lon="3.76054">
        <ele>1079.8000488281</ele>
        <time>2023-05-08T09:41:09Z</time>
      </trkpt>
      <trkpt lat="44.72661" lon="3.76048">
        <ele>1080</ele>
        <time>2023-05-08T09:41:10Z</time>
      </trkpt>
      <trkpt lat="44.72666" lon="3.76034">
        <ele>1080</ele>
        <time>2023-05-08T09:41:12Z</time>
      </trkpt>
      <trkpt lat="44.72669" lon="3.76028">
        <ele>1080</ele>
        <time>2023-05-08T09:41:13Z</time>
      </trkpt>
      <trkpt lat="44.72684" lon="3.76002">
        <ele>1080.1999511719</ele>
        <time>2023-05-08T09:41:17Z</time>
      </trkpt>
      <trkpt lat="44.72694" lon="3.75982">
        <ele>1080.4000244141</ele>
        <time>2023-05-08T09:41:20Z</time>
      </trkpt>
      <trkpt lat="44.72703" lon="3.75972">
        <ele>1080.4000244141</ele>
        <time>2023-05-08T09:41:22Z</time>
      </trkpt>
      <trkpt lat="44.72715" lon="3.75965">
        <ele>1080.5999755859</ele>
        <time>2023-05-08T09:41:24Z</time>
      </trkpt>
      <trkpt lat="44.72731" lon="3.75954">
        <ele>1080.8000488281</ele>
        <time>2023-05-08T09:41:27Z</time>
      </trkpt>
      <trkpt lat="44.72763" lon="3.7592">
        <ele>1081</ele>
        <time>2023-05-08T09:41:34Z</time>
      </trkpt>
      <trkpt lat="44.72785" lon="3.75887">
        <ele>1081.1999511719</ele>
        <time>2023-05-08T09:41:40Z</time>
      </trkpt>
      <trkpt lat="44.72789" lon="3.75882">
        <ele>1081.1999511719</ele>
        <time>2023-05-08T09:41:41Z</time>
      </trkpt>
      <trkpt lat="44.72793" lon="3.75878">
        <ele>1081.4000244141</ele>
        <time>2023-05-08T09:41:42Z</time>
      </trkpt>
      <trkpt lat="44.72805" lon="3.75864">
        <ele>1081.4000244141</ele>
        <time>2023-05-08T09:41:45Z</time>
      </trkpt>
      <trkpt lat="44.72809" lon="3.7586">
        <ele>1081.4000244141</ele>
        <time>2023-05-08T09:41:46Z</time>
      </trkpt>
      <trkpt lat="44.72818" lon="3.75851">
        <ele>1081.5999755859</ele>
        <time>2023-05-08T09:41:48Z</time>
      </trkpt>
      <trkpt lat="44.72827" lon="3.75843">
        <ele>1081.8000488281</ele>
        <time>2023-05-08T09:41:50Z</time>
      </trkpt>
      <trkpt lat="44.7284" lon="3.75831">
        <ele>1082</ele>
        <time>2023-05-08T09:41:53Z</time>
      </trkpt>
      <trkpt lat="44.7285" lon="3.75824">
        <ele>1082</ele>
        <time>2023-05-08T09:41:55Z</time>
      </trkpt>
      <trkpt lat="44.72864" lon="3.75817">
        <ele>1082.1999511719</ele>
        <time>2023-05-08T09:41:58Z</time>
      </trkpt>
      <trkpt lat="44.72868" lon="3.75813">
        <ele>1082.1999511719</ele>
        <time>2023-05-08T09:41:59Z</time>
      </trkpt>
      <trkpt lat="44.72881" lon="3.75801">
        <ele>1082.4000244141</ele>
        <time>2023-05-08T09:42:02Z</time>
      </trkpt>
      <trkpt lat="44.72897" lon="3.75781">
        <ele>1082.4000244141</ele>
        <time>2023-05-08T09:42:06Z</time>
      </trkpt>
      <trkpt lat="44.72901" lon="3.75774">
        <ele>1082.1999511719</ele>
        <time>2023-05-08T09:42:07Z</time>
      </trkpt>
      <trkpt lat="44.72906" lon="3.75767">
        <ele>1082.1999511719</ele>
        <time>2023-05-08T09:42:08Z</time>
      </trkpt>
      <trkpt lat="44.7292" lon="3.75744">
        <ele>1082</ele>
        <time>2023-05-08T09:42:11Z</time>
      </trkpt>
      <trkpt lat="44.72936" lon="3.75712">
        <ele>1082</ele>
        <time>2023-05-08T09:42:15Z</time>
      </trkpt>
      <trkpt lat="44.72941" lon="3.75706">
        <ele>1082.1999511719</ele>
        <time>2023-05-08T09:42:16Z</time>
      </trkpt>
      <trkpt lat="44.72945" lon="3.757">
        <ele>1082.1999511719</ele>
        <time>2023-05-08T09:42:17Z</time>
      </trkpt>
      <trkpt lat="44.72959" lon="3.75681">
        <ele>1082.1999511719</ele>
        <time>2023-05-08T09:42:20Z</time>
      </trkpt>
      <trkpt lat="44.72981" lon="3.75647">
        <ele>1082</ele>
        <time>2023-05-08T09:42:25Z</time>
      </trkpt>
      <trkpt lat="44.72986" lon="3.75642">
        <ele>1082</ele>
        <time>2023-05-08T09:42:26Z</time>
      </trkpt>
      <trkpt lat="44.7299" lon="3.7564">
        <ele>1082</ele>
        <time>2023-05-08T09:42:27Z</time>
      </trkpt>
      <trkpt lat="44.72995" lon="3.75642">
        <ele>1082</ele>
        <time>2023-05-08T09:42:28Z</time>
      </trkpt>
      <trkpt lat="44.73005" lon="3.75648">
        <ele>1081.8000488281</ele>
        <time>2023-05-08T09:42:30Z</time>
      </trkpt>
      <trkpt lat="44.73025" lon="3.75655">
        <ele>1081.8000488281</ele>
        <time>2023-05-08T09:42:33Z</time>
      </trkpt>
      <trkpt lat="44.73032" lon="3.75659">
        <ele>1081.8000488281</ele>
        <time>2023-05-08T09:42:34Z</time>
      </trkpt>
      <trkpt lat="44.73072" lon="3.75683">
        <ele>1081.1999511719</ele>
        <time>2023-05-08T09:42:39Z</time>
      </trkpt>
      <trkpt lat="44.73127" lon="3.75712">
        <ele>1080.4000244141</ele>
        <time>2023-05-08T09:42:45Z</time>
      </trkpt>
      <trkpt lat="44.73173" lon="3.75737">
        <ele>1079.8000488281</ele>
        <time>2023-05-08T09:42:50Z</time>
      </trkpt>
      <trkpt lat="44.73183" lon="3.75739">
        <ele>1079.5999755859</ele>
        <time>2023-05-08T09:42:51Z</time>
      </trkpt>
      <trkpt lat="44.7322" lon="3.75745">
        <ele>1079.1999511719</ele>
        <time>2023-05-08T09:42:55Z</time>
      </trkpt>
      <trkpt lat="44.73229" lon="3.75749">
        <ele>1079</ele>
        <time>2023-05-08T09:42:56Z</time>
      </trkpt>
      <trkpt lat="44.73236" lon="3.75755">
        <ele>1079</ele>
        <time>2023-05-08T09:42:57Z</time>
      </trkpt>
      <trkpt lat="44.73249" lon="3.75773">
        <ele>1078.8000488281</ele>
        <time>2023-05-08T09:42:59Z</time>
      </trkpt>
      <trkpt lat="44.73257" lon="3.75797">
        <ele>1078.4000244141</ele>
        <time>2023-05-08T09:43:01Z</time>
      </trkpt>
      <trkpt lat="44.7326" lon="3.7581">
        <ele>1078.1999511719</ele>
        <time>2023-05-08T09:43:02Z</time>
      </trkpt>
      <trkpt lat="44.73263" lon="3.75822">
        <ele>1078</ele>
        <time>2023-05-08T09:43:03Z</time>
      </trkpt>
      <trkpt lat="44.73275" lon="3.75844">
        <ele>1077.5999755859</ele>
        <time>2023-05-08T09:43:05Z</time>
      </trkpt>
      <trkpt lat="44.73305" lon="3.75864">
        <ele>1077</ele>
        <time>2023-05-08T09:43:08Z</time>
      </trkpt>
      <trkpt lat="44.73324" lon="3.75878">
        <ele>1076.4000244141</ele>
        <time>2023-05-08T09:43:10Z</time>
      </trkpt>
      <trkpt lat="44.73331" lon="3.75887">
        <ele>1076.1999511719</ele>
        <time>2023-05-08T09:43:11Z</time>
      </trkpt>
      <trkpt lat="44.73338" lon="3.75898">
        <ele>1075.8000488281</ele>
        <time>2023-05-08T09:43:12Z</time>
      </trkpt>
      <trkpt lat="44.73347" lon="3.75927">
        <ele>1075</ele>
        <time>2023-05-08T09:43:14Z</time>
      </trkpt>
      <trkpt lat="44.73352" lon="3.75944">
        <ele>1074.5999755859</ele>
        <time>2023-05-08T09:43:15Z</time>
      </trkpt>
      <trkpt lat="44.73364" lon="3.75978">
        <ele>1073.5999755859</ele>
        <time>2023-05-08T09:43:17Z</time>
      </trkpt>
      <trkpt lat="44.73396" lon="3.76055">
        <ele>1070.4000244141</ele>
        <time>2023-05-08T09:43:21Z</time>
      </trkpt>
      <trkpt lat="44.73411" lon="3.76095">
        <ele>1068.8000488281</ele>
        <time>2023-05-08T09:43:23Z</time>
      </trkpt>
      <trkpt lat="44.7344" lon="3.76171">
        <ele>1066.1999511719</ele>
        <time>2023-05-08T09:43:27Z</time>
      </trkpt>
      <trkpt lat="44.73455" lon="3.76206">
        <ele>1065</ele>
        <time>2023-05-08T09:43:29Z</time>
      </trkpt>
      <trkpt lat="44.73487" lon="3.76272">
        <ele>1063</ele>
        <time>2023-05-08T09:43:33Z</time>
      </trkpt>
      <trkpt lat="44.73522" lon="3.76341">
        <ele>1060.4000244141</ele>
        <time>2023-05-08T09:43:37Z</time>
      </trkpt>
      <trkpt lat="44.73564" lon="3.76404">
        <ele>1057.1999511719</ele>
        <time>2023-05-08T09:43:41Z</time>
      </trkpt>
      <trkpt lat="44.73603" lon="3.76455">
        <ele>1053.8000488281</ele>
        <time>2023-05-08T09:43:45Z</time>
      </trkpt>
      <trkpt lat="44.73611" lon="3.76466">
        <ele>1053</ele>
        <time>2023-05-08T09:43:46Z</time>
      </trkpt>
      <trkpt lat="44.73616" lon="3.76479">
        <ele>1052.1999511719</ele>
        <time>2023-05-08T09:43:47Z</time>
      </trkpt>
      <trkpt lat="44.73619" lon="3.76493">
        <ele>1051.5999755859</ele>
        <time>2023-05-08T09:43:48Z</time>
      </trkpt>
      <trkpt lat="44.73623" lon="3.7652">
        <ele>1050</ele>
        <time>2023-05-08T09:43:50Z</time>
      </trkpt>
      <trkpt lat="44.73625" lon="3.76532">
        <ele>1049.4000244141</ele>
        <time>2023-05-08T09:43:51Z</time>
      </trkpt>
      <trkpt lat="44.7363" lon="3.76553">
        <ele>1048</ele>
        <time>2023-05-08T09:43:53Z</time>
      </trkpt>
      <trkpt lat="44.73642" lon="3.76596">
        <ele>1045.4000244141</ele>
        <time>2023-05-08T09:43:58Z</time>
      </trkpt>
      <trkpt lat="44.73652" lon="3.76618">
        <ele>1043.8000488281</ele>
        <time>2023-05-08T09:44:01Z</time>
      </trkpt>
      <trkpt lat="44.73658" lon="3.76629">
        <ele>1043</ele>
        <time>2023-05-08T09:44:03Z</time>
      </trkpt>
      <trkpt lat="44.73675" lon="3.76654">
        <ele>1040.8000488281</ele>
        <time>2023-05-08T09:44:08Z</time>
      </trkpt>
      <trkpt lat="44.73687" lon="3.76667">
        <ele>1038.8000488281</ele>
        <time>2023-05-08T09:44:13Z</time>
      </trkpt>
      <trkpt lat="44.73697" lon="3.76679">
        <ele>1036.4000244141</ele>
        <time>2023-05-08T09:44:19Z</time>
      </trkpt>
      <trkpt lat="44.73706" lon="3.7669">
        <ele>1033.8000488281</ele>
        <time>2023-05-08T09:44:25Z</time>
      </trkpt>
      <trkpt lat="44.73714" lon="3.76703">
        <ele>1032</ele>
        <time>2023-05-08T09:44:31Z</time>
      </trkpt>
      <trkpt lat="44.73721" lon="3.76716">
        <ele>1029.8000488281</ele>
        <time>2023-05-08T09:44:37Z</time>
      </trkpt>
      <trkpt lat="44.73728" lon="3.7673">
        <ele>1027.8000488281</ele>
        <time>2023-05-08T09:44:43Z</time>
      </trkpt>
      <trkpt lat="44.73735" lon="3.76741">
        <ele>1026.5999755859</ele>
        <time>2023-05-08T09:44:48Z</time>
      </trkpt>
      <trkpt lat="44.73742" lon="3.76751">
        <ele>1024.8000488281</ele>
        <time>2023-05-08T09:44:54Z</time>
      </trkpt>
      <trkpt lat="44.73748" lon="3.76757">
        <ele>1023.200012207</ele>
        <time>2023-05-08T09:44:59Z</time>
      </trkpt>
      <trkpt lat="44.73749" lon="3.76758">
        <ele>1023</ele>
        <time>2023-05-08T09:45:00Z</time>
      </trkpt>
      <trkpt lat="44.73758" lon="3.76772">
        <ele>1022.799987793</ele>
        <time>2023-05-08T09:45:08Z</time>
      </trkpt>
      <trkpt lat="44.73761" lon="3.7679">
        <ele>1022</ele>
        <time>2023-05-08T09:45:16Z</time>
      </trkpt>
      <trkpt lat="44.73765" lon="3.76803">
        <ele>1021.4000244141</ele>
        <time>2023-05-08T09:45:23Z</time>
      </trkpt>
      <trkpt lat="44.73768" lon="3.76814">
        <ele>1021.799987793</ele>
        <time>2023-05-08T09:45:28Z</time>
      </trkpt>
      <trkpt lat="44.7377" lon="3.76835">
        <ele>1022.799987793</ele>
        <time>2023-05-08T09:45:37Z</time>
      </trkpt>
      <trkpt lat="44.73771" lon="3.76849">
        <ele>1023.200012207</ele>
        <time>2023-05-08T09:45:43Z</time>
      </trkpt>
      <trkpt lat="44.7377" lon="3.76851">
        <ele>1023.200012207</ele>
        <time>2023-05-08T09:45:44Z</time>
      </trkpt>
      <trkpt lat="44.7377" lon="3.76852">
        <ele>1023.200012207</ele>
        <time>2023-05-08T09:45:45Z</time>
      </trkpt>
      <trkpt lat="44.73769" lon="3.76856">
        <ele>1023.4000244141</ele>
        <time>2023-05-08T09:45:49Z</time>
      </trkpt>
      <trkpt lat="44.73768" lon="3.76858">
        <ele>1023.799987793</ele>
        <time>2023-05-08T09:45:53Z</time>
      </trkpt>
      <trkpt lat="44.73774" lon="3.76865">
        <ele>1028.1999511719</ele>
        <time>2023-05-08T09:47:37Z</time>
      </trkpt>
      <trkpt lat="44.73775" lon="3.76868">
        <ele>1028.1999511719</ele>
        <time>2023-05-08T09:47:38Z</time>
      </trkpt>
      <trkpt lat="44.73779" lon="3.76886">
        <ele>1028.5999755859</ele>
        <time>2023-05-08T09:47:44Z</time>
      </trkpt>
      <trkpt lat="44.73789" lon="3.76905">
        <ele>1029</ele>
        <time>2023-05-08T09:47:51Z</time>
      </trkpt>
      <trkpt lat="44.73797" lon="3.76919">
        <ele>1029.1999511719</ele>
        <time>2023-05-08T09:47:56Z</time>
      </trkpt>
      <trkpt lat="44.73812" lon="3.76928">
        <ele>1029.1999511719</ele>
        <time>2023-05-08T09:48:03Z</time>
      </trkpt>
      <trkpt lat="44.73825" lon="3.76943">
        <ele>1029.5999755859</ele>
        <time>2023-05-08T09:48:09Z</time>
      </trkpt>
      <trkpt lat="44.73834" lon="3.76964">
        <ele>1029.4000244141</ele>
        <time>2023-05-08T09:48:14Z</time>
      </trkpt>
      <trkpt lat="44.73846" lon="3.77003">
        <ele>1029</ele>
        <time>2023-05-08T09:48:20Z</time>
      </trkpt>
      <trkpt lat="44.73853" lon="3.77046">
        <ele>1028.5999755859</ele>
        <time>2023-05-08T09:48:25Z</time>
      </trkpt>
      <trkpt lat="44.73856" lon="3.77116">
        <ele>1028.1999511719</ele>
        <time>2023-05-08T09:48:31Z</time>
      </trkpt>
      <trkpt lat="44.73858" lon="3.77187">
        <ele>1027.8000488281</ele>
        <time>2023-05-08T09:48:37Z</time>
      </trkpt>
      <trkpt lat="44.73866" lon="3.77219">
        <ele>1027.5999755859</ele>
        <time>2023-05-08T09:48:40Z</time>
      </trkpt>
      <trkpt lat="44.7387" lon="3.77228">
        <ele>1027.5999755859</ele>
        <time>2023-05-08T09:48:41Z</time>
      </trkpt>
      <trkpt lat="44.7389" lon="3.77281">
        <ele>1027.1999511719</ele>
        <time>2023-05-08T09:48:47Z</time>
      </trkpt>
      <trkpt lat="44.73898" lon="3.77294">
        <ele>1027</ele>
        <time>2023-05-08T09:48:49Z</time>
      </trkpt>
      <trkpt lat="44.73902" lon="3.77299">
        <ele>1027</ele>
        <time>2023-05-08T09:48:50Z</time>
      </trkpt>
      <trkpt lat="44.73906" lon="3.77303">
        <ele>1027</ele>
        <time>2023-05-08T09:48:51Z</time>
      </trkpt>
      <trkpt lat="44.7392" lon="3.77313">
        <ele>1026.8000488281</ele>
        <time>2023-05-08T09:48:54Z</time>
      </trkpt>
      <trkpt lat="44.7394" lon="3.77327">
        <ele>1026.5999755859</ele>
        <time>2023-05-08T09:48:58Z</time>
      </trkpt>
      <trkpt lat="44.73945" lon="3.77332">
        <ele>1026.4000244141</ele>
        <time>2023-05-08T09:48:59Z</time>
      </trkpt>
      <trkpt lat="44.73972" lon="3.77365">
        <ele>1026</ele>
        <time>2023-05-08T09:49:04Z</time>
      </trkpt>
      <trkpt lat="44.73991" lon="3.77387">
        <ele>1025.5999755859</ele>
        <time>2023-05-08T09:49:07Z</time>
      </trkpt>
      <trkpt lat="44.73998" lon="3.77394">
        <ele>1025.4000244141</ele>
        <time>2023-05-08T09:49:08Z</time>
      </trkpt>
      <trkpt lat="44.74022" lon="3.77414">
        <ele>1025</ele>
        <time>2023-05-08T09:49:11Z</time>
      </trkpt>
      <trkpt lat="44.74037" lon="3.7743">
        <ele>1024.5999755859</ele>
        <time>2023-05-08T09:49:13Z</time>
      </trkpt>
      <trkpt lat="44.74045" lon="3.77437">
        <ele>1024.4000244141</ele>
        <time>2023-05-08T09:49:14Z</time>
      </trkpt>
      <trkpt lat="44.74063" lon="3.77444">
        <ele>1023.799987793</ele>
        <time>2023-05-08T09:49:16Z</time>
      </trkpt>
      <trkpt lat="44.74107" lon="3.77456">
        <ele>1022.5999755859</ele>
        <time>2023-05-08T09:49:20Z</time>
      </trkpt>
      <trkpt lat="44.74169" lon="3.77483">
        <ele>1019.799987793</ele>
        <time>2023-05-08T09:49:25Z</time>
      </trkpt>
      <trkpt lat="44.74227" lon="3.77519">
        <ele>1017</ele>
        <time>2023-05-08T09:49:30Z</time>
      </trkpt>
      <trkpt lat="44.74283" lon="3.77555">
        <ele>1014.4000244141</ele>
        <time>2023-05-08T09:49:35Z</time>
      </trkpt>
      <trkpt lat="44.74297" lon="3.77576">
        <ele>1013.4000244141</ele>
        <time>2023-05-08T09:49:37Z</time>
      </trkpt>
      <trkpt lat="44.74302" lon="3.77588">
        <ele>1012.799987793</ele>
        <time>2023-05-08T09:49:38Z</time>
      </trkpt>
      <trkpt lat="44.7431" lon="3.77612">
        <ele>1012</ele>
        <time>2023-05-08T09:49:40Z</time>
      </trkpt>
      <trkpt lat="44.74315" lon="3.7762">
        <ele>1011.5999755859</ele>
        <time>2023-05-08T09:49:41Z</time>
      </trkpt>
      <trkpt lat="44.74321" lon="3.77627">
        <ele>1011</ele>
        <time>2023-05-08T09:49:42Z</time>
      </trkpt>
      <trkpt lat="44.74336" lon="3.77642">
        <ele>1010</ele>
        <time>2023-05-08T09:49:44Z</time>
      </trkpt>
      <trkpt lat="44.74344" lon="3.77652">
        <ele>1009.5999755859</ele>
        <time>2023-05-08T09:49:45Z</time>
      </trkpt>
      <trkpt lat="44.74358" lon="3.77672">
        <ele>1008.799987793</ele>
        <time>2023-05-08T09:49:47Z</time>
      </trkpt>
      <trkpt lat="44.7437" lon="3.77692">
        <ele>1008</ele>
        <time>2023-05-08T09:49:49Z</time>
      </trkpt>
      <trkpt lat="44.74378" lon="3.77699">
        <ele>1007.4000244141</ele>
        <time>2023-05-08T09:49:50Z</time>
      </trkpt>
      <trkpt lat="44.74392" lon="3.77709">
        <ele>1006.4000244141</ele>
        <time>2023-05-08T09:49:52Z</time>
      </trkpt>
      <trkpt lat="44.74399" lon="3.77709">
        <ele>1005.799987793</ele>
        <time>2023-05-08T09:49:53Z</time>
      </trkpt>
      <trkpt lat="44.74406" lon="3.77707">
        <ele>1005.4000244141</ele>
        <time>2023-05-08T09:49:54Z</time>
      </trkpt>
      <trkpt lat="44.74423" lon="3.777">
        <ele>1004.200012207</ele>
        <time>2023-05-08T09:49:56Z</time>
      </trkpt>
      <trkpt lat="44.74447" lon="3.77687">
        <ele>1002.5999755859</ele>
        <time>2023-05-08T09:49:59Z</time>
      </trkpt>
      <trkpt lat="44.74455" lon="3.77682">
        <ele>1002</ele>
        <time>2023-05-08T09:50:00Z</time>
      </trkpt>
      <trkpt lat="44.74464" lon="3.77678">
        <ele>1001.4000244141</ele>
        <time>2023-05-08T09:50:01Z</time>
      </trkpt>
      <trkpt lat="44.74474" lon="3.77678">
        <ele>1000.799987793</ele>
        <time>2023-05-08T09:50:02Z</time>
      </trkpt>
      <trkpt lat="44.74535" lon="3.77694">
        <ele>997</ele>
        <time>2023-05-08T09:50:08Z</time>
      </trkpt>
      <trkpt lat="44.74543" lon="3.77698">
        <ele>996.40002441406</ele>
        <time>2023-05-08T09:50:09Z</time>
      </trkpt>
      <trkpt lat="44.74558" lon="3.77711">
        <ele>995</ele>
        <time>2023-05-08T09:50:11Z</time>
      </trkpt>
      <trkpt lat="44.74576" lon="3.77742">
        <ele>993</ele>
        <time>2023-05-08T09:50:14Z</time>
      </trkpt>
      <trkpt lat="44.74591" lon="3.77754">
        <ele>991.79998779297</ele>
        <time>2023-05-08T09:50:16Z</time>
      </trkpt>
      <trkpt lat="44.74606" lon="3.77757">
        <ele>990.79998779297</ele>
        <time>2023-05-08T09:50:18Z</time>
      </trkpt>
      <trkpt lat="44.74622" lon="3.77757">
        <ele>989.59997558594</ele>
        <time>2023-05-08T09:50:20Z</time>
      </trkpt>
      <trkpt lat="44.74642" lon="3.77757">
        <ele>988.40002441406</ele>
        <time>2023-05-08T09:50:23Z</time>
      </trkpt>
      <trkpt lat="44.74647" lon="3.77758">
        <ele>988</ele>
        <time>2023-05-08T09:50:24Z</time>
      </trkpt>
      <trkpt lat="44.74667" lon="3.77765">
        <ele>986.20001220703</ele>
        <time>2023-05-08T09:50:28Z</time>
      </trkpt>
      <trkpt lat="44.74671" lon="3.77767">
        <ele>985.79998779297</ele>
        <time>2023-05-08T09:50:29Z</time>
      </trkpt>
      <trkpt lat="44.74686" lon="3.77775">
        <ele>984.40002441406</ele>
        <time>2023-05-08T09:50:33Z</time>
      </trkpt>
      <trkpt lat="44.74689" lon="3.77779">
        <ele>984.20001220703</ele>
        <time>2023-05-08T09:50:34Z</time>
      </trkpt>
      <trkpt lat="44.74693" lon="3.77784">
        <ele>983.79998779297</ele>
        <time>2023-05-08T09:50:35Z</time>
      </trkpt>
      <trkpt lat="44.74699" lon="3.77795">
        <ele>983</ele>
        <time>2023-05-08T09:50:37Z</time>
      </trkpt>
      <trkpt lat="44.74701" lon="3.77801">
        <ele>982.59997558594</ele>
        <time>2023-05-08T09:50:38Z</time>
      </trkpt>
      <trkpt lat="44.74702" lon="3.77809">
        <ele>982.20001220703</ele>
        <time>2023-05-08T09:50:39Z</time>
      </trkpt>
      <trkpt lat="44.74705" lon="3.77826">
        <ele>981.59997558594</ele>
        <time>2023-05-08T09:50:41Z</time>
      </trkpt>
      <trkpt lat="44.7471" lon="3.77837">
        <ele>980.59997558594</ele>
        <time>2023-05-08T09:50:43Z</time>
      </trkpt>
      <trkpt lat="44.74716" lon="3.77843">
        <ele>979.79998779297</ele>
        <time>2023-05-08T09:50:44Z</time>
      </trkpt>
      <trkpt lat="44.7472" lon="3.77847">
        <ele>979.20001220703</ele>
        <time>2023-05-08T09:50:45Z</time>
      </trkpt>
      <trkpt lat="44.74727" lon="3.77858">
        <ele>978.40002441406</ele>
        <time>2023-05-08T09:50:47Z</time>
      </trkpt>
      <trkpt lat="44.7473" lon="3.77864">
        <ele>977.79998779297</ele>
        <time>2023-05-08T09:50:48Z</time>
      </trkpt>
      <trkpt lat="44.74739" lon="3.77882">
        <ele>976.59997558594</ele>
        <time>2023-05-08T09:50:51Z</time>
      </trkpt>
      <trkpt lat="44.74748" lon="3.77907">
        <ele>975.40002441406</ele>
        <time>2023-05-08T09:50:54Z</time>
      </trkpt>
      <trkpt lat="44.74753" lon="3.77918">
        <ele>974.79998779297</ele>
        <time>2023-05-08T09:50:55Z</time>
      </trkpt>
      <trkpt lat="44.74757" lon="3.77928">
        <ele>974.40002441406</ele>
        <time>2023-05-08T09:50:56Z</time>
      </trkpt>
      <trkpt lat="44.74761" lon="3.77946">
        <ele>973.40002441406</ele>
        <time>2023-05-08T09:50:58Z</time>
      </trkpt>
      <trkpt lat="44.74766" lon="3.77959">
        <ele>972.40002441406</ele>
        <time>2023-05-08T09:51:00Z</time>
      </trkpt>
      <trkpt lat="44.74768" lon="3.77973">
        <ele>971.59997558594</ele>
        <time>2023-05-08T09:51:02Z</time>
      </trkpt>
      <trkpt lat="44.74765" lon="3.77999">
        <ele>969.79998779297</ele>
        <time>2023-05-08T09:51:07Z</time>
      </trkpt>
      <trkpt lat="44.74753" lon="3.78021">
        <ele>967.40002441406</ele>
        <time>2023-05-08T09:51:13Z</time>
      </trkpt>
      <trkpt lat="44.74742" lon="3.78037">
        <ele>965.79998779297</ele>
        <time>2023-05-08T09:51:18Z</time>
      </trkpt>
      <trkpt lat="44.74724" lon="3.78047">
        <ele>964.59997558594</ele>
        <time>2023-05-08T09:51:23Z</time>
      </trkpt>
      <trkpt lat="44.74709" lon="3.7806">
        <ele>963.59997558594</ele>
        <time>2023-05-08T09:51:28Z</time>
      </trkpt>
      <trkpt lat="44.74705" lon="3.78071">
        <ele>963.20001220703</ele>
        <time>2023-05-08T09:51:30Z</time>
      </trkpt>
      <trkpt lat="44.74702" lon="3.78083">
        <ele>963</ele>
        <time>2023-05-08T09:51:32Z</time>
      </trkpt>
      <trkpt lat="44.74702" lon="3.7809">
        <ele>962.59997558594</ele>
        <time>2023-05-08T09:51:33Z</time>
      </trkpt>
      <trkpt lat="44.74703" lon="3.78097">
        <ele>962.40002441406</ele>
        <time>2023-05-08T09:51:34Z</time>
      </trkpt>
      <trkpt lat="44.74706" lon="3.7811">
        <ele>962</ele>
        <time>2023-05-08T09:51:36Z</time>
      </trkpt>
      <trkpt lat="44.74709" lon="3.78115">
        <ele>961.79998779297</ele>
        <time>2023-05-08T09:51:37Z</time>
      </trkpt>
      <trkpt lat="44.74711" lon="3.7812">
        <ele>961.59997558594</ele>
        <time>2023-05-08T09:51:38Z</time>
      </trkpt>
      <trkpt lat="44.74716" lon="3.78141">
        <ele>961.20001220703</ele>
        <time>2023-05-08T09:51:42Z</time>
      </trkpt>
      <trkpt lat="44.74719" lon="3.78158">
        <ele>960.40002441406</ele>
        <time>2023-05-08T09:51:46Z</time>
      </trkpt>
      <trkpt lat="44.74723" lon="3.78179">
        <ele>959.79998779297</ele>
        <time>2023-05-08T09:51:52Z</time>
      </trkpt>
      <trkpt lat="44.74722" lon="3.78198">
        <ele>959.59997558594</ele>
        <time>2023-05-08T09:51:56Z</time>
      </trkpt>
      <trkpt lat="44.74718" lon="3.78222">
        <ele>959.40002441406</ele>
        <time>2023-05-08T09:52:00Z</time>
      </trkpt>
      <trkpt lat="44.74713" lon="3.78234">
        <ele>959.20001220703</ele>
        <time>2023-05-08T09:52:02Z</time>
      </trkpt>
      <trkpt lat="44.74707" lon="3.78244">
        <ele>959.20001220703</ele>
        <time>2023-05-08T09:52:04Z</time>
      </trkpt>
      <trkpt lat="44.747" lon="3.78254">
        <ele>959</ele>
        <time>2023-05-08T09:52:06Z</time>
      </trkpt>
      <trkpt lat="44.74697" lon="3.7826">
        <ele>959</ele>
        <time>2023-05-08T09:52:07Z</time>
      </trkpt>
      <trkpt lat="44.74693" lon="3.78274">
        <ele>959</ele>
        <time>2023-05-08T09:52:09Z</time>
      </trkpt>
      <trkpt lat="44.74691" lon="3.78288">
        <ele>959</ele>
        <time>2023-05-08T09:52:11Z</time>
      </trkpt>
      <trkpt lat="44.74686" lon="3.783">
        <ele>959</ele>
        <time>2023-05-08T09:52:13Z</time>
      </trkpt>
      <trkpt lat="44.74681" lon="3.78309">
        <ele>958.79998779297</ele>
        <time>2023-05-08T09:52:15Z</time>
      </trkpt>
      <trkpt lat="44.74666" lon="3.78323">
        <ele>958.59997558594</ele>
        <time>2023-05-08T09:52:19Z</time>
      </trkpt>
      <trkpt lat="44.74662" lon="3.78326">
        <ele>958.59997558594</ele>
        <time>2023-05-08T09:52:20Z</time>
      </trkpt>
      <trkpt lat="44.74651" lon="3.78328">
        <ele>958.40002441406</ele>
        <time>2023-05-08T09:52:23Z</time>
      </trkpt>
      <trkpt lat="44.74637" lon="3.78339">
        <ele>958.20001220703</ele>
        <time>2023-05-08T09:52:27Z</time>
      </trkpt>
      <trkpt lat="44.74631" lon="3.78351">
        <ele>957.79998779297</ele>
        <time>2023-05-08T09:52:30Z</time>
      </trkpt>
      <trkpt lat="44.74634" lon="3.78384">
        <ele>957.40002441406</ele>
        <time>2023-05-08T09:52:35Z</time>
      </trkpt>
      <trkpt lat="44.74639" lon="3.78409">
        <ele>957</ele>
        <time>2023-05-08T09:52:39Z</time>
      </trkpt>
      <trkpt lat="44.74641" lon="3.78421">
        <ele>957.20001220703</ele>
        <time>2023-05-08T09:52:41Z</time>
      </trkpt>
      <trkpt lat="44.74644" lon="3.78459">
        <ele>956.79998779297</ele>
        <time>2023-05-08T09:52:47Z</time>
      </trkpt>
      <trkpt lat="44.74644" lon="3.78477">
        <ele>956.59997558594</ele>
        <time>2023-05-08T09:52:50Z</time>
      </trkpt>
      <trkpt lat="44.74642" lon="3.78481">
        <ele>956.59997558594</ele>
        <time>2023-05-08T09:52:51Z</time>
      </trkpt>
      <trkpt lat="44.7463" lon="3.785">
        <ele>956.20001220703</ele>
        <time>2023-05-08T09:52:56Z</time>
      </trkpt>
      <trkpt lat="44.74626" lon="3.78508">
        <ele>955.79998779297</ele>
        <time>2023-05-08T09:52:59Z</time>
      </trkpt>
      <trkpt lat="44.74621" lon="3.78535">
        <ele>954.40002441406</ele>
        <time>2023-05-08T09:53:05Z</time>
      </trkpt>
      <trkpt lat="44.74623" lon="3.78567">
        <ele>953.40002441406</ele>
        <time>2023-05-08T09:53:09Z</time>
      </trkpt>
      <trkpt lat="44.74629" lon="3.78591">
        <ele>952.79998779297</ele>
        <time>2023-05-08T09:53:13Z</time>
      </trkpt>
      <trkpt lat="44.7463" lon="3.78612">
        <ele>952.79998779297</ele>
        <time>2023-05-08T09:53:17Z</time>
      </trkpt>
      <trkpt lat="44.74629" lon="3.78634">
        <ele>952.59997558594</ele>
        <time>2023-05-08T09:53:22Z</time>
      </trkpt>
      <trkpt lat="44.74627" lon="3.78652">
        <ele>952.20001220703</ele>
        <time>2023-05-08T09:53:25Z</time>
      </trkpt>
      <trkpt lat="44.74623" lon="3.78663">
        <ele>952.20001220703</ele>
        <time>2023-05-08T09:53:27Z</time>
      </trkpt>
      <trkpt lat="44.74617" lon="3.78672">
        <ele>952.20001220703</ele>
        <time>2023-05-08T09:53:29Z</time>
      </trkpt>
      <trkpt lat="44.74606" lon="3.78695">
        <ele>952</ele>
        <time>2023-05-08T09:53:33Z</time>
      </trkpt>
      <trkpt lat="44.74595" lon="3.78724">
        <ele>952</ele>
        <time>2023-05-08T09:53:38Z</time>
      </trkpt>
      <trkpt lat="44.74594" lon="3.78731">
        <ele>952</ele>
        <time>2023-05-08T09:53:39Z</time>
      </trkpt>
      <trkpt lat="44.74592" lon="3.78752">
        <ele>951.79998779297</ele>
        <time>2023-05-08T09:53:42Z</time>
      </trkpt>
      <trkpt lat="44.74589" lon="3.78765">
        <ele>951.59997558594</ele>
        <time>2023-05-08T09:53:44Z</time>
      </trkpt>
      <trkpt lat="44.74587" lon="3.78771">
        <ele>951.59997558594</ele>
        <time>2023-05-08T09:53:45Z</time>
      </trkpt>
      <trkpt lat="44.74582" lon="3.78782">
        <ele>951.79998779297</ele>
        <time>2023-05-08T09:53:47Z</time>
      </trkpt>
      <trkpt lat="44.74575" lon="3.78789">
        <ele>951.79998779297</ele>
        <time>2023-05-08T09:53:49Z</time>
      </trkpt>
      <trkpt lat="44.74568" lon="3.78791">
        <ele>951.79998779297</ele>
        <time>2023-05-08T09:53:51Z</time>
      </trkpt>
      <trkpt lat="44.74563" lon="3.78789">
        <ele>951.79998779297</ele>
        <time>2023-05-08T09:53:53Z</time>
      </trkpt>
      <trkpt lat="44.74559" lon="3.78779">
        <ele>951.59997558594</ele>
        <time>2023-05-08T09:53:58Z</time>
      </trkpt>
      <trkpt lat="44.74554" lon="3.78763">
        <ele>951.59997558594</ele>
        <time>2023-05-08T09:54:06Z</time>
      </trkpt>
      <trkpt lat="44.74549" lon="3.7875">
        <ele>952.20001220703</ele>
        <time>2023-05-08T09:54:14Z</time>
      </trkpt>
      <trkpt lat="44.74545" lon="3.78745">
        <ele>952.59997558594</ele>
        <time>2023-05-08T09:54:18Z</time>
      </trkpt>
      <trkpt lat="44.74544" lon="3.78744">
        <ele>952.79998779297</ele>
        <time>2023-05-08T09:54:19Z</time>
      </trkpt>
      <trkpt lat="44.74542" lon="3.78738">
        <ele>953.40002441406</ele>
        <time>2023-05-08T09:54:23Z</time>
      </trkpt>
      <trkpt lat="44.7454" lon="3.78737">
        <ele>953.59997558594</ele>
        <time>2023-05-08T09:54:25Z</time>
      </trkpt>
      <trkpt lat="44.74539" lon="3.78737">
        <ele>953.59997558594</ele>
        <time>2023-05-08T09:54:26Z</time>
      </trkpt>
      <trkpt lat="44.74531" lon="3.78738">
        <ele>954.79998779297</ele>
        <time>2023-05-08T09:54:32Z</time>
      </trkpt>
      <trkpt lat="44.74522" lon="3.78738">
        <ele>956</ele>
        <time>2023-05-08T09:54:40Z</time>
      </trkpt>
      <trkpt lat="44.74515" lon="3.78732">
        <ele>956.79998779297</ele>
        <time>2023-05-08T09:54:46Z</time>
      </trkpt>
      <trkpt lat="44.74509" lon="3.78731">
        <ele>958</ele>
        <time>2023-05-08T09:54:52Z</time>
      </trkpt>
      <trkpt lat="44.745" lon="3.78731">
        <ele>959</ele>
        <time>2023-05-08T09:54:58Z</time>
      </trkpt>
      <trkpt lat="44.74493" lon="3.78733">
        <ele>959.59997558594</ele>
        <time>2023-05-08T09:55:01Z</time>
      </trkpt>
      <trkpt lat="44.74488" lon="3.78733">
        <ele>960</ele>
        <time>2023-05-08T09:55:03Z</time>
      </trkpt>
      <trkpt lat="44.74478" lon="3.78732">
        <ele>960.59997558594</ele>
        <time>2023-05-08T09:55:08Z</time>
      </trkpt>
      <trkpt lat="44.74473" lon="3.7873">
        <ele>960.79998779297</ele>
        <time>2023-05-08T09:55:10Z</time>
      </trkpt>
      <trkpt lat="44.74469" lon="3.78729">
        <ele>960.79998779297</ele>
        <time>2023-05-08T09:55:12Z</time>
      </trkpt>
      <trkpt lat="44.74464" lon="3.78726">
        <ele>961</ele>
        <time>2023-05-08T09:55:14Z</time>
      </trkpt>
      <trkpt lat="44.7446" lon="3.78723">
        <ele>961</ele>
        <time>2023-05-08T09:55:16Z</time>
      </trkpt>
      <trkpt lat="44.74458" lon="3.78721">
        <ele>960.79998779297</ele>
        <time>2023-05-08T09:55:17Z</time>
      </trkpt>
      <trkpt lat="44.7445" lon="3.78712">
        <ele>961</ele>
        <time>2023-05-08T09:55:20Z</time>
      </trkpt>
      <trkpt lat="44.74439" lon="3.78701">
        <ele>960.79998779297</ele>
        <time>2023-05-08T09:55:23Z</time>
      </trkpt>
      <trkpt lat="44.74435" lon="3.78699">
        <ele>960.79998779297</ele>
        <time>2023-05-08T09:55:24Z</time>
      </trkpt>
      <trkpt lat="44.74429" lon="3.78699">
        <ele>960.59997558594</ele>
        <time>2023-05-08T09:55:27Z</time>
      </trkpt>
      <trkpt lat="44.74424" lon="3.78699">
        <ele>960.40002441406</ele>
        <time>2023-05-08T09:55:29Z</time>
      </trkpt>
      <trkpt lat="44.74419" lon="3.78697">
        <ele>960</ele>
        <time>2023-05-08T09:55:31Z</time>
      </trkpt>
      <trkpt lat="44.74414" lon="3.78693">
        <ele>959.20001220703</ele>
        <time>2023-05-08T09:55:34Z</time>
      </trkpt>
      <trkpt lat="44.74402" lon="3.78681">
        <ele>957.79998779297</ele>
        <time>2023-05-08T09:55:47Z</time>
      </trkpt>
      <trkpt lat="44.74401" lon="3.7868">
        <ele>957.59997558594</ele>
        <time>2023-05-08T09:55:48Z</time>
      </trkpt>
      <trkpt lat="44.74396" lon="3.78671">
        <ele>956.79998779297</ele>
        <time>2023-05-08T09:55:53Z</time>
      </trkpt>
      <trkpt lat="44.74395" lon="3.78669">
        <ele>956.59997558594</ele>
        <time>2023-05-08T09:55:54Z</time>
      </trkpt>
      <trkpt lat="44.74388" lon="3.7867">
        <ele>956.20001220703</ele>
        <time>2023-05-08T09:55:56Z</time>
      </trkpt>
      <trkpt lat="44.74384" lon="3.78672">
        <ele>956</ele>
        <time>2023-05-08T09:55:57Z</time>
      </trkpt>
      <trkpt lat="44.74374" lon="3.78672">
        <ele>955.59997558594</ele>
        <time>2023-05-08T09:55:59Z</time>
      </trkpt>
      <trkpt lat="44.74359" lon="3.7867">
        <ele>955</ele>
        <time>2023-05-08T09:56:03Z</time>
      </trkpt>
      <trkpt lat="44.74345" lon="3.78669">
        <ele>954</ele>
        <time>2023-05-08T09:56:07Z</time>
      </trkpt>
      <trkpt lat="44.74336" lon="3.78673">
        <ele>953.79998779297</ele>
        <time>2023-05-08T09:56:09Z</time>
      </trkpt>
      <trkpt lat="44.74331" lon="3.7868">
        <ele>954</ele>
        <time>2023-05-08T09:56:10Z</time>
      </trkpt>
      <trkpt lat="44.74322" lon="3.78693">
        <ele>954</ele>
        <time>2023-05-08T09:56:12Z</time>
      </trkpt>
      <trkpt lat="44.7432" lon="3.78698">
        <ele>953.79998779297</ele>
        <time>2023-05-08T09:56:13Z</time>
      </trkpt>
      <trkpt lat="44.74319" lon="3.787">
        <ele>953.79998779297</ele>
        <time>2023-05-08T09:56:14Z</time>
      </trkpt>
      <trkpt lat="44.74319" lon="3.78707">
        <ele>953.59997558594</ele>
        <time>2023-05-08T09:56:16Z</time>
      </trkpt>
      <trkpt lat="44.74318" lon="3.78709">
        <ele>953.59997558594</ele>
        <time>2023-05-08T09:56:17Z</time>
      </trkpt>
      <trkpt lat="44.74312" lon="3.78718">
        <ele>953.20001220703</ele>
        <time>2023-05-08T09:56:21Z</time>
      </trkpt>
      <trkpt lat="44.74311" lon="3.78721">
        <ele>953.20001220703</ele>
        <time>2023-05-08T09:56:22Z</time>
      </trkpt>
      <trkpt lat="44.74308" lon="3.78739">
        <ele>953</ele>
        <time>2023-05-08T09:56:27Z</time>
      </trkpt>
      <trkpt lat="44.74311" lon="3.78766">
        <ele>952.59997558594</ele>
        <time>2023-05-08T09:56:33Z</time>
      </trkpt>
      <trkpt lat="44.74324" lon="3.78794">
        <ele>952.40002441406</ele>
        <time>2023-05-08T09:56:40Z</time>
      </trkpt>
      <trkpt lat="44.74341" lon="3.78815">
        <ele>952.40002441406</ele>
        <time>2023-05-08T09:56:47Z</time>
      </trkpt>
      <trkpt lat="44.74346" lon="3.78824">
        <ele>952.40002441406</ele>
        <time>2023-05-08T09:56:52Z</time>
      </trkpt>
      <trkpt lat="44.74349" lon="3.78832">
        <ele>952.59997558594</ele>
        <time>2023-05-08T09:56:56Z</time>
      </trkpt>
      <trkpt lat="44.7435" lon="3.78847">
        <ele>953.20001220703</ele>
        <time>2023-05-08T09:57:01Z</time>
      </trkpt>
      <trkpt lat="44.74344" lon="3.78862">
        <ele>953.40002441406</ele>
        <time>2023-05-08T09:57:06Z</time>
      </trkpt>
      <trkpt lat="44.74336" lon="3.78872">
        <ele>953.40002441406</ele>
        <time>2023-05-08T09:57:10Z</time>
      </trkpt>
      <trkpt lat="44.74335" lon="3.78875">
        <ele>953.40002441406</ele>
        <time>2023-05-08T09:57:11Z</time>
      </trkpt>
      <trkpt lat="44.74332" lon="3.7889">
        <ele>953.40002441406</ele>
        <time>2023-05-08T09:57:15Z</time>
      </trkpt>
      <trkpt lat="44.74329" lon="3.78907">
        <ele>953.40002441406</ele>
        <time>2023-05-08T09:57:19Z</time>
      </trkpt>
      <trkpt lat="44.74327" lon="3.78911">
        <ele>953.40002441406</ele>
        <time>2023-05-08T09:57:20Z</time>
      </trkpt>
      <trkpt lat="44.74326" lon="3.78914">
        <ele>953.59997558594</ele>
        <time>2023-05-08T09:57:21Z</time>
      </trkpt>
      <trkpt lat="44.74326" lon="3.78921">
        <ele>953.59997558594</ele>
        <time>2023-05-08T09:57:23Z</time>
      </trkpt>
      <trkpt lat="44.74326" lon="3.78927">
        <ele>953.59997558594</ele>
        <time>2023-05-08T09:57:24Z</time>
      </trkpt>
      <trkpt lat="44.74324" lon="3.78933">
        <ele>953.59997558594</ele>
        <time>2023-05-08T09:57:25Z</time>
      </trkpt>
      <trkpt lat="44.74317" lon="3.78949">
        <ele>953.40002441406</ele>
        <time>2023-05-08T09:57:28Z</time>
      </trkpt>
      <trkpt lat="44.74315" lon="3.78953">
        <ele>953.40002441406</ele>
        <time>2023-05-08T09:57:29Z</time>
      </trkpt>
      <trkpt lat="44.74315" lon="3.78964">
        <ele>953.20001220703</ele>
        <time>2023-05-08T09:57:31Z</time>
      </trkpt>
      <trkpt lat="44.74317" lon="3.7898">
        <ele>952.79998779297</ele>
        <time>2023-05-08T09:57:34Z</time>
      </trkpt>
      <trkpt lat="44.74317" lon="3.78984">
        <ele>952.59997558594</ele>
        <time>2023-05-08T09:57:35Z</time>
      </trkpt>
      <trkpt lat="44.74315" lon="3.78993">
        <ele>952.79998779297</ele>
        <time>2023-05-08T09:57:38Z</time>
      </trkpt>
      <trkpt lat="44.74312" lon="3.79">
        <ele>953</ele>
        <time>2023-05-08T09:57:42Z</time>
      </trkpt>
      <trkpt lat="44.74307" lon="3.79017">
        <ele>953</ele>
        <time>2023-05-08T09:57:48Z</time>
      </trkpt>
      <trkpt lat="44.74302" lon="3.79031">
        <ele>953.20001220703</ele>
        <time>2023-05-08T09:57:54Z</time>
      </trkpt>
      <trkpt lat="44.743" lon="3.79037">
        <ele>953.20001220703</ele>
        <time>2023-05-08T09:57:56Z</time>
      </trkpt>
      <trkpt lat="44.74297" lon="3.79044">
        <ele>953.20001220703</ele>
        <time>2023-05-08T09:57:58Z</time>
      </trkpt>
      <trkpt lat="44.74284" lon="3.79059">
        <ele>953.20001220703</ele>
        <time>2023-05-08T09:58:01Z</time>
      </trkpt>
      <trkpt lat="44.7427" lon="3.79071">
        <ele>953</ele>
        <time>2023-05-08T09:58:04Z</time>
      </trkpt>
      <trkpt lat="44.74262" lon="3.79077">
        <ele>952.79998779297</ele>
        <time>2023-05-08T09:58:06Z</time>
      </trkpt>
      <trkpt lat="44.74259" lon="3.79081">
        <ele>952.59997558594</ele>
        <time>2023-05-08T09:58:07Z</time>
      </trkpt>
      <trkpt lat="44.74256" lon="3.79092">
        <ele>952.59997558594</ele>
        <time>2023-05-08T09:58:09Z</time>
      </trkpt>
      <trkpt lat="44.74254" lon="3.79101">
        <ele>952.40002441406</ele>
        <time>2023-05-08T09:58:10Z</time>
      </trkpt>
      <trkpt lat="44.74254" lon="3.7912">
        <ele>952.20001220703</ele>
        <time>2023-05-08T09:58:12Z</time>
      </trkpt>
      <trkpt lat="44.7426" lon="3.79129">
        <ele>952</ele>
        <time>2023-05-08T09:58:14Z</time>
      </trkpt>
      <trkpt lat="44.74269" lon="3.79128">
        <ele>952</ele>
        <time>2023-05-08T09:58:16Z</time>
      </trkpt>
      <trkpt lat="44.74277" lon="3.7913">
        <ele>951.79998779297</ele>
        <time>2023-05-08T09:58:18Z</time>
      </trkpt>
      <trkpt lat="44.74291" lon="3.79142">
        <ele>951.79998779297</ele>
        <time>2023-05-08T09:58:22Z</time>
      </trkpt>
      <trkpt lat="44.74295" lon="3.79145">
        <ele>951.79998779297</ele>
        <time>2023-05-08T09:58:23Z</time>
      </trkpt>
      <trkpt lat="44.74308" lon="3.79148">
        <ele>951.59997558594</ele>
        <time>2023-05-08T09:58:26Z</time>
      </trkpt>
      <trkpt lat="44.74341" lon="3.79156">
        <ele>951</ele>
        <time>2023-05-08T09:58:34Z</time>
      </trkpt>
      <trkpt lat="44.74375" lon="3.79165">
        <ele>950.40002441406</ele>
        <time>2023-05-08T09:58:42Z</time>
      </trkpt>
      <trkpt lat="44.74404" lon="3.79173">
        <ele>950.40002441406</ele>
        <time>2023-05-08T09:58:50Z</time>
      </trkpt>
      <trkpt lat="44.74425" lon="3.79187">
        <ele>950.59997558594</ele>
        <time>2023-05-08T09:58:58Z</time>
      </trkpt>
      <trkpt lat="44.74426" lon="3.79199">
        <ele>950.79998779297</ele>
        <time>2023-05-08T09:59:01Z</time>
      </trkpt>
      <trkpt lat="44.74417" lon="3.79203">
        <ele>951</ele>
        <time>2023-05-08T09:59:05Z</time>
      </trkpt>
      <trkpt lat="44.744" lon="3.79211">
        <ele>951.59997558594</ele>
        <time>2023-05-08T09:59:12Z</time>
      </trkpt>
      <trkpt lat="44.74382" lon="3.79217">
        <ele>952.20001220703</ele>
        <time>2023-05-08T09:59:19Z</time>
      </trkpt>
      <trkpt lat="44.74364" lon="3.79221">
        <ele>953</ele>
        <time>2023-05-08T09:59:26Z</time>
      </trkpt>
      <trkpt lat="44.74342" lon="3.79228">
        <ele>954</ele>
        <time>2023-05-08T09:59:35Z</time>
      </trkpt>
      <trkpt lat="44.74324" lon="3.79236">
        <ele>955</ele>
        <time>2023-05-08T09:59:42Z</time>
      </trkpt>
      <trkpt lat="44.74296" lon="3.79242">
        <ele>955.40002441406</ele>
        <time>2023-05-08T09:59:51Z</time>
      </trkpt>
      <trkpt lat="44.74277" lon="3.79247">
        <ele>955.79998779297</ele>
        <time>2023-05-08T09:59:57Z</time>
      </trkpt>
      <trkpt lat="44.74256" lon="3.79255">
        <ele>956.20001220703</ele>
        <time>2023-05-08T10:00:04Z</time>
      </trkpt>
      <trkpt lat="44.74231" lon="3.79266">
        <ele>956.59997558594</ele>
        <time>2023-05-08T10:00:12Z</time>
      </trkpt>
      <trkpt lat="44.74209" lon="3.79276">
        <ele>957</ele>
        <time>2023-05-08T10:00:19Z</time>
      </trkpt>
      <trkpt lat="44.74178" lon="3.79287">
        <ele>957.40002441406</ele>
        <time>2023-05-08T10:00:28Z</time>
      </trkpt>
      <trkpt lat="44.74152" lon="3.79305">
        <ele>957.79998779297</ele>
        <time>2023-05-08T10:00:36Z</time>
      </trkpt>
      <trkpt lat="44.74127" lon="3.79316">
        <ele>958</ele>
        <time>2023-05-08T10:00:43Z</time>
      </trkpt>
      <trkpt lat="44.74106" lon="3.79322">
        <ele>958.40002441406</ele>
        <time>2023-05-08T10:00:49Z</time>
      </trkpt>
      <trkpt lat="44.74082" lon="3.7932">
        <ele>959</ele>
        <time>2023-05-08T10:00:56Z</time>
      </trkpt>
      <trkpt lat="44.74063" lon="3.79318">
        <ele>959.40002441406</ele>
        <time>2023-05-08T10:01:02Z</time>
      </trkpt>
      <trkpt lat="44.74049" lon="3.79314">
        <ele>959.59997558594</ele>
        <time>2023-05-08T10:01:07Z</time>
      </trkpt>
      <trkpt lat="44.74035" lon="3.7931">
        <ele>959.79998779297</ele>
        <time>2023-05-08T10:01:12Z</time>
      </trkpt>
      <trkpt lat="44.74017" lon="3.79307">
        <ele>959.59997558594</ele>
        <time>2023-05-08T10:01:18Z</time>
      </trkpt>
      <trkpt lat="44.74005" lon="3.79304">
        <ele>959.79998779297</ele>
        <time>2023-05-08T10:01:23Z</time>
      </trkpt>
      <trkpt lat="44.73993" lon="3.79302">
        <ele>960.20001220703</ele>
        <time>2023-05-08T10:01:29Z</time>
      </trkpt>
      <trkpt lat="44.73985" lon="3.79299">
        <ele>960.20001220703</ele>
        <time>2023-05-08T10:01:33Z</time>
      </trkpt>
      <trkpt lat="44.73981" lon="3.79299">
        <ele>960</ele>
        <time>2023-05-08T10:01:35Z</time>
      </trkpt>
      <trkpt lat="44.7397" lon="3.79297">
        <ele>960.20001220703</ele>
        <time>2023-05-08T10:01:41Z</time>
      </trkpt>
      <trkpt lat="44.73958" lon="3.79291">
        <ele>960.59997558594</ele>
        <time>2023-05-08T10:01:47Z</time>
      </trkpt>
      <trkpt lat="44.73944" lon="3.79286">
        <ele>961.40002441406</ele>
        <time>2023-05-08T10:01:54Z</time>
      </trkpt>
      <trkpt lat="44.73937" lon="3.79283">
        <ele>961.79998779297</ele>
        <time>2023-05-08T10:01:58Z</time>
      </trkpt>
      <trkpt lat="44.73935" lon="3.79281">
        <ele>962</ele>
        <time>2023-05-08T10:01:59Z</time>
      </trkpt>
      <trkpt lat="44.73924" lon="3.79269">
        <ele>962.79998779297</ele>
        <time>2023-05-08T10:02:06Z</time>
      </trkpt>
      <trkpt lat="44.73911" lon="3.7926">
        <ele>963</ele>
        <time>2023-05-08T10:02:13Z</time>
      </trkpt>
      <trkpt lat="44.73902" lon="3.79252">
        <ele>963.59997558594</ele>
        <time>2023-05-08T10:02:18Z</time>
      </trkpt>
      <trkpt lat="44.73891" lon="3.79242">
        <ele>964.40002441406</ele>
        <time>2023-05-08T10:02:24Z</time>
      </trkpt>
      <trkpt lat="44.73879" lon="3.79229">
        <ele>965</ele>
        <time>2023-05-08T10:02:32Z</time>
      </trkpt>
      <trkpt lat="44.73872" lon="3.79219">
        <ele>965.40002441406</ele>
        <time>2023-05-08T10:02:37Z</time>
      </trkpt>
      <trkpt lat="44.73863" lon="3.79207">
        <ele>966</ele>
        <time>2023-05-08T10:02:44Z</time>
      </trkpt>
      <trkpt lat="44.73856" lon="3.79196">
        <ele>966.59997558594</ele>
        <time>2023-05-08T10:02:50Z</time>
      </trkpt>
      <trkpt lat="44.73848" lon="3.79184">
        <ele>967.20001220703</ele>
        <time>2023-05-08T10:02:57Z</time>
      </trkpt>
      <trkpt lat="44.73843" lon="3.79175">
        <ele>967.79998779297</ele>
        <time>2023-05-08T10:03:02Z</time>
      </trkpt>
      <trkpt lat="44.73835" lon="3.79163">
        <ele>968.59997558594</ele>
        <time>2023-05-08T10:03:10Z</time>
      </trkpt>
      <trkpt lat="44.73828" lon="3.79152">
        <ele>969.40002441406</ele>
        <time>2023-05-08T10:03:16Z</time>
      </trkpt>
      <trkpt lat="44.73819" lon="3.79139">
        <ele>970</ele>
        <time>2023-05-08T10:03:24Z</time>
      </trkpt>
      <trkpt lat="44.73808" lon="3.79123">
        <ele>971</ele>
        <time>2023-05-08T10:03:34Z</time>
      </trkpt>
      <trkpt lat="44.73797" lon="3.79108">
        <ele>972</ele>
        <time>2023-05-08T10:03:43Z</time>
      </trkpt>
      <trkpt lat="44.7379" lon="3.79098">
        <ele>973</ele>
        <time>2023-05-08T10:03:50Z</time>
      </trkpt>
      <trkpt lat="44.73783" lon="3.7909">
        <ele>973.79998779297</ele>
        <time>2023-05-08T10:03:56Z</time>
      </trkpt>
      <trkpt lat="44.73777" lon="3.79078">
        <ele>974.79998779297</ele>
        <time>2023-05-08T10:04:04Z</time>
      </trkpt>
      <trkpt lat="44.73767" lon="3.79062">
        <ele>976.20001220703</ele>
        <time>2023-05-08T10:04:14Z</time>
      </trkpt>
      <trkpt lat="44.73758" lon="3.79051">
        <ele>977.40002441406</ele>
        <time>2023-05-08T10:04:22Z</time>
      </trkpt>
      <trkpt lat="44.7375" lon="3.79043">
        <ele>978.20001220703</ele>
        <time>2023-05-08T10:04:29Z</time>
      </trkpt>
      <trkpt lat="44.73741" lon="3.79033">
        <ele>978.79998779297</ele>
        <time>2023-05-08T10:04:37Z</time>
      </trkpt>
      <trkpt lat="44.73735" lon="3.79027">
        <ele>979.20001220703</ele>
        <time>2023-05-08T10:04:43Z</time>
      </trkpt>
      <trkpt lat="44.73727" lon="3.79018">
        <ele>979.40002441406</ele>
        <time>2023-05-08T10:04:51Z</time>
      </trkpt>
      <trkpt lat="44.73719" lon="3.79008">
        <ele>979.79998779297</ele>
        <time>2023-05-08T10:04:59Z</time>
      </trkpt>
      <trkpt lat="44.73712" lon="3.79001">
        <ele>980.59997558594</ele>
        <time>2023-05-08T10:05:06Z</time>
      </trkpt>
      <trkpt lat="44.73708" lon="3.78994">
        <ele>981</ele>
        <time>2023-05-08T10:05:11Z</time>
      </trkpt>
      <trkpt lat="44.73705" lon="3.78981">
        <ele>981.20001220703</ele>
        <time>2023-05-08T10:05:18Z</time>
      </trkpt>
      <trkpt lat="44.73703" lon="3.78972">
        <ele>981.59997558594</ele>
        <time>2023-05-08T10:05:23Z</time>
      </trkpt>
      <trkpt lat="44.73701" lon="3.7896">
        <ele>981.79998779297</ele>
        <time>2023-05-08T10:05:30Z</time>
      </trkpt>
      <trkpt lat="44.73698" lon="3.78949">
        <ele>982.20001220703</ele>
        <time>2023-05-08T10:05:36Z</time>
      </trkpt>
      <trkpt lat="44.73691" lon="3.78939">
        <ele>983</ele>
        <time>2023-05-08T10:05:43Z</time>
      </trkpt>
      <trkpt lat="44.73684" lon="3.78929">
        <ele>983.79998779297</ele>
        <time>2023-05-08T10:05:49Z</time>
      </trkpt>
      <trkpt lat="44.73679" lon="3.78923">
        <ele>985</ele>
        <time>2023-05-08T10:05:53Z</time>
      </trkpt>
      <trkpt lat="44.73677" lon="3.78919">
        <ele>985.59997558594</ele>
        <time>2023-05-08T10:05:55Z</time>
      </trkpt>
      <trkpt lat="44.73665" lon="3.78912">
        <ele>987.20001220703</ele>
        <time>2023-05-08T10:06:02Z</time>
      </trkpt>
      <trkpt lat="44.73652" lon="3.78905">
        <ele>988.59997558594</ele>
        <time>2023-05-08T10:06:09Z</time>
      </trkpt>
      <trkpt lat="44.73642" lon="3.78897">
        <ele>989.79998779297</ele>
        <time>2023-05-08T10:06:15Z</time>
      </trkpt>
      <trkpt lat="44.73628" lon="3.78885">
        <ele>990.79998779297</ele>
        <time>2023-05-08T10:06:23Z</time>
      </trkpt>
      <trkpt lat="44.73612" lon="3.78878">
        <ele>991.79998779297</ele>
        <time>2023-05-08T10:06:30Z</time>
      </trkpt>
      <trkpt lat="44.73596" lon="3.78869">
        <ele>992.59997558594</ele>
        <time>2023-05-08T10:06:37Z</time>
      </trkpt>
      <trkpt lat="44.73582" lon="3.78857">
        <ele>993.20001220703</ele>
        <time>2023-05-08T10:06:44Z</time>
      </trkpt>
      <trkpt lat="44.73576" lon="3.78847">
        <ele>993.79998779297</ele>
        <time>2023-05-08T10:06:49Z</time>
      </trkpt>
      <trkpt lat="44.73574" lon="3.78846">
        <ele>994</ele>
        <time>2023-05-08T10:06:50Z</time>
      </trkpt>
      <trkpt lat="44.73572" lon="3.78844">
        <ele>994</ele>
        <time>2023-05-08T10:06:51Z</time>
      </trkpt>
      <trkpt lat="44.73567" lon="3.78839">
        <ele>994.20001220703</ele>
        <time>2023-05-08T10:06:54Z</time>
      </trkpt>
      <trkpt lat="44.73559" lon="3.78828">
        <ele>994.59997558594</ele>
        <time>2023-05-08T10:07:00Z</time>
      </trkpt>
      <trkpt lat="44.73549" lon="3.78811">
        <ele>995.20001220703</ele>
        <time>2023-05-08T10:07:07Z</time>
      </trkpt>
      <trkpt lat="44.73545" lon="3.78799">
        <ele>995.20001220703</ele>
        <time>2023-05-08T10:07:12Z</time>
      </trkpt>
      <trkpt lat="44.73544" lon="3.78796">
        <ele>995.20001220703</ele>
        <time>2023-05-08T10:07:13Z</time>
      </trkpt>
      <trkpt lat="44.7354" lon="3.78787">
        <ele>995</ele>
        <time>2023-05-08T10:07:16Z</time>
      </trkpt>
      <trkpt lat="44.73532" lon="3.78771">
        <ele>996.20001220703</ele>
        <time>2023-05-08T10:07:22Z</time>
      </trkpt>
      <trkpt lat="44.73528" lon="3.78754">
        <ele>996.59997558594</ele>
        <time>2023-05-08T10:07:28Z</time>
      </trkpt>
      <trkpt lat="44.73528" lon="3.78743">
        <ele>996.40002441406</ele>
        <time>2023-05-08T10:07:32Z</time>
      </trkpt>
      <trkpt lat="44.7353" lon="3.78726">
        <ele>996.20001220703</ele>
        <time>2023-05-08T10:07:38Z</time>
      </trkpt>
      <trkpt lat="44.7353" lon="3.78707">
        <ele>996.40002441406</ele>
        <time>2023-05-08T10:07:44Z</time>
      </trkpt>
      <trkpt lat="44.73529" lon="3.78683">
        <ele>996.59997558594</ele>
        <time>2023-05-08T10:07:51Z</time>
      </trkpt>
      <trkpt lat="44.73529" lon="3.78664">
        <ele>996.40002441406</ele>
        <time>2023-05-08T10:07:56Z</time>
      </trkpt>
      <trkpt lat="44.7353" lon="3.7865">
        <ele>996.59997558594</ele>
        <time>2023-05-08T10:08:00Z</time>
      </trkpt>
      <trkpt lat="44.73529" lon="3.78627">
        <ele>996.40002441406</ele>
        <time>2023-05-08T10:08:07Z</time>
      </trkpt>
      <trkpt lat="44.73526" lon="3.78602">
        <ele>997.79998779297</ele>
        <time>2023-05-08T10:08:15Z</time>
      </trkpt>
      <trkpt lat="44.73524" lon="3.78597">
        <ele>998.40002441406</ele>
        <time>2023-05-08T10:08:17Z</time>
      </trkpt>
      <trkpt lat="44.73519" lon="3.78593">
        <ele>998.79998779297</ele>
        <time>2023-05-08T10:08:19Z</time>
      </trkpt>
      <trkpt lat="44.73514" lon="3.78592">
        <ele>999.79998779297</ele>
        <time>2023-05-08T10:08:21Z</time>
      </trkpt>
      <trkpt lat="44.73509" lon="3.78599">
        <ele>1000.799987793</ele>
        <time>2023-05-08T10:08:24Z</time>
      </trkpt>
      <trkpt lat="44.73497" lon="3.78618">
        <ele>1002.4000244141</ele>
        <time>2023-05-08T10:08:30Z</time>
      </trkpt>
      <trkpt lat="44.73487" lon="3.78639">
        <ele>1003.5999755859</ele>
        <time>2023-05-08T10:08:36Z</time>
      </trkpt>
      <trkpt lat="44.73475" lon="3.78659">
        <ele>1004.799987793</ele>
        <time>2023-05-08T10:08:43Z</time>
      </trkpt>
      <trkpt lat="44.73466" lon="3.78667">
        <ele>1005.4000244141</ele>
        <time>2023-05-08T10:08:47Z</time>
      </trkpt>
      <trkpt lat="44.73455" lon="3.78678">
        <ele>1006.4000244141</ele>
        <time>2023-05-08T10:08:52Z</time>
      </trkpt>
      <trkpt lat="44.7345" lon="3.78683">
        <ele>1006.799987793</ele>
        <time>2023-05-08T10:08:55Z</time>
      </trkpt>
      <trkpt lat="44.73447" lon="3.78687">
        <ele>1007.200012207</ele>
        <time>2023-05-08T10:08:57Z</time>
      </trkpt>
      <trkpt lat="44.73439" lon="3.78693">
        <ele>1007.799987793</ele>
        <time>2023-05-08T10:09:00Z</time>
      </trkpt>
      <trkpt lat="44.73426" lon="3.78693">
        <ele>1008.799987793</ele>
        <time>2023-05-08T10:09:04Z</time>
      </trkpt>
      <trkpt lat="44.73408" lon="3.78685">
        <ele>1010.200012207</ele>
        <time>2023-05-08T10:09:09Z</time>
      </trkpt>
      <trkpt lat="44.73394" lon="3.78672">
        <ele>1011.4000244141</ele>
        <time>2023-05-08T10:09:14Z</time>
      </trkpt>
      <trkpt lat="44.73377" lon="3.78656">
        <ele>1012.5999755859</ele>
        <time>2023-05-08T10:09:20Z</time>
      </trkpt>
      <trkpt lat="44.73364" lon="3.78642">
        <ele>1013</ele>
        <time>2023-05-08T10:09:25Z</time>
      </trkpt>
      <trkpt lat="44.73353" lon="3.78626">
        <ele>1013.799987793</ele>
        <time>2023-05-08T10:09:30Z</time>
      </trkpt>
      <trkpt lat="44.73343" lon="3.78616">
        <ele>1014</ele>
        <time>2023-05-08T10:09:35Z</time>
      </trkpt>
      <trkpt lat="44.73331" lon="3.78607">
        <ele>1014.4000244141</ele>
        <time>2023-05-08T10:09:40Z</time>
      </trkpt>
      <trkpt lat="44.73316" lon="3.78596">
        <ele>1015.4000244141</ele>
        <time>2023-05-08T10:09:46Z</time>
      </trkpt>
      <trkpt lat="44.73289" lon="3.7858">
        <ele>1017.4000244141</ele>
        <time>2023-05-08T10:09:56Z</time>
      </trkpt>
      <trkpt lat="44.73274" lon="3.78567">
        <ele>1018.4000244141</ele>
        <time>2023-05-08T10:10:03Z</time>
      </trkpt>
      <trkpt lat="44.7326" lon="3.78552">
        <ele>1019.5999755859</ele>
        <time>2023-05-08T10:10:10Z</time>
      </trkpt>
      <trkpt lat="44.73249" lon="3.78541">
        <ele>1020.799987793</ele>
        <time>2023-05-08T10:10:16Z</time>
      </trkpt>
      <trkpt lat="44.73247" lon="3.78539">
        <ele>1021</ele>
        <time>2023-05-08T10:10:17Z</time>
      </trkpt>
      <trkpt lat="44.73243" lon="3.78531">
        <ele>1021.799987793</ele>
        <time>2023-05-08T10:10:21Z</time>
      </trkpt>
      <trkpt lat="44.73241" lon="3.78529">
        <ele>1021.799987793</ele>
        <time>2023-05-08T10:10:22Z</time>
      </trkpt>
      <trkpt lat="44.73235" lon="3.78521">
        <ele>1022.4000244141</ele>
        <time>2023-05-08T10:10:26Z</time>
      </trkpt>
      <trkpt lat="44.73226" lon="3.78508">
        <ele>1023.4000244141</ele>
        <time>2023-05-08T10:10:32Z</time>
      </trkpt>
      <trkpt lat="44.7322" lon="3.78496">
        <ele>1023.799987793</ele>
        <time>2023-05-08T10:10:37Z</time>
      </trkpt>
      <trkpt lat="44.73211" lon="3.78482">
        <ele>1024.4000244141</ele>
        <time>2023-05-08T10:10:43Z</time>
      </trkpt>
      <trkpt lat="44.732" lon="3.78466">
        <ele>1025.1999511719</ele>
        <time>2023-05-08T10:10:50Z</time>
      </trkpt>
      <trkpt lat="44.73194" lon="3.78461">
        <ele>1025.8000488281</ele>
        <time>2023-05-08T10:10:54Z</time>
      </trkpt>
      <trkpt lat="44.73192" lon="3.78462">
        <ele>1026</ele>
        <time>2023-05-08T10:10:55Z</time>
      </trkpt>
      <trkpt lat="44.7319" lon="3.78464">
        <ele>1026.1999511719</ele>
        <time>2023-05-08T10:10:56Z</time>
      </trkpt>
      <trkpt lat="44.73189" lon="3.78474">
        <ele>1026.5999755859</ele>
        <time>2023-05-08T10:10:59Z</time>
      </trkpt>
      <trkpt lat="44.73186" lon="3.78494">
        <ele>1027</ele>
        <time>2023-05-08T10:11:03Z</time>
      </trkpt>
      <trkpt lat="44.73182" lon="3.78516">
        <ele>1027</ele>
        <time>2023-05-08T10:11:07Z</time>
      </trkpt>
      <trkpt lat="44.73179" lon="3.78536">
        <ele>1026.8000488281</ele>
        <time>2023-05-08T10:11:10Z</time>
      </trkpt>
      <trkpt lat="44.73177" lon="3.78543">
        <ele>1026.8000488281</ele>
        <time>2023-05-08T10:11:11Z</time>
      </trkpt>
      <trkpt lat="44.73171" lon="3.78564">
        <ele>1026.5999755859</ele>
        <time>2023-05-08T10:11:15Z</time>
      </trkpt>
      <trkpt lat="44.7317" lon="3.78573">
        <ele>1026.4000244141</ele>
        <time>2023-05-08T10:11:17Z</time>
      </trkpt>
      <trkpt lat="44.73171" lon="3.78577">
        <ele>1026.4000244141</ele>
        <time>2023-05-08T10:11:18Z</time>
      </trkpt>
      <trkpt lat="44.73169" lon="3.78611">
        <ele>1025.5999755859</ele>
        <time>2023-05-08T10:11:23Z</time>
      </trkpt>
      <trkpt lat="44.73163" lon="3.78652">
        <ele>1025</ele>
        <time>2023-05-08T10:11:28Z</time>
      </trkpt>
      <trkpt lat="44.73158" lon="3.78678">
        <ele>1025</ele>
        <time>2023-05-08T10:11:32Z</time>
      </trkpt>
      <trkpt lat="44.73156" lon="3.78685">
        <ele>1025</ele>
        <time>2023-05-08T10:11:33Z</time>
      </trkpt>
      <trkpt lat="44.73146" lon="3.78709">
        <ele>1024.4000244141</ele>
        <time>2023-05-08T10:11:36Z</time>
      </trkpt>
      <trkpt lat="44.7314" lon="3.78747">
        <ele>1023.5999755859</ele>
        <time>2023-05-08T10:11:40Z</time>
      </trkpt>
      <trkpt lat="44.73138" lon="3.78758">
        <ele>1023.4000244141</ele>
        <time>2023-05-08T10:11:41Z</time>
      </trkpt>
      <trkpt lat="44.73134" lon="3.78784">
        <ele>1023</ele>
        <time>2023-05-08T10:11:43Z</time>
      </trkpt>
      <trkpt lat="44.7312" lon="3.7883">
        <ele>1023</ele>
        <time>2023-05-08T10:11:47Z</time>
      </trkpt>
      <trkpt lat="44.73113" lon="3.78849">
        <ele>1022.5999755859</ele>
        <time>2023-05-08T10:11:49Z</time>
      </trkpt>
      <trkpt lat="44.73108" lon="3.78869">
        <ele>1022.5999755859</ele>
        <time>2023-05-08T10:11:51Z</time>
      </trkpt>
      <trkpt lat="44.73106" lon="3.7889">
        <ele>1022.4000244141</ele>
        <time>2023-05-08T10:11:53Z</time>
      </trkpt>
      <trkpt lat="44.73106" lon="3.78911">
        <ele>1022.4000244141</ele>
        <time>2023-05-08T10:11:55Z</time>
      </trkpt>
      <trkpt lat="44.73107" lon="3.78931">
        <ele>1022.4000244141</ele>
        <time>2023-05-08T10:11:57Z</time>
      </trkpt>
      <trkpt lat="44.73109" lon="3.78941">
        <ele>1022.4000244141</ele>
        <time>2023-05-08T10:11:58Z</time>
      </trkpt>
      <trkpt lat="44.73118" lon="3.78975">
        <ele>1022.4000244141</ele>
        <time>2023-05-08T10:12:02Z</time>
      </trkpt>
      <trkpt lat="44.73119" lon="3.78984">
        <ele>1022.4000244141</ele>
        <time>2023-05-08T10:12:03Z</time>
      </trkpt>
      <trkpt lat="44.73121" lon="3.7902">
        <ele>1022.200012207</ele>
        <time>2023-05-08T10:12:07Z</time>
      </trkpt>
      <trkpt lat="44.7312" lon="3.79027">
        <ele>1022.200012207</ele>
        <time>2023-05-08T10:12:08Z</time>
      </trkpt>
      <trkpt lat="44.73119" lon="3.79034">
        <ele>1022.200012207</ele>
        <time>2023-05-08T10:12:09Z</time>
      </trkpt>
      <trkpt lat="44.73117" lon="3.79047">
        <ele>1022.200012207</ele>
        <time>2023-05-08T10:12:11Z</time>
      </trkpt>
      <trkpt lat="44.73116" lon="3.79054">
        <ele>1022.200012207</ele>
        <time>2023-05-08T10:12:12Z</time>
      </trkpt>
      <trkpt lat="44.73116" lon="3.79061">
        <ele>1022</ele>
        <time>2023-05-08T10:12:13Z</time>
      </trkpt>
      <trkpt lat="44.73118" lon="3.7908">
        <ele>1021.5999755859</ele>
        <time>2023-05-08T10:12:15Z</time>
      </trkpt>
      <trkpt lat="44.7312" lon="3.79103">
        <ele>1021.4000244141</ele>
        <time>2023-05-08T10:12:17Z</time>
      </trkpt>
      <trkpt lat="44.73119" lon="3.79126">
        <ele>1021</ele>
        <time>2023-05-08T10:12:19Z</time>
      </trkpt>
      <trkpt lat="44.73118" lon="3.79138">
        <ele>1020.799987793</ele>
        <time>2023-05-08T10:12:20Z</time>
      </trkpt>
      <trkpt lat="44.73115" lon="3.79173">
        <ele>1020.200012207</ele>
        <time>2023-05-08T10:12:23Z</time>
      </trkpt>
      <trkpt lat="44.73113" lon="3.79184">
        <ele>1020.200012207</ele>
        <time>2023-05-08T10:12:24Z</time>
      </trkpt>
      <trkpt lat="44.73105" lon="3.79221">
        <ele>1019.799987793</ele>
        <time>2023-05-08T10:12:27Z</time>
      </trkpt>
      <trkpt lat="44.731" lon="3.79257">
        <ele>1019.4000244141</ele>
        <time>2023-05-08T10:12:30Z</time>
      </trkpt>
      <trkpt lat="44.73097" lon="3.79268">
        <ele>1019.200012207</ele>
        <time>2023-05-08T10:12:31Z</time>
      </trkpt>
      <trkpt lat="44.73094" lon="3.79278">
        <ele>1019.200012207</ele>
        <time>2023-05-08T10:12:32Z</time>
      </trkpt>
      <trkpt lat="44.73087" lon="3.79308">
        <ele>1019</ele>
        <time>2023-05-08T10:12:35Z</time>
      </trkpt>
      <trkpt lat="44.73079" lon="3.79337">
        <ele>1018.799987793</ele>
        <time>2023-05-08T10:12:38Z</time>
      </trkpt>
      <trkpt lat="44.73075" lon="3.79356">
        <ele>1018.4000244141</ele>
        <time>2023-05-08T10:12:40Z</time>
      </trkpt>
      <trkpt lat="44.73071" lon="3.79374">
        <ele>1018</ele>
        <time>2023-05-08T10:12:42Z</time>
      </trkpt>
      <trkpt lat="44.73071" lon="3.79382">
        <ele>1017.799987793</ele>
        <time>2023-05-08T10:12:43Z</time>
      </trkpt>
      <trkpt lat="44.73073" lon="3.7939">
        <ele>1017.4000244141</ele>
        <time>2023-05-08T10:12:44Z</time>
      </trkpt>
      <trkpt lat="44.73075" lon="3.79404">
        <ele>1016.799987793</ele>
        <time>2023-05-08T10:12:46Z</time>
      </trkpt>
      <trkpt lat="44.73077" lon="3.79416">
        <ele>1016.4000244141</ele>
        <time>2023-05-08T10:12:48Z</time>
      </trkpt>
      <trkpt lat="44.73078" lon="3.79424">
        <ele>1016</ele>
        <time>2023-05-08T10:12:49Z</time>
      </trkpt>
      <trkpt lat="44.7308" lon="3.79433">
        <ele>1015.799987793</ele>
        <time>2023-05-08T10:12:50Z</time>
      </trkpt>
      <trkpt lat="44.73086" lon="3.79461">
        <ele>1014.799987793</ele>
        <time>2023-05-08T10:12:53Z</time>
      </trkpt>
      <trkpt lat="44.7309" lon="3.79509">
        <ele>1013.4000244141</ele>
        <time>2023-05-08T10:12:58Z</time>
      </trkpt>
      <trkpt lat="44.73091" lon="3.79518">
        <ele>1013.200012207</ele>
        <time>2023-05-08T10:12:59Z</time>
      </trkpt>
      <trkpt lat="44.73095" lon="3.79545">
        <ele>1012.5999755859</ele>
        <time>2023-05-08T10:13:02Z</time>
      </trkpt>
      <trkpt lat="44.73098" lon="3.79577">
        <ele>1011.5999755859</ele>
        <time>2023-05-08T10:13:06Z</time>
      </trkpt>
      <trkpt lat="44.73099" lon="3.79585">
        <ele>1011.5999755859</ele>
        <time>2023-05-08T10:13:07Z</time>
      </trkpt>
      <trkpt lat="44.73098" lon="3.79625">
        <ele>1011.200012207</ele>
        <time>2023-05-08T10:13:12Z</time>
      </trkpt>
      <trkpt lat="44.73099" lon="3.79633">
        <ele>1011</ele>
        <time>2023-05-08T10:13:13Z</time>
      </trkpt>
      <trkpt lat="44.73101" lon="3.79647">
        <ele>1010.4000244141</ele>
        <time>2023-05-08T10:13:15Z</time>
      </trkpt>
      <trkpt lat="44.73103" lon="3.79654">
        <ele>1010.200012207</ele>
        <time>2023-05-08T10:13:16Z</time>
      </trkpt>
      <trkpt lat="44.73107" lon="3.79667">
        <ele>1009.799987793</ele>
        <time>2023-05-08T10:13:18Z</time>
      </trkpt>
      <trkpt lat="44.7311" lon="3.7968">
        <ele>1009.4000244141</ele>
        <time>2023-05-08T10:13:20Z</time>
      </trkpt>
      <trkpt lat="44.7311" lon="3.79688">
        <ele>1009.4000244141</ele>
        <time>2023-05-08T10:13:21Z</time>
      </trkpt>
      <trkpt lat="44.73108" lon="3.79703">
        <ele>1009</ele>
        <time>2023-05-08T10:13:23Z</time>
      </trkpt>
      <trkpt lat="44.73108" lon="3.79721">
        <ele>1008.4000244141</ele>
        <time>2023-05-08T10:13:25Z</time>
      </trkpt>
      <trkpt lat="44.73107" lon="3.7973">
        <ele>1008</ele>
        <time>2023-05-08T10:13:26Z</time>
      </trkpt>
      <trkpt lat="44.73107" lon="3.79751">
        <ele>1007.200012207</ele>
        <time>2023-05-08T10:13:28Z</time>
      </trkpt>
      <trkpt lat="44.73117" lon="3.7978">
        <ele>1006.4000244141</ele>
        <time>2023-05-08T10:13:31Z</time>
      </trkpt>
      <trkpt lat="44.73124" lon="3.79812">
        <ele>1005.5999755859</ele>
        <time>2023-05-08T10:13:34Z</time>
      </trkpt>
      <trkpt lat="44.73125" lon="3.79823">
        <ele>1005.4000244141</ele>
        <time>2023-05-08T10:13:35Z</time>
      </trkpt>
      <trkpt lat="44.73128" lon="3.79843">
        <ele>1005.200012207</ele>
        <time>2023-05-08T10:13:37Z</time>
      </trkpt>
      <trkpt lat="44.73126" lon="3.79852">
        <ele>1005.200012207</ele>
        <time>2023-05-08T10:13:38Z</time>
      </trkpt>
      <trkpt lat="44.73122" lon="3.7986">
        <ele>1005.200012207</ele>
        <time>2023-05-08T10:13:39Z</time>
      </trkpt>
      <trkpt lat="44.73113" lon="3.79875">
        <ele>1005.200012207</ele>
        <time>2023-05-08T10:13:41Z</time>
      </trkpt>
      <trkpt lat="44.73112" lon="3.79891">
        <ele>1005.200012207</ele>
        <time>2023-05-08T10:13:43Z</time>
      </trkpt>
      <trkpt lat="44.73118" lon="3.79926">
        <ele>1004.799987793</ele>
        <time>2023-05-08T10:13:47Z</time>
      </trkpt>
      <trkpt lat="44.73118" lon="3.79935">
        <ele>1004.5999755859</ele>
        <time>2023-05-08T10:13:48Z</time>
      </trkpt>
      <trkpt lat="44.73119" lon="3.79944">
        <ele>1004.5999755859</ele>
        <time>2023-05-08T10:13:49Z</time>
      </trkpt>
      <trkpt lat="44.7312" lon="3.79961">
        <ele>1004.4000244141</ele>
        <time>2023-05-08T10:13:51Z</time>
      </trkpt>
      <trkpt lat="44.73121" lon="3.79983">
        <ele>1004.4000244141</ele>
        <time>2023-05-08T10:13:53Z</time>
      </trkpt>
      <trkpt lat="44.73125" lon="3.80002">
        <ele>1004.4000244141</ele>
        <time>2023-05-08T10:13:55Z</time>
      </trkpt>
      <trkpt lat="44.7313" lon="3.80021">
        <ele>1004.4000244141</ele>
        <time>2023-05-08T10:13:57Z</time>
      </trkpt>
      <trkpt lat="44.73136" lon="3.80039">
        <ele>1004.4000244141</ele>
        <time>2023-05-08T10:13:59Z</time>
      </trkpt>
      <trkpt lat="44.73136" lon="3.80049">
        <ele>1004.200012207</ele>
        <time>2023-05-08T10:14:00Z</time>
      </trkpt>
      <trkpt lat="44.73135" lon="3.80056">
        <ele>1004.200012207</ele>
        <time>2023-05-08T10:14:01Z</time>
      </trkpt>
      <trkpt lat="44.73132" lon="3.80069">
        <ele>1004</ele>
        <time>2023-05-08T10:14:03Z</time>
      </trkpt>
      <trkpt lat="44.73129" lon="3.80082">
        <ele>1004</ele>
        <time>2023-05-08T10:14:05Z</time>
      </trkpt>
      <trkpt lat="44.73128" lon="3.80092">
        <ele>1003.799987793</ele>
        <time>2023-05-08T10:14:06Z</time>
      </trkpt>
      <trkpt lat="44.73131" lon="3.80114">
        <ele>1003.200012207</ele>
        <time>2023-05-08T10:14:09Z</time>
      </trkpt>
      <trkpt lat="44.73138" lon="3.80134">
        <ele>1002.5999755859</ele>
        <time>2023-05-08T10:14:12Z</time>
      </trkpt>
      <trkpt lat="44.73146" lon="3.80157">
        <ele>1001.5999755859</ele>
        <time>2023-05-08T10:14:16Z</time>
      </trkpt>
      <trkpt lat="44.73146" lon="3.80164">
        <ele>1001.4000244141</ele>
        <time>2023-05-08T10:14:17Z</time>
      </trkpt>
      <trkpt lat="44.73148" lon="3.80171">
        <ele>1001.200012207</ele>
        <time>2023-05-08T10:14:18Z</time>
      </trkpt>
      <trkpt lat="44.73152" lon="3.80185">
        <ele>1000.5999755859</ele>
        <time>2023-05-08T10:14:20Z</time>
      </trkpt>
      <trkpt lat="44.73155" lon="3.80198">
        <ele>999.79998779297</ele>
        <time>2023-05-08T10:14:22Z</time>
      </trkpt>
      <trkpt lat="44.73158" lon="3.80212">
        <ele>999</ele>
        <time>2023-05-08T10:14:24Z</time>
      </trkpt>
      <trkpt lat="44.73159" lon="3.80229">
        <ele>998.40002441406</ele>
        <time>2023-05-08T10:14:26Z</time>
      </trkpt>
      <trkpt lat="44.73158" lon="3.80238">
        <ele>998</ele>
        <time>2023-05-08T10:14:27Z</time>
      </trkpt>
      <trkpt lat="44.73157" lon="3.80245">
        <ele>997.79998779297</ele>
        <time>2023-05-08T10:14:28Z</time>
      </trkpt>
      <trkpt lat="44.73155" lon="3.80259">
        <ele>997</ele>
        <time>2023-05-08T10:14:30Z</time>
      </trkpt>
      <trkpt lat="44.73156" lon="3.80267">
        <ele>996.59997558594</ele>
        <time>2023-05-08T10:14:31Z</time>
      </trkpt>
      <trkpt lat="44.73156" lon="3.80284">
        <ele>995.79998779297</ele>
        <time>2023-05-08T10:14:33Z</time>
      </trkpt>
      <trkpt lat="44.73156" lon="3.80291">
        <ele>995.20001220703</ele>
        <time>2023-05-08T10:14:34Z</time>
      </trkpt>
      <trkpt lat="44.73154" lon="3.80302">
        <ele>994.40002441406</ele>
        <time>2023-05-08T10:14:36Z</time>
      </trkpt>
      <trkpt lat="44.73153" lon="3.80322">
        <ele>992.40002441406</ele>
        <time>2023-05-08T10:14:40Z</time>
      </trkpt>
      <trkpt lat="44.73154" lon="3.80343">
        <ele>990.79998779297</ele>
        <time>2023-05-08T10:14:44Z</time>
      </trkpt>
      <trkpt lat="44.7316" lon="3.80358">
        <ele>989.59997558594</ele>
        <time>2023-05-08T10:14:46Z</time>
      </trkpt>
      <trkpt lat="44.73163" lon="3.80366">
        <ele>989</ele>
        <time>2023-05-08T10:14:47Z</time>
      </trkpt>
      <trkpt lat="44.73172" lon="3.80413">
        <ele>986.20001220703</ele>
        <time>2023-05-08T10:14:52Z</time>
      </trkpt>
      <trkpt lat="44.73177" lon="3.80442">
        <ele>984.40002441406</ele>
        <time>2023-05-08T10:14:55Z</time>
      </trkpt>
      <trkpt lat="44.73178" lon="3.80452">
        <ele>983.79998779297</ele>
        <time>2023-05-08T10:14:56Z</time>
      </trkpt>
      <trkpt lat="44.73189" lon="3.80493">
        <ele>981.40002441406</ele>
        <time>2023-05-08T10:15:00Z</time>
      </trkpt>
      <trkpt lat="44.73191" lon="3.80502">
        <ele>980.59997558594</ele>
        <time>2023-05-08T10:15:01Z</time>
      </trkpt>
      <trkpt lat="44.73196" lon="3.80518">
        <ele>979.40002441406</ele>
        <time>2023-05-08T10:15:03Z</time>
      </trkpt>
      <trkpt lat="44.73199" lon="3.80525">
        <ele>978.59997558594</ele>
        <time>2023-05-08T10:15:04Z</time>
      </trkpt>
      <trkpt lat="44.73201" lon="3.80532">
        <ele>978</ele>
        <time>2023-05-08T10:15:05Z</time>
      </trkpt>
      <trkpt lat="44.7321" lon="3.80563">
        <ele>975.79998779297</ele>
        <time>2023-05-08T10:15:09Z</time>
      </trkpt>
      <trkpt lat="44.73212" lon="3.80572">
        <ele>975</ele>
        <time>2023-05-08T10:15:10Z</time>
      </trkpt>
      <trkpt lat="44.73215" lon="3.8059">
        <ele>973.79998779297</ele>
        <time>2023-05-08T10:15:12Z</time>
      </trkpt>
      <trkpt lat="44.73219" lon="3.80617">
        <ele>971.59997558594</ele>
        <time>2023-05-08T10:15:15Z</time>
      </trkpt>
      <trkpt lat="44.73221" lon="3.80635">
        <ele>970.40002441406</ele>
        <time>2023-05-08T10:15:17Z</time>
      </trkpt>
      <trkpt lat="44.73223" lon="3.80654">
        <ele>968.59997558594</ele>
        <time>2023-05-08T10:15:19Z</time>
      </trkpt>
      <trkpt lat="44.73223" lon="3.80661">
        <ele>967.79998779297</ele>
        <time>2023-05-08T10:15:20Z</time>
      </trkpt>
      <trkpt lat="44.7322" lon="3.80671">
        <ele>966.40002441406</ele>
        <time>2023-05-08T10:15:22Z</time>
      </trkpt>
      <trkpt lat="44.73221" lon="3.80676">
        <ele>966</ele>
        <time>2023-05-08T10:15:23Z</time>
      </trkpt>
      <trkpt lat="44.7322" lon="3.80677">
        <ele>965.59997558594</ele>
        <time>2023-05-08T10:15:24Z</time>
      </trkpt>
      <trkpt lat="44.73218" lon="3.80676">
        <ele>964.59997558594</ele>
        <time>2023-05-08T10:15:26Z</time>
      </trkpt>
      <trkpt lat="44.73217" lon="3.80675">
        <ele>963.79998779297</ele>
        <time>2023-05-08T10:15:27Z</time>
      </trkpt>
      <trkpt lat="44.73217" lon="3.80674">
        <ele>962.79998779297</ele>
        <time>2023-05-08T10:15:29Z</time>
      </trkpt>
      <trkpt lat="44.73212" lon="3.80669">
        <ele>956</ele>
        <time>2023-05-08T10:15:44Z</time>
      </trkpt>
      <trkpt lat="44.73209" lon="3.80667">
        <ele>955.59997558594</ele>
        <time>2023-05-08T10:15:45Z</time>
      </trkpt>
      <trkpt lat="44.73208" lon="3.80666">
        <ele>955</ele>
        <time>2023-05-08T10:15:47Z</time>
      </trkpt>
      <trkpt lat="44.73204" lon="3.80662">
        <ele>954.59997558594</ele>
        <time>2023-05-08T10:15:49Z</time>
      </trkpt>
      <trkpt lat="44.73194" lon="3.80656">
        <ele>953.59997558594</ele>
        <time>2023-05-08T10:15:52Z</time>
      </trkpt>
      <trkpt lat="44.73191" lon="3.80655">
        <ele>953.40002441406</ele>
        <time>2023-05-08T10:15:53Z</time>
      </trkpt>
      <trkpt lat="44.73175" lon="3.80644">
        <ele>951.59997558594</ele>
        <time>2023-05-08T10:15:59Z</time>
      </trkpt>
      <trkpt lat="44.73173" lon="3.80642">
        <ele>951.40002441406</ele>
        <time>2023-05-08T10:16:00Z</time>
      </trkpt>
      <trkpt lat="44.73168" lon="3.80634">
        <ele>950.40002441406</ele>
        <time>2023-05-08T10:16:03Z</time>
      </trkpt>
      <trkpt lat="44.73166" lon="3.80632">
        <ele>950.20001220703</ele>
        <time>2023-05-08T10:16:04Z</time>
      </trkpt>
      <trkpt lat="44.7316" lon="3.80628">
        <ele>949.79998779297</ele>
        <time>2023-05-08T10:16:06Z</time>
      </trkpt>
      <trkpt lat="44.73141" lon="3.80617">
        <ele>948</ele>
        <time>2023-05-08T10:16:11Z</time>
      </trkpt>
      <trkpt lat="44.7313" lon="3.80614">
        <ele>946.40002441406</ele>
        <time>2023-05-08T10:16:15Z</time>
      </trkpt>
      <trkpt lat="44.73121" lon="3.80606">
        <ele>945.20001220703</ele>
        <time>2023-05-08T10:16:18Z</time>
      </trkpt>
      <trkpt lat="44.73119" lon="3.80601">
        <ele>944.40002441406</ele>
        <time>2023-05-08T10:16:20Z</time>
      </trkpt>
      <trkpt lat="44.73115" lon="3.80598">
        <ele>944</ele>
        <time>2023-05-08T10:16:22Z</time>
      </trkpt>
      <trkpt lat="44.73108" lon="3.80592">
        <ele>943.20001220703</ele>
        <time>2023-05-08T10:16:25Z</time>
      </trkpt>
      <trkpt lat="44.73106" lon="3.80589">
        <ele>942.79998779297</ele>
        <time>2023-05-08T10:16:26Z</time>
      </trkpt>
      <trkpt lat="44.73101" lon="3.80581">
        <ele>942.59997558594</ele>
        <time>2023-05-08T10:16:30Z</time>
      </trkpt>
      <trkpt lat="44.73096" lon="3.80568">
        <ele>941</ele>
        <time>2023-05-08T10:16:35Z</time>
      </trkpt>
      <trkpt lat="44.73086" lon="3.80545">
        <ele>940.59997558594</ele>
        <time>2023-05-08T10:16:39Z</time>
      </trkpt>
      <trkpt lat="44.73074" lon="3.80532">
        <ele>940.20001220703</ele>
        <time>2023-05-08T10:16:43Z</time>
      </trkpt>
      <trkpt lat="44.7307" lon="3.8053">
        <ele>940.40002441406</ele>
        <time>2023-05-08T10:16:45Z</time>
      </trkpt>
      <trkpt lat="44.73065" lon="3.80528">
        <ele>940.40002441406</ele>
        <time>2023-05-08T10:16:47Z</time>
      </trkpt>
      <trkpt lat="44.73061" lon="3.80526">
        <ele>940.40002441406</ele>
        <time>2023-05-08T10:16:48Z</time>
      </trkpt>
      <trkpt lat="44.73051" lon="3.80518">
        <ele>940.40002441406</ele>
        <time>2023-05-08T10:16:51Z</time>
      </trkpt>
      <trkpt lat="44.73045" lon="3.80514">
        <ele>940.40002441406</ele>
        <time>2023-05-08T10:16:53Z</time>
      </trkpt>
      <trkpt lat="44.73037" lon="3.80509">
        <ele>940.20001220703</ele>
        <time>2023-05-08T10:16:55Z</time>
      </trkpt>
      <trkpt lat="44.73034" lon="3.80506">
        <ele>940.20001220703</ele>
        <time>2023-05-08T10:16:56Z</time>
      </trkpt>
      <trkpt lat="44.7303" lon="3.805">
        <ele>940</ele>
        <time>2023-05-08T10:16:58Z</time>
      </trkpt>
      <trkpt lat="44.7303" lon="3.80499">
        <ele>940.20001220703</ele>
        <time>2023-05-08T10:16:59Z</time>
      </trkpt>
      <trkpt lat="44.7302" lon="3.80479">
        <ele>938.79998779297</ele>
        <time>2023-05-08T10:17:50Z</time>
      </trkpt>
      <trkpt lat="44.73016" lon="3.80474">
        <ele>938.79998779297</ele>
        <time>2023-05-08T10:17:52Z</time>
      </trkpt>
      <trkpt lat="44.73008" lon="3.80463">
        <ele>938.40002441406</ele>
        <time>2023-05-08T10:17:55Z</time>
      </trkpt>
      <trkpt lat="44.72999" lon="3.80445">
        <ele>938.20001220703</ele>
        <time>2023-05-08T10:17:59Z</time>
      </trkpt>
      <trkpt lat="44.72989" lon="3.80425">
        <ele>937.79998779297</ele>
        <time>2023-05-08T10:18:03Z</time>
      </trkpt>
      <trkpt lat="44.72984" lon="3.80414">
        <ele>937.59997558594</ele>
        <time>2023-05-08T10:18:05Z</time>
      </trkpt>
      <trkpt lat="44.72975" lon="3.80407">
        <ele>937.40002441406</ele>
        <time>2023-05-08T10:18:07Z</time>
      </trkpt>
      <trkpt lat="44.72969" lon="3.80402">
        <ele>937.40002441406</ele>
        <time>2023-05-08T10:18:08Z</time>
      </trkpt>
      <trkpt lat="44.72962" lon="3.80394">
        <ele>937.20001220703</ele>
        <time>2023-05-08T10:18:10Z</time>
      </trkpt>
      <trkpt lat="44.72954" lon="3.80381">
        <ele>937.20001220703</ele>
        <time>2023-05-08T10:18:14Z</time>
      </trkpt>
      <trkpt lat="44.72949" lon="3.80373">
        <ele>937.79998779297</ele>
        <time>2023-05-08T10:18:18Z</time>
      </trkpt>
      <trkpt lat="44.72948" lon="3.80372">
        <ele>938</ele>
        <time>2023-05-08T10:18:19Z</time>
      </trkpt>
      <trkpt lat="44.72944" lon="3.80367">
        <ele>938.20001220703</ele>
        <time>2023-05-08T10:18:23Z</time>
      </trkpt>
      <trkpt lat="44.72918" lon="3.80337">
        <ele>939.79998779297</ele>
        <time>2023-05-08T10:18:50Z</time>
      </trkpt>
      <trkpt lat="44.72915" lon="3.80335">
        <ele>940</ele>
        <time>2023-05-08T10:18:52Z</time>
      </trkpt>
      <trkpt lat="44.72913" lon="3.80333">
        <ele>940.20001220703</ele>
        <time>2023-05-08T10:18:54Z</time>
      </trkpt>
      <trkpt lat="44.72895" lon="3.80325">
        <ele>941.59997558594</ele>
        <time>2023-05-08T10:19:43Z</time>
      </trkpt>
      <trkpt lat="44.72889" lon="3.80325">
        <ele>941.59997558594</ele>
        <time>2023-05-08T10:19:45Z</time>
      </trkpt>
      <trkpt lat="44.72887" lon="3.80325">
        <ele>941.40002441406</ele>
        <time>2023-05-08T10:19:46Z</time>
      </trkpt>
      <trkpt lat="44.72883" lon="3.80329">
        <ele>941.79998779297</ele>
        <time>2023-05-08T10:19:49Z</time>
      </trkpt>
      <trkpt lat="44.72881" lon="3.8033">
        <ele>942</ele>
        <time>2023-05-08T10:19:50Z</time>
      </trkpt>
      <trkpt lat="44.72879" lon="3.80333">
        <ele>942.40002441406</ele>
        <time>2023-05-08T10:19:53Z</time>
      </trkpt>
      <trkpt lat="44.72869" lon="3.80359">
        <ele>944.79998779297</ele>
        <time>2023-05-08T10:20:31Z</time>
      </trkpt>
      <trkpt lat="44.72869" lon="3.80375">
        <ele>944.59997558594</ele>
        <time>2023-05-08T10:20:34Z</time>
      </trkpt>
      <trkpt lat="44.72872" lon="3.80395">
        <ele>944.40002441406</ele>
        <time>2023-05-08T10:20:37Z</time>
      </trkpt>
      <trkpt lat="44.72873" lon="3.80414">
        <ele>943.59997558594</ele>
        <time>2023-05-08T10:20:41Z</time>
      </trkpt>
      <trkpt lat="44.72873" lon="3.80417">
        <ele>943.59997558594</ele>
        <time>2023-05-08T10:20:42Z</time>
      </trkpt>
      <trkpt lat="44.72874" lon="3.80429">
        <ele>943.40002441406</ele>
        <time>2023-05-08T10:20:45Z</time>
      </trkpt>
      <trkpt lat="44.72874" lon="3.80433">
        <ele>943.20001220703</ele>
        <time>2023-05-08T10:20:46Z</time>
      </trkpt>
      <trkpt lat="44.72874" lon="3.80442">
        <ele>943.20001220703</ele>
        <time>2023-05-08T10:20:48Z</time>
      </trkpt>
      <trkpt lat="44.72876" lon="3.80456">
        <ele>942.59997558594</ele>
        <time>2023-05-08T10:20:52Z</time>
      </trkpt>
      <trkpt lat="44.72876" lon="3.8046">
        <ele>942.20001220703</ele>
        <time>2023-05-08T10:20:53Z</time>
      </trkpt>
      <trkpt lat="44.72874" lon="3.80476">
        <ele>942.20001220703</ele>
        <time>2023-05-08T10:20:56Z</time>
      </trkpt>
      <trkpt lat="44.72875" lon="3.8048">
        <ele>941.79998779297</ele>
        <time>2023-05-08T10:20:57Z</time>
      </trkpt>
      <trkpt lat="44.72878" lon="3.80486">
        <ele>941</ele>
        <time>2023-05-08T10:20:59Z</time>
      </trkpt>
      <trkpt lat="44.72883" lon="3.80499">
        <ele>939.20001220703</ele>
        <time>2023-05-08T10:21:03Z</time>
      </trkpt>
      <trkpt lat="44.72884" lon="3.80511">
        <ele>937.59997558594</ele>
        <time>2023-05-08T10:21:06Z</time>
      </trkpt>
      <trkpt lat="44.72886" lon="3.80513">
        <ele>937</ele>
        <time>2023-05-08T10:21:07Z</time>
      </trkpt>
      <trkpt lat="44.72887" lon="3.80516">
        <ele>936.40002441406</ele>
        <time>2023-05-08T10:21:08Z</time>
      </trkpt>
      <trkpt lat="44.72888" lon="3.80525">
        <ele>935.40002441406</ele>
        <time>2023-05-08T10:21:10Z</time>
      </trkpt>
      <trkpt lat="44.72899" lon="3.80542">
        <ele>932.20001220703</ele>
        <time>2023-05-08T10:21:15Z</time>
      </trkpt>
      <trkpt lat="44.729" lon="3.80545">
        <ele>931.59997558594</ele>
        <time>2023-05-08T10:21:16Z</time>
      </trkpt>
      <trkpt lat="44.72903" lon="3.80549">
        <ele>930.40002441406</ele>
        <time>2023-05-08T10:21:19Z</time>
      </trkpt>
      <trkpt lat="44.72904" lon="3.8055">
        <ele>929.79998779297</ele>
        <time>2023-05-08T10:21:21Z</time>
      </trkpt>
      <trkpt lat="44.72907" lon="3.80556">
        <ele>928.79998779297</ele>
        <time>2023-05-08T10:21:23Z</time>
      </trkpt>
      <trkpt lat="44.72908" lon="3.80563">
        <ele>927.59997558594</ele>
        <time>2023-05-08T10:21:25Z</time>
      </trkpt>
      <trkpt lat="44.72909" lon="3.80566">
        <ele>927</ele>
        <time>2023-05-08T10:21:26Z</time>
      </trkpt>
      <trkpt lat="44.72911" lon="3.80571">
        <ele>926</ele>
        <time>2023-05-08T10:21:28Z</time>
      </trkpt>
      <trkpt lat="44.72913" lon="3.80577">
        <ele>925</ele>
        <time>2023-05-08T10:21:30Z</time>
      </trkpt>
      <trkpt lat="44.72914" lon="3.80582">
        <ele>924.40002441406</ele>
        <time>2023-05-08T10:21:31Z</time>
      </trkpt>
      <trkpt lat="44.72911" lon="3.80593">
        <ele>923.20001220703</ele>
        <time>2023-05-08T10:21:33Z</time>
      </trkpt>
      <trkpt lat="44.72915" lon="3.80602">
        <ele>921</ele>
        <time>2023-05-08T10:21:36Z</time>
      </trkpt>
      <trkpt lat="44.72922" lon="3.80605">
        <ele>919.59997558594</ele>
        <time>2023-05-08T10:21:38Z</time>
      </trkpt>
      <trkpt lat="44.72918" lon="3.80609">
        <ele>917.79998779297</ele>
        <time>2023-05-08T10:21:40Z</time>
      </trkpt>
      <trkpt lat="44.72914" lon="3.80622">
        <ele>916.20001220703</ele>
        <time>2023-05-08T10:21:45Z</time>
      </trkpt>
      <trkpt lat="44.72915" lon="3.80628">
        <ele>917.79998779297</ele>
        <time>2023-05-08T10:21:50Z</time>
      </trkpt>
      <trkpt lat="44.72913" lon="3.80629">
        <ele>918.40002441406</ele>
        <time>2023-05-08T10:21:51Z</time>
      </trkpt>
      <trkpt lat="44.72902" lon="3.80632">
        <ele>920</ele>
        <time>2023-05-08T10:21:57Z</time>
      </trkpt>
      <trkpt lat="44.729" lon="3.80634">
        <ele>920.20001220703</ele>
        <time>2023-05-08T10:21:58Z</time>
      </trkpt>
      <trkpt lat="44.72895" lon="3.80635">
        <ele>920.20001220703</ele>
        <time>2023-05-08T10:22:00Z</time>
      </trkpt>
      <trkpt lat="44.72892" lon="3.80637">
        <ele>920.40002441406</ele>
        <time>2023-05-08T10:22:02Z</time>
      </trkpt>
      <trkpt lat="44.72889" lon="3.8064">
        <ele>920.40002441406</ele>
        <time>2023-05-08T10:22:03Z</time>
      </trkpt>
      <trkpt lat="44.72885" lon="3.80645">
        <ele>920.79998779297</ele>
        <time>2023-05-08T10:22:04Z</time>
      </trkpt>
      <trkpt lat="44.72883" lon="3.80653">
        <ele>921.40002441406</ele>
        <time>2023-05-08T10:22:06Z</time>
      </trkpt>
      <trkpt lat="44.72884" lon="3.80663">
        <ele>921.59997558594</ele>
        <time>2023-05-08T10:22:08Z</time>
      </trkpt>
      <trkpt lat="44.72884" lon="3.80668">
        <ele>921.59997558594</ele>
        <time>2023-05-08T10:22:09Z</time>
      </trkpt>
      <trkpt lat="44.7289" lon="3.80698">
        <ele>921.79998779297</ele>
        <time>2023-05-08T10:22:14Z</time>
      </trkpt>
      <trkpt lat="44.72893" lon="3.80703">
        <ele>921.79998779297</ele>
        <time>2023-05-08T10:22:15Z</time>
      </trkpt>
      <trkpt lat="44.72897" lon="3.80712">
        <ele>922.20001220703</ele>
        <time>2023-05-08T10:22:17Z</time>
      </trkpt>
      <trkpt lat="44.72902" lon="3.80722">
        <ele>923</ele>
        <time>2023-05-08T10:22:21Z</time>
      </trkpt>
      <trkpt lat="44.72904" lon="3.80725">
        <ele>923.20001220703</ele>
        <time>2023-05-08T10:22:23Z</time>
      </trkpt>
      <trkpt lat="44.72915" lon="3.80734">
        <ele>924</ele>
        <time>2023-05-08T10:22:28Z</time>
      </trkpt>
      <trkpt lat="44.72919" lon="3.80738">
        <ele>924.20001220703</ele>
        <time>2023-05-08T10:22:30Z</time>
      </trkpt>
      <trkpt lat="44.72925" lon="3.80742">
        <ele>924.40002441406</ele>
        <time>2023-05-08T10:22:32Z</time>
      </trkpt>
      <trkpt lat="44.72937" lon="3.80748">
        <ele>925</ele>
        <time>2023-05-08T10:22:36Z</time>
      </trkpt>
      <trkpt lat="44.72949" lon="3.80754">
        <ele>925.79998779297</ele>
        <time>2023-05-08T10:22:40Z</time>
      </trkpt>
      <trkpt lat="44.72955" lon="3.80761">
        <ele>926.20001220703</ele>
        <time>2023-05-08T10:22:43Z</time>
      </trkpt>
      <trkpt lat="44.72958" lon="3.80764">
        <ele>926.40002441406</ele>
        <time>2023-05-08T10:22:44Z</time>
      </trkpt>
      <trkpt lat="44.72961" lon="3.80767">
        <ele>926.40002441406</ele>
        <time>2023-05-08T10:22:45Z</time>
      </trkpt>
      <trkpt lat="44.72972" lon="3.80773">
        <ele>926.79998779297</ele>
        <time>2023-05-08T10:22:48Z</time>
      </trkpt>
      <trkpt lat="44.72983" lon="3.80781">
        <ele>927.40002441406</ele>
        <time>2023-05-08T10:22:51Z</time>
      </trkpt>
      <trkpt lat="44.72986" lon="3.80783">
        <ele>927.59997558594</ele>
        <time>2023-05-08T10:22:52Z</time>
      </trkpt>
      <trkpt lat="44.72989" lon="3.80787">
        <ele>927.59997558594</ele>
        <time>2023-05-08T10:22:53Z</time>
      </trkpt>
      <trkpt lat="44.72996" lon="3.80796">
        <ele>928.20001220703</ele>
        <time>2023-05-08T10:22:56Z</time>
      </trkpt>
      <trkpt lat="44.72998" lon="3.80804">
        <ele>928.59997558594</ele>
        <time>2023-05-08T10:22:58Z</time>
      </trkpt>
      <trkpt lat="44.72998" lon="3.80807">
        <ele>928.79998779297</ele>
        <time>2023-05-08T10:22:59Z</time>
      </trkpt>
      <trkpt lat="44.72987" lon="3.80822">
        <ele>929.59997558594</ele>
        <time>2023-05-08T10:23:04Z</time>
      </trkpt>
      <trkpt lat="44.72983" lon="3.80825">
        <ele>929.79998779297</ele>
        <time>2023-05-08T10:23:05Z</time>
      </trkpt>
      <trkpt lat="44.72976" lon="3.8083">
        <ele>930</ele>
        <time>2023-05-08T10:23:07Z</time>
      </trkpt>
      <trkpt lat="44.72972" lon="3.80833">
        <ele>930</ele>
        <time>2023-05-08T10:23:08Z</time>
      </trkpt>
      <trkpt lat="44.72956" lon="3.8084">
        <ele>930.79998779297</ele>
        <time>2023-05-08T10:23:12Z</time>
      </trkpt>
      <trkpt lat="44.72937" lon="3.80847">
        <ele>931.79998779297</ele>
        <time>2023-05-08T10:23:17Z</time>
      </trkpt>
      <trkpt lat="44.72923" lon="3.80855">
        <ele>932.79998779297</ele>
        <time>2023-05-08T10:23:21Z</time>
      </trkpt>
      <trkpt lat="44.72906" lon="3.80866">
        <ele>933.79998779297</ele>
        <time>2023-05-08T10:23:25Z</time>
      </trkpt>
      <trkpt lat="44.72891" lon="3.80871">
        <ele>934.79998779297</ele>
        <time>2023-05-08T10:23:29Z</time>
      </trkpt>
      <trkpt lat="44.72879" lon="3.80874">
        <ele>936</ele>
        <time>2023-05-08T10:23:33Z</time>
      </trkpt>
      <trkpt lat="44.72862" lon="3.80887">
        <ele>937.20001220703</ele>
        <time>2023-05-08T10:23:37Z</time>
      </trkpt>
      <trkpt lat="44.72858" lon="3.80889">
        <ele>937.59997558594</ele>
        <time>2023-05-08T10:23:38Z</time>
      </trkpt>
      <trkpt lat="44.72849" lon="3.80894">
        <ele>938.40002441406</ele>
        <time>2023-05-08T10:23:41Z</time>
      </trkpt>
      <trkpt lat="44.72842" lon="3.80901">
        <ele>939.40002441406</ele>
        <time>2023-05-08T10:23:44Z</time>
      </trkpt>
      <trkpt lat="44.72832" lon="3.80913">
        <ele>940.20001220703</ele>
        <time>2023-05-08T10:23:48Z</time>
      </trkpt>
      <trkpt lat="44.72822" lon="3.80921">
        <ele>940.79998779297</ele>
        <time>2023-05-08T10:23:51Z</time>
      </trkpt>
      <trkpt lat="44.72812" lon="3.80925">
        <ele>941.59997558594</ele>
        <time>2023-05-08T10:23:54Z</time>
      </trkpt>
      <trkpt lat="44.72807" lon="3.80928">
        <ele>942</ele>
        <time>2023-05-08T10:23:57Z</time>
      </trkpt>
      <trkpt lat="44.72798" lon="3.80935">
        <ele>943.20001220703</ele>
        <time>2023-05-08T10:24:03Z</time>
      </trkpt>
      <trkpt lat="44.72793" lon="3.80938">
        <ele>943.40002441406</ele>
        <time>2023-05-08T10:24:05Z</time>
      </trkpt>
      <trkpt lat="44.72788" lon="3.8094">
        <ele>943.79998779297</ele>
        <time>2023-05-08T10:24:07Z</time>
      </trkpt>
      <trkpt lat="44.7278" lon="3.80943">
        <ele>944.59997558594</ele>
        <time>2023-05-08T10:24:11Z</time>
      </trkpt>
      <trkpt lat="44.72779" lon="3.80944">
        <ele>944.79998779297</ele>
        <time>2023-05-08T10:24:12Z</time>
      </trkpt>
      <trkpt lat="44.72775" lon="3.80949">
        <ele>945.40002441406</ele>
        <time>2023-05-08T10:24:15Z</time>
      </trkpt>
      <trkpt lat="44.72767" lon="3.80951">
        <ele>945.79998779297</ele>
        <time>2023-05-08T10:24:18Z</time>
      </trkpt>
      <trkpt lat="44.72765" lon="3.80953">
        <ele>946.20001220703</ele>
        <time>2023-05-08T10:24:19Z</time>
      </trkpt>
      <trkpt lat="44.72758" lon="3.8096">
        <ele>946.40002441406</ele>
        <time>2023-05-08T10:24:21Z</time>
      </trkpt>
      <trkpt lat="44.72742" lon="3.80978">
        <ele>946.40002441406</ele>
        <time>2023-05-08T10:24:25Z</time>
      </trkpt>
      <trkpt lat="44.72726" lon="3.80987">
        <ele>946.59997558594</ele>
        <time>2023-05-08T10:24:30Z</time>
      </trkpt>
      <trkpt lat="44.72721" lon="3.80989">
        <ele>947</ele>
        <time>2023-05-08T10:24:32Z</time>
      </trkpt>
      <trkpt lat="44.72717" lon="3.8099">
        <ele>947.40002441406</ele>
        <time>2023-05-08T10:24:34Z</time>
      </trkpt>
      <trkpt lat="44.72712" lon="3.80994">
        <ele>948.40002441406</ele>
        <time>2023-05-08T10:24:38Z</time>
      </trkpt>
      <trkpt lat="44.72706" lon="3.81">
        <ele>948.79998779297</ele>
        <time>2023-05-08T10:24:41Z</time>
      </trkpt>
      <trkpt lat="44.72656" lon="3.81008">
        <ele>955.40002441406</ele>
        <time>2023-05-08T10:27:00Z</time>
      </trkpt>
      <trkpt lat="44.72652" lon="3.81008">
        <ele>955.20001220703</ele>
        <time>2023-05-08T10:27:03Z</time>
      </trkpt>
      <trkpt lat="44.72647" lon="3.81006">
        <ele>955.20001220703</ele>
        <time>2023-05-08T10:27:08Z</time>
      </trkpt>
      <trkpt lat="44.72642" lon="3.81007">
        <ele>955.79998779297</ele>
        <time>2023-05-08T10:27:15Z</time>
      </trkpt>
      <trkpt lat="44.72637" lon="3.81007">
        <ele>956</ele>
        <time>2023-05-08T10:27:20Z</time>
      </trkpt>
      <trkpt lat="44.72632" lon="3.81005">
        <ele>956</ele>
        <time>2023-05-08T10:27:25Z</time>
      </trkpt>
      <trkpt lat="44.72628" lon="3.81005">
        <ele>955.79998779297</ele>
        <time>2023-05-08T10:27:28Z</time>
      </trkpt>
      <trkpt lat="44.72624" lon="3.81005">
        <ele>955.79998779297</ele>
        <time>2023-05-08T10:27:30Z</time>
      </trkpt>
      <trkpt lat="44.72618" lon="3.81006">
        <ele>955.40002441406</ele>
        <time>2023-05-08T10:27:36Z</time>
      </trkpt>
      <trkpt lat="44.72613" lon="3.81007">
        <ele>955.40002441406</ele>
        <time>2023-05-08T10:27:41Z</time>
      </trkpt>
      <trkpt lat="44.72605" lon="3.81007">
        <ele>955.20001220703</ele>
        <time>2023-05-08T10:27:46Z</time>
      </trkpt>
      <trkpt lat="44.72602" lon="3.8101">
        <ele>955</ele>
        <time>2023-05-08T10:27:48Z</time>
      </trkpt>
      <trkpt lat="44.72596" lon="3.81014">
        <ele>954.59997558594</ele>
        <time>2023-05-08T10:27:50Z</time>
      </trkpt>
      <trkpt lat="44.72593" lon="3.81017">
        <ele>954.59997558594</ele>
        <time>2023-05-08T10:27:51Z</time>
      </trkpt>
      <trkpt lat="44.72588" lon="3.81022">
        <ele>954</ele>
        <time>2023-05-08T10:27:54Z</time>
      </trkpt>
      <trkpt lat="44.72579" lon="3.81023">
        <ele>953.40002441406</ele>
        <time>2023-05-08T10:27:58Z</time>
      </trkpt>
      <trkpt lat="44.72577" lon="3.81025">
        <ele>953.20001220703</ele>
        <time>2023-05-08T10:27:59Z</time>
      </trkpt>
      <trkpt lat="44.72573" lon="3.81026">
        <ele>952.59997558594</ele>
        <time>2023-05-08T10:28:02Z</time>
      </trkpt>
      <trkpt lat="44.72516" lon="3.81048">
        <ele>949.79998779297</ele>
        <time>2023-05-08T10:29:48Z</time>
      </trkpt>
      <trkpt lat="44.7251" lon="3.81046">
        <ele>949.79998779297</ele>
        <time>2023-05-08T10:29:53Z</time>
      </trkpt>
      <trkpt lat="44.72528" lon="3.81119">
        <ele>949.59997558594</ele>
        <time>2023-05-08T10:32:31Z</time>
      </trkpt>
      <trkpt lat="44.72531" lon="3.81124">
        <ele>949.40002441406</ele>
        <time>2023-05-08T10:32:33Z</time>
      </trkpt>
      <trkpt lat="44.72534" lon="3.81129">
        <ele>949.40002441406</ele>
        <time>2023-05-08T10:32:35Z</time>
      </trkpt>
      <trkpt lat="44.72534" lon="3.81131">
        <ele>949.20001220703</ele>
        <time>2023-05-08T10:32:36Z</time>
      </trkpt>
      <trkpt lat="44.72535" lon="3.81134">
        <ele>949.20001220703</ele>
        <time>2023-05-08T10:32:37Z</time>
      </trkpt>
      <trkpt lat="44.7254" lon="3.8114">
        <ele>948.79998779297</ele>
        <time>2023-05-08T10:32:39Z</time>
      </trkpt>
      <trkpt lat="44.72547" lon="3.81147">
        <ele>948.40002441406</ele>
        <time>2023-05-08T10:32:42Z</time>
      </trkpt>
      <trkpt lat="44.72551" lon="3.81149">
        <ele>948.40002441406</ele>
        <time>2023-05-08T10:32:43Z</time>
      </trkpt>
      <trkpt lat="44.72561" lon="3.81157">
        <ele>947.79998779297</ele>
        <time>2023-05-08T10:32:47Z</time>
      </trkpt>
      <trkpt lat="44.72563" lon="3.81158">
        <ele>947.59997558594</ele>
        <time>2023-05-08T10:32:48Z</time>
      </trkpt>
      <trkpt lat="44.72569" lon="3.81158">
        <ele>947.20001220703</ele>
        <time>2023-05-08T10:32:51Z</time>
      </trkpt>
      <trkpt lat="44.72579" lon="3.81162">
        <ele>947</ele>
        <time>2023-05-08T10:32:52Z</time>
      </trkpt>
      <trkpt lat="44.7259" lon="3.81161">
        <ele>946.79998779297</ele>
        <time>2023-05-08T10:32:54Z</time>
      </trkpt>
      <trkpt lat="44.72594" lon="3.81162">
        <ele>946.59997558594</ele>
        <time>2023-05-08T10:32:56Z</time>
      </trkpt>
      <trkpt lat="44.72594" lon="3.81162">
        <ele>946.59997558594</ele>
        <time>2023-05-08T10:32:57Z</time>
      </trkpt>
      <trkpt lat="44.72622" lon="3.81156">
        <ele>946.40002441406</ele>
        <time>2023-05-08T10:33:29Z</time>
      </trkpt>
      <trkpt lat="44.72626" lon="3.81154">
        <ele>946.40002441406</ele>
        <time>2023-05-08T10:33:31Z</time>
      </trkpt>
      <trkpt lat="44.72638" lon="3.81152">
        <ele>946.40002441406</ele>
        <time>2023-05-08T10:33:35Z</time>
      </trkpt>
      <trkpt lat="44.72643" lon="3.81156">
        <ele>946.59997558594</ele>
        <time>2023-05-08T10:33:39Z</time>
      </trkpt>
      <trkpt lat="44.72645" lon="3.81159">
        <ele>946.59997558594</ele>
        <time>2023-05-08T10:33:41Z</time>
      </trkpt>
      <trkpt lat="44.72646" lon="3.81162">
        <ele>946.40002441406</ele>
        <time>2023-05-08T10:33:43Z</time>
      </trkpt>
      <trkpt lat="44.72653" lon="3.81174">
        <ele>945.79998779297</ele>
        <time>2023-05-08T10:33:47Z</time>
      </trkpt>
      <trkpt lat="44.72653" lon="3.81181">
        <ele>945</ele>
        <time>2023-05-08T10:33:51Z</time>
      </trkpt>
      <trkpt lat="44.72654" lon="3.81182">
        <ele>944.79998779297</ele>
        <time>2023-05-08T10:33:52Z</time>
      </trkpt>
      <trkpt lat="44.72656" lon="3.81188">
        <ele>944</ele>
        <time>2023-05-08T10:33:55Z</time>
      </trkpt>
      <trkpt lat="44.72664" lon="3.81195">
        <ele>943.40002441406</ele>
        <time>2023-05-08T10:33:57Z</time>
      </trkpt>
      <trkpt lat="44.72685" lon="3.81206">
        <ele>942.40002441406</ele>
        <time>2023-05-08T10:34:01Z</time>
      </trkpt>
      <trkpt lat="44.727" lon="3.81214">
        <ele>941.40002441406</ele>
        <time>2023-05-08T10:34:05Z</time>
      </trkpt>
      <trkpt lat="44.72715" lon="3.81219">
        <ele>940.59997558594</ele>
        <time>2023-05-08T10:34:09Z</time>
      </trkpt>
      <trkpt lat="44.72719" lon="3.8122">
        <ele>940.59997558594</ele>
        <time>2023-05-08T10:34:10Z</time>
      </trkpt>
      <trkpt lat="44.7273" lon="3.81221">
        <ele>940.20001220703</ele>
        <time>2023-05-08T10:34:12Z</time>
      </trkpt>
      <trkpt lat="44.7275" lon="3.81226">
        <ele>939.40002441406</ele>
        <time>2023-05-08T10:34:17Z</time>
      </trkpt>
      <trkpt lat="44.72763" lon="3.81228">
        <ele>939.20001220703</ele>
        <time>2023-05-08T10:34:21Z</time>
      </trkpt>
      <trkpt lat="44.72772" lon="3.81228">
        <ele>939</ele>
        <time>2023-05-08T10:34:23Z</time>
      </trkpt>
      <trkpt lat="44.72776" lon="3.8123">
        <ele>939</ele>
        <time>2023-05-08T10:34:24Z</time>
      </trkpt>
      <trkpt lat="44.7278" lon="3.81229">
        <ele>939</ele>
        <time>2023-05-08T10:34:25Z</time>
      </trkpt>
      <trkpt lat="44.7279" lon="3.81226">
        <ele>938.59997558594</ele>
        <time>2023-05-08T10:34:27Z</time>
      </trkpt>
      <trkpt lat="44.72809" lon="3.81222">
        <ele>939</ele>
        <time>2023-05-08T10:34:31Z</time>
      </trkpt>
      <trkpt lat="44.72819" lon="3.81219">
        <ele>939.20001220703</ele>
        <time>2023-05-08T10:34:33Z</time>
      </trkpt>
      <trkpt lat="44.7283" lon="3.81218">
        <ele>939.40002441406</ele>
        <time>2023-05-08T10:34:35Z</time>
      </trkpt>
      <trkpt lat="44.7284" lon="3.81218">
        <ele>939.40002441406</ele>
        <time>2023-05-08T10:34:37Z</time>
      </trkpt>
      <trkpt lat="44.72857" lon="3.81214">
        <ele>939.79998779297</ele>
        <time>2023-05-08T10:34:40Z</time>
      </trkpt>
      <trkpt lat="44.72889" lon="3.81215">
        <ele>940.40002441406</ele>
        <time>2023-05-08T10:34:46Z</time>
      </trkpt>
      <trkpt lat="44.72894" lon="3.81217">
        <ele>940.40002441406</ele>
        <time>2023-05-08T10:34:47Z</time>
      </trkpt>
      <trkpt lat="44.72901" lon="3.81225">
        <ele>940.40002441406</ele>
        <time>2023-05-08T10:34:49Z</time>
      </trkpt>
      <trkpt lat="44.72902" lon="3.81237">
        <ele>940.59997558594</ele>
        <time>2023-05-08T10:34:51Z</time>
      </trkpt>
      <trkpt lat="44.72901" lon="3.81242">
        <ele>940.59997558594</ele>
        <time>2023-05-08T10:34:52Z</time>
      </trkpt>
      <trkpt lat="44.72898" lon="3.81247">
        <ele>940.79998779297</ele>
        <time>2023-05-08T10:34:53Z</time>
      </trkpt>
      <trkpt lat="44.72882" lon="3.81264">
        <ele>941.20001220703</ele>
        <time>2023-05-08T10:34:57Z</time>
      </trkpt>
      <trkpt lat="44.72855" lon="3.81299">
        <ele>942</ele>
        <time>2023-05-08T10:35:04Z</time>
      </trkpt>
      <trkpt lat="44.72822" lon="3.81339">
        <ele>942.59997558594</ele>
        <time>2023-05-08T10:35:12Z</time>
      </trkpt>
      <trkpt lat="44.72783" lon="3.8138">
        <ele>943.40002441406</ele>
        <time>2023-05-08T10:35:21Z</time>
      </trkpt>
      <trkpt lat="44.7277" lon="3.8139">
        <ele>943.59997558594</ele>
        <time>2023-05-08T10:35:24Z</time>
      </trkpt>
      <trkpt lat="44.72761" lon="3.81397">
        <ele>943.59997558594</ele>
        <time>2023-05-08T10:35:26Z</time>
      </trkpt>
      <trkpt lat="44.72758" lon="3.81402">
        <ele>943.59997558594</ele>
        <time>2023-05-08T10:35:27Z</time>
      </trkpt>
      <trkpt lat="44.72753" lon="3.81412">
        <ele>943.79998779297</ele>
        <time>2023-05-08T10:35:29Z</time>
      </trkpt>
      <trkpt lat="44.72751" lon="3.81417">
        <ele>943.79998779297</ele>
        <time>2023-05-08T10:35:30Z</time>
      </trkpt>
      <trkpt lat="44.7275" lon="3.81429">
        <ele>944</ele>
        <time>2023-05-08T10:35:33Z</time>
      </trkpt>
      <trkpt lat="44.72751" lon="3.81433">
        <ele>944</ele>
        <time>2023-05-08T10:35:34Z</time>
      </trkpt>
      <trkpt lat="44.72754" lon="3.81445">
        <ele>944</ele>
        <time>2023-05-08T10:35:36Z</time>
      </trkpt>
      <trkpt lat="44.72755" lon="3.81457">
        <ele>944</ele>
        <time>2023-05-08T10:35:38Z</time>
      </trkpt>
      <trkpt lat="44.72755" lon="3.81464">
        <ele>944</ele>
        <time>2023-05-08T10:35:39Z</time>
      </trkpt>
      <trkpt lat="44.72756" lon="3.8149">
        <ele>943.59997558594</ele>
        <time>2023-05-08T10:35:43Z</time>
      </trkpt>
      <trkpt lat="44.72759" lon="3.81504">
        <ele>943.59997558594</ele>
        <time>2023-05-08T10:35:45Z</time>
      </trkpt>
      <trkpt lat="44.72764" lon="3.81516">
        <ele>943.40002441406</ele>
        <time>2023-05-08T10:35:47Z</time>
      </trkpt>
      <trkpt lat="44.72775" lon="3.8153">
        <ele>943.20001220703</ele>
        <time>2023-05-08T10:35:50Z</time>
      </trkpt>
      <trkpt lat="44.72781" lon="3.8154">
        <ele>943.20001220703</ele>
        <time>2023-05-08T10:35:52Z</time>
      </trkpt>
      <trkpt lat="44.72783" lon="3.81561">
        <ele>943</ele>
        <time>2023-05-08T10:35:56Z</time>
      </trkpt>
      <trkpt lat="44.72779" lon="3.81595">
        <ele>942.59997558594</ele>
        <time>2023-05-08T10:36:03Z</time>
      </trkpt>
      <trkpt lat="44.72776" lon="3.81614">
        <ele>942</ele>
        <time>2023-05-08T10:36:07Z</time>
      </trkpt>
      <trkpt lat="44.72769" lon="3.81632">
        <ele>941</ele>
        <time>2023-05-08T10:36:11Z</time>
      </trkpt>
      <trkpt lat="44.72769" lon="3.81644">
        <ele>940.79998779297</ele>
        <time>2023-05-08T10:36:13Z</time>
      </trkpt>
      <trkpt lat="44.72767" lon="3.81656">
        <ele>940.79998779297</ele>
        <time>2023-05-08T10:36:15Z</time>
      </trkpt>
      <trkpt lat="44.72766" lon="3.81661">
        <ele>940.79998779297</ele>
        <time>2023-05-08T10:36:16Z</time>
      </trkpt>
      <trkpt lat="44.72758" lon="3.81674">
        <ele>940.59997558594</ele>
        <time>2023-05-08T10:36:19Z</time>
      </trkpt>
      <trkpt lat="44.72755" lon="3.81678">
        <ele>940.59997558594</ele>
        <time>2023-05-08T10:36:20Z</time>
      </trkpt>
      <trkpt lat="44.72749" lon="3.81687">
        <ele>940.59997558594</ele>
        <time>2023-05-08T10:36:22Z</time>
      </trkpt>
      <trkpt lat="44.72743" lon="3.81696">
        <ele>940.59997558594</ele>
        <time>2023-05-08T10:36:24Z</time>
      </trkpt>
      <trkpt lat="44.72736" lon="3.81704">
        <ele>940.59997558594</ele>
        <time>2023-05-08T10:36:26Z</time>
      </trkpt>
      <trkpt lat="44.72727" lon="3.8171">
        <ele>940.59997558594</ele>
        <time>2023-05-08T10:36:28Z</time>
      </trkpt>
      <trkpt lat="44.72723" lon="3.81712">
        <ele>940.59997558594</ele>
        <time>2023-05-08T10:36:29Z</time>
      </trkpt>
      <trkpt lat="44.72718" lon="3.81715">
        <ele>940.40002441406</ele>
        <time>2023-05-08T10:36:30Z</time>
      </trkpt>
      <trkpt lat="44.72705" lon="3.81721">
        <ele>940.20001220703</ele>
        <time>2023-05-08T10:36:33Z</time>
      </trkpt>
      <trkpt lat="44.72686" lon="3.81728">
        <ele>940</ele>
        <time>2023-05-08T10:36:38Z</time>
      </trkpt>
      <trkpt lat="44.72674" lon="3.81729">
        <ele>940.20001220703</ele>
        <time>2023-05-08T10:36:43Z</time>
      </trkpt>
      <trkpt lat="44.72661" lon="3.81723">
        <ele>940.79998779297</ele>
        <time>2023-05-08T10:36:49Z</time>
      </trkpt>
      <trkpt lat="44.72658" lon="3.8172">
        <ele>941</ele>
        <time>2023-05-08T10:36:51Z</time>
      </trkpt>
      <trkpt lat="44.72651" lon="3.81717">
        <ele>941.40002441406</ele>
        <time>2023-05-08T10:36:54Z</time>
      </trkpt>
      <trkpt lat="44.72645" lon="3.81712">
        <ele>941.59997558594</ele>
        <time>2023-05-08T10:36:57Z</time>
      </trkpt>
      <trkpt lat="44.72641" lon="3.81708">
        <ele>942</ele>
        <time>2023-05-08T10:36:59Z</time>
      </trkpt>
      <trkpt lat="44.72631" lon="3.81697">
        <ele>942.79998779297</ele>
        <time>2023-05-08T10:37:04Z</time>
      </trkpt>
      <trkpt lat="44.72614" lon="3.81686">
        <ele>943.40002441406</ele>
        <time>2023-05-08T10:37:10Z</time>
      </trkpt>
      <trkpt lat="44.72604" lon="3.8168">
        <ele>943.40002441406</ele>
        <time>2023-05-08T10:37:12Z</time>
      </trkpt>
      <trkpt lat="44.72599" lon="3.8168">
        <ele>943.40002441406</ele>
        <time>2023-05-08T10:37:13Z</time>
      </trkpt>
      <trkpt lat="44.72594" lon="3.81685">
        <ele>943.40002441406</ele>
        <time>2023-05-08T10:37:14Z</time>
      </trkpt>
      <trkpt lat="44.72591" lon="3.81693">
        <ele>943.40002441406</ele>
        <time>2023-05-08T10:37:15Z</time>
      </trkpt>
      <trkpt lat="44.72589" lon="3.81702">
        <ele>943.40002441406</ele>
        <time>2023-05-08T10:37:16Z</time>
      </trkpt>
      <trkpt lat="44.72588" lon="3.81722">
        <ele>943.40002441406</ele>
        <time>2023-05-08T10:37:18Z</time>
      </trkpt>
      <trkpt lat="44.72588" lon="3.81731">
        <ele>943.40002441406</ele>
        <time>2023-05-08T10:37:19Z</time>
      </trkpt>
      <trkpt lat="44.7259" lon="3.81748">
        <ele>943.40002441406</ele>
        <time>2023-05-08T10:37:21Z</time>
      </trkpt>
      <trkpt lat="44.72591" lon="3.81755">
        <ele>943.40002441406</ele>
        <time>2023-05-08T10:37:22Z</time>
      </trkpt>
      <trkpt lat="44.72593" lon="3.81769">
        <ele>943.20001220703</ele>
        <time>2023-05-08T10:37:24Z</time>
      </trkpt>
      <trkpt lat="44.72599" lon="3.81789">
        <ele>943</ele>
        <time>2023-05-08T10:37:27Z</time>
      </trkpt>
      <trkpt lat="44.72608" lon="3.81812">
        <ele>942.79998779297</ele>
        <time>2023-05-08T10:37:30Z</time>
      </trkpt>
      <trkpt lat="44.72612" lon="3.81826">
        <ele>942.59997558594</ele>
        <time>2023-05-08T10:37:32Z</time>
      </trkpt>
      <trkpt lat="44.72613" lon="3.81849">
        <ele>943</ele>
        <time>2023-05-08T10:37:36Z</time>
      </trkpt>
      <trkpt lat="44.72607" lon="3.81868">
        <ele>943.20001220703</ele>
        <time>2023-05-08T10:37:39Z</time>
      </trkpt>
      <trkpt lat="44.72603" lon="3.81873">
        <ele>943.20001220703</ele>
        <time>2023-05-08T10:37:40Z</time>
      </trkpt>
      <trkpt lat="44.72593" lon="3.81881">
        <ele>943.20001220703</ele>
        <time>2023-05-08T10:37:42Z</time>
      </trkpt>
      <trkpt lat="44.72573" lon="3.81895">
        <ele>943.40002441406</ele>
        <time>2023-05-08T10:37:46Z</time>
      </trkpt>
      <trkpt lat="44.72538" lon="3.81922">
        <ele>943.20001220703</ele>
        <time>2023-05-08T10:37:53Z</time>
      </trkpt>
      <trkpt lat="44.72535" lon="3.81939">
        <ele>943.20001220703</ele>
        <time>2023-05-08T10:37:56Z</time>
      </trkpt>
      <trkpt lat="44.72542" lon="3.81948">
        <ele>943</ele>
        <time>2023-05-08T10:37:59Z</time>
      </trkpt>
      <trkpt lat="44.72556" lon="3.81954">
        <ele>943.20001220703</ele>
        <time>2023-05-08T10:38:03Z</time>
      </trkpt>
      <trkpt lat="44.7256" lon="3.81956">
        <ele>943</ele>
        <time>2023-05-08T10:38:04Z</time>
      </trkpt>
      <trkpt lat="44.72572" lon="3.81957">
        <ele>943.20001220703</ele>
        <time>2023-05-08T10:38:07Z</time>
      </trkpt>
      <trkpt lat="44.72581" lon="3.81956">
        <ele>943.20001220703</ele>
        <time>2023-05-08T10:38:09Z</time>
      </trkpt>
      <trkpt lat="44.72591" lon="3.81955">
        <ele>943</ele>
        <time>2023-05-08T10:38:11Z</time>
      </trkpt>
      <trkpt lat="44.72601" lon="3.81956">
        <ele>943</ele>
        <time>2023-05-08T10:38:13Z</time>
      </trkpt>
      <trkpt lat="44.72606" lon="3.81956">
        <ele>942.79998779297</ele>
        <time>2023-05-08T10:38:14Z</time>
      </trkpt>
      <trkpt lat="44.72614" lon="3.81953">
        <ele>942.59997558594</ele>
        <time>2023-05-08T10:38:16Z</time>
      </trkpt>
      <trkpt lat="44.72635" lon="3.81949">
        <ele>942.40002441406</ele>
        <time>2023-05-08T10:38:20Z</time>
      </trkpt>
      <trkpt lat="44.7264" lon="3.8195">
        <ele>942.20001220703</ele>
        <time>2023-05-08T10:38:21Z</time>
      </trkpt>
      <trkpt lat="44.72646" lon="3.8195">
        <ele>942.20001220703</ele>
        <time>2023-05-08T10:38:22Z</time>
      </trkpt>
      <trkpt lat="44.72655" lon="3.81954">
        <ele>942</ele>
        <time>2023-05-08T10:38:24Z</time>
      </trkpt>
      <trkpt lat="44.72659" lon="3.81956">
        <ele>942</ele>
        <time>2023-05-08T10:38:25Z</time>
      </trkpt>
      <trkpt lat="44.72667" lon="3.81959">
        <ele>942</ele>
        <time>2023-05-08T10:38:27Z</time>
      </trkpt>
      <trkpt lat="44.72679" lon="3.81965">
        <ele>942</ele>
        <time>2023-05-08T10:38:30Z</time>
      </trkpt>
      <trkpt lat="44.72683" lon="3.81966">
        <ele>942</ele>
        <time>2023-05-08T10:38:31Z</time>
      </trkpt>
      <trkpt lat="44.72692" lon="3.8197">
        <ele>942</ele>
        <time>2023-05-08T10:38:33Z</time>
      </trkpt>
      <trkpt lat="44.72702" lon="3.81979">
        <ele>942.20001220703</ele>
        <time>2023-05-08T10:38:36Z</time>
      </trkpt>
      <trkpt lat="44.72712" lon="3.81995">
        <ele>942.20001220703</ele>
        <time>2023-05-08T10:38:40Z</time>
      </trkpt>
      <trkpt lat="44.72714" lon="3.82005">
        <ele>942.20001220703</ele>
        <time>2023-05-08T10:38:42Z</time>
      </trkpt>
      <trkpt lat="44.72714" lon="3.8201">
        <ele>942.20001220703</ele>
        <time>2023-05-08T10:38:43Z</time>
      </trkpt>
      <trkpt lat="44.72709" lon="3.82036">
        <ele>942.20001220703</ele>
        <time>2023-05-08T10:38:48Z</time>
      </trkpt>
      <trkpt lat="44.72708" lon="3.82042">
        <ele>942</ele>
        <time>2023-05-08T10:38:49Z</time>
      </trkpt>
      <trkpt lat="44.72707" lon="3.82049">
        <ele>942</ele>
        <time>2023-05-08T10:38:50Z</time>
      </trkpt>
      <trkpt lat="44.72702" lon="3.82063">
        <ele>941.79998779297</ele>
        <time>2023-05-08T10:38:52Z</time>
      </trkpt>
      <trkpt lat="44.72699" lon="3.82069">
        <ele>941.59997558594</ele>
        <time>2023-05-08T10:38:53Z</time>
      </trkpt>
      <trkpt lat="44.72692" lon="3.82085">
        <ele>941.40002441406</ele>
        <time>2023-05-08T10:38:56Z</time>
      </trkpt>
      <trkpt lat="44.72688" lon="3.82098">
        <ele>941.20001220703</ele>
        <time>2023-05-08T10:38:58Z</time>
      </trkpt>
      <trkpt lat="44.72685" lon="3.82112">
        <ele>941</ele>
        <time>2023-05-08T10:39:00Z</time>
      </trkpt>
      <trkpt lat="44.72668" lon="3.82144">
        <ele>941</ele>
        <time>2023-05-08T10:39:05Z</time>
      </trkpt>
      <trkpt lat="44.72653" lon="3.82165">
        <ele>940.79998779297</ele>
        <time>2023-05-08T10:39:09Z</time>
      </trkpt>
      <trkpt lat="44.7265" lon="3.82188">
        <ele>940.40002441406</ele>
        <time>2023-05-08T10:39:12Z</time>
      </trkpt>
      <trkpt lat="44.72646" lon="3.82204">
        <ele>940.40002441406</ele>
        <time>2023-05-08T10:39:14Z</time>
      </trkpt>
      <trkpt lat="44.72641" lon="3.82224">
        <ele>941</ele>
        <time>2023-05-08T10:39:17Z</time>
      </trkpt>
      <trkpt lat="44.7263" lon="3.82249">
        <ele>941</ele>
        <time>2023-05-08T10:39:21Z</time>
      </trkpt>
      <trkpt lat="44.72624" lon="3.8227">
        <ele>940.59997558594</ele>
        <time>2023-05-08T10:39:24Z</time>
      </trkpt>
      <trkpt lat="44.72623" lon="3.82285">
        <ele>940.20001220703</ele>
        <time>2023-05-08T10:39:26Z</time>
      </trkpt>
      <trkpt lat="44.72625" lon="3.82301">
        <ele>940</ele>
        <time>2023-05-08T10:39:28Z</time>
      </trkpt>
      <trkpt lat="44.72629" lon="3.82314">
        <ele>939.79998779297</ele>
        <time>2023-05-08T10:39:30Z</time>
      </trkpt>
      <trkpt lat="44.72633" lon="3.82323">
        <ele>939.40002441406</ele>
        <time>2023-05-08T10:39:32Z</time>
      </trkpt>
      <trkpt lat="44.72643" lon="3.82328">
        <ele>938.79998779297</ele>
        <time>2023-05-08T10:39:35Z</time>
      </trkpt>
      <trkpt lat="44.72658" lon="3.82335">
        <ele>938</ele>
        <time>2023-05-08T10:39:39Z</time>
      </trkpt>
      <trkpt lat="44.72662" lon="3.82337">
        <ele>937.79998779297</ele>
        <time>2023-05-08T10:39:40Z</time>
      </trkpt>
      <trkpt lat="44.72674" lon="3.82341">
        <ele>937.20001220703</ele>
        <time>2023-05-08T10:39:43Z</time>
      </trkpt>
      <trkpt lat="44.72687" lon="3.82346">
        <ele>936.79998779297</ele>
        <time>2023-05-08T10:39:46Z</time>
      </trkpt>
      <trkpt lat="44.7269" lon="3.82348">
        <ele>936.59997558594</ele>
        <time>2023-05-08T10:39:47Z</time>
      </trkpt>
      <trkpt lat="44.72698" lon="3.82351">
        <ele>936</ele>
        <time>2023-05-08T10:39:49Z</time>
      </trkpt>
      <trkpt lat="44.72711" lon="3.82359">
        <ele>935</ele>
        <time>2023-05-08T10:39:53Z</time>
      </trkpt>
      <trkpt lat="44.72723" lon="3.82364">
        <ele>934.20001220703</ele>
        <time>2023-05-08T10:39:56Z</time>
      </trkpt>
      <trkpt lat="44.72728" lon="3.82364">
        <ele>934</ele>
        <time>2023-05-08T10:39:57Z</time>
      </trkpt>
      <trkpt lat="44.72737" lon="3.82369">
        <ele>933.59997558594</ele>
        <time>2023-05-08T10:39:59Z</time>
      </trkpt>
      <trkpt lat="44.72741" lon="3.82373">
        <ele>933.40002441406</ele>
        <time>2023-05-08T10:40:00Z</time>
      </trkpt>
      <trkpt lat="44.72751" lon="3.8238">
        <ele>932.59997558594</ele>
        <time>2023-05-08T10:40:03Z</time>
      </trkpt>
      <trkpt lat="44.72754" lon="3.82385">
        <ele>932.40002441406</ele>
        <time>2023-05-08T10:40:04Z</time>
      </trkpt>
      <trkpt lat="44.72755" lon="3.8239">
        <ele>932.20001220703</ele>
        <time>2023-05-08T10:40:05Z</time>
      </trkpt>
      <trkpt lat="44.72757" lon="3.82399">
        <ele>931.59997558594</ele>
        <time>2023-05-08T10:40:07Z</time>
      </trkpt>
      <trkpt lat="44.72761" lon="3.82415">
        <ele>930.40002441406</ele>
        <time>2023-05-08T10:40:10Z</time>
      </trkpt>
      <trkpt lat="44.72763" lon="3.82435">
        <ele>929.40002441406</ele>
        <time>2023-05-08T10:40:14Z</time>
      </trkpt>
      <trkpt lat="44.72763" lon="3.82439">
        <ele>929.20001220703</ele>
        <time>2023-05-08T10:40:15Z</time>
      </trkpt>
      <trkpt lat="44.72767" lon="3.8245">
        <ele>931</ele>
        <time>2023-05-08T10:40:18Z</time>
      </trkpt>
      <trkpt lat="44.72761" lon="3.82459">
        <ele>932.40002441406</ele>
        <time>2023-05-08T10:40:21Z</time>
      </trkpt>
      <trkpt lat="44.72754" lon="3.82468">
        <ele>932.59997558594</ele>
        <time>2023-05-08T10:40:23Z</time>
      </trkpt>
      <trkpt lat="44.72746" lon="3.82476">
        <ele>932.59997558594</ele>
        <time>2023-05-08T10:40:25Z</time>
      </trkpt>
      <trkpt lat="44.72734" lon="3.82486">
        <ele>932.59997558594</ele>
        <time>2023-05-08T10:40:28Z</time>
      </trkpt>
      <trkpt lat="44.72731" lon="3.82491">
        <ele>932.79998779297</ele>
        <time>2023-05-08T10:40:29Z</time>
      </trkpt>
      <trkpt lat="44.72728" lon="3.82495">
        <ele>932.79998779297</ele>
        <time>2023-05-08T10:40:30Z</time>
      </trkpt>
      <trkpt lat="44.72721" lon="3.82502">
        <ele>932.79998779297</ele>
        <time>2023-05-08T10:40:32Z</time>
      </trkpt>
      <trkpt lat="44.72713" lon="3.82507">
        <ele>932.79998779297</ele>
        <time>2023-05-08T10:40:34Z</time>
      </trkpt>
      <trkpt lat="44.7271" lon="3.82511">
        <ele>933</ele>
        <time>2023-05-08T10:40:35Z</time>
      </trkpt>
      <trkpt lat="44.72701" lon="3.82519">
        <ele>933</ele>
        <time>2023-05-08T10:40:38Z</time>
      </trkpt>
      <trkpt lat="44.72692" lon="3.82523">
        <ele>933.20001220703</ele>
        <time>2023-05-08T10:40:40Z</time>
      </trkpt>
      <trkpt lat="44.72686" lon="3.82528">
        <ele>933.40002441406</ele>
        <time>2023-05-08T10:40:42Z</time>
      </trkpt>
      <trkpt lat="44.72675" lon="3.82538">
        <ele>934</ele>
        <time>2023-05-08T10:40:45Z</time>
      </trkpt>
      <trkpt lat="44.72668" lon="3.82547">
        <ele>934.40002441406</ele>
        <time>2023-05-08T10:40:47Z</time>
      </trkpt>
      <trkpt lat="44.72664" lon="3.82555">
        <ele>934.59997558594</ele>
        <time>2023-05-08T10:40:48Z</time>
      </trkpt>
      <trkpt lat="44.72657" lon="3.82569">
        <ele>935.20001220703</ele>
        <time>2023-05-08T10:40:50Z</time>
      </trkpt>
      <trkpt lat="44.72643" lon="3.82584">
        <ele>935.79998779297</ele>
        <time>2023-05-08T10:40:53Z</time>
      </trkpt>
      <trkpt lat="44.72634" lon="3.82593">
        <ele>936</ele>
        <time>2023-05-08T10:40:55Z</time>
      </trkpt>
      <trkpt lat="44.72625" lon="3.82602">
        <ele>936.20001220703</ele>
        <time>2023-05-08T10:40:57Z</time>
      </trkpt>
      <trkpt lat="44.72614" lon="3.82619">
        <ele>936.79998779297</ele>
        <time>2023-05-08T10:41:00Z</time>
      </trkpt>
      <trkpt lat="44.72606" lon="3.8263">
        <ele>937</ele>
        <time>2023-05-08T10:41:02Z</time>
      </trkpt>
      <trkpt lat="44.72594" lon="3.82642">
        <ele>937.59997558594</ele>
        <time>2023-05-08T10:41:05Z</time>
      </trkpt>
      <trkpt lat="44.72586" lon="3.82652">
        <ele>937.79998779297</ele>
        <time>2023-05-08T10:41:07Z</time>
      </trkpt>
      <trkpt lat="44.72576" lon="3.82669">
        <ele>938.20001220703</ele>
        <time>2023-05-08T10:41:10Z</time>
      </trkpt>
      <trkpt lat="44.72563" lon="3.8268">
        <ele>938.79998779297</ele>
        <time>2023-05-08T10:41:13Z</time>
      </trkpt>
      <trkpt lat="44.72527" lon="3.82702">
        <ele>940.20001220703</ele>
        <time>2023-05-08T10:41:21Z</time>
      </trkpt>
      <trkpt lat="44.72499" lon="3.82714">
        <ele>941</ele>
        <time>2023-05-08T10:41:27Z</time>
      </trkpt>
      <trkpt lat="44.72495" lon="3.82718">
        <ele>941.20001220703</ele>
        <time>2023-05-08T10:41:28Z</time>
      </trkpt>
      <trkpt lat="44.72493" lon="3.82724">
        <ele>941.20001220703</ele>
        <time>2023-05-08T10:41:29Z</time>
      </trkpt>
      <trkpt lat="44.72494" lon="3.82737">
        <ele>941.40002441406</ele>
        <time>2023-05-08T10:41:31Z</time>
      </trkpt>
      <trkpt lat="44.725" lon="3.82746">
        <ele>941.59997558594</ele>
        <time>2023-05-08T10:41:33Z</time>
      </trkpt>
      <trkpt lat="44.72504" lon="3.82748">
        <ele>941.79998779297</ele>
        <time>2023-05-08T10:41:34Z</time>
      </trkpt>
      <trkpt lat="44.72528" lon="3.82757">
        <ele>942.40002441406</ele>
        <time>2023-05-08T10:41:40Z</time>
      </trkpt>
      <trkpt lat="44.72544" lon="3.82761">
        <ele>942.79998779297</ele>
        <time>2023-05-08T10:41:44Z</time>
      </trkpt>
      <trkpt lat="44.72548" lon="3.82761">
        <ele>942.79998779297</ele>
        <time>2023-05-08T10:41:45Z</time>
      </trkpt>
      <trkpt lat="44.7258" lon="3.82755">
        <ele>943.59997558594</ele>
        <time>2023-05-08T10:41:53Z</time>
      </trkpt>
      <trkpt lat="44.7261" lon="3.82753">
        <ele>944.20001220703</ele>
        <time>2023-05-08T10:42:00Z</time>
      </trkpt>
      <trkpt lat="44.72651" lon="3.82748">
        <ele>944.79998779297</ele>
        <time>2023-05-08T10:42:09Z</time>
      </trkpt>
      <trkpt lat="44.72679" lon="3.82744">
        <ele>945.20001220703</ele>
        <time>2023-05-08T10:42:15Z</time>
      </trkpt>
      <trkpt lat="44.72696" lon="3.82742">
        <ele>945.40002441406</ele>
        <time>2023-05-08T10:42:19Z</time>
      </trkpt>
      <trkpt lat="44.72707" lon="3.82737">
        <ele>945.59997558594</ele>
        <time>2023-05-08T10:42:22Z</time>
      </trkpt>
      <trkpt lat="44.72732" lon="3.82725">
        <ele>945.79998779297</ele>
        <time>2023-05-08T10:42:28Z</time>
      </trkpt>
      <trkpt lat="44.72737" lon="3.82724">
        <ele>945.79998779297</ele>
        <time>2023-05-08T10:42:29Z</time>
      </trkpt>
      <trkpt lat="44.7276" lon="3.82719">
        <ele>946.40002441406</ele>
        <time>2023-05-08T10:42:35Z</time>
      </trkpt>
      <trkpt lat="44.72788" lon="3.82715">
        <ele>946.79998779297</ele>
        <time>2023-05-08T10:42:42Z</time>
      </trkpt>
      <trkpt lat="44.72815" lon="3.82707">
        <ele>947</ele>
        <time>2023-05-08T10:42:48Z</time>
      </trkpt>
      <trkpt lat="44.72838" lon="3.82702">
        <ele>947.20001220703</ele>
        <time>2023-05-08T10:42:54Z</time>
      </trkpt>
      <trkpt lat="44.72867" lon="3.827">
        <ele>947.79998779297</ele>
        <time>2023-05-08T10:43:02Z</time>
      </trkpt>
      <trkpt lat="44.72895" lon="3.82702">
        <ele>948.40002441406</ele>
        <time>2023-05-08T10:43:09Z</time>
      </trkpt>
      <trkpt lat="44.72925" lon="3.82696">
        <ele>948.79998779297</ele>
        <time>2023-05-08T10:43:16Z</time>
      </trkpt>
      <trkpt lat="44.72963" lon="3.82694">
        <ele>949</ele>
        <time>2023-05-08T10:43:24Z</time>
      </trkpt>
      <trkpt lat="44.72986" lon="3.82696">
        <ele>949.20001220703</ele>
        <time>2023-05-08T10:43:29Z</time>
      </trkpt>
      <trkpt lat="44.72994" lon="3.827">
        <ele>949.40002441406</ele>
        <time>2023-05-08T10:43:31Z</time>
      </trkpt>
      <trkpt lat="44.73007" lon="3.82708">
        <ele>949.40002441406</ele>
        <time>2023-05-08T10:43:34Z</time>
      </trkpt>
      <trkpt lat="44.73024" lon="3.82724">
        <ele>949.59997558594</ele>
        <time>2023-05-08T10:43:38Z</time>
      </trkpt>
      <trkpt lat="44.73032" lon="3.82735">
        <ele>949.59997558594</ele>
        <time>2023-05-08T10:43:40Z</time>
      </trkpt>
      <trkpt lat="44.73048" lon="3.82759">
        <ele>949.59997558594</ele>
        <time>2023-05-08T10:43:44Z</time>
      </trkpt>
      <trkpt lat="44.73057" lon="3.8277">
        <ele>949.59997558594</ele>
        <time>2023-05-08T10:43:46Z</time>
      </trkpt>
      <trkpt lat="44.73063" lon="3.82783">
        <ele>949.59997558594</ele>
        <time>2023-05-08T10:43:48Z</time>
      </trkpt>
      <trkpt lat="44.73065" lon="3.82791">
        <ele>949.59997558594</ele>
        <time>2023-05-08T10:43:49Z</time>
      </trkpt>
      <trkpt lat="44.73079" lon="3.82854">
        <ele>949.59997558594</ele>
        <time>2023-05-08T10:43:57Z</time>
      </trkpt>
      <trkpt lat="44.7308" lon="3.82871">
        <ele>949.59997558594</ele>
        <time>2023-05-08T10:43:59Z</time>
      </trkpt>
      <trkpt lat="44.73078" lon="3.82888">
        <ele>949.79998779297</ele>
        <time>2023-05-08T10:44:01Z</time>
      </trkpt>
      <trkpt lat="44.73075" lon="3.82904">
        <ele>949.79998779297</ele>
        <time>2023-05-08T10:44:03Z</time>
      </trkpt>
      <trkpt lat="44.73065" lon="3.82926">
        <ele>949.79998779297</ele>
        <time>2023-05-08T10:44:06Z</time>
      </trkpt>
      <trkpt lat="44.73053" lon="3.82947">
        <ele>949.79998779297</ele>
        <time>2023-05-08T10:44:09Z</time>
      </trkpt>
      <trkpt lat="44.73042" lon="3.82957">
        <ele>950</ele>
        <time>2023-05-08T10:44:11Z</time>
      </trkpt>
      <trkpt lat="44.73015" lon="3.82976">
        <ele>950</ele>
        <time>2023-05-08T10:44:16Z</time>
      </trkpt>
      <trkpt lat="44.72977" lon="3.82986">
        <ele>950</ele>
        <time>2023-05-08T10:44:22Z</time>
      </trkpt>
      <trkpt lat="44.72971" lon="3.82987">
        <ele>950</ele>
        <time>2023-05-08T10:44:23Z</time>
      </trkpt>
      <trkpt lat="44.72946" lon="3.82984">
        <ele>950</ele>
        <time>2023-05-08T10:44:27Z</time>
      </trkpt>
      <trkpt lat="44.72939" lon="3.82983">
        <ele>950</ele>
        <time>2023-05-08T10:44:28Z</time>
      </trkpt>
      <trkpt lat="44.72927" lon="3.82979">
        <ele>950</ele>
        <time>2023-05-08T10:44:30Z</time>
      </trkpt>
      <trkpt lat="44.72921" lon="3.82976">
        <ele>950.20001220703</ele>
        <time>2023-05-08T10:44:31Z</time>
      </trkpt>
      <trkpt lat="44.7291" lon="3.8297">
        <ele>950.20001220703</ele>
        <time>2023-05-08T10:44:33Z</time>
      </trkpt>
      <trkpt lat="44.729" lon="3.82977">
        <ele>950.20001220703</ele>
        <time>2023-05-08T10:44:35Z</time>
      </trkpt>
      <trkpt lat="44.72898" lon="3.82994">
        <ele>950</ele>
        <time>2023-05-08T10:44:37Z</time>
      </trkpt>
      <trkpt lat="44.72904" lon="3.83018">
        <ele>950.20001220703</ele>
        <time>2023-05-08T10:44:40Z</time>
      </trkpt>
      <trkpt lat="44.72907" lon="3.83043">
        <ele>950.20001220703</ele>
        <time>2023-05-08T10:44:43Z</time>
      </trkpt>
      <trkpt lat="44.72906" lon="3.8306">
        <ele>950.20001220703</ele>
        <time>2023-05-08T10:44:45Z</time>
      </trkpt>
      <trkpt lat="44.72905" lon="3.83091">
        <ele>950.40002441406</ele>
        <time>2023-05-08T10:44:49Z</time>
      </trkpt>
      <trkpt lat="44.72902" lon="3.83107">
        <ele>950.40002441406</ele>
        <time>2023-05-08T10:44:51Z</time>
      </trkpt>
      <trkpt lat="44.729" lon="3.83114">
        <ele>950.40002441406</ele>
        <time>2023-05-08T10:44:52Z</time>
      </trkpt>
      <trkpt lat="44.72896" lon="3.8312">
        <ele>950.40002441406</ele>
        <time>2023-05-08T10:44:53Z</time>
      </trkpt>
      <trkpt lat="44.72887" lon="3.83129">
        <ele>950.40002441406</ele>
        <time>2023-05-08T10:44:55Z</time>
      </trkpt>
      <trkpt lat="44.72853" lon="3.83166">
        <ele>950.59997558594</ele>
        <time>2023-05-08T10:45:03Z</time>
      </trkpt>
      <trkpt lat="44.72832" lon="3.83188">
        <ele>950.79998779297</ele>
        <time>2023-05-08T10:45:08Z</time>
      </trkpt>
      <trkpt lat="44.72827" lon="3.83191">
        <ele>951</ele>
        <time>2023-05-08T10:45:09Z</time>
      </trkpt>
      <trkpt lat="44.72819" lon="3.83195">
        <ele>951</ele>
        <time>2023-05-08T10:45:11Z</time>
      </trkpt>
      <trkpt lat="44.72818" lon="3.83198">
        <ele>951</ele>
        <time>2023-05-08T10:45:12Z</time>
      </trkpt>
      <trkpt lat="44.72821" lon="3.83221">
        <ele>951</ele>
        <time>2023-05-08T10:45:16Z</time>
      </trkpt>
      <trkpt lat="44.72829" lon="3.83264">
        <ele>951.20001220703</ele>
        <time>2023-05-08T10:45:21Z</time>
      </trkpt>
      <trkpt lat="44.72837" lon="3.83312">
        <ele>951.20001220703</ele>
        <time>2023-05-08T10:45:27Z</time>
      </trkpt>
      <trkpt lat="44.72838" lon="3.83321">
        <ele>951.20001220703</ele>
        <time>2023-05-08T10:45:28Z</time>
      </trkpt>
      <trkpt lat="44.7285" lon="3.83402">
        <ele>951.40002441406</ele>
        <time>2023-05-08T10:45:38Z</time>
      </trkpt>
      <trkpt lat="44.72862" lon="3.83474">
        <ele>951.40002441406</ele>
        <time>2023-05-08T10:45:47Z</time>
      </trkpt>
      <trkpt lat="44.72864" lon="3.83482">
        <ele>951.40002441406</ele>
        <time>2023-05-08T10:45:48Z</time>
      </trkpt>
      <trkpt lat="44.72871" lon="3.83521">
        <ele>951.40002441406</ele>
        <time>2023-05-08T10:45:53Z</time>
      </trkpt>
      <trkpt lat="44.72878" lon="3.83573">
        <ele>951.20001220703</ele>
        <time>2023-05-08T10:46:00Z</time>
      </trkpt>
      <trkpt lat="44.72873" lon="3.83579">
        <ele>951.20001220703</ele>
        <time>2023-05-08T10:46:02Z</time>
      </trkpt>
      <trkpt lat="44.72868" lon="3.83579">
        <ele>951.20001220703</ele>
        <time>2023-05-08T10:46:03Z</time>
      </trkpt>
      <trkpt lat="44.72859" lon="3.8358">
        <ele>951</ele>
        <time>2023-05-08T10:46:05Z</time>
      </trkpt>
      <trkpt lat="44.72855" lon="3.8358">
        <ele>951</ele>
        <time>2023-05-08T10:46:06Z</time>
      </trkpt>
      <trkpt lat="44.72826" lon="3.83587">
        <ele>951</ele>
        <time>2023-05-08T10:46:13Z</time>
      </trkpt>
      <trkpt lat="44.72796" lon="3.836">
        <ele>951</ele>
        <time>2023-05-08T10:46:20Z</time>
      </trkpt>
      <trkpt lat="44.72774" lon="3.83608">
        <ele>951</ele>
        <time>2023-05-08T10:46:25Z</time>
      </trkpt>
      <trkpt lat="44.72765" lon="3.83611">
        <ele>951</ele>
        <time>2023-05-08T10:46:27Z</time>
      </trkpt>
      <trkpt lat="44.72752" lon="3.83616">
        <ele>950.79998779297</ele>
        <time>2023-05-08T10:46:30Z</time>
      </trkpt>
      <trkpt lat="44.72745" lon="3.8362">
        <ele>951</ele>
        <time>2023-05-08T10:46:32Z</time>
      </trkpt>
      <trkpt lat="44.72736" lon="3.83624">
        <ele>950.79998779297</ele>
        <time>2023-05-08T10:46:35Z</time>
      </trkpt>
      <trkpt lat="44.72726" lon="3.83628">
        <ele>950.79998779297</ele>
        <time>2023-05-08T10:46:38Z</time>
      </trkpt>
      <trkpt lat="44.72714" lon="3.83637">
        <ele>950.59997558594</ele>
        <time>2023-05-08T10:46:42Z</time>
      </trkpt>
      <trkpt lat="44.72713" lon="3.83641">
        <ele>950.59997558594</ele>
        <time>2023-05-08T10:46:43Z</time>
      </trkpt>
      <trkpt lat="44.72713" lon="3.83643">
        <ele>950.79998779297</ele>
        <time>2023-05-08T10:46:44Z</time>
      </trkpt>
      <trkpt lat="44.72716" lon="3.83645">
        <ele>950.79998779297</ele>
        <time>2023-05-08T10:46:46Z</time>
      </trkpt>
      <trkpt lat="44.7272" lon="3.83646">
        <ele>950.79998779297</ele>
        <time>2023-05-08T10:46:48Z</time>
      </trkpt>
      <trkpt lat="44.72722" lon="3.8365">
        <ele>951</ele>
        <time>2023-05-08T10:46:50Z</time>
      </trkpt>
      <trkpt lat="44.72722" lon="3.83652">
        <ele>951</ele>
        <time>2023-05-08T10:46:51Z</time>
      </trkpt>
      <trkpt lat="44.72721" lon="3.83656">
        <ele>951</ele>
        <time>2023-05-08T10:46:54Z</time>
      </trkpt>
      <trkpt lat="44.72721" lon="3.83656">
        <ele>951</ele>
        <time>2023-05-08T10:46:55Z</time>
      </trkpt>
      <trkpt lat="44.72723" lon="3.83652">
        <ele>951</ele>
        <time>2023-05-08T10:46:57Z</time>
      </trkpt>
      <trkpt lat="44.72728" lon="3.83652">
        <ele>951</ele>
        <time>2023-05-08T10:47:00Z</time>
      </trkpt>
      <trkpt lat="44.72729" lon="3.83652">
        <ele>951</ele>
        <time>2023-05-08T10:47:02Z</time>
      </trkpt>
      <trkpt lat="44.72729" lon="3.83646">
        <ele>950.79998779297</ele>
        <time>2023-05-08T10:47:04Z</time>
      </trkpt>
      <trkpt lat="44.72732" lon="3.83641">
        <ele>950.79998779297</ele>
        <time>2023-05-08T10:47:06Z</time>
      </trkpt>
      <trkpt lat="44.72734" lon="3.8364">
        <ele>950.59997558594</ele>
        <time>2023-05-08T10:47:07Z</time>
      </trkpt>
      <trkpt lat="44.7274" lon="3.83639">
        <ele>950.40002441406</ele>
        <time>2023-05-08T10:47:11Z</time>
      </trkpt>
      <trkpt lat="44.72741" lon="3.83638">
        <ele>950.40002441406</ele>
        <time>2023-05-08T10:47:12Z</time>
      </trkpt>
      <trkpt lat="44.72747" lon="3.83639">
        <ele>950.59997558594</ele>
        <time>2023-05-08T10:47:16Z</time>
      </trkpt>
      <trkpt lat="44.7275" lon="3.83641">
        <ele>950.79998779297</ele>
        <time>2023-05-08T10:47:18Z</time>
      </trkpt>
      <trkpt lat="44.72749" lon="3.83643">
        <ele>951</ele>
        <time>2023-05-08T10:47:20Z</time>
      </trkpt>
      <trkpt lat="44.72745" lon="3.83644">
        <ele>951</ele>
        <time>2023-05-08T10:47:22Z</time>
      </trkpt>
      <trkpt lat="44.72744" lon="3.83646">
        <ele>951</ele>
        <time>2023-05-08T10:47:23Z</time>
      </trkpt>
      <trkpt lat="44.72748" lon="3.83651">
        <ele>951</ele>
        <time>2023-05-08T10:47:26Z</time>
      </trkpt>
      <trkpt lat="44.72753" lon="3.8365">
        <ele>951.20001220703</ele>
        <time>2023-05-08T10:47:29Z</time>
      </trkpt>
      <trkpt lat="44.72754" lon="3.83649">
        <ele>951.40002441406</ele>
        <time>2023-05-08T10:47:30Z</time>
      </trkpt>
      <trkpt lat="44.72764" lon="3.83645">
        <ele>951.59997558594</ele>
        <time>2023-05-08T10:47:35Z</time>
      </trkpt>
      <trkpt lat="44.72777" lon="3.83644">
        <ele>952</ele>
        <time>2023-05-08T10:47:41Z</time>
      </trkpt>
      <trkpt lat="44.72778" lon="3.83647">
        <ele>952</ele>
        <time>2023-05-08T10:47:42Z</time>
      </trkpt>
      <trkpt lat="44.72773" lon="3.83654">
        <ele>952.20001220703</ele>
        <time>2023-05-08T10:47:46Z</time>
      </trkpt>
      <trkpt lat="44.72765" lon="3.83664">
        <ele>952.59997558594</ele>
        <time>2023-05-08T10:47:53Z</time>
      </trkpt>
      <trkpt lat="44.72764" lon="3.83665">
        <ele>952.59997558594</ele>
        <time>2023-05-08T10:47:54Z</time>
      </trkpt>
      <trkpt lat="44.7276" lon="3.83673">
        <ele>952.79998779297</ele>
        <time>2023-05-08T10:48:00Z</time>
      </trkpt>
      <trkpt lat="44.72758" lon="3.83684">
        <ele>953.20001220703</ele>
        <time>2023-05-08T10:48:07Z</time>
      </trkpt>
      <trkpt lat="44.72758" lon="3.83685">
        <ele>953.20001220703</ele>
        <time>2023-05-08T10:48:08Z</time>
      </trkpt>
      <trkpt lat="44.72756" lon="3.83689">
        <ele>953.40002441406</ele>
        <time>2023-05-08T10:48:11Z</time>
      </trkpt>
      <trkpt lat="44.72751" lon="3.83697">
        <ele>954</ele>
        <time>2023-05-08T10:48:18Z</time>
      </trkpt>
      <trkpt lat="44.72746" lon="3.83705">
        <ele>954.79998779297</ele>
        <time>2023-05-08T10:48:25Z</time>
      </trkpt>
      <trkpt lat="44.72735" lon="3.83713">
        <ele>955.59997558594</ele>
        <time>2023-05-08T10:48:33Z</time>
      </trkpt>
      <trkpt lat="44.72718" lon="3.83721">
        <ele>956.59997558594</ele>
        <time>2023-05-08T10:48:42Z</time>
      </trkpt>
      <trkpt lat="44.727" lon="3.83728">
        <ele>957.59997558594</ele>
        <time>2023-05-08T10:48:51Z</time>
      </trkpt>
      <trkpt lat="44.72685" lon="3.83732">
        <ele>958.20001220703</ele>
        <time>2023-05-08T10:48:59Z</time>
      </trkpt>
      <trkpt lat="44.72667" lon="3.83741">
        <ele>958.59997558594</ele>
        <time>2023-05-08T10:49:06Z</time>
      </trkpt>
      <trkpt lat="44.72643" lon="3.8375">
        <ele>959</ele>
        <time>2023-05-08T10:49:13Z</time>
      </trkpt>
      <trkpt lat="44.72635" lon="3.83751">
        <ele>959</ele>
        <time>2023-05-08T10:49:15Z</time>
      </trkpt>
      <trkpt lat="44.72626" lon="3.83755">
        <ele>959</ele>
        <time>2023-05-08T10:49:17Z</time>
      </trkpt>
      <trkpt lat="44.72622" lon="3.83757">
        <ele>959</ele>
        <time>2023-05-08T10:49:18Z</time>
      </trkpt>
      <trkpt lat="44.72594" lon="3.83774">
        <ele>959.20001220703</ele>
        <time>2023-05-08T10:49:23Z</time>
      </trkpt>
      <trkpt lat="44.72576" lon="3.83788">
        <ele>959.20001220703</ele>
        <time>2023-05-08T10:49:26Z</time>
      </trkpt>
      <trkpt lat="44.72566" lon="3.83801">
        <ele>959.20001220703</ele>
        <time>2023-05-08T10:49:28Z</time>
      </trkpt>
      <trkpt lat="44.72561" lon="3.83806">
        <ele>959.20001220703</ele>
        <time>2023-05-08T10:49:29Z</time>
      </trkpt>
      <trkpt lat="44.72541" lon="3.83827">
        <ele>959.40002441406</ele>
        <time>2023-05-08T10:49:33Z</time>
      </trkpt>
      <trkpt lat="44.7252" lon="3.83859">
        <ele>959.40002441406</ele>
        <time>2023-05-08T10:49:38Z</time>
      </trkpt>
      <trkpt lat="44.72516" lon="3.83866">
        <ele>959.59997558594</ele>
        <time>2023-05-08T10:49:39Z</time>
      </trkpt>
      <trkpt lat="44.7251" lon="3.83882">
        <ele>959.59997558594</ele>
        <time>2023-05-08T10:49:41Z</time>
      </trkpt>
      <trkpt lat="44.72505" lon="3.83896">
        <ele>959.79998779297</ele>
        <time>2023-05-08T10:49:43Z</time>
      </trkpt>
      <trkpt lat="44.72489" lon="3.83926">
        <ele>960.40002441406</ele>
        <time>2023-05-08T10:49:48Z</time>
      </trkpt>
      <trkpt lat="44.72482" lon="3.83935">
        <ele>960.40002441406</ele>
        <time>2023-05-08T10:49:50Z</time>
      </trkpt>
      <trkpt lat="44.72478" lon="3.83945">
        <ele>960.59997558594</ele>
        <time>2023-05-08T10:49:52Z</time>
      </trkpt>
      <trkpt lat="44.72473" lon="3.83955">
        <ele>960.59997558594</ele>
        <time>2023-05-08T10:49:54Z</time>
      </trkpt>
      <trkpt lat="44.72464" lon="3.8397">
        <ele>960.79998779297</ele>
        <time>2023-05-08T10:49:57Z</time>
      </trkpt>
      <trkpt lat="44.72455" lon="3.83988">
        <ele>960.79998779297</ele>
        <time>2023-05-08T10:50:00Z</time>
      </trkpt>
      <trkpt lat="44.7245" lon="3.84003">
        <ele>960.79998779297</ele>
        <time>2023-05-08T10:50:02Z</time>
      </trkpt>
      <trkpt lat="44.72448" lon="3.84029">
        <ele>961</ele>
        <time>2023-05-08T10:50:05Z</time>
      </trkpt>
      <trkpt lat="44.72453" lon="3.84069">
        <ele>960.79998779297</ele>
        <time>2023-05-08T10:50:09Z</time>
      </trkpt>
      <trkpt lat="44.72454" lon="3.8411">
        <ele>961</ele>
        <time>2023-05-08T10:50:13Z</time>
      </trkpt>
      <trkpt lat="44.72452" lon="3.84121">
        <ele>961</ele>
        <time>2023-05-08T10:50:14Z</time>
      </trkpt>
      <trkpt lat="44.72453" lon="3.84178">
        <ele>960.79998779297</ele>
        <time>2023-05-08T10:50:19Z</time>
      </trkpt>
      <trkpt lat="44.72466" lon="3.84234">
        <ele>960.79998779297</ele>
        <time>2023-05-08T10:50:24Z</time>
      </trkpt>
      <trkpt lat="44.72481" lon="3.84316">
        <ele>961</ele>
        <time>2023-05-08T10:50:31Z</time>
      </trkpt>
      <trkpt lat="44.72485" lon="3.84339">
        <ele>961</ele>
        <time>2023-05-08T10:50:33Z</time>
      </trkpt>
      <trkpt lat="44.72492" lon="3.84419">
        <ele>961.20001220703</ele>
        <time>2023-05-08T10:50:40Z</time>
      </trkpt>
      <trkpt lat="44.72487" lon="3.84495">
        <ele>961.79998779297</ele>
        <time>2023-05-08T10:50:47Z</time>
      </trkpt>
      <trkpt lat="44.72482" lon="3.84537">
        <ele>962</ele>
        <time>2023-05-08T10:50:51Z</time>
      </trkpt>
      <trkpt lat="44.72478" lon="3.84558">
        <ele>962.20001220703</ele>
        <time>2023-05-08T10:50:53Z</time>
      </trkpt>
      <trkpt lat="44.72469" lon="3.84617">
        <ele>963</ele>
        <time>2023-05-08T10:50:59Z</time>
      </trkpt>
      <trkpt lat="44.72468" lon="3.84634">
        <ele>963.40002441406</ele>
        <time>2023-05-08T10:51:01Z</time>
      </trkpt>
      <trkpt lat="44.72471" lon="3.8466">
        <ele>963.79998779297</ele>
        <time>2023-05-08T10:51:04Z</time>
      </trkpt>
      <trkpt lat="44.72483" lon="3.84712">
        <ele>963.59997558594</ele>
        <time>2023-05-08T10:51:09Z</time>
      </trkpt>
      <trkpt lat="44.72485" lon="3.84725">
        <ele>963.40002441406</ele>
        <time>2023-05-08T10:51:10Z</time>
      </trkpt>
      <trkpt lat="44.72486" lon="3.84754">
        <ele>963.20001220703</ele>
        <time>2023-05-08T10:51:12Z</time>
      </trkpt>
      <trkpt lat="44.72488" lon="3.84793">
        <ele>962.59997558594</ele>
        <time>2023-05-08T10:51:15Z</time>
      </trkpt>
      <trkpt lat="44.72492" lon="3.84804">
        <ele>962.40002441406</ele>
        <time>2023-05-08T10:51:16Z</time>
      </trkpt>
      <trkpt lat="44.72499" lon="3.84812">
        <ele>962.20001220703</ele>
        <time>2023-05-08T10:51:17Z</time>
      </trkpt>
      <trkpt lat="44.72507" lon="3.84819">
        <ele>961.79998779297</ele>
        <time>2023-05-08T10:51:18Z</time>
      </trkpt>
      <trkpt lat="44.72547" lon="3.84844">
        <ele>960.79998779297</ele>
        <time>2023-05-08T10:51:22Z</time>
      </trkpt>
      <trkpt lat="44.72566" lon="3.84863">
        <ele>960.20001220703</ele>
        <time>2023-05-08T10:51:24Z</time>
      </trkpt>
      <trkpt lat="44.72574" lon="3.84875">
        <ele>959.79998779297</ele>
        <time>2023-05-08T10:51:25Z</time>
      </trkpt>
      <trkpt lat="44.72608" lon="3.84943">
        <ele>958.59997558594</ele>
        <time>2023-05-08T10:51:30Z</time>
      </trkpt>
      <trkpt lat="44.72614" lon="3.84956">
        <ele>958.40002441406</ele>
        <time>2023-05-08T10:51:31Z</time>
      </trkpt>
      <trkpt lat="44.72627" lon="3.84978">
        <ele>958</ele>
        <time>2023-05-08T10:51:33Z</time>
      </trkpt>
      <trkpt lat="44.72639" lon="3.85001">
        <ele>957.59997558594</ele>
        <time>2023-05-08T10:51:35Z</time>
      </trkpt>
      <trkpt lat="44.72642" lon="3.85013">
        <ele>957.59997558594</ele>
        <time>2023-05-08T10:51:36Z</time>
      </trkpt>
      <trkpt lat="44.72644" lon="3.85025">
        <ele>957.40002441406</ele>
        <time>2023-05-08T10:51:37Z</time>
      </trkpt>
      <trkpt lat="44.72642" lon="3.85049">
        <ele>957.20001220703</ele>
        <time>2023-05-08T10:51:39Z</time>
      </trkpt>
      <trkpt lat="44.72629" lon="3.85102">
        <ele>956.59997558594</ele>
        <time>2023-05-08T10:51:44Z</time>
      </trkpt>
      <trkpt lat="44.72621" lon="3.85162">
        <ele>955.59997558594</ele>
        <time>2023-05-08T10:51:50Z</time>
      </trkpt>
      <trkpt lat="44.72622" lon="3.85199">
        <ele>954.79998779297</ele>
        <time>2023-05-08T10:51:53Z</time>
      </trkpt>
      <trkpt lat="44.72624" lon="3.85213">
        <ele>954.59997558594</ele>
        <time>2023-05-08T10:51:54Z</time>
      </trkpt>
      <trkpt lat="44.72627" lon="3.85241">
        <ele>953.59997558594</ele>
        <time>2023-05-08T10:51:56Z</time>
      </trkpt>
      <trkpt lat="44.72628" lon="3.85255">
        <ele>953.20001220703</ele>
        <time>2023-05-08T10:51:57Z</time>
      </trkpt>
      <trkpt lat="44.72629" lon="3.85269">
        <ele>953</ele>
        <time>2023-05-08T10:51:58Z</time>
      </trkpt>
      <trkpt lat="44.72634" lon="3.85296">
        <ele>952.20001220703</ele>
        <time>2023-05-08T10:52:00Z</time>
      </trkpt>
      <trkpt lat="44.72647" lon="3.85345">
        <ele>950.40002441406</ele>
        <time>2023-05-08T10:52:04Z</time>
      </trkpt>
      <trkpt lat="44.72644" lon="3.85382">
        <ele>949</ele>
        <time>2023-05-08T10:52:07Z</time>
      </trkpt>
      <trkpt lat="44.72635" lon="3.85434">
        <ele>946.40002441406</ele>
        <time>2023-05-08T10:52:11Z</time>
      </trkpt>
      <trkpt lat="44.72631" lon="3.85454">
        <ele>944.79998779297</ele>
        <time>2023-05-08T10:52:13Z</time>
      </trkpt>
      <trkpt lat="44.72629" lon="3.85462">
        <ele>944</ele>
        <time>2023-05-08T10:52:14Z</time>
      </trkpt>
      <trkpt lat="44.72626" lon="3.85476">
        <ele>942.20001220703</ele>
        <time>2023-05-08T10:52:16Z</time>
      </trkpt>
      <trkpt lat="44.72624" lon="3.85483">
        <ele>941.40002441406</ele>
        <time>2023-05-08T10:52:17Z</time>
      </trkpt>
      <trkpt lat="44.72612" lon="3.855">
        <ele>938.79998779297</ele>
        <time>2023-05-08T10:52:20Z</time>
      </trkpt>
      <trkpt lat="44.7261" lon="3.85508">
        <ele>938</ele>
        <time>2023-05-08T10:52:21Z</time>
      </trkpt>
      <trkpt lat="44.72609" lon="3.85515">
        <ele>937</ele>
        <time>2023-05-08T10:52:22Z</time>
      </trkpt>
      <trkpt lat="44.72609" lon="3.85532">
        <ele>935</ele>
        <time>2023-05-08T10:52:24Z</time>
      </trkpt>
      <trkpt lat="44.72611" lon="3.85541">
        <ele>934.20001220703</ele>
        <time>2023-05-08T10:52:25Z</time>
      </trkpt>
      <trkpt lat="44.72615" lon="3.85551">
        <ele>933.79998779297</ele>
        <time>2023-05-08T10:52:26Z</time>
      </trkpt>
      <trkpt lat="44.72625" lon="3.85568">
        <ele>933</ele>
        <time>2023-05-08T10:52:28Z</time>
      </trkpt>
      <trkpt lat="44.7263" lon="3.85576">
        <ele>932.40002441406</ele>
        <time>2023-05-08T10:52:29Z</time>
      </trkpt>
      <trkpt lat="44.72655" lon="3.85601">
        <ele>930.59997558594</ele>
        <time>2023-05-08T10:52:33Z</time>
      </trkpt>
      <trkpt lat="44.72669" lon="3.85608">
        <ele>929.79998779297</ele>
        <time>2023-05-08T10:52:35Z</time>
      </trkpt>
      <trkpt lat="44.72677" lon="3.85611">
        <ele>929.59997558594</ele>
        <time>2023-05-08T10:52:36Z</time>
      </trkpt>
      <trkpt lat="44.72731" lon="3.85627">
        <ele>928.59997558594</ele>
        <time>2023-05-08T10:52:43Z</time>
      </trkpt>
      <trkpt lat="44.72784" lon="3.85638">
        <ele>927.40002441406</ele>
        <time>2023-05-08T10:52:50Z</time>
      </trkpt>
      <trkpt lat="44.72825" lon="3.85647">
        <ele>926.20001220703</ele>
        <time>2023-05-08T10:52:55Z</time>
      </trkpt>
      <trkpt lat="44.72872" lon="3.85656">
        <ele>925.20001220703</ele>
        <time>2023-05-08T10:53:01Z</time>
      </trkpt>
      <trkpt lat="44.72918" lon="3.85666">
        <ele>924.59997558594</ele>
        <time>2023-05-08T10:53:07Z</time>
      </trkpt>
      <trkpt lat="44.72968" lon="3.85675">
        <ele>924.20001220703</ele>
        <time>2023-05-08T10:53:14Z</time>
      </trkpt>
      <trkpt lat="44.7301" lon="3.85686">
        <ele>923.40002441406</ele>
        <time>2023-05-08T10:53:20Z</time>
      </trkpt>
      <trkpt lat="44.73017" lon="3.85688">
        <ele>923.40002441406</ele>
        <time>2023-05-08T10:53:21Z</time>
      </trkpt>
      <trkpt lat="44.73035" lon="3.85701">
        <ele>923</ele>
        <time>2023-05-08T10:53:24Z</time>
      </trkpt>
      <trkpt lat="44.73047" lon="3.85713">
        <ele>922.79998779297</ele>
        <time>2023-05-08T10:53:26Z</time>
      </trkpt>
      <trkpt lat="44.73081" lon="3.85753">
        <ele>922</ele>
        <time>2023-05-08T10:53:32Z</time>
      </trkpt>
      <trkpt lat="44.73112" lon="3.85791">
        <ele>921.79998779297</ele>
        <time>2023-05-08T10:53:38Z</time>
      </trkpt>
      <trkpt lat="44.73151" lon="3.85822">
        <ele>921.40002441406</ele>
        <time>2023-05-08T10:53:45Z</time>
      </trkpt>
      <trkpt lat="44.73185" lon="3.8584">
        <ele>920.79998779297</ele>
        <time>2023-05-08T10:53:51Z</time>
      </trkpt>
      <trkpt lat="44.73215" lon="3.85844">
        <ele>920.40002441406</ele>
        <time>2023-05-08T10:53:56Z</time>
      </trkpt>
      <trkpt lat="44.73233" lon="3.85844">
        <ele>920</ele>
        <time>2023-05-08T10:53:59Z</time>
      </trkpt>
      <trkpt lat="44.73239" lon="3.85843">
        <ele>920</ele>
        <time>2023-05-08T10:54:00Z</time>
      </trkpt>
      <trkpt lat="44.73252" lon="3.85841">
        <ele>919.59997558594</ele>
        <time>2023-05-08T10:54:02Z</time>
      </trkpt>
      <trkpt lat="44.7327" lon="3.85832">
        <ele>919.59997558594</ele>
        <time>2023-05-08T10:54:05Z</time>
      </trkpt>
      <trkpt lat="44.73299" lon="3.85813">
        <ele>919.59997558594</ele>
        <time>2023-05-08T10:54:10Z</time>
      </trkpt>
      <trkpt lat="44.73319" lon="3.85792">
        <ele>919.40002441406</ele>
        <time>2023-05-08T10:54:14Z</time>
      </trkpt>
      <trkpt lat="44.73323" lon="3.85786">
        <ele>919.59997558594</ele>
        <time>2023-05-08T10:54:15Z</time>
      </trkpt>
      <trkpt lat="44.73328" lon="3.85779">
        <ele>919.40002441406</ele>
        <time>2023-05-08T10:54:16Z</time>
      </trkpt>
      <trkpt lat="44.73352" lon="3.85745">
        <ele>919</ele>
        <time>2023-05-08T10:54:21Z</time>
      </trkpt>
      <trkpt lat="44.73357" lon="3.85739">
        <ele>919</ele>
        <time>2023-05-08T10:54:22Z</time>
      </trkpt>
      <trkpt lat="44.73373" lon="3.85724">
        <ele>919</ele>
        <time>2023-05-08T10:54:25Z</time>
      </trkpt>
      <trkpt lat="44.7338" lon="3.85719">
        <ele>919</ele>
        <time>2023-05-08T10:54:26Z</time>
      </trkpt>
      <trkpt lat="44.73405" lon="3.85712">
        <ele>918.79998779297</ele>
        <time>2023-05-08T10:54:30Z</time>
      </trkpt>
      <trkpt lat="44.73437" lon="3.85715">
        <ele>918.40002441406</ele>
        <time>2023-05-08T10:54:35Z</time>
      </trkpt>
      <trkpt lat="44.73443" lon="3.85717">
        <ele>918.20001220703</ele>
        <time>2023-05-08T10:54:36Z</time>
      </trkpt>
      <trkpt lat="44.73455" lon="3.85725">
        <ele>918</ele>
        <time>2023-05-08T10:54:38Z</time>
      </trkpt>
      <trkpt lat="44.7346" lon="3.8573">
        <ele>918</ele>
        <time>2023-05-08T10:54:39Z</time>
      </trkpt>
      <trkpt lat="44.73473" lon="3.8575">
        <ele>917.79998779297</ele>
        <time>2023-05-08T10:54:42Z</time>
      </trkpt>
      <trkpt lat="44.73481" lon="3.85765">
        <ele>917.59997558594</ele>
        <time>2023-05-08T10:54:44Z</time>
      </trkpt>
      <trkpt lat="44.73504" lon="3.85814">
        <ele>917.59997558594</ele>
        <time>2023-05-08T10:54:51Z</time>
      </trkpt>
      <trkpt lat="44.73512" lon="3.85831">
        <ele>917.40002441406</ele>
        <time>2023-05-08T10:54:54Z</time>
      </trkpt>
      <trkpt lat="44.73516" lon="3.85842">
        <ele>917.40002441406</ele>
        <time>2023-05-08T10:54:56Z</time>
      </trkpt>
      <trkpt lat="44.73518" lon="3.85849">
        <ele>917.20001220703</ele>
        <time>2023-05-08T10:54:58Z</time>
      </trkpt>
      <trkpt lat="44.73521" lon="3.85852">
        <ele>917</ele>
        <time>2023-05-08T10:55:00Z</time>
      </trkpt>
      <trkpt lat="44.73523" lon="3.85846">
        <ele>917</ele>
        <time>2023-05-08T10:55:02Z</time>
      </trkpt>
      <trkpt lat="44.73523" lon="3.85842">
        <ele>917</ele>
        <time>2023-05-08T10:55:03Z</time>
      </trkpt>
      <trkpt lat="44.73513" lon="3.85826">
        <ele>916.59997558594</ele>
        <time>2023-05-08T10:55:07Z</time>
      </trkpt>
      <trkpt lat="44.73497" lon="3.85791">
        <ele>916</ele>
        <time>2023-05-08T10:55:13Z</time>
      </trkpt>
      <trkpt lat="44.73473" lon="3.85741">
        <ele>915.59997558594</ele>
        <time>2023-05-08T10:55:21Z</time>
      </trkpt>
      <trkpt lat="44.73469" lon="3.85735">
        <ele>915.59997558594</ele>
        <time>2023-05-08T10:55:22Z</time>
      </trkpt>
      <trkpt lat="44.73456" lon="3.85719">
        <ele>915.40002441406</ele>
        <time>2023-05-08T10:55:25Z</time>
      </trkpt>
      <trkpt lat="44.73451" lon="3.85715">
        <ele>915.20001220703</ele>
        <time>2023-05-08T10:55:26Z</time>
      </trkpt>
      <trkpt lat="44.73446" lon="3.85712">
        <ele>915.20001220703</ele>
        <time>2023-05-08T10:55:27Z</time>
      </trkpt>
      <trkpt lat="44.73435" lon="3.85707">
        <ele>915</ele>
        <time>2023-05-08T10:55:29Z</time>
      </trkpt>
      <trkpt lat="44.73423" lon="3.85704">
        <ele>914.79998779297</ele>
        <time>2023-05-08T10:55:31Z</time>
      </trkpt>
      <trkpt lat="44.73406" lon="3.85706">
        <ele>914.59997558594</ele>
        <time>2023-05-08T10:55:34Z</time>
      </trkpt>
      <trkpt lat="44.73394" lon="3.8571">
        <ele>914.40002441406</ele>
        <time>2023-05-08T10:55:36Z</time>
      </trkpt>
      <trkpt lat="44.73365" lon="3.85728">
        <ele>914.20001220703</ele>
        <time>2023-05-08T10:55:41Z</time>
      </trkpt>
      <trkpt lat="44.7334" lon="3.85756">
        <ele>914.20001220703</ele>
        <time>2023-05-08T10:55:46Z</time>
      </trkpt>
      <trkpt lat="44.73307" lon="3.85802">
        <ele>914</ele>
        <time>2023-05-08T10:55:53Z</time>
      </trkpt>
      <trkpt lat="44.73301" lon="3.85808">
        <ele>914</ele>
        <time>2023-05-08T10:55:54Z</time>
      </trkpt>
      <trkpt lat="44.73277" lon="3.85825">
        <ele>914</ele>
        <time>2023-05-08T10:55:58Z</time>
      </trkpt>
      <trkpt lat="44.73257" lon="3.85834">
        <ele>913.79998779297</ele>
        <time>2023-05-08T10:56:01Z</time>
      </trkpt>
      <trkpt lat="44.73243" lon="3.85837">
        <ele>913.59997558594</ele>
        <time>2023-05-08T10:56:03Z</time>
      </trkpt>
      <trkpt lat="44.73214" lon="3.85839">
        <ele>913.40002441406</ele>
        <time>2023-05-08T10:56:07Z</time>
      </trkpt>
      <trkpt lat="44.73206" lon="3.85837">
        <ele>913.20001220703</ele>
        <time>2023-05-08T10:56:08Z</time>
      </trkpt>
      <trkpt lat="44.73162" lon="3.85823">
        <ele>913.20001220703</ele>
        <time>2023-05-08T10:56:15Z</time>
      </trkpt>
      <trkpt lat="44.73143" lon="3.85809">
        <ele>913.20001220703</ele>
        <time>2023-05-08T10:56:19Z</time>
      </trkpt>
      <trkpt lat="44.73117" lon="3.85785">
        <ele>913</ele>
        <time>2023-05-08T10:56:26Z</time>
      </trkpt>
      <trkpt lat="44.73089" lon="3.8575">
        <ele>913</ele>
        <time>2023-05-08T10:56:33Z</time>
      </trkpt>
      <trkpt lat="44.73062" lon="3.85709">
        <ele>913</ele>
        <time>2023-05-08T10:56:40Z</time>
      </trkpt>
      <trkpt lat="44.73058" lon="3.85704">
        <ele>913</ele>
        <time>2023-05-08T10:56:41Z</time>
      </trkpt>
      <trkpt lat="44.73028" lon="3.8568">
        <ele>912.40002441406</ele>
        <time>2023-05-08T10:56:47Z</time>
      </trkpt>
      <trkpt lat="44.72997" lon="3.8567">
        <ele>911.79998779297</ele>
        <time>2023-05-08T10:56:53Z</time>
      </trkpt>
      <trkpt lat="44.72956" lon="3.85664">
        <ele>911.20001220703</ele>
        <time>2023-05-08T10:57:01Z</time>
      </trkpt>
      <trkpt lat="44.72935" lon="3.85661">
        <ele>910.79998779297</ele>
        <time>2023-05-08T10:57:05Z</time>
      </trkpt>
      <trkpt lat="44.72901" lon="3.85653">
        <ele>910</ele>
        <time>2023-05-08T10:57:11Z</time>
      </trkpt>
      <trkpt lat="44.72872" lon="3.85648">
        <ele>909.40002441406</ele>
        <time>2023-05-08T10:57:17Z</time>
      </trkpt>
      <trkpt lat="44.72862" lon="3.85646">
        <ele>909.20001220703</ele>
        <time>2023-05-08T10:57:19Z</time>
      </trkpt>
      <trkpt lat="44.72839" lon="3.8564">
        <ele>908.79998779297</ele>
        <time>2023-05-08T10:57:23Z</time>
      </trkpt>
      <trkpt lat="44.72806" lon="3.85634">
        <ele>908.59997558594</ele>
        <time>2023-05-08T10:57:29Z</time>
      </trkpt>
      <trkpt lat="44.72774" lon="3.85629">
        <ele>907.79998779297</ele>
        <time>2023-05-08T10:57:35Z</time>
      </trkpt>
      <trkpt lat="44.72741" lon="3.85623">
        <ele>906.59997558594</ele>
        <time>2023-05-08T10:57:41Z</time>
      </trkpt>
      <trkpt lat="44.72703" lon="3.85619">
        <ele>905.59997558594</ele>
        <time>2023-05-08T10:57:48Z</time>
      </trkpt>
      <trkpt lat="44.72697" lon="3.85618">
        <ele>905.40002441406</ele>
        <time>2023-05-08T10:57:49Z</time>
      </trkpt>
      <trkpt lat="44.72669" lon="3.85604">
        <ele>904.59997558594</ele>
        <time>2023-05-08T10:57:54Z</time>
      </trkpt>
      <trkpt lat="44.72665" lon="3.85599">
        <ele>904.20001220703</ele>
        <time>2023-05-08T10:57:55Z</time>
      </trkpt>
      <trkpt lat="44.7264" lon="3.85568">
        <ele>903.59997558594</ele>
        <time>2023-05-08T10:58:01Z</time>
      </trkpt>
      <trkpt lat="44.72635" lon="3.85555">
        <ele>903.40002441406</ele>
        <time>2023-05-08T10:58:03Z</time>
      </trkpt>
      <trkpt lat="44.7263" lon="3.85544">
        <ele>903.59997558594</ele>
        <time>2023-05-08T10:58:05Z</time>
      </trkpt>
      <trkpt lat="44.72625" lon="3.85527">
        <ele>903.59997558594</ele>
        <time>2023-05-08T10:58:08Z</time>
      </trkpt>
      <trkpt lat="44.72621" lon="3.85515">
        <ele>903.20001220703</ele>
        <time>2023-05-08T10:58:10Z</time>
      </trkpt>
      <trkpt lat="44.726" lon="3.85485">
        <ele>902.40002441406</ele>
        <time>2023-05-08T10:58:16Z</time>
      </trkpt>
      <trkpt lat="44.72584" lon="3.85468">
        <ele>901.79998779297</ele>
        <time>2023-05-08T10:58:20Z</time>
      </trkpt>
      <trkpt lat="44.72579" lon="3.85467">
        <ele>901.79998779297</ele>
        <time>2023-05-08T10:58:21Z</time>
      </trkpt>
      <trkpt lat="44.72575" lon="3.85468">
        <ele>902</ele>
        <time>2023-05-08T10:58:22Z</time>
      </trkpt>
      <trkpt lat="44.72571" lon="3.85478">
        <ele>902</ele>
        <time>2023-05-08T10:58:24Z</time>
      </trkpt>
      <trkpt lat="44.72553" lon="3.85499">
        <ele>902.59997558594</ele>
        <time>2023-05-08T10:58:29Z</time>
      </trkpt>
      <trkpt lat="44.72547" lon="3.85497">
        <ele>903.20001220703</ele>
        <time>2023-05-08T10:58:31Z</time>
      </trkpt>
      <trkpt lat="44.72541" lon="3.85495">
        <ele>903.40002441406</ele>
        <time>2023-05-08T10:58:32Z</time>
      </trkpt>
      <trkpt lat="44.72525" lon="3.85485">
        <ele>903.40002441406</ele>
        <time>2023-05-08T10:58:37Z</time>
      </trkpt>
      <trkpt lat="44.72504" lon="3.85477">
        <ele>903</ele>
        <time>2023-05-08T10:58:42Z</time>
      </trkpt>
      <trkpt lat="44.72496" lon="3.85472">
        <ele>902.79998779297</ele>
        <time>2023-05-08T10:58:44Z</time>
      </trkpt>
      <trkpt lat="44.72481" lon="3.85456">
        <ele>902.79998779297</ele>
        <time>2023-05-08T10:58:48Z</time>
      </trkpt>
      <trkpt lat="44.72472" lon="3.85442">
        <ele>903</ele>
        <time>2023-05-08T10:58:51Z</time>
      </trkpt>
      <trkpt lat="44.72469" lon="3.85431">
        <ele>903</ele>
        <time>2023-05-08T10:58:53Z</time>
      </trkpt>
      <trkpt lat="44.7246" lon="3.85414">
        <ele>903.20001220703</ele>
        <time>2023-05-08T10:58:57Z</time>
      </trkpt>
      <trkpt lat="44.72451" lon="3.85401">
        <ele>903.40002441406</ele>
        <time>2023-05-08T10:59:00Z</time>
      </trkpt>
      <trkpt lat="44.72446" lon="3.85393">
        <ele>903.40002441406</ele>
        <time>2023-05-08T10:59:02Z</time>
      </trkpt>
      <trkpt lat="44.72442" lon="3.8539">
        <ele>903.40002441406</ele>
        <time>2023-05-08T10:59:03Z</time>
      </trkpt>
      <trkpt lat="44.72438" lon="3.85389">
        <ele>903.40002441406</ele>
        <time>2023-05-08T10:59:04Z</time>
      </trkpt>
      <trkpt lat="44.72427" lon="3.8539">
        <ele>903.40002441406</ele>
        <time>2023-05-08T10:59:06Z</time>
      </trkpt>
      <trkpt lat="44.72423" lon="3.85393">
        <ele>903.40002441406</ele>
        <time>2023-05-08T10:59:07Z</time>
      </trkpt>
      <trkpt lat="44.72418" lon="3.85398">
        <ele>903.59997558594</ele>
        <time>2023-05-08T10:59:08Z</time>
      </trkpt>
      <trkpt lat="44.7241" lon="3.8541">
        <ele>904.20001220703</ele>
        <time>2023-05-08T10:59:10Z</time>
      </trkpt>
      <trkpt lat="44.72399" lon="3.85429">
        <ele>904.79998779297</ele>
        <time>2023-05-08T10:59:13Z</time>
      </trkpt>
      <trkpt lat="44.7239" lon="3.85434">
        <ele>904.79998779297</ele>
        <time>2023-05-08T10:59:15Z</time>
      </trkpt>
      <trkpt lat="44.72382" lon="3.85427">
        <ele>904.79998779297</ele>
        <time>2023-05-08T10:59:17Z</time>
      </trkpt>
      <trkpt lat="44.72378" lon="3.85422">
        <ele>905</ele>
        <time>2023-05-08T10:59:18Z</time>
      </trkpt>
      <trkpt lat="44.72371" lon="3.85414">
        <ele>905</ele>
        <time>2023-05-08T10:59:20Z</time>
      </trkpt>
      <trkpt lat="44.72363" lon="3.8541">
        <ele>905</ele>
        <time>2023-05-08T10:59:22Z</time>
      </trkpt>
      <trkpt lat="44.72355" lon="3.85414">
        <ele>905</ele>
        <time>2023-05-08T10:59:24Z</time>
      </trkpt>
      <trkpt lat="44.72348" lon="3.8542">
        <ele>905.20001220703</ele>
        <time>2023-05-08T10:59:26Z</time>
      </trkpt>
      <trkpt lat="44.72328" lon="3.85451">
        <ele>905.59997558594</ele>
        <time>2023-05-08T10:59:34Z</time>
      </trkpt>
      <trkpt lat="44.72325" lon="3.85454">
        <ele>905.59997558594</ele>
        <time>2023-05-08T10:59:35Z</time>
      </trkpt>
      <trkpt lat="44.72318" lon="3.85455">
        <ele>905.79998779297</ele>
        <time>2023-05-08T10:59:37Z</time>
      </trkpt>
      <trkpt lat="44.72307" lon="3.85444">
        <ele>906.20001220703</ele>
        <time>2023-05-08T10:59:41Z</time>
      </trkpt>
      <trkpt lat="44.72303" lon="3.85432">
        <ele>906.59997558594</ele>
        <time>2023-05-08T10:59:44Z</time>
      </trkpt>
      <trkpt lat="44.72302" lon="3.85428">
        <ele>906.59997558594</ele>
        <time>2023-05-08T10:59:45Z</time>
      </trkpt>
      <trkpt lat="44.72301" lon="3.85423">
        <ele>906.59997558594</ele>
        <time>2023-05-08T10:59:46Z</time>
      </trkpt>
      <trkpt lat="44.72296" lon="3.85418">
        <ele>906.59997558594</ele>
        <time>2023-05-08T10:59:48Z</time>
      </trkpt>
      <trkpt lat="44.72286" lon="3.85415">
        <ele>906.79998779297</ele>
        <time>2023-05-08T10:59:52Z</time>
      </trkpt>
      <trkpt lat="44.72282" lon="3.85415">
        <ele>907</ele>
        <time>2023-05-08T10:59:54Z</time>
      </trkpt>
      <trkpt lat="44.7228" lon="3.85409">
        <ele>907</ele>
        <time>2023-05-08T10:59:57Z</time>
      </trkpt>
      <trkpt lat="44.72278" lon="3.85407">
        <ele>907.20001220703</ele>
        <time>2023-05-08T11:00:00Z</time>
      </trkpt>
      <trkpt lat="44.72273" lon="3.8541">
        <ele>907.59997558594</ele>
        <time>2023-05-08T11:00:03Z</time>
      </trkpt>
      <trkpt lat="44.72274" lon="3.85414">
        <ele>907.59997558594</ele>
        <time>2023-05-08T11:00:04Z</time>
      </trkpt>
      <trkpt lat="44.72271" lon="3.85431">
        <ele>907.40002441406</ele>
        <time>2023-05-08T11:00:08Z</time>
      </trkpt>
      <trkpt lat="44.72267" lon="3.8546">
        <ele>907</ele>
        <time>2023-05-08T11:00:14Z</time>
      </trkpt>
      <trkpt lat="44.72267" lon="3.85481">
        <ele>907.20001220703</ele>
        <time>2023-05-08T11:00:18Z</time>
      </trkpt>
      <trkpt lat="44.72267" lon="3.85486">
        <ele>907.40002441406</ele>
        <time>2023-05-08T11:00:19Z</time>
      </trkpt>
      <trkpt lat="44.72268" lon="3.85506">
        <ele>907.40002441406</ele>
        <time>2023-05-08T11:00:22Z</time>
      </trkpt>
      <trkpt lat="44.72275" lon="3.85518">
        <ele>907.59997558594</ele>
        <time>2023-05-08T11:00:24Z</time>
      </trkpt>
      <trkpt lat="44.72282" lon="3.85524">
        <ele>907.79998779297</ele>
        <time>2023-05-08T11:00:26Z</time>
      </trkpt>
      <trkpt lat="44.7229" lon="3.85528">
        <ele>907.79998779297</ele>
        <time>2023-05-08T11:00:28Z</time>
      </trkpt>
      <trkpt lat="44.72308" lon="3.8553">
        <ele>908.59997558594</ele>
        <time>2023-05-08T11:00:33Z</time>
      </trkpt>
      <trkpt lat="44.72314" lon="3.85533">
        <ele>909</ele>
        <time>2023-05-08T11:00:35Z</time>
      </trkpt>
      <trkpt lat="44.72318" lon="3.85538">
        <ele>909.40002441406</ele>
        <time>2023-05-08T11:00:37Z</time>
      </trkpt>
      <trkpt lat="44.72313" lon="3.85538">
        <ele>909.79998779297</ele>
        <time>2023-05-08T11:00:40Z</time>
      </trkpt>
      <trkpt lat="44.72304" lon="3.85533">
        <ele>910</ele>
        <time>2023-05-08T11:00:43Z</time>
      </trkpt>
      <trkpt lat="44.72298" lon="3.85531">
        <ele>910</ele>
        <time>2023-05-08T11:00:45Z</time>
      </trkpt>
      <trkpt lat="44.72281" lon="3.8552">
        <ele>910</ele>
        <time>2023-05-08T11:00:50Z</time>
      </trkpt>
      <trkpt lat="44.72278" lon="3.85508">
        <ele>910</ele>
        <time>2023-05-08T11:00:52Z</time>
      </trkpt>
      <trkpt lat="44.72278" lon="3.85501">
        <ele>910</ele>
        <time>2023-05-08T11:00:53Z</time>
      </trkpt>
      <trkpt lat="44.72277" lon="3.85487">
        <ele>910</ele>
        <time>2023-05-08T11:00:55Z</time>
      </trkpt>
      <trkpt lat="44.72277" lon="3.85463">
        <ele>910</ele>
        <time>2023-05-08T11:00:58Z</time>
      </trkpt>
      <trkpt lat="44.72278" lon="3.85446">
        <ele>909.79998779297</ele>
        <time>2023-05-08T11:01:00Z</time>
      </trkpt>
      <trkpt lat="44.72277" lon="3.85429">
        <ele>909.79998779297</ele>
        <time>2023-05-08T11:01:02Z</time>
      </trkpt>
      <trkpt lat="44.72279" lon="3.85422">
        <ele>909.79998779297</ele>
        <time>2023-05-08T11:01:03Z</time>
      </trkpt>
      <trkpt lat="44.72281" lon="3.85413">
        <ele>909.79998779297</ele>
        <time>2023-05-08T11:01:05Z</time>
      </trkpt>
      <trkpt lat="44.7228" lon="3.85408">
        <ele>910</ele>
        <time>2023-05-08T11:01:07Z</time>
      </trkpt>
    </trkseg>
  </trk>
</gpx>